<?xml version="1.0" encoding="UTF-8" standalone="no" ?>
<gpx xmlns="http://www.topografix.com/GPX/1/1" xmlns:xsi="http://www.w3.org/2001/XMLSchema-instance" xsi:schemaLocation="http://www.topografix.com/GPX/1/1 http://www.topografix.com/GPX/1/1/gpx.xsd" version="1.1" creator="VisuGPX - https://www.visugpx.com">
  <metadata>
    <name>GTMC J2: de Laschamps au lac Chambon</name>
    <desc><![CDATA[Grande Traversée du Massif Central
Jour 2: de Laschamps au lac Chambon.]]></desc>
  </metadata>
  <trk>
    <name><![CDATA[2021-07-20 09:18]]></name>
    <desc><![CDATA[<p>Heure de départ: 07/20/2021 09:21<br/>Heure d'arrivée: 07/20/2021 17:56<br/>Distance: 43,9 km (08:34)<br/>Temps déplacement: 04:19<br/>Vitesse moyenne: 5,12 km/h<br/>Vitesse moyenne mouv.: 10,16 km/h<br/>Vitesse Max.: 39,75 km/h<br/>Altitude minimale: 851 m<br/>Altitude maximale: 1262 m<br/>Vitesse de montée: 209,1 m/h<br/>Vitesse de descente: -430,4 m/h<br/>Gain d'altitude: 1169 m<br/>Perte d'altitude: -1266 m<br/>Temps de montée: 05:35<br/>Temps de descente: 02:56<br/></p><hr align="center" width="480" style="height: 2px; width: 517px"/>]]></desc>
    <trkseg>
      <trkpt lat="45.74002" lon="2.96391">
        <ele>983.2</ele>
        <time>2021-07-20T07:21:21Z</time>
      </trkpt>
      <trkpt lat="45.74004" lon="2.96398">
        <ele>982.9</ele>
        <time>2021-07-20T07:21:57Z</time>
      </trkpt>
      <trkpt lat="45.74007" lon="2.96404">
        <ele>982.7</ele>
        <time>2021-07-20T07:22:03Z</time>
      </trkpt>
      <trkpt lat="45.74006" lon="2.96411">
        <ele>982.3</ele>
        <time>2021-07-20T07:22:29Z</time>
      </trkpt>
      <trkpt lat="45.74004" lon="2.96418">
        <ele>982</ele>
        <time>2021-07-20T07:25:41Z</time>
      </trkpt>
      <trkpt lat="45.74004" lon="2.96425">
        <ele>982</ele>
        <time>2021-07-20T07:25:43Z</time>
      </trkpt>
      <trkpt lat="45.74006" lon="2.96432">
        <ele>982</ele>
        <time>2021-07-20T07:25:45Z</time>
      </trkpt>
      <trkpt lat="45.7401" lon="2.9644">
        <ele>982.1</ele>
        <time>2021-07-20T07:25:47Z</time>
      </trkpt>
      <trkpt lat="45.74018" lon="2.96444">
        <ele>982.1</ele>
        <time>2021-07-20T07:25:49Z</time>
      </trkpt>
      <trkpt lat="45.74025" lon="2.96449">
        <ele>982.1</ele>
        <time>2021-07-20T07:25:51Z</time>
      </trkpt>
      <trkpt lat="45.74033" lon="2.96455">
        <ele>982</ele>
        <time>2021-07-20T07:25:53Z</time>
      </trkpt>
      <trkpt lat="45.7404" lon="2.96458">
        <ele>982</ele>
        <time>2021-07-20T07:25:55Z</time>
      </trkpt>
      <trkpt lat="45.74046" lon="2.96462">
        <ele>982</ele>
        <time>2021-07-20T07:25:57Z</time>
      </trkpt>
      <trkpt lat="45.74051" lon="2.96466">
        <ele>981.9</ele>
        <time>2021-07-20T07:25:59Z</time>
      </trkpt>
      <trkpt lat="45.74056" lon="2.96468">
        <ele>981.8</ele>
        <time>2021-07-20T07:26:01Z</time>
      </trkpt>
      <trkpt lat="45.74061" lon="2.96471">
        <ele>981.8</ele>
        <time>2021-07-20T07:26:03Z</time>
      </trkpt>
      <trkpt lat="45.74065" lon="2.96473">
        <ele>981.7</ele>
        <time>2021-07-20T07:26:05Z</time>
      </trkpt>
      <trkpt lat="45.74071" lon="2.96476">
        <ele>981.6</ele>
        <time>2021-07-20T07:26:07Z</time>
      </trkpt>
      <trkpt lat="45.74076" lon="2.9648">
        <ele>981.5</ele>
        <time>2021-07-20T07:26:09Z</time>
      </trkpt>
      <trkpt lat="45.74081" lon="2.96483">
        <ele>981.4</ele>
        <time>2021-07-20T07:26:11Z</time>
      </trkpt>
      <trkpt lat="45.74088" lon="2.96489">
        <ele>981.5</ele>
        <time>2021-07-20T07:26:15Z</time>
      </trkpt>
      <trkpt lat="45.7409" lon="2.96497">
        <ele>981.4</ele>
        <time>2021-07-20T07:26:19Z</time>
      </trkpt>
      <trkpt lat="45.74085" lon="2.96508">
        <ele>980.8</ele>
        <time>2021-07-20T07:26:23Z</time>
      </trkpt>
      <trkpt lat="45.74081" lon="2.96512">
        <ele>980.6</ele>
        <time>2021-07-20T07:26:27Z</time>
      </trkpt>
      <trkpt lat="45.74077" lon="2.96518">
        <ele>980.5</ele>
        <time>2021-07-20T07:26:43Z</time>
      </trkpt>
      <trkpt lat="45.74072" lon="2.96522">
        <ele>980.4</ele>
        <time>2021-07-20T07:26:45Z</time>
      </trkpt>
      <trkpt lat="45.74068" lon="2.96526">
        <ele>980.4</ele>
        <time>2021-07-20T07:26:47Z</time>
      </trkpt>
      <trkpt lat="45.74064" lon="2.96534">
        <ele>980.2</ele>
        <time>2021-07-20T07:26:49Z</time>
      </trkpt>
      <trkpt lat="45.7406" lon="2.96543">
        <ele>980</ele>
        <time>2021-07-20T07:26:51Z</time>
      </trkpt>
      <trkpt lat="45.74057" lon="2.96552">
        <ele>979.8</ele>
        <time>2021-07-20T07:26:53Z</time>
      </trkpt>
      <trkpt lat="45.74052" lon="2.96562">
        <ele>979.7</ele>
        <time>2021-07-20T07:26:55Z</time>
      </trkpt>
      <trkpt lat="45.74049" lon="2.96571">
        <ele>979.6</ele>
        <time>2021-07-20T07:26:57Z</time>
      </trkpt>
      <trkpt lat="45.74045" lon="2.96581">
        <ele>979.5</ele>
        <time>2021-07-20T07:26:59Z</time>
      </trkpt>
      <trkpt lat="45.74041" lon="2.9659">
        <ele>979.4</ele>
        <time>2021-07-20T07:27:01Z</time>
      </trkpt>
      <trkpt lat="45.74037" lon="2.96598">
        <ele>979.4</ele>
        <time>2021-07-20T07:27:03Z</time>
      </trkpt>
      <trkpt lat="45.74034" lon="2.96606">
        <ele>979.3</ele>
        <time>2021-07-20T07:27:05Z</time>
      </trkpt>
      <trkpt lat="45.74031" lon="2.96612">
        <ele>979.4</ele>
        <time>2021-07-20T07:27:07Z</time>
      </trkpt>
      <trkpt lat="45.74028" lon="2.96618">
        <ele>979.4</ele>
        <time>2021-07-20T07:27:09Z</time>
      </trkpt>
      <trkpt lat="45.74024" lon="2.96626">
        <ele>979.5</ele>
        <time>2021-07-20T07:27:13Z</time>
      </trkpt>
      <trkpt lat="45.74018" lon="2.96623">
        <ele>979.9</ele>
        <time>2021-07-20T07:27:17Z</time>
      </trkpt>
      <trkpt lat="45.7401" lon="2.9662">
        <ele>980.4</ele>
        <time>2021-07-20T07:27:21Z</time>
      </trkpt>
      <trkpt lat="45.74002" lon="2.96619">
        <ele>980.9</ele>
        <time>2021-07-20T07:27:25Z</time>
      </trkpt>
      <trkpt lat="45.73995" lon="2.96613">
        <ele>981.5</ele>
        <time>2021-07-20T07:27:29Z</time>
      </trkpt>
      <trkpt lat="45.73988" lon="2.96609">
        <ele>982.1</ele>
        <time>2021-07-20T07:27:33Z</time>
      </trkpt>
      <trkpt lat="45.73982" lon="2.9661">
        <ele>982.7</ele>
        <time>2021-07-20T07:27:37Z</time>
      </trkpt>
      <trkpt lat="45.73977" lon="2.96609">
        <ele>983.3</ele>
        <time>2021-07-20T07:27:41Z</time>
      </trkpt>
      <trkpt lat="45.7397" lon="2.96606">
        <ele>983.9</ele>
        <time>2021-07-20T07:27:47Z</time>
      </trkpt>
      <trkpt lat="45.73967" lon="2.96601">
        <ele>984.3</ele>
        <time>2021-07-20T07:27:51Z</time>
      </trkpt>
      <trkpt lat="45.73961" lon="2.96599">
        <ele>984.9</ele>
        <time>2021-07-20T07:27:55Z</time>
      </trkpt>
      <trkpt lat="45.73956" lon="2.96596">
        <ele>985.5</ele>
        <time>2021-07-20T07:27:59Z</time>
      </trkpt>
      <trkpt lat="45.7395" lon="2.96595">
        <ele>986.2</ele>
        <time>2021-07-20T07:28:03Z</time>
      </trkpt>
      <trkpt lat="45.73944" lon="2.96592">
        <ele>986.8</ele>
        <time>2021-07-20T07:28:09Z</time>
      </trkpt>
      <trkpt lat="45.73938" lon="2.9659">
        <ele>987.5</ele>
        <time>2021-07-20T07:28:15Z</time>
      </trkpt>
      <trkpt lat="45.73933" lon="2.96591">
        <ele>988</ele>
        <time>2021-07-20T07:28:19Z</time>
      </trkpt>
      <trkpt lat="45.73929" lon="2.96592">
        <ele>988.5</ele>
        <time>2021-07-20T07:28:23Z</time>
      </trkpt>
      <trkpt lat="45.73923" lon="2.96594">
        <ele>989</ele>
        <time>2021-07-20T07:28:27Z</time>
      </trkpt>
      <trkpt lat="45.73918" lon="2.96598">
        <ele>989.3</ele>
        <time>2021-07-20T07:28:31Z</time>
      </trkpt>
      <trkpt lat="45.73913" lon="2.96602">
        <ele>989.4</ele>
        <time>2021-07-20T07:28:35Z</time>
      </trkpt>
      <trkpt lat="45.73907" lon="2.96601">
        <ele>989.6</ele>
        <time>2021-07-20T07:28:41Z</time>
      </trkpt>
      <trkpt lat="45.73902" lon="2.966">
        <ele>989.7</ele>
        <time>2021-07-20T07:28:45Z</time>
      </trkpt>
      <trkpt lat="45.73895" lon="2.96598">
        <ele>989.9</ele>
        <time>2021-07-20T07:28:49Z</time>
      </trkpt>
      <trkpt lat="45.73887" lon="2.96599">
        <ele>990.1</ele>
        <time>2021-07-20T07:28:53Z</time>
      </trkpt>
      <trkpt lat="45.7388" lon="2.96598">
        <ele>990.3</ele>
        <time>2021-07-20T07:28:57Z</time>
      </trkpt>
      <trkpt lat="45.73871" lon="2.96596">
        <ele>990.6</ele>
        <time>2021-07-20T07:29:01Z</time>
      </trkpt>
      <trkpt lat="45.73867" lon="2.96593">
        <ele>990.8</ele>
        <time>2021-07-20T07:29:03Z</time>
      </trkpt>
      <trkpt lat="45.73862" lon="2.96591">
        <ele>991</ele>
        <time>2021-07-20T07:29:05Z</time>
      </trkpt>
      <trkpt lat="45.73857" lon="2.96589">
        <ele>991.2</ele>
        <time>2021-07-20T07:29:07Z</time>
      </trkpt>
      <trkpt lat="45.73853" lon="2.96588">
        <ele>991.3</ele>
        <time>2021-07-20T07:29:09Z</time>
      </trkpt>
      <trkpt lat="45.73848" lon="2.96586">
        <ele>991.5</ele>
        <time>2021-07-20T07:29:11Z</time>
      </trkpt>
      <trkpt lat="45.73843" lon="2.96585">
        <ele>991.7</ele>
        <time>2021-07-20T07:29:13Z</time>
      </trkpt>
      <trkpt lat="45.73836" lon="2.96579">
        <ele>991.9</ele>
        <time>2021-07-20T07:29:17Z</time>
      </trkpt>
      <trkpt lat="45.73828" lon="2.96573">
        <ele>992.1</ele>
        <time>2021-07-20T07:29:21Z</time>
      </trkpt>
      <trkpt lat="45.73823" lon="2.9657">
        <ele>992.3</ele>
        <time>2021-07-20T07:29:23Z</time>
      </trkpt>
      <trkpt lat="45.73819" lon="2.96566">
        <ele>992.4</ele>
        <time>2021-07-20T07:29:25Z</time>
      </trkpt>
      <trkpt lat="45.73814" lon="2.96564">
        <ele>992.5</ele>
        <time>2021-07-20T07:29:27Z</time>
      </trkpt>
      <trkpt lat="45.73808" lon="2.96561">
        <ele>992.7</ele>
        <time>2021-07-20T07:29:29Z</time>
      </trkpt>
      <trkpt lat="45.73804" lon="2.96557">
        <ele>992.8</ele>
        <time>2021-07-20T07:29:31Z</time>
      </trkpt>
      <trkpt lat="45.738" lon="2.96553">
        <ele>993</ele>
        <time>2021-07-20T07:29:33Z</time>
      </trkpt>
      <trkpt lat="45.73795" lon="2.96549">
        <ele>993.1</ele>
        <time>2021-07-20T07:29:35Z</time>
      </trkpt>
      <trkpt lat="45.73787" lon="2.96545">
        <ele>993.4</ele>
        <time>2021-07-20T07:29:39Z</time>
      </trkpt>
      <trkpt lat="45.73779" lon="2.96538">
        <ele>993.7</ele>
        <time>2021-07-20T07:29:43Z</time>
      </trkpt>
      <trkpt lat="45.73773" lon="2.96534">
        <ele>993.9</ele>
        <time>2021-07-20T07:29:45Z</time>
      </trkpt>
      <trkpt lat="45.73768" lon="2.9653">
        <ele>994.1</ele>
        <time>2021-07-20T07:29:47Z</time>
      </trkpt>
      <trkpt lat="45.73763" lon="2.96526">
        <ele>994.3</ele>
        <time>2021-07-20T07:29:49Z</time>
      </trkpt>
      <trkpt lat="45.73758" lon="2.96521">
        <ele>994.5</ele>
        <time>2021-07-20T07:29:51Z</time>
      </trkpt>
      <trkpt lat="45.73753" lon="2.96518">
        <ele>994.7</ele>
        <time>2021-07-20T07:29:53Z</time>
      </trkpt>
      <trkpt lat="45.73748" lon="2.96515">
        <ele>994.8</ele>
        <time>2021-07-20T07:29:55Z</time>
      </trkpt>
      <trkpt lat="45.73743" lon="2.96511">
        <ele>994.9</ele>
        <time>2021-07-20T07:29:57Z</time>
      </trkpt>
      <trkpt lat="45.73739" lon="2.96508">
        <ele>994.9</ele>
        <time>2021-07-20T07:29:59Z</time>
      </trkpt>
      <trkpt lat="45.73733" lon="2.96501">
        <ele>995</ele>
        <time>2021-07-20T07:30:03Z</time>
      </trkpt>
      <trkpt lat="45.73728" lon="2.965">
        <ele>995</ele>
        <time>2021-07-20T07:30:05Z</time>
      </trkpt>
      <trkpt lat="45.73723" lon="2.96498">
        <ele>995</ele>
        <time>2021-07-20T07:30:07Z</time>
      </trkpt>
      <trkpt lat="45.73716" lon="2.96493">
        <ele>995</ele>
        <time>2021-07-20T07:30:11Z</time>
      </trkpt>
      <trkpt lat="45.73709" lon="2.96486">
        <ele>995.1</ele>
        <time>2021-07-20T07:30:15Z</time>
      </trkpt>
      <trkpt lat="45.73704" lon="2.96483">
        <ele>995.1</ele>
        <time>2021-07-20T07:30:17Z</time>
      </trkpt>
      <trkpt lat="45.73699" lon="2.96479">
        <ele>995.2</ele>
        <time>2021-07-20T07:30:19Z</time>
      </trkpt>
      <trkpt lat="45.73691" lon="2.96476">
        <ele>995.3</ele>
        <time>2021-07-20T07:30:23Z</time>
      </trkpt>
      <trkpt lat="45.73686" lon="2.96473">
        <ele>995.4</ele>
        <time>2021-07-20T07:30:25Z</time>
      </trkpt>
      <trkpt lat="45.73683" lon="2.96469">
        <ele>995.5</ele>
        <time>2021-07-20T07:30:27Z</time>
      </trkpt>
      <trkpt lat="45.73677" lon="2.96467">
        <ele>995.6</ele>
        <time>2021-07-20T07:30:29Z</time>
      </trkpt>
      <trkpt lat="45.73672" lon="2.96465">
        <ele>995.8</ele>
        <time>2021-07-20T07:30:31Z</time>
      </trkpt>
      <trkpt lat="45.73668" lon="2.96462">
        <ele>995.9</ele>
        <time>2021-07-20T07:30:33Z</time>
      </trkpt>
      <trkpt lat="45.73662" lon="2.9646">
        <ele>996</ele>
        <time>2021-07-20T07:30:35Z</time>
      </trkpt>
      <trkpt lat="45.73658" lon="2.96457">
        <ele>996.2</ele>
        <time>2021-07-20T07:30:37Z</time>
      </trkpt>
      <trkpt lat="45.73653" lon="2.96454">
        <ele>996.4</ele>
        <time>2021-07-20T07:30:39Z</time>
      </trkpt>
      <trkpt lat="45.73647" lon="2.96451">
        <ele>996.6</ele>
        <time>2021-07-20T07:30:41Z</time>
      </trkpt>
      <trkpt lat="45.73642" lon="2.96447">
        <ele>996.7</ele>
        <time>2021-07-20T07:30:43Z</time>
      </trkpt>
      <trkpt lat="45.73638" lon="2.96444">
        <ele>996.9</ele>
        <time>2021-07-20T07:30:45Z</time>
      </trkpt>
      <trkpt lat="45.73633" lon="2.96441">
        <ele>997.1</ele>
        <time>2021-07-20T07:30:47Z</time>
      </trkpt>
      <trkpt lat="45.73628" lon="2.96437">
        <ele>997.3</ele>
        <time>2021-07-20T07:30:49Z</time>
      </trkpt>
      <trkpt lat="45.73622" lon="2.96434">
        <ele>997.5</ele>
        <time>2021-07-20T07:30:51Z</time>
      </trkpt>
      <trkpt lat="45.73617" lon="2.96431">
        <ele>997.8</ele>
        <time>2021-07-20T07:30:53Z</time>
      </trkpt>
      <trkpt lat="45.73612" lon="2.96427">
        <ele>998</ele>
        <time>2021-07-20T07:30:55Z</time>
      </trkpt>
      <trkpt lat="45.73607" lon="2.96423">
        <ele>998.2</ele>
        <time>2021-07-20T07:30:57Z</time>
      </trkpt>
      <trkpt lat="45.73601" lon="2.9642">
        <ele>998.5</ele>
        <time>2021-07-20T07:30:59Z</time>
      </trkpt>
      <trkpt lat="45.73596" lon="2.96417">
        <ele>998.7</ele>
        <time>2021-07-20T07:31:01Z</time>
      </trkpt>
      <trkpt lat="45.73591" lon="2.96414">
        <ele>999.1</ele>
        <time>2021-07-20T07:31:03Z</time>
      </trkpt>
      <trkpt lat="45.73586" lon="2.96411">
        <ele>999.4</ele>
        <time>2021-07-20T07:31:05Z</time>
      </trkpt>
      <trkpt lat="45.73581" lon="2.96407">
        <ele>999.8</ele>
        <time>2021-07-20T07:31:07Z</time>
      </trkpt>
      <trkpt lat="45.73576" lon="2.96403">
        <ele>999.9</ele>
        <time>2021-07-20T07:31:09Z</time>
      </trkpt>
      <trkpt lat="45.73571" lon="2.96401">
        <ele>1000</ele>
        <time>2021-07-20T07:31:11Z</time>
      </trkpt>
      <trkpt lat="45.73566" lon="2.96398">
        <ele>1000.1</ele>
        <time>2021-07-20T07:31:13Z</time>
      </trkpt>
      <trkpt lat="45.73561" lon="2.96395">
        <ele>1000.3</ele>
        <time>2021-07-20T07:31:15Z</time>
      </trkpt>
      <trkpt lat="45.73556" lon="2.96391">
        <ele>1000.4</ele>
        <time>2021-07-20T07:31:17Z</time>
      </trkpt>
      <trkpt lat="45.73551" lon="2.96388">
        <ele>1000.5</ele>
        <time>2021-07-20T07:31:19Z</time>
      </trkpt>
      <trkpt lat="45.73545" lon="2.96385">
        <ele>1000.6</ele>
        <time>2021-07-20T07:31:21Z</time>
      </trkpt>
      <trkpt lat="45.7354" lon="2.96383">
        <ele>1000.6</ele>
        <time>2021-07-20T07:31:23Z</time>
      </trkpt>
      <trkpt lat="45.73535" lon="2.96379">
        <ele>1000.7</ele>
        <time>2021-07-20T07:31:25Z</time>
      </trkpt>
      <trkpt lat="45.7353" lon="2.96377">
        <ele>1000.7</ele>
        <time>2021-07-20T07:31:27Z</time>
      </trkpt>
      <trkpt lat="45.73525" lon="2.96375">
        <ele>1000.7</ele>
        <time>2021-07-20T07:31:29Z</time>
      </trkpt>
      <trkpt lat="45.7352" lon="2.96373">
        <ele>1000.7</ele>
        <time>2021-07-20T07:31:31Z</time>
      </trkpt>
      <trkpt lat="45.73514" lon="2.9637">
        <ele>1000.8</ele>
        <time>2021-07-20T07:31:33Z</time>
      </trkpt>
      <trkpt lat="45.73509" lon="2.96368">
        <ele>1000.8</ele>
        <time>2021-07-20T07:31:35Z</time>
      </trkpt>
      <trkpt lat="45.73502" lon="2.96366">
        <ele>1000.7</ele>
        <time>2021-07-20T07:31:37Z</time>
      </trkpt>
      <trkpt lat="45.73497" lon="2.96363">
        <ele>1000.8</ele>
        <time>2021-07-20T07:31:39Z</time>
      </trkpt>
      <trkpt lat="45.73492" lon="2.96361">
        <ele>1000.8</ele>
        <time>2021-07-20T07:31:41Z</time>
      </trkpt>
      <trkpt lat="45.73487" lon="2.96363">
        <ele>1000.6</ele>
        <time>2021-07-20T07:31:43Z</time>
      </trkpt>
      <trkpt lat="45.73481" lon="2.9636">
        <ele>1000.7</ele>
        <time>2021-07-20T07:31:45Z</time>
      </trkpt>
      <trkpt lat="45.73475" lon="2.96359">
        <ele>1000.7</ele>
        <time>2021-07-20T07:31:47Z</time>
      </trkpt>
      <trkpt lat="45.73469" lon="2.96357">
        <ele>1000.6</ele>
        <time>2021-07-20T07:31:49Z</time>
      </trkpt>
      <trkpt lat="45.73463" lon="2.96355">
        <ele>1000.6</ele>
        <time>2021-07-20T07:31:51Z</time>
      </trkpt>
      <trkpt lat="45.73458" lon="2.96352">
        <ele>1000.6</ele>
        <time>2021-07-20T07:31:53Z</time>
      </trkpt>
      <trkpt lat="45.73452" lon="2.96349">
        <ele>1000.6</ele>
        <time>2021-07-20T07:31:55Z</time>
      </trkpt>
      <trkpt lat="45.73447" lon="2.96345">
        <ele>1000.6</ele>
        <time>2021-07-20T07:31:57Z</time>
      </trkpt>
      <trkpt lat="45.73444" lon="2.9634">
        <ele>1000.7</ele>
        <time>2021-07-20T07:31:59Z</time>
      </trkpt>
      <trkpt lat="45.73438" lon="2.96338">
        <ele>1000.6</ele>
        <time>2021-07-20T07:32:01Z</time>
      </trkpt>
      <trkpt lat="45.73431" lon="2.96337">
        <ele>1000.4</ele>
        <time>2021-07-20T07:32:03Z</time>
      </trkpt>
      <trkpt lat="45.73424" lon="2.96336">
        <ele>1000.2</ele>
        <time>2021-07-20T07:32:05Z</time>
      </trkpt>
      <trkpt lat="45.73418" lon="2.96334">
        <ele>1000</ele>
        <time>2021-07-20T07:32:07Z</time>
      </trkpt>
      <trkpt lat="45.73412" lon="2.96333">
        <ele>1000.2</ele>
        <time>2021-07-20T07:32:09Z</time>
      </trkpt>
      <trkpt lat="45.73407" lon="2.96331">
        <ele>1000.7</ele>
        <time>2021-07-20T07:32:11Z</time>
      </trkpt>
      <trkpt lat="45.73403" lon="2.96328">
        <ele>1001.2</ele>
        <time>2021-07-20T07:32:13Z</time>
      </trkpt>
      <trkpt lat="45.73397" lon="2.96326">
        <ele>1001.7</ele>
        <time>2021-07-20T07:32:15Z</time>
      </trkpt>
      <trkpt lat="45.73391" lon="2.96324">
        <ele>1002</ele>
        <time>2021-07-20T07:32:17Z</time>
      </trkpt>
      <trkpt lat="45.73386" lon="2.9632">
        <ele>1002.6</ele>
        <time>2021-07-20T07:32:19Z</time>
      </trkpt>
      <trkpt lat="45.73381" lon="2.96316">
        <ele>1003.2</ele>
        <time>2021-07-20T07:32:21Z</time>
      </trkpt>
      <trkpt lat="45.73374" lon="2.96314">
        <ele>1003.6</ele>
        <time>2021-07-20T07:32:23Z</time>
      </trkpt>
      <trkpt lat="45.73368" lon="2.96312">
        <ele>1004</ele>
        <time>2021-07-20T07:32:25Z</time>
      </trkpt>
      <trkpt lat="45.73363" lon="2.9631">
        <ele>1004.3</ele>
        <time>2021-07-20T07:32:27Z</time>
      </trkpt>
      <trkpt lat="45.73358" lon="2.96306">
        <ele>1004.8</ele>
        <time>2021-07-20T07:32:29Z</time>
      </trkpt>
      <trkpt lat="45.73354" lon="2.96302">
        <ele>1005.3</ele>
        <time>2021-07-20T07:32:31Z</time>
      </trkpt>
      <trkpt lat="45.73345" lon="2.96296">
        <ele>1006</ele>
        <time>2021-07-20T07:32:35Z</time>
      </trkpt>
      <trkpt lat="45.7334" lon="2.96293">
        <ele>1006.3</ele>
        <time>2021-07-20T07:32:37Z</time>
      </trkpt>
      <trkpt lat="45.73334" lon="2.96292">
        <ele>1006.5</ele>
        <time>2021-07-20T07:32:39Z</time>
      </trkpt>
      <trkpt lat="45.73329" lon="2.96289">
        <ele>1006.5</ele>
        <time>2021-07-20T07:32:41Z</time>
      </trkpt>
      <trkpt lat="45.73323" lon="2.96287">
        <ele>1006.5</ele>
        <time>2021-07-20T07:32:43Z</time>
      </trkpt>
      <trkpt lat="45.73318" lon="2.96285">
        <ele>1006.5</ele>
        <time>2021-07-20T07:32:45Z</time>
      </trkpt>
      <trkpt lat="45.73313" lon="2.96283">
        <ele>1006.4</ele>
        <time>2021-07-20T07:32:47Z</time>
      </trkpt>
      <trkpt lat="45.73307" lon="2.9628">
        <ele>1006.3</ele>
        <time>2021-07-20T07:32:49Z</time>
      </trkpt>
      <trkpt lat="45.73302" lon="2.96277">
        <ele>1006.3</ele>
        <time>2021-07-20T07:32:51Z</time>
      </trkpt>
      <trkpt lat="45.73297" lon="2.96274">
        <ele>1006.3</ele>
        <time>2021-07-20T07:32:53Z</time>
      </trkpt>
      <trkpt lat="45.73293" lon="2.96272">
        <ele>1006.3</ele>
        <time>2021-07-20T07:32:55Z</time>
      </trkpt>
      <trkpt lat="45.73288" lon="2.96269">
        <ele>1006.2</ele>
        <time>2021-07-20T07:32:57Z</time>
      </trkpt>
      <trkpt lat="45.73284" lon="2.96267">
        <ele>1006.1</ele>
        <time>2021-07-20T07:32:59Z</time>
      </trkpt>
      <trkpt lat="45.73279" lon="2.96264">
        <ele>1006</ele>
        <time>2021-07-20T07:33:01Z</time>
      </trkpt>
      <trkpt lat="45.73274" lon="2.96261">
        <ele>1005.9</ele>
        <time>2021-07-20T07:33:03Z</time>
      </trkpt>
      <trkpt lat="45.7327" lon="2.96258">
        <ele>1005.8</ele>
        <time>2021-07-20T07:33:05Z</time>
      </trkpt>
      <trkpt lat="45.73265" lon="2.96255">
        <ele>1005.7</ele>
        <time>2021-07-20T07:33:07Z</time>
      </trkpt>
      <trkpt lat="45.73261" lon="2.96252">
        <ele>1005.6</ele>
        <time>2021-07-20T07:33:09Z</time>
      </trkpt>
      <trkpt lat="45.73256" lon="2.96247">
        <ele>1005.7</ele>
        <time>2021-07-20T07:33:11Z</time>
      </trkpt>
      <trkpt lat="45.73251" lon="2.96245">
        <ele>1005.8</ele>
        <time>2021-07-20T07:33:13Z</time>
      </trkpt>
      <trkpt lat="45.73247" lon="2.96241">
        <ele>1006.5</ele>
        <time>2021-07-20T07:33:15Z</time>
      </trkpt>
      <trkpt lat="45.73242" lon="2.96238">
        <ele>1007.2</ele>
        <time>2021-07-20T07:33:17Z</time>
      </trkpt>
      <trkpt lat="45.73235" lon="2.96233">
        <ele>1008.4</ele>
        <time>2021-07-20T07:33:21Z</time>
      </trkpt>
      <trkpt lat="45.7323" lon="2.9623">
        <ele>1009</ele>
        <time>2021-07-20T07:33:23Z</time>
      </trkpt>
      <trkpt lat="45.73226" lon="2.96228">
        <ele>1009.6</ele>
        <time>2021-07-20T07:33:25Z</time>
      </trkpt>
      <trkpt lat="45.73222" lon="2.96225">
        <ele>1010.1</ele>
        <time>2021-07-20T07:33:27Z</time>
      </trkpt>
      <trkpt lat="45.73217" lon="2.96222">
        <ele>1010.8</ele>
        <time>2021-07-20T07:33:29Z</time>
      </trkpt>
      <trkpt lat="45.73212" lon="2.9622">
        <ele>1011.2</ele>
        <time>2021-07-20T07:33:31Z</time>
      </trkpt>
      <trkpt lat="45.73208" lon="2.96217">
        <ele>1011.8</ele>
        <time>2021-07-20T07:33:33Z</time>
      </trkpt>
      <trkpt lat="45.73203" lon="2.96214">
        <ele>1012.3</ele>
        <time>2021-07-20T07:33:35Z</time>
      </trkpt>
      <trkpt lat="45.73199" lon="2.96211">
        <ele>1012.9</ele>
        <time>2021-07-20T07:33:37Z</time>
      </trkpt>
      <trkpt lat="45.73194" lon="2.96208">
        <ele>1013.4</ele>
        <time>2021-07-20T07:33:39Z</time>
      </trkpt>
      <trkpt lat="45.7319" lon="2.96205">
        <ele>1013.8</ele>
        <time>2021-07-20T07:33:41Z</time>
      </trkpt>
      <trkpt lat="45.73187" lon="2.96201">
        <ele>1014.3</ele>
        <time>2021-07-20T07:33:43Z</time>
      </trkpt>
      <trkpt lat="45.73182" lon="2.96199">
        <ele>1014.8</ele>
        <time>2021-07-20T07:33:45Z</time>
      </trkpt>
      <trkpt lat="45.73175" lon="2.96192">
        <ele>1015.6</ele>
        <time>2021-07-20T07:33:49Z</time>
      </trkpt>
      <trkpt lat="45.73167" lon="2.96187">
        <ele>1016.3</ele>
        <time>2021-07-20T07:33:53Z</time>
      </trkpt>
      <trkpt lat="45.7316" lon="2.96181">
        <ele>1017.1</ele>
        <time>2021-07-20T07:33:57Z</time>
      </trkpt>
      <trkpt lat="45.73155" lon="2.96178">
        <ele>1017.5</ele>
        <time>2021-07-20T07:33:59Z</time>
      </trkpt>
      <trkpt lat="45.73151" lon="2.96174">
        <ele>1018</ele>
        <time>2021-07-20T07:34:01Z</time>
      </trkpt>
      <trkpt lat="45.73143" lon="2.9617">
        <ele>1018.6</ele>
        <time>2021-07-20T07:34:05Z</time>
      </trkpt>
      <trkpt lat="45.73137" lon="2.96166">
        <ele>1019.1</ele>
        <time>2021-07-20T07:34:09Z</time>
      </trkpt>
      <trkpt lat="45.73131" lon="2.9616">
        <ele>1019.9</ele>
        <time>2021-07-20T07:34:13Z</time>
      </trkpt>
      <trkpt lat="45.73125" lon="2.96159">
        <ele>1020.2</ele>
        <time>2021-07-20T07:34:17Z</time>
      </trkpt>
      <trkpt lat="45.73117" lon="2.9616">
        <ele>1020.4</ele>
        <time>2021-07-20T07:34:21Z</time>
      </trkpt>
      <trkpt lat="45.7311" lon="2.96158">
        <ele>1020.8</ele>
        <time>2021-07-20T07:34:25Z</time>
      </trkpt>
      <trkpt lat="45.73102" lon="2.96156">
        <ele>1021.4</ele>
        <time>2021-07-20T07:34:29Z</time>
      </trkpt>
      <trkpt lat="45.73098" lon="2.96153">
        <ele>1021.8</ele>
        <time>2021-07-20T07:34:31Z</time>
      </trkpt>
      <trkpt lat="45.7309" lon="2.96149">
        <ele>1022.5</ele>
        <time>2021-07-20T07:34:35Z</time>
      </trkpt>
      <trkpt lat="45.73083" lon="2.96146">
        <ele>1023</ele>
        <time>2021-07-20T07:34:39Z</time>
      </trkpt>
      <trkpt lat="45.73079" lon="2.96143">
        <ele>1023.6</ele>
        <time>2021-07-20T07:34:43Z</time>
      </trkpt>
      <trkpt lat="45.73072" lon="2.96141">
        <ele>1024.2</ele>
        <time>2021-07-20T07:34:47Z</time>
      </trkpt>
      <trkpt lat="45.73066" lon="2.96137">
        <ele>1024.9</ele>
        <time>2021-07-20T07:34:51Z</time>
      </trkpt>
      <trkpt lat="45.73062" lon="2.96133">
        <ele>1025.6</ele>
        <time>2021-07-20T07:34:55Z</time>
      </trkpt>
      <trkpt lat="45.73057" lon="2.96129">
        <ele>1026.2</ele>
        <time>2021-07-20T07:34:59Z</time>
      </trkpt>
      <trkpt lat="45.73053" lon="2.96125">
        <ele>1026.8</ele>
        <time>2021-07-20T07:35:03Z</time>
      </trkpt>
      <trkpt lat="45.73048" lon="2.96121">
        <ele>1027.4</ele>
        <time>2021-07-20T07:35:07Z</time>
      </trkpt>
      <trkpt lat="45.73044" lon="2.96119">
        <ele>1027.9</ele>
        <time>2021-07-20T07:35:11Z</time>
      </trkpt>
      <trkpt lat="45.73039" lon="2.96116">
        <ele>1028.4</ele>
        <time>2021-07-20T07:35:15Z</time>
      </trkpt>
      <trkpt lat="45.73035" lon="2.96112">
        <ele>1029</ele>
        <time>2021-07-20T07:35:19Z</time>
      </trkpt>
      <trkpt lat="45.73031" lon="2.96109">
        <ele>1029.5</ele>
        <time>2021-07-20T07:35:23Z</time>
      </trkpt>
      <trkpt lat="45.73026" lon="2.96103">
        <ele>1030.2</ele>
        <time>2021-07-20T07:35:27Z</time>
      </trkpt>
      <trkpt lat="45.7302" lon="2.96098">
        <ele>1030.9</ele>
        <time>2021-07-20T07:35:31Z</time>
      </trkpt>
      <trkpt lat="45.73015" lon="2.96093">
        <ele>1031.5</ele>
        <time>2021-07-20T07:35:37Z</time>
      </trkpt>
      <trkpt lat="45.73012" lon="2.96085">
        <ele>1032.3</ele>
        <time>2021-07-20T07:35:43Z</time>
      </trkpt>
      <trkpt lat="45.73009" lon="2.9608">
        <ele>1032.8</ele>
        <time>2021-07-20T07:35:47Z</time>
      </trkpt>
      <trkpt lat="45.73008" lon="2.96072">
        <ele>1033.5</ele>
        <time>2021-07-20T07:35:51Z</time>
      </trkpt>
      <trkpt lat="45.73005" lon="2.96066">
        <ele>1034</ele>
        <time>2021-07-20T07:35:55Z</time>
      </trkpt>
      <trkpt lat="45.73003" lon="2.9606">
        <ele>1034.6</ele>
        <time>2021-07-20T07:35:59Z</time>
      </trkpt>
      <trkpt lat="45.73002" lon="2.9605">
        <ele>1035.4</ele>
        <time>2021-07-20T07:36:03Z</time>
      </trkpt>
      <trkpt lat="45.72997" lon="2.96043">
        <ele>1036.1</ele>
        <time>2021-07-20T07:36:07Z</time>
      </trkpt>
      <trkpt lat="45.72993" lon="2.96036">
        <ele>1036.8</ele>
        <time>2021-07-20T07:36:11Z</time>
      </trkpt>
      <trkpt lat="45.72991" lon="2.9603">
        <ele>1037.4</ele>
        <time>2021-07-20T07:36:15Z</time>
      </trkpt>
      <trkpt lat="45.72988" lon="2.96021">
        <ele>1038.1</ele>
        <time>2021-07-20T07:36:21Z</time>
      </trkpt>
      <trkpt lat="45.72986" lon="2.96015">
        <ele>1038.7</ele>
        <time>2021-07-20T07:36:25Z</time>
      </trkpt>
      <trkpt lat="45.72982" lon="2.96008">
        <ele>1039.3</ele>
        <time>2021-07-20T07:36:29Z</time>
      </trkpt>
      <trkpt lat="45.72979" lon="2.96003">
        <ele>1039.8</ele>
        <time>2021-07-20T07:36:33Z</time>
      </trkpt>
      <trkpt lat="45.72975" lon="2.95995">
        <ele>1040.5</ele>
        <time>2021-07-20T07:36:39Z</time>
      </trkpt>
      <trkpt lat="45.7297" lon="2.95992">
        <ele>1041</ele>
        <time>2021-07-20T07:36:43Z</time>
      </trkpt>
      <trkpt lat="45.72965" lon="2.95986">
        <ele>1041.6</ele>
        <time>2021-07-20T07:36:47Z</time>
      </trkpt>
      <trkpt lat="45.72961" lon="2.95983">
        <ele>1042.1</ele>
        <time>2021-07-20T07:36:51Z</time>
      </trkpt>
      <trkpt lat="45.72957" lon="2.9598">
        <ele>1042.5</ele>
        <time>2021-07-20T07:36:55Z</time>
      </trkpt>
      <trkpt lat="45.72953" lon="2.95975">
        <ele>1043.1</ele>
        <time>2021-07-20T07:37:01Z</time>
      </trkpt>
      <trkpt lat="45.72949" lon="2.9597">
        <ele>1043.6</ele>
        <time>2021-07-20T07:37:05Z</time>
      </trkpt>
      <trkpt lat="45.72945" lon="2.95964">
        <ele>1044.2</ele>
        <time>2021-07-20T07:37:09Z</time>
      </trkpt>
      <trkpt lat="45.7294" lon="2.95959">
        <ele>1044.8</ele>
        <time>2021-07-20T07:37:13Z</time>
      </trkpt>
      <trkpt lat="45.72936" lon="2.95956">
        <ele>1045.2</ele>
        <time>2021-07-20T07:37:17Z</time>
      </trkpt>
      <trkpt lat="45.72931" lon="2.95951">
        <ele>1045.8</ele>
        <time>2021-07-20T07:37:23Z</time>
      </trkpt>
      <trkpt lat="45.72926" lon="2.95949">
        <ele>1046.2</ele>
        <time>2021-07-20T07:37:27Z</time>
      </trkpt>
      <trkpt lat="45.72922" lon="2.95945">
        <ele>1046.7</ele>
        <time>2021-07-20T07:37:31Z</time>
      </trkpt>
      <trkpt lat="45.72917" lon="2.9594">
        <ele>1047.3</ele>
        <time>2021-07-20T07:37:37Z</time>
      </trkpt>
      <trkpt lat="45.72913" lon="2.95938">
        <ele>1047.6</ele>
        <time>2021-07-20T07:37:41Z</time>
      </trkpt>
      <trkpt lat="45.72909" lon="2.95934">
        <ele>1048.1</ele>
        <time>2021-07-20T07:37:45Z</time>
      </trkpt>
      <trkpt lat="45.72905" lon="2.95929">
        <ele>1048.6</ele>
        <time>2021-07-20T07:37:51Z</time>
      </trkpt>
      <trkpt lat="45.729" lon="2.95926">
        <ele>1049</ele>
        <time>2021-07-20T07:37:55Z</time>
      </trkpt>
      <trkpt lat="45.72896" lon="2.95923">
        <ele>1049.4</ele>
        <time>2021-07-20T07:37:59Z</time>
      </trkpt>
      <trkpt lat="45.72892" lon="2.95918">
        <ele>1049.8</ele>
        <time>2021-07-20T07:38:03Z</time>
      </trkpt>
      <trkpt lat="45.72886" lon="2.95914">
        <ele>1050.3</ele>
        <time>2021-07-20T07:38:07Z</time>
      </trkpt>
      <trkpt lat="45.72882" lon="2.9591">
        <ele>1050.7</ele>
        <time>2021-07-20T07:38:11Z</time>
      </trkpt>
      <trkpt lat="45.72878" lon="2.95905">
        <ele>1051.2</ele>
        <time>2021-07-20T07:38:15Z</time>
      </trkpt>
      <trkpt lat="45.72873" lon="2.95902">
        <ele>1051.5</ele>
        <time>2021-07-20T07:38:19Z</time>
      </trkpt>
      <trkpt lat="45.72869" lon="2.95895">
        <ele>1052.1</ele>
        <time>2021-07-20T07:38:25Z</time>
      </trkpt>
      <trkpt lat="45.72866" lon="2.95889">
        <ele>1052.5</ele>
        <time>2021-07-20T07:38:29Z</time>
      </trkpt>
      <trkpt lat="45.72861" lon="2.95884">
        <ele>1053</ele>
        <time>2021-07-20T07:38:33Z</time>
      </trkpt>
      <trkpt lat="45.72856" lon="2.9588">
        <ele>1053.3</ele>
        <time>2021-07-20T07:38:37Z</time>
      </trkpt>
      <trkpt lat="45.72853" lon="2.95872">
        <ele>1053.8</ele>
        <time>2021-07-20T07:38:43Z</time>
      </trkpt>
      <trkpt lat="45.72852" lon="2.95864">
        <ele>1054.3</ele>
        <time>2021-07-20T07:38:49Z</time>
      </trkpt>
      <trkpt lat="45.7285" lon="2.95855">
        <ele>1054.8</ele>
        <time>2021-07-20T07:38:55Z</time>
      </trkpt>
      <trkpt lat="45.72848" lon="2.95847">
        <ele>1055.3</ele>
        <time>2021-07-20T07:38:59Z</time>
      </trkpt>
      <trkpt lat="45.72846" lon="2.95838">
        <ele>1055.7</ele>
        <time>2021-07-20T07:39:03Z</time>
      </trkpt>
      <trkpt lat="45.72841" lon="2.95831">
        <ele>1056.1</ele>
        <time>2021-07-20T07:39:07Z</time>
      </trkpt>
      <trkpt lat="45.72838" lon="2.95822">
        <ele>1056.6</ele>
        <time>2021-07-20T07:39:11Z</time>
      </trkpt>
      <trkpt lat="45.72835" lon="2.95817">
        <ele>1056.8</ele>
        <time>2021-07-20T07:39:15Z</time>
      </trkpt>
      <trkpt lat="45.72833" lon="2.95811">
        <ele>1057.1</ele>
        <time>2021-07-20T07:39:19Z</time>
      </trkpt>
      <trkpt lat="45.72828" lon="2.95803">
        <ele>1057.6</ele>
        <time>2021-07-20T07:39:25Z</time>
      </trkpt>
      <trkpt lat="45.72824" lon="2.95796">
        <ele>1058.1</ele>
        <time>2021-07-20T07:39:29Z</time>
      </trkpt>
      <trkpt lat="45.72821" lon="2.9579">
        <ele>1058.4</ele>
        <time>2021-07-20T07:39:33Z</time>
      </trkpt>
      <trkpt lat="45.72817" lon="2.95786">
        <ele>1058.7</ele>
        <time>2021-07-20T07:39:37Z</time>
      </trkpt>
      <trkpt lat="45.72815" lon="2.9578">
        <ele>1059.1</ele>
        <time>2021-07-20T07:39:41Z</time>
      </trkpt>
      <trkpt lat="45.72812" lon="2.95776">
        <ele>1059.4</ele>
        <time>2021-07-20T07:39:47Z</time>
      </trkpt>
      <trkpt lat="45.72807" lon="2.95771">
        <ele>1059.7</ele>
        <time>2021-07-20T07:39:51Z</time>
      </trkpt>
      <trkpt lat="45.72801" lon="2.95762">
        <ele>1060.2</ele>
        <time>2021-07-20T07:39:55Z</time>
      </trkpt>
      <trkpt lat="45.72796" lon="2.95754">
        <ele>1060.7</ele>
        <time>2021-07-20T07:39:59Z</time>
      </trkpt>
      <trkpt lat="45.72792" lon="2.95748">
        <ele>1061.1</ele>
        <time>2021-07-20T07:40:03Z</time>
      </trkpt>
      <trkpt lat="45.72787" lon="2.95742">
        <ele>1061.5</ele>
        <time>2021-07-20T07:40:07Z</time>
      </trkpt>
      <trkpt lat="45.72781" lon="2.95734">
        <ele>1062.1</ele>
        <time>2021-07-20T07:40:11Z</time>
      </trkpt>
      <trkpt lat="45.72775" lon="2.95727">
        <ele>1062.5</ele>
        <time>2021-07-20T07:40:15Z</time>
      </trkpt>
      <trkpt lat="45.7277" lon="2.95721">
        <ele>1062.8</ele>
        <time>2021-07-20T07:40:19Z</time>
      </trkpt>
      <trkpt lat="45.72765" lon="2.95715">
        <ele>1063.1</ele>
        <time>2021-07-20T07:40:25Z</time>
      </trkpt>
      <trkpt lat="45.72762" lon="2.9571">
        <ele>1063.4</ele>
        <time>2021-07-20T07:42:27Z</time>
      </trkpt>
      <trkpt lat="45.72761" lon="2.95702">
        <ele>1063.7</ele>
        <time>2021-07-20T07:44:33Z</time>
      </trkpt>
      <trkpt lat="45.72756" lon="2.95698">
        <ele>1063.9</ele>
        <time>2021-07-20T07:44:37Z</time>
      </trkpt>
      <trkpt lat="45.72753" lon="2.95692">
        <ele>1064.1</ele>
        <time>2021-07-20T07:44:41Z</time>
      </trkpt>
      <trkpt lat="45.72748" lon="2.95685">
        <ele>1064.4</ele>
        <time>2021-07-20T07:44:45Z</time>
      </trkpt>
      <trkpt lat="45.72742" lon="2.95679">
        <ele>1064.6</ele>
        <time>2021-07-20T07:44:49Z</time>
      </trkpt>
      <trkpt lat="45.72738" lon="2.95672">
        <ele>1065</ele>
        <time>2021-07-20T07:44:53Z</time>
      </trkpt>
      <trkpt lat="45.72733" lon="2.95668">
        <ele>1065.2</ele>
        <time>2021-07-20T07:44:55Z</time>
      </trkpt>
      <trkpt lat="45.72728" lon="2.95664">
        <ele>1065.3</ele>
        <time>2021-07-20T07:44:57Z</time>
      </trkpt>
      <trkpt lat="45.72724" lon="2.95662">
        <ele>1065.5</ele>
        <time>2021-07-20T07:44:59Z</time>
      </trkpt>
      <trkpt lat="45.7272" lon="2.95656">
        <ele>1065.8</ele>
        <time>2021-07-20T07:45:01Z</time>
      </trkpt>
      <trkpt lat="45.72712" lon="2.95651">
        <ele>1066.1</ele>
        <time>2021-07-20T07:45:05Z</time>
      </trkpt>
      <trkpt lat="45.72705" lon="2.9565">
        <ele>1066.3</ele>
        <time>2021-07-20T07:45:09Z</time>
      </trkpt>
      <trkpt lat="45.72699" lon="2.95652">
        <ele>1066.3</ele>
        <time>2021-07-20T07:45:11Z</time>
      </trkpt>
      <trkpt lat="45.7269" lon="2.95656">
        <ele>1066.3</ele>
        <time>2021-07-20T07:45:15Z</time>
      </trkpt>
      <trkpt lat="45.72685" lon="2.95657">
        <ele>1066.3</ele>
        <time>2021-07-20T07:45:17Z</time>
      </trkpt>
      <trkpt lat="45.72677" lon="2.95654">
        <ele>1066.6</ele>
        <time>2021-07-20T07:45:21Z</time>
      </trkpt>
      <trkpt lat="45.72672" lon="2.95655">
        <ele>1066.6</ele>
        <time>2021-07-20T07:45:23Z</time>
      </trkpt>
      <trkpt lat="45.72668" lon="2.95654">
        <ele>1066.8</ele>
        <time>2021-07-20T07:45:25Z</time>
      </trkpt>
      <trkpt lat="45.72663" lon="2.95651">
        <ele>1067.1</ele>
        <time>2021-07-20T07:45:27Z</time>
      </trkpt>
      <trkpt lat="45.72658" lon="2.9565">
        <ele>1067.3</ele>
        <time>2021-07-20T07:45:29Z</time>
      </trkpt>
      <trkpt lat="45.72651" lon="2.95651">
        <ele>1067.4</ele>
        <time>2021-07-20T07:45:33Z</time>
      </trkpt>
      <trkpt lat="45.72646" lon="2.95651">
        <ele>1067.5</ele>
        <time>2021-07-20T07:45:35Z</time>
      </trkpt>
      <trkpt lat="45.72641" lon="2.95651">
        <ele>1067.7</ele>
        <time>2021-07-20T07:45:37Z</time>
      </trkpt>
      <trkpt lat="45.72631" lon="2.95651">
        <ele>1068</ele>
        <time>2021-07-20T07:45:41Z</time>
      </trkpt>
      <trkpt lat="45.72624" lon="2.95651">
        <ele>1068.1</ele>
        <time>2021-07-20T07:45:43Z</time>
      </trkpt>
      <trkpt lat="45.72617" lon="2.95651">
        <ele>1068.3</ele>
        <time>2021-07-20T07:45:45Z</time>
      </trkpt>
      <trkpt lat="45.72612" lon="2.95652">
        <ele>1068.5</ele>
        <time>2021-07-20T07:45:47Z</time>
      </trkpt>
      <trkpt lat="45.72604" lon="2.95651">
        <ele>1068.8</ele>
        <time>2021-07-20T07:45:51Z</time>
      </trkpt>
      <trkpt lat="45.72598" lon="2.95647">
        <ele>1069.2</ele>
        <time>2021-07-20T07:45:53Z</time>
      </trkpt>
      <trkpt lat="45.72592" lon="2.95645">
        <ele>1069.6</ele>
        <time>2021-07-20T07:45:55Z</time>
      </trkpt>
      <trkpt lat="45.72587" lon="2.95642">
        <ele>1070</ele>
        <time>2021-07-20T07:45:57Z</time>
      </trkpt>
      <trkpt lat="45.72582" lon="2.95639">
        <ele>1070.3</ele>
        <time>2021-07-20T07:45:59Z</time>
      </trkpt>
      <trkpt lat="45.72578" lon="2.95636">
        <ele>1070.6</ele>
        <time>2021-07-20T07:46:01Z</time>
      </trkpt>
      <trkpt lat="45.72571" lon="2.95629">
        <ele>1071.2</ele>
        <time>2021-07-20T07:46:05Z</time>
      </trkpt>
      <trkpt lat="45.72567" lon="2.95626">
        <ele>1071.5</ele>
        <time>2021-07-20T07:46:07Z</time>
      </trkpt>
      <trkpt lat="45.72562" lon="2.95623">
        <ele>1071.8</ele>
        <time>2021-07-20T07:46:09Z</time>
      </trkpt>
      <trkpt lat="45.72555" lon="2.95617">
        <ele>1072.3</ele>
        <time>2021-07-20T07:46:13Z</time>
      </trkpt>
      <trkpt lat="45.72549" lon="2.9561">
        <ele>1072.9</ele>
        <time>2021-07-20T07:46:17Z</time>
      </trkpt>
      <trkpt lat="45.72543" lon="2.95603">
        <ele>1073.4</ele>
        <time>2021-07-20T07:46:21Z</time>
      </trkpt>
      <trkpt lat="45.72536" lon="2.956">
        <ele>1073.7</ele>
        <time>2021-07-20T07:46:25Z</time>
      </trkpt>
      <trkpt lat="45.72529" lon="2.95594">
        <ele>1074.2</ele>
        <time>2021-07-20T07:46:29Z</time>
      </trkpt>
      <trkpt lat="45.72523" lon="2.95587">
        <ele>1074.8</ele>
        <time>2021-07-20T07:46:33Z</time>
      </trkpt>
      <trkpt lat="45.72519" lon="2.95584">
        <ele>1074.9</ele>
        <time>2021-07-20T07:46:35Z</time>
      </trkpt>
      <trkpt lat="45.72515" lon="2.9558">
        <ele>1075.3</ele>
        <time>2021-07-20T07:46:37Z</time>
      </trkpt>
      <trkpt lat="45.7251" lon="2.95576">
        <ele>1075.5</ele>
        <time>2021-07-20T07:46:41Z</time>
      </trkpt>
      <trkpt lat="45.72504" lon="2.9557">
        <ele>1076</ele>
        <time>2021-07-20T07:46:45Z</time>
      </trkpt>
      <trkpt lat="45.72498" lon="2.95562">
        <ele>1076.5</ele>
        <time>2021-07-20T07:46:49Z</time>
      </trkpt>
      <trkpt lat="45.72493" lon="2.95558">
        <ele>1076.6</ele>
        <time>2021-07-20T07:46:51Z</time>
      </trkpt>
      <trkpt lat="45.7249" lon="2.95553">
        <ele>1076.8</ele>
        <time>2021-07-20T07:46:53Z</time>
      </trkpt>
      <trkpt lat="45.72486" lon="2.95547">
        <ele>1077</ele>
        <time>2021-07-20T07:46:55Z</time>
      </trkpt>
      <trkpt lat="45.7248" lon="2.95539">
        <ele>1077.3</ele>
        <time>2021-07-20T07:46:59Z</time>
      </trkpt>
      <trkpt lat="45.72475" lon="2.95534">
        <ele>1077.5</ele>
        <time>2021-07-20T07:47:01Z</time>
      </trkpt>
      <trkpt lat="45.72468" lon="2.95527">
        <ele>1077.7</ele>
        <time>2021-07-20T07:47:05Z</time>
      </trkpt>
      <trkpt lat="45.72461" lon="2.95522">
        <ele>1077.7</ele>
        <time>2021-07-20T07:47:09Z</time>
      </trkpt>
      <trkpt lat="45.72454" lon="2.95518">
        <ele>1077.6</ele>
        <time>2021-07-20T07:47:13Z</time>
      </trkpt>
      <trkpt lat="45.72448" lon="2.95513">
        <ele>1077.7</ele>
        <time>2021-07-20T07:47:17Z</time>
      </trkpt>
      <trkpt lat="45.72443" lon="2.95509">
        <ele>1077.7</ele>
        <time>2021-07-20T07:47:21Z</time>
      </trkpt>
      <trkpt lat="45.7244" lon="2.95504">
        <ele>1077.8</ele>
        <time>2021-07-20T07:47:23Z</time>
      </trkpt>
      <trkpt lat="45.72435" lon="2.95498">
        <ele>1078.2</ele>
        <time>2021-07-20T07:47:27Z</time>
      </trkpt>
      <trkpt lat="45.72432" lon="2.9549">
        <ele>1079</ele>
        <time>2021-07-20T07:47:31Z</time>
      </trkpt>
      <trkpt lat="45.7243" lon="2.95482">
        <ele>1080</ele>
        <time>2021-07-20T07:47:35Z</time>
      </trkpt>
      <trkpt lat="45.72426" lon="2.95478">
        <ele>1080.4</ele>
        <time>2021-07-20T07:47:39Z</time>
      </trkpt>
      <trkpt lat="45.72419" lon="2.95471">
        <ele>1081</ele>
        <time>2021-07-20T07:47:43Z</time>
      </trkpt>
      <trkpt lat="45.72414" lon="2.95465">
        <ele>1081.6</ele>
        <time>2021-07-20T07:47:47Z</time>
      </trkpt>
      <trkpt lat="45.72409" lon="2.95458">
        <ele>1082.3</ele>
        <time>2021-07-20T07:47:51Z</time>
      </trkpt>
      <trkpt lat="45.72404" lon="2.95452">
        <ele>1082.9</ele>
        <time>2021-07-20T07:47:55Z</time>
      </trkpt>
      <trkpt lat="45.72401" lon="2.95447">
        <ele>1083.5</ele>
        <time>2021-07-20T07:47:59Z</time>
      </trkpt>
      <trkpt lat="45.72397" lon="2.9544">
        <ele>1084.3</ele>
        <time>2021-07-20T07:48:03Z</time>
      </trkpt>
      <trkpt lat="45.72393" lon="2.95435">
        <ele>1084.7</ele>
        <time>2021-07-20T07:48:07Z</time>
      </trkpt>
      <trkpt lat="45.72389" lon="2.95431">
        <ele>1085.1</ele>
        <time>2021-07-20T07:48:11Z</time>
      </trkpt>
      <trkpt lat="45.72386" lon="2.95425">
        <ele>1085.6</ele>
        <time>2021-07-20T07:48:17Z</time>
      </trkpt>
      <trkpt lat="45.72382" lon="2.95421">
        <ele>1085.9</ele>
        <time>2021-07-20T07:48:21Z</time>
      </trkpt>
      <trkpt lat="45.72377" lon="2.95415">
        <ele>1086.3</ele>
        <time>2021-07-20T07:48:25Z</time>
      </trkpt>
      <trkpt lat="45.72372" lon="2.95411">
        <ele>1086.6</ele>
        <time>2021-07-20T07:48:29Z</time>
      </trkpt>
      <trkpt lat="45.72367" lon="2.95406">
        <ele>1087</ele>
        <time>2021-07-20T07:48:33Z</time>
      </trkpt>
      <trkpt lat="45.72363" lon="2.95397">
        <ele>1087.9</ele>
        <time>2021-07-20T07:48:39Z</time>
      </trkpt>
      <trkpt lat="45.72359" lon="2.95392">
        <ele>1088.2</ele>
        <time>2021-07-20T07:48:43Z</time>
      </trkpt>
      <trkpt lat="45.72357" lon="2.95387">
        <ele>1088.7</ele>
        <time>2021-07-20T07:48:47Z</time>
      </trkpt>
      <trkpt lat="45.72353" lon="2.95378">
        <ele>1089.5</ele>
        <time>2021-07-20T07:48:53Z</time>
      </trkpt>
      <trkpt lat="45.72347" lon="2.9537">
        <ele>1090.1</ele>
        <time>2021-07-20T07:48:57Z</time>
      </trkpt>
      <trkpt lat="45.72344" lon="2.95364">
        <ele>1090.4</ele>
        <time>2021-07-20T07:49:01Z</time>
      </trkpt>
      <trkpt lat="45.72339" lon="2.95362">
        <ele>1090.4</ele>
        <time>2021-07-20T07:49:03Z</time>
      </trkpt>
      <trkpt lat="45.72335" lon="2.95358">
        <ele>1090.5</ele>
        <time>2021-07-20T07:49:05Z</time>
      </trkpt>
      <trkpt lat="45.72331" lon="2.95351">
        <ele>1091.1</ele>
        <time>2021-07-20T07:49:09Z</time>
      </trkpt>
      <trkpt lat="45.72324" lon="2.95343">
        <ele>1092.3</ele>
        <time>2021-07-20T07:49:13Z</time>
      </trkpt>
      <trkpt lat="45.72321" lon="2.9534">
        <ele>1092.8</ele>
        <time>2021-07-20T07:49:15Z</time>
      </trkpt>
      <trkpt lat="45.72315" lon="2.95332">
        <ele>1093.6</ele>
        <time>2021-07-20T07:49:21Z</time>
      </trkpt>
      <trkpt lat="45.72311" lon="2.9533">
        <ele>1094</ele>
        <time>2021-07-20T07:49:23Z</time>
      </trkpt>
      <trkpt lat="45.72305" lon="2.95322">
        <ele>1095</ele>
        <time>2021-07-20T07:49:27Z</time>
      </trkpt>
      <trkpt lat="45.72301" lon="2.95314">
        <ele>1096</ele>
        <time>2021-07-20T07:49:31Z</time>
      </trkpt>
      <trkpt lat="45.72296" lon="2.95308">
        <ele>1096.6</ele>
        <time>2021-07-20T07:49:35Z</time>
      </trkpt>
      <trkpt lat="45.7229" lon="2.95303">
        <ele>1097.1</ele>
        <time>2021-07-20T07:49:39Z</time>
      </trkpt>
      <trkpt lat="45.72286" lon="2.95299">
        <ele>1097.3</ele>
        <time>2021-07-20T07:49:43Z</time>
      </trkpt>
      <trkpt lat="45.7228" lon="2.95292">
        <ele>1097.8</ele>
        <time>2021-07-20T07:49:47Z</time>
      </trkpt>
      <trkpt lat="45.72276" lon="2.95285">
        <ele>1098.1</ele>
        <time>2021-07-20T07:49:51Z</time>
      </trkpt>
      <trkpt lat="45.72271" lon="2.95277">
        <ele>1098.4</ele>
        <time>2021-07-20T07:49:55Z</time>
      </trkpt>
      <trkpt lat="45.72267" lon="2.95273">
        <ele>1098.4</ele>
        <time>2021-07-20T07:49:57Z</time>
      </trkpt>
      <trkpt lat="45.7226" lon="2.95267">
        <ele>1098.2</ele>
        <time>2021-07-20T07:50:01Z</time>
      </trkpt>
      <trkpt lat="45.72256" lon="2.95263">
        <ele>1098</ele>
        <time>2021-07-20T07:50:03Z</time>
      </trkpt>
      <trkpt lat="45.72251" lon="2.95263">
        <ele>1097.6</ele>
        <time>2021-07-20T07:50:05Z</time>
      </trkpt>
      <trkpt lat="45.72247" lon="2.95259">
        <ele>1097.7</ele>
        <time>2021-07-20T07:50:07Z</time>
      </trkpt>
      <trkpt lat="45.72243" lon="2.95256">
        <ele>1097.9</ele>
        <time>2021-07-20T07:50:09Z</time>
      </trkpt>
      <trkpt lat="45.72236" lon="2.95249">
        <ele>1098.2</ele>
        <time>2021-07-20T07:50:13Z</time>
      </trkpt>
      <trkpt lat="45.7223" lon="2.95245">
        <ele>1098.6</ele>
        <time>2021-07-20T07:50:17Z</time>
      </trkpt>
      <trkpt lat="45.72224" lon="2.95238">
        <ele>1099</ele>
        <time>2021-07-20T07:50:21Z</time>
      </trkpt>
      <trkpt lat="45.7222" lon="2.9523">
        <ele>1099.3</ele>
        <time>2021-07-20T07:50:25Z</time>
      </trkpt>
      <trkpt lat="45.72217" lon="2.95221">
        <ele>1099.7</ele>
        <time>2021-07-20T07:50:29Z</time>
      </trkpt>
      <trkpt lat="45.72213" lon="2.95214">
        <ele>1099.8</ele>
        <time>2021-07-20T07:50:33Z</time>
      </trkpt>
      <trkpt lat="45.72206" lon="2.95213">
        <ele>1099.5</ele>
        <time>2021-07-20T07:50:37Z</time>
      </trkpt>
      <trkpt lat="45.72199" lon="2.95214">
        <ele>1099.2</ele>
        <time>2021-07-20T07:50:41Z</time>
      </trkpt>
      <trkpt lat="45.72191" lon="2.95216">
        <ele>1098.8</ele>
        <time>2021-07-20T07:50:45Z</time>
      </trkpt>
      <trkpt lat="45.72184" lon="2.95216">
        <ele>1098.5</ele>
        <time>2021-07-20T07:50:49Z</time>
      </trkpt>
      <trkpt lat="45.72183" lon="2.95209">
        <ele>1098.4</ele>
        <time>2021-07-20T07:52:11Z</time>
      </trkpt>
      <trkpt lat="45.72177" lon="2.95206">
        <ele>1098</ele>
        <time>2021-07-20T07:52:15Z</time>
      </trkpt>
      <trkpt lat="45.72169" lon="2.952">
        <ele>1097.3</ele>
        <time>2021-07-20T07:52:19Z</time>
      </trkpt>
      <trkpt lat="45.72163" lon="2.95196">
        <ele>1096.9</ele>
        <time>2021-07-20T07:52:21Z</time>
      </trkpt>
      <trkpt lat="45.72159" lon="2.95194">
        <ele>1096.6</ele>
        <time>2021-07-20T07:52:23Z</time>
      </trkpt>
      <trkpt lat="45.72154" lon="2.95191">
        <ele>1096.3</ele>
        <time>2021-07-20T07:52:25Z</time>
      </trkpt>
      <trkpt lat="45.72149" lon="2.95188">
        <ele>1096</ele>
        <time>2021-07-20T07:52:27Z</time>
      </trkpt>
      <trkpt lat="45.72144" lon="2.95185">
        <ele>1095.6</ele>
        <time>2021-07-20T07:52:29Z</time>
      </trkpt>
      <trkpt lat="45.72138" lon="2.95183">
        <ele>1095.3</ele>
        <time>2021-07-20T07:52:31Z</time>
      </trkpt>
      <trkpt lat="45.72133" lon="2.9518">
        <ele>1094.9</ele>
        <time>2021-07-20T07:52:33Z</time>
      </trkpt>
      <trkpt lat="45.72127" lon="2.95177">
        <ele>1094.5</ele>
        <time>2021-07-20T07:52:35Z</time>
      </trkpt>
      <trkpt lat="45.72121" lon="2.95173">
        <ele>1094.1</ele>
        <time>2021-07-20T07:52:37Z</time>
      </trkpt>
      <trkpt lat="45.72114" lon="2.95167">
        <ele>1093.5</ele>
        <time>2021-07-20T07:52:39Z</time>
      </trkpt>
      <trkpt lat="45.72109" lon="2.95166">
        <ele>1093.2</ele>
        <time>2021-07-20T07:52:41Z</time>
      </trkpt>
      <trkpt lat="45.72103" lon="2.95165">
        <ele>1092.9</ele>
        <time>2021-07-20T07:52:43Z</time>
      </trkpt>
      <trkpt lat="45.72095" lon="2.95163">
        <ele>1092.5</ele>
        <time>2021-07-20T07:52:45Z</time>
      </trkpt>
      <trkpt lat="45.7209" lon="2.9516">
        <ele>1092.2</ele>
        <time>2021-07-20T07:52:47Z</time>
      </trkpt>
      <trkpt lat="45.72085" lon="2.95156">
        <ele>1091.8</ele>
        <time>2021-07-20T07:52:49Z</time>
      </trkpt>
      <trkpt lat="45.72082" lon="2.9515">
        <ele>1091.5</ele>
        <time>2021-07-20T07:52:51Z</time>
      </trkpt>
      <trkpt lat="45.72077" lon="2.95149">
        <ele>1091.1</ele>
        <time>2021-07-20T07:52:53Z</time>
      </trkpt>
      <trkpt lat="45.7207" lon="2.95146">
        <ele>1090.6</ele>
        <time>2021-07-20T07:52:57Z</time>
      </trkpt>
      <trkpt lat="45.72065" lon="2.95143">
        <ele>1090.1</ele>
        <time>2021-07-20T07:52:59Z</time>
      </trkpt>
      <trkpt lat="45.72061" lon="2.95138">
        <ele>1089.7</ele>
        <time>2021-07-20T07:53:03Z</time>
      </trkpt>
      <trkpt lat="45.72054" lon="2.95136">
        <ele>1089.1</ele>
        <time>2021-07-20T07:53:07Z</time>
      </trkpt>
      <trkpt lat="45.72049" lon="2.95134">
        <ele>1088.7</ele>
        <time>2021-07-20T07:53:11Z</time>
      </trkpt>
      <trkpt lat="45.72041" lon="2.95131">
        <ele>1088.1</ele>
        <time>2021-07-20T07:53:17Z</time>
      </trkpt>
      <trkpt lat="45.72034" lon="2.95127">
        <ele>1087.5</ele>
        <time>2021-07-20T07:53:19Z</time>
      </trkpt>
      <trkpt lat="45.72028" lon="2.95122">
        <ele>1086.9</ele>
        <time>2021-07-20T07:53:21Z</time>
      </trkpt>
      <trkpt lat="45.72022" lon="2.95118">
        <ele>1086.4</ele>
        <time>2021-07-20T07:53:23Z</time>
      </trkpt>
      <trkpt lat="45.72021" lon="2.95111">
        <ele>1086.2</ele>
        <time>2021-07-20T07:53:25Z</time>
      </trkpt>
      <trkpt lat="45.72015" lon="2.95106">
        <ele>1085.6</ele>
        <time>2021-07-20T07:53:27Z</time>
      </trkpt>
      <trkpt lat="45.72008" lon="2.95101">
        <ele>1085</ele>
        <time>2021-07-20T07:53:29Z</time>
      </trkpt>
      <trkpt lat="45.72001" lon="2.95096">
        <ele>1084.3</ele>
        <time>2021-07-20T07:53:31Z</time>
      </trkpt>
      <trkpt lat="45.71993" lon="2.95097">
        <ele>1084.5</ele>
        <time>2021-07-20T07:53:33Z</time>
      </trkpt>
      <trkpt lat="45.71987" lon="2.95094">
        <ele>1084.5</ele>
        <time>2021-07-20T07:53:35Z</time>
      </trkpt>
      <trkpt lat="45.71983" lon="2.95092">
        <ele>1084.4</ele>
        <time>2021-07-20T07:53:37Z</time>
      </trkpt>
      <trkpt lat="45.71977" lon="2.95087">
        <ele>1084.2</ele>
        <time>2021-07-20T07:53:39Z</time>
      </trkpt>
      <trkpt lat="45.7197" lon="2.95086">
        <ele>1084.2</ele>
        <time>2021-07-20T07:53:41Z</time>
      </trkpt>
      <trkpt lat="45.71963" lon="2.95082">
        <ele>1084</ele>
        <time>2021-07-20T07:53:43Z</time>
      </trkpt>
      <trkpt lat="45.71955" lon="2.95076">
        <ele>1083.6</ele>
        <time>2021-07-20T07:53:45Z</time>
      </trkpt>
      <trkpt lat="45.71947" lon="2.95071">
        <ele>1083.4</ele>
        <time>2021-07-20T07:53:47Z</time>
      </trkpt>
      <trkpt lat="45.71939" lon="2.95066">
        <ele>1083</ele>
        <time>2021-07-20T07:53:49Z</time>
      </trkpt>
      <trkpt lat="45.71932" lon="2.95065">
        <ele>1082.8</ele>
        <time>2021-07-20T07:53:51Z</time>
      </trkpt>
      <trkpt lat="45.71923" lon="2.95062">
        <ele>1082.5</ele>
        <time>2021-07-20T07:53:53Z</time>
      </trkpt>
      <trkpt lat="45.71916" lon="2.95057">
        <ele>1082.1</ele>
        <time>2021-07-20T07:53:55Z</time>
      </trkpt>
      <trkpt lat="45.7191" lon="2.95053">
        <ele>1082.2</ele>
        <time>2021-07-20T07:53:57Z</time>
      </trkpt>
      <trkpt lat="45.71905" lon="2.95049">
        <ele>1082.2</ele>
        <time>2021-07-20T07:53:59Z</time>
      </trkpt>
      <trkpt lat="45.71898" lon="2.95045">
        <ele>1082.3</ele>
        <time>2021-07-20T07:54:01Z</time>
      </trkpt>
      <trkpt lat="45.71891" lon="2.95041">
        <ele>1082.3</ele>
        <time>2021-07-20T07:54:03Z</time>
      </trkpt>
      <trkpt lat="45.71882" lon="2.95035">
        <ele>1082.2</ele>
        <time>2021-07-20T07:54:05Z</time>
      </trkpt>
      <trkpt lat="45.71874" lon="2.9503">
        <ele>1082.1</ele>
        <time>2021-07-20T07:54:07Z</time>
      </trkpt>
      <trkpt lat="45.71866" lon="2.95023">
        <ele>1081.7</ele>
        <time>2021-07-20T07:54:09Z</time>
      </trkpt>
      <trkpt lat="45.71858" lon="2.95019">
        <ele>1081.6</ele>
        <time>2021-07-20T07:54:11Z</time>
      </trkpt>
      <trkpt lat="45.71851" lon="2.95014">
        <ele>1081.2</ele>
        <time>2021-07-20T07:54:13Z</time>
      </trkpt>
      <trkpt lat="45.71844" lon="2.9501">
        <ele>1081</ele>
        <time>2021-07-20T07:54:15Z</time>
      </trkpt>
      <trkpt lat="45.71839" lon="2.95004">
        <ele>1080.3</ele>
        <time>2021-07-20T07:54:17Z</time>
      </trkpt>
      <trkpt lat="45.71833" lon="2.95">
        <ele>1080</ele>
        <time>2021-07-20T07:54:19Z</time>
      </trkpt>
      <trkpt lat="45.71828" lon="2.94992">
        <ele>1080.1</ele>
        <time>2021-07-20T07:54:21Z</time>
      </trkpt>
      <trkpt lat="45.71821" lon="2.94985">
        <ele>1080.2</ele>
        <time>2021-07-20T07:54:23Z</time>
      </trkpt>
      <trkpt lat="45.71813" lon="2.9498">
        <ele>1080.3</ele>
        <time>2021-07-20T07:54:25Z</time>
      </trkpt>
      <trkpt lat="45.71806" lon="2.94974">
        <ele>1080.3</ele>
        <time>2021-07-20T07:54:27Z</time>
      </trkpt>
      <trkpt lat="45.71799" lon="2.94968">
        <ele>1080.2</ele>
        <time>2021-07-20T07:54:29Z</time>
      </trkpt>
      <trkpt lat="45.71792" lon="2.94959">
        <ele>1080</ele>
        <time>2021-07-20T07:54:31Z</time>
      </trkpt>
      <trkpt lat="45.71786" lon="2.94953">
        <ele>1079.9</ele>
        <time>2021-07-20T07:54:35Z</time>
      </trkpt>
      <trkpt lat="45.71777" lon="2.94949">
        <ele>1079.8</ele>
        <time>2021-07-20T07:54:39Z</time>
      </trkpt>
      <trkpt lat="45.71772" lon="2.94945">
        <ele>1079.6</ele>
        <time>2021-07-20T07:54:41Z</time>
      </trkpt>
      <trkpt lat="45.71768" lon="2.94935">
        <ele>1079.1</ele>
        <time>2021-07-20T07:54:43Z</time>
      </trkpt>
      <trkpt lat="45.71758" lon="2.94929">
        <ele>1078.8</ele>
        <time>2021-07-20T07:54:45Z</time>
      </trkpt>
      <trkpt lat="45.71749" lon="2.94924">
        <ele>1078.5</ele>
        <time>2021-07-20T07:54:47Z</time>
      </trkpt>
      <trkpt lat="45.71738" lon="2.94921">
        <ele>1078.7</ele>
        <time>2021-07-20T07:54:49Z</time>
      </trkpt>
      <trkpt lat="45.71728" lon="2.94916">
        <ele>1078.7</ele>
        <time>2021-07-20T07:54:51Z</time>
      </trkpt>
      <trkpt lat="45.71717" lon="2.94913">
        <ele>1079</ele>
        <time>2021-07-20T07:54:53Z</time>
      </trkpt>
      <trkpt lat="45.71708" lon="2.94908">
        <ele>1079.1</ele>
        <time>2021-07-20T07:54:55Z</time>
      </trkpt>
      <trkpt lat="45.71699" lon="2.94903">
        <ele>1079</ele>
        <time>2021-07-20T07:54:57Z</time>
      </trkpt>
      <trkpt lat="45.71691" lon="2.94902">
        <ele>1079.1</ele>
        <time>2021-07-20T07:54:59Z</time>
      </trkpt>
      <trkpt lat="45.71685" lon="2.94899">
        <ele>1079.1</ele>
        <time>2021-07-20T07:55:01Z</time>
      </trkpt>
      <trkpt lat="45.71676" lon="2.94896">
        <ele>1079.1</ele>
        <time>2021-07-20T07:55:03Z</time>
      </trkpt>
      <trkpt lat="45.71669" lon="2.94886">
        <ele>1078.4</ele>
        <time>2021-07-20T07:55:05Z</time>
      </trkpt>
      <trkpt lat="45.71659" lon="2.94879">
        <ele>1077.5</ele>
        <time>2021-07-20T07:55:07Z</time>
      </trkpt>
      <trkpt lat="45.71648" lon="2.94871">
        <ele>1076.2</ele>
        <time>2021-07-20T07:55:09Z</time>
      </trkpt>
      <trkpt lat="45.71635" lon="2.94866">
        <ele>1075.2</ele>
        <time>2021-07-20T07:55:11Z</time>
      </trkpt>
      <trkpt lat="45.71626" lon="2.94863">
        <ele>1074.4</ele>
        <time>2021-07-20T07:55:13Z</time>
      </trkpt>
      <trkpt lat="45.71616" lon="2.94857">
        <ele>1073.3</ele>
        <time>2021-07-20T07:55:15Z</time>
      </trkpt>
      <trkpt lat="45.71606" lon="2.94855">
        <ele>1072.5</ele>
        <time>2021-07-20T07:55:17Z</time>
      </trkpt>
      <trkpt lat="45.71598" lon="2.94853">
        <ele>1071.9</ele>
        <time>2021-07-20T07:55:19Z</time>
      </trkpt>
      <trkpt lat="45.71591" lon="2.9485">
        <ele>1071.2</ele>
        <time>2021-07-20T07:55:21Z</time>
      </trkpt>
      <trkpt lat="45.71585" lon="2.94851">
        <ele>1071</ele>
        <time>2021-07-20T07:55:23Z</time>
      </trkpt>
      <trkpt lat="45.71579" lon="2.94844">
        <ele>1070</ele>
        <time>2021-07-20T07:55:25Z</time>
      </trkpt>
      <trkpt lat="45.71569" lon="2.94842">
        <ele>1069.6</ele>
        <time>2021-07-20T07:55:27Z</time>
      </trkpt>
      <trkpt lat="45.71558" lon="2.94842">
        <ele>1069.2</ele>
        <time>2021-07-20T07:55:29Z</time>
      </trkpt>
      <trkpt lat="45.71549" lon="2.94842">
        <ele>1068.9</ele>
        <time>2021-07-20T07:55:31Z</time>
      </trkpt>
      <trkpt lat="45.71538" lon="2.94841">
        <ele>1068.5</ele>
        <time>2021-07-20T07:55:33Z</time>
      </trkpt>
      <trkpt lat="45.7153" lon="2.94833">
        <ele>1067.7</ele>
        <time>2021-07-20T07:55:35Z</time>
      </trkpt>
      <trkpt lat="45.71522" lon="2.9483">
        <ele>1067.5</ele>
        <time>2021-07-20T07:55:37Z</time>
      </trkpt>
      <trkpt lat="45.71513" lon="2.94829">
        <ele>1067.3</ele>
        <time>2021-07-20T07:55:39Z</time>
      </trkpt>
      <trkpt lat="45.71508" lon="2.94825">
        <ele>1067.2</ele>
        <time>2021-07-20T07:55:41Z</time>
      </trkpt>
      <trkpt lat="45.71501" lon="2.94823">
        <ele>1067</ele>
        <time>2021-07-20T07:55:43Z</time>
      </trkpt>
      <trkpt lat="45.71496" lon="2.94824">
        <ele>1066.7</ele>
        <time>2021-07-20T07:55:45Z</time>
      </trkpt>
      <trkpt lat="45.7149" lon="2.9482">
        <ele>1066</ele>
        <time>2021-07-20T07:55:49Z</time>
      </trkpt>
      <trkpt lat="45.71483" lon="2.94816">
        <ele>1065.4</ele>
        <time>2021-07-20T07:55:51Z</time>
      </trkpt>
      <trkpt lat="45.71476" lon="2.94813">
        <ele>1064.7</ele>
        <time>2021-07-20T07:55:53Z</time>
      </trkpt>
      <trkpt lat="45.71466" lon="2.94811">
        <ele>1063.8</ele>
        <time>2021-07-20T07:55:55Z</time>
      </trkpt>
      <trkpt lat="45.71454" lon="2.94809">
        <ele>1062.6</ele>
        <time>2021-07-20T07:55:57Z</time>
      </trkpt>
      <trkpt lat="45.71442" lon="2.94805">
        <ele>1061.4</ele>
        <time>2021-07-20T07:55:59Z</time>
      </trkpt>
      <trkpt lat="45.71433" lon="2.94796">
        <ele>1060.5</ele>
        <time>2021-07-20T07:56:01Z</time>
      </trkpt>
      <trkpt lat="45.71423" lon="2.94787">
        <ele>1059.6</ele>
        <time>2021-07-20T07:56:03Z</time>
      </trkpt>
      <trkpt lat="45.71414" lon="2.94778">
        <ele>1058.9</ele>
        <time>2021-07-20T07:56:05Z</time>
      </trkpt>
      <trkpt lat="45.71404" lon="2.94765">
        <ele>1058.2</ele>
        <time>2021-07-20T07:56:07Z</time>
      </trkpt>
      <trkpt lat="45.71393" lon="2.94756">
        <ele>1057.6</ele>
        <time>2021-07-20T07:56:09Z</time>
      </trkpt>
      <trkpt lat="45.71383" lon="2.94744">
        <ele>1057.2</ele>
        <time>2021-07-20T07:56:11Z</time>
      </trkpt>
      <trkpt lat="45.71373" lon="2.94731">
        <ele>1057.3</ele>
        <time>2021-07-20T07:56:13Z</time>
      </trkpt>
      <trkpt lat="45.71363" lon="2.94722">
        <ele>1057.3</ele>
        <time>2021-07-20T07:56:15Z</time>
      </trkpt>
      <trkpt lat="45.71353" lon="2.94719">
        <ele>1057.1</ele>
        <time>2021-07-20T07:56:17Z</time>
      </trkpt>
      <trkpt lat="45.71344" lon="2.94719">
        <ele>1056.7</ele>
        <time>2021-07-20T07:56:19Z</time>
      </trkpt>
      <trkpt lat="45.71338" lon="2.94715">
        <ele>1056.7</ele>
        <time>2021-07-20T07:56:21Z</time>
      </trkpt>
      <trkpt lat="45.71332" lon="2.94713">
        <ele>1056.6</ele>
        <time>2021-07-20T07:56:23Z</time>
      </trkpt>
      <trkpt lat="45.71327" lon="2.94711">
        <ele>1056.5</ele>
        <time>2021-07-20T07:56:25Z</time>
      </trkpt>
      <trkpt lat="45.71323" lon="2.94707">
        <ele>1056.5</ele>
        <time>2021-07-20T07:56:27Z</time>
      </trkpt>
      <trkpt lat="45.71318" lon="2.947">
        <ele>1056.6</ele>
        <time>2021-07-20T07:56:31Z</time>
      </trkpt>
      <trkpt lat="45.71311" lon="2.94696">
        <ele>1056.4</ele>
        <time>2021-07-20T08:00:19Z</time>
      </trkpt>
      <trkpt lat="45.71305" lon="2.94692">
        <ele>1056.2</ele>
        <time>2021-07-20T08:00:23Z</time>
      </trkpt>
      <trkpt lat="45.71299" lon="2.94689">
        <ele>1055.9</ele>
        <time>2021-07-20T08:00:27Z</time>
      </trkpt>
      <trkpt lat="45.71293" lon="2.94683">
        <ele>1055.8</ele>
        <time>2021-07-20T08:00:31Z</time>
      </trkpt>
      <trkpt lat="45.71288" lon="2.9468">
        <ele>1055.6</ele>
        <time>2021-07-20T08:00:35Z</time>
      </trkpt>
      <trkpt lat="45.7128" lon="2.94678">
        <ele>1055</ele>
        <time>2021-07-20T08:00:39Z</time>
      </trkpt>
      <trkpt lat="45.71275" lon="2.94679">
        <ele>1054.6</ele>
        <time>2021-07-20T08:00:41Z</time>
      </trkpt>
      <trkpt lat="45.71269" lon="2.94678">
        <ele>1054.2</ele>
        <time>2021-07-20T08:00:43Z</time>
      </trkpt>
      <trkpt lat="45.71265" lon="2.94677">
        <ele>1053.9</ele>
        <time>2021-07-20T08:00:45Z</time>
      </trkpt>
      <trkpt lat="45.7126" lon="2.94675">
        <ele>1053.6</ele>
        <time>2021-07-20T08:00:47Z</time>
      </trkpt>
      <trkpt lat="45.71256" lon="2.94673">
        <ele>1053.3</ele>
        <time>2021-07-20T08:00:49Z</time>
      </trkpt>
      <trkpt lat="45.71251" lon="2.94669">
        <ele>1053</ele>
        <time>2021-07-20T08:00:51Z</time>
      </trkpt>
      <trkpt lat="45.71247" lon="2.94665">
        <ele>1053.1</ele>
        <time>2021-07-20T08:00:53Z</time>
      </trkpt>
      <trkpt lat="45.71242" lon="2.94661">
        <ele>1053.5</ele>
        <time>2021-07-20T08:00:55Z</time>
      </trkpt>
      <trkpt lat="45.71238" lon="2.94656">
        <ele>1053.9</ele>
        <time>2021-07-20T08:00:57Z</time>
      </trkpt>
      <trkpt lat="45.71233" lon="2.94652">
        <ele>1054.1</ele>
        <time>2021-07-20T08:00:59Z</time>
      </trkpt>
      <trkpt lat="45.71229" lon="2.94648">
        <ele>1054.3</ele>
        <time>2021-07-20T08:01:01Z</time>
      </trkpt>
      <trkpt lat="45.71225" lon="2.94644">
        <ele>1054.5</ele>
        <time>2021-07-20T08:01:03Z</time>
      </trkpt>
      <trkpt lat="45.71221" lon="2.9464">
        <ele>1054.6</ele>
        <time>2021-07-20T08:01:05Z</time>
      </trkpt>
      <trkpt lat="45.71216" lon="2.9463">
        <ele>1055</ele>
        <time>2021-07-20T08:01:09Z</time>
      </trkpt>
      <trkpt lat="45.71211" lon="2.94626">
        <ele>1054.9</ele>
        <time>2021-07-20T08:01:11Z</time>
      </trkpt>
      <trkpt lat="45.71206" lon="2.9462">
        <ele>1054.9</ele>
        <time>2021-07-20T08:01:13Z</time>
      </trkpt>
      <trkpt lat="45.71203" lon="2.94614">
        <ele>1054.9</ele>
        <time>2021-07-20T08:01:15Z</time>
      </trkpt>
      <trkpt lat="45.71198" lon="2.94607">
        <ele>1054.7</ele>
        <time>2021-07-20T08:01:17Z</time>
      </trkpt>
      <trkpt lat="45.71195" lon="2.94601">
        <ele>1054.6</ele>
        <time>2021-07-20T08:01:19Z</time>
      </trkpt>
      <trkpt lat="45.71189" lon="2.94596">
        <ele>1054.1</ele>
        <time>2021-07-20T08:01:21Z</time>
      </trkpt>
      <trkpt lat="45.71188" lon="2.9459">
        <ele>1054.1</ele>
        <time>2021-07-20T08:01:23Z</time>
      </trkpt>
      <trkpt lat="45.71184" lon="2.94584">
        <ele>1053.7</ele>
        <time>2021-07-20T08:01:25Z</time>
      </trkpt>
      <trkpt lat="45.71183" lon="2.94577">
        <ele>1053.6</ele>
        <time>2021-07-20T08:01:27Z</time>
      </trkpt>
      <trkpt lat="45.71179" lon="2.94572">
        <ele>1053.1</ele>
        <time>2021-07-20T08:01:29Z</time>
      </trkpt>
      <trkpt lat="45.71175" lon="2.94565">
        <ele>1052.6</ele>
        <time>2021-07-20T08:01:31Z</time>
      </trkpt>
      <trkpt lat="45.71172" lon="2.94559">
        <ele>1052.2</ele>
        <time>2021-07-20T08:01:33Z</time>
      </trkpt>
      <trkpt lat="45.71168" lon="2.94554">
        <ele>1051.5</ele>
        <time>2021-07-20T08:01:35Z</time>
      </trkpt>
      <trkpt lat="45.71163" lon="2.94547">
        <ele>1051.3</ele>
        <time>2021-07-20T08:01:37Z</time>
      </trkpt>
      <trkpt lat="45.71159" lon="2.9454">
        <ele>1051.3</ele>
        <time>2021-07-20T08:01:39Z</time>
      </trkpt>
      <trkpt lat="45.71155" lon="2.94534">
        <ele>1051.2</ele>
        <time>2021-07-20T08:01:41Z</time>
      </trkpt>
      <trkpt lat="45.71151" lon="2.94528">
        <ele>1051.1</ele>
        <time>2021-07-20T08:01:43Z</time>
      </trkpt>
      <trkpt lat="45.71147" lon="2.94521">
        <ele>1051</ele>
        <time>2021-07-20T08:01:45Z</time>
      </trkpt>
      <trkpt lat="45.71143" lon="2.94514">
        <ele>1050.8</ele>
        <time>2021-07-20T08:01:47Z</time>
      </trkpt>
      <trkpt lat="45.71138" lon="2.94507">
        <ele>1050.6</ele>
        <time>2021-07-20T08:01:49Z</time>
      </trkpt>
      <trkpt lat="45.71135" lon="2.94499">
        <ele>1050.5</ele>
        <time>2021-07-20T08:01:51Z</time>
      </trkpt>
      <trkpt lat="45.7113" lon="2.94493">
        <ele>1050.2</ele>
        <time>2021-07-20T08:01:53Z</time>
      </trkpt>
      <trkpt lat="45.71126" lon="2.94486">
        <ele>1050.1</ele>
        <time>2021-07-20T08:01:55Z</time>
      </trkpt>
      <trkpt lat="45.71122" lon="2.9448">
        <ele>1049.9</ele>
        <time>2021-07-20T08:01:57Z</time>
      </trkpt>
      <trkpt lat="45.71119" lon="2.94475">
        <ele>1049.7</ele>
        <time>2021-07-20T08:01:59Z</time>
      </trkpt>
      <trkpt lat="45.71114" lon="2.94469">
        <ele>1049.6</ele>
        <time>2021-07-20T08:02:01Z</time>
      </trkpt>
      <trkpt lat="45.71111" lon="2.94461">
        <ele>1049.5</ele>
        <time>2021-07-20T08:02:03Z</time>
      </trkpt>
      <trkpt lat="45.71107" lon="2.94454">
        <ele>1049.4</ele>
        <time>2021-07-20T08:02:05Z</time>
      </trkpt>
      <trkpt lat="45.71105" lon="2.94446">
        <ele>1049.4</ele>
        <time>2021-07-20T08:02:07Z</time>
      </trkpt>
      <trkpt lat="45.711" lon="2.9444">
        <ele>1049.2</ele>
        <time>2021-07-20T08:02:09Z</time>
      </trkpt>
      <trkpt lat="45.71096" lon="2.94432">
        <ele>1049.2</ele>
        <time>2021-07-20T08:02:11Z</time>
      </trkpt>
      <trkpt lat="45.71094" lon="2.94423">
        <ele>1049.2</ele>
        <time>2021-07-20T08:02:13Z</time>
      </trkpt>
      <trkpt lat="45.71091" lon="2.94414">
        <ele>1049.1</ele>
        <time>2021-07-20T08:02:15Z</time>
      </trkpt>
      <trkpt lat="45.71089" lon="2.94406">
        <ele>1048.7</ele>
        <time>2021-07-20T08:02:17Z</time>
      </trkpt>
      <trkpt lat="45.71086" lon="2.94394">
        <ele>1048.2</ele>
        <time>2021-07-20T08:02:19Z</time>
      </trkpt>
      <trkpt lat="45.71082" lon="2.94381">
        <ele>1047.7</ele>
        <time>2021-07-20T08:02:21Z</time>
      </trkpt>
      <trkpt lat="45.71079" lon="2.94366">
        <ele>1047.1</ele>
        <time>2021-07-20T08:02:23Z</time>
      </trkpt>
      <trkpt lat="45.71074" lon="2.9435">
        <ele>1046.5</ele>
        <time>2021-07-20T08:02:25Z</time>
      </trkpt>
      <trkpt lat="45.71066" lon="2.94335">
        <ele>1045.9</ele>
        <time>2021-07-20T08:02:27Z</time>
      </trkpt>
      <trkpt lat="45.71057" lon="2.94324">
        <ele>1045.4</ele>
        <time>2021-07-20T08:02:29Z</time>
      </trkpt>
      <trkpt lat="45.7105" lon="2.94311">
        <ele>1045</ele>
        <time>2021-07-20T08:02:31Z</time>
      </trkpt>
      <trkpt lat="45.71045" lon="2.94299">
        <ele>1044.5</ele>
        <time>2021-07-20T08:02:33Z</time>
      </trkpt>
      <trkpt lat="45.71042" lon="2.9429">
        <ele>1044.2</ele>
        <time>2021-07-20T08:02:35Z</time>
      </trkpt>
      <trkpt lat="45.71038" lon="2.94282">
        <ele>1043.9</ele>
        <time>2021-07-20T08:02:37Z</time>
      </trkpt>
      <trkpt lat="45.71033" lon="2.94272">
        <ele>1043.5</ele>
        <time>2021-07-20T08:02:39Z</time>
      </trkpt>
      <trkpt lat="45.71026" lon="2.94261">
        <ele>1043</ele>
        <time>2021-07-20T08:02:41Z</time>
      </trkpt>
      <trkpt lat="45.71017" lon="2.94252">
        <ele>1042.5</ele>
        <time>2021-07-20T08:02:43Z</time>
      </trkpt>
      <trkpt lat="45.71008" lon="2.94244">
        <ele>1042</ele>
        <time>2021-07-20T08:02:45Z</time>
      </trkpt>
      <trkpt lat="45.70997" lon="2.94234">
        <ele>1041.8</ele>
        <time>2021-07-20T08:02:47Z</time>
      </trkpt>
      <trkpt lat="45.70988" lon="2.94223">
        <ele>1042</ele>
        <time>2021-07-20T08:02:49Z</time>
      </trkpt>
      <trkpt lat="45.70978" lon="2.94212">
        <ele>1042.4</ele>
        <time>2021-07-20T08:02:51Z</time>
      </trkpt>
      <trkpt lat="45.70968" lon="2.94201">
        <ele>1042.8</ele>
        <time>2021-07-20T08:02:53Z</time>
      </trkpt>
      <trkpt lat="45.70959" lon="2.9419">
        <ele>1043.2</ele>
        <time>2021-07-20T08:02:55Z</time>
      </trkpt>
      <trkpt lat="45.7095" lon="2.94179">
        <ele>1043.7</ele>
        <time>2021-07-20T08:02:57Z</time>
      </trkpt>
      <trkpt lat="45.70943" lon="2.94166">
        <ele>1044</ele>
        <time>2021-07-20T08:02:59Z</time>
      </trkpt>
      <trkpt lat="45.70937" lon="2.94153">
        <ele>1044</ele>
        <time>2021-07-20T08:03:01Z</time>
      </trkpt>
      <trkpt lat="45.70931" lon="2.94142">
        <ele>1044</ele>
        <time>2021-07-20T08:03:03Z</time>
      </trkpt>
      <trkpt lat="45.70925" lon="2.94132">
        <ele>1043.9</ele>
        <time>2021-07-20T08:03:05Z</time>
      </trkpt>
      <trkpt lat="45.70919" lon="2.94122">
        <ele>1043.7</ele>
        <time>2021-07-20T08:03:07Z</time>
      </trkpt>
      <trkpt lat="45.70914" lon="2.94113">
        <ele>1043.8</ele>
        <time>2021-07-20T08:03:09Z</time>
      </trkpt>
      <trkpt lat="45.70908" lon="2.94104">
        <ele>1043.9</ele>
        <time>2021-07-20T08:03:11Z</time>
      </trkpt>
      <trkpt lat="45.70903" lon="2.94096">
        <ele>1044.2</ele>
        <time>2021-07-20T08:03:13Z</time>
      </trkpt>
      <trkpt lat="45.70896" lon="2.94088">
        <ele>1044.5</ele>
        <time>2021-07-20T08:03:15Z</time>
      </trkpt>
      <trkpt lat="45.70889" lon="2.94083">
        <ele>1045</ele>
        <time>2021-07-20T08:03:17Z</time>
      </trkpt>
      <trkpt lat="45.70882" lon="2.94077">
        <ele>1045.6</ele>
        <time>2021-07-20T08:03:19Z</time>
      </trkpt>
      <trkpt lat="45.70875" lon="2.9407">
        <ele>1046.2</ele>
        <time>2021-07-20T08:03:21Z</time>
      </trkpt>
      <trkpt lat="45.70868" lon="2.94063">
        <ele>1046.6</ele>
        <time>2021-07-20T08:03:23Z</time>
      </trkpt>
      <trkpt lat="45.70861" lon="2.94058">
        <ele>1047</ele>
        <time>2021-07-20T08:03:25Z</time>
      </trkpt>
      <trkpt lat="45.70854" lon="2.94051">
        <ele>1047.2</ele>
        <time>2021-07-20T08:03:27Z</time>
      </trkpt>
      <trkpt lat="45.70846" lon="2.94044">
        <ele>1047.4</ele>
        <time>2021-07-20T08:03:29Z</time>
      </trkpt>
      <trkpt lat="45.70839" lon="2.94037">
        <ele>1047.4</ele>
        <time>2021-07-20T08:03:31Z</time>
      </trkpt>
      <trkpt lat="45.70832" lon="2.94028">
        <ele>1047.2</ele>
        <time>2021-07-20T08:03:33Z</time>
      </trkpt>
      <trkpt lat="45.70825" lon="2.94019">
        <ele>1047.2</ele>
        <time>2021-07-20T08:03:35Z</time>
      </trkpt>
      <trkpt lat="45.70818" lon="2.94013">
        <ele>1047.4</ele>
        <time>2021-07-20T08:03:37Z</time>
      </trkpt>
      <trkpt lat="45.70811" lon="2.94009">
        <ele>1047.8</ele>
        <time>2021-07-20T08:03:39Z</time>
      </trkpt>
      <trkpt lat="45.70805" lon="2.94003">
        <ele>1047.6</ele>
        <time>2021-07-20T08:03:41Z</time>
      </trkpt>
      <trkpt lat="45.708" lon="2.93994">
        <ele>1047.6</ele>
        <time>2021-07-20T08:03:43Z</time>
      </trkpt>
      <trkpt lat="45.70797" lon="2.93984">
        <ele>1047.5</ele>
        <time>2021-07-20T08:03:45Z</time>
      </trkpt>
      <trkpt lat="45.70794" lon="2.93974">
        <ele>1047.5</ele>
        <time>2021-07-20T08:03:47Z</time>
      </trkpt>
      <trkpt lat="45.70788" lon="2.93966">
        <ele>1047.5</ele>
        <time>2021-07-20T08:03:49Z</time>
      </trkpt>
      <trkpt lat="45.70782" lon="2.93958">
        <ele>1047.3</ele>
        <time>2021-07-20T08:03:51Z</time>
      </trkpt>
      <trkpt lat="45.70776" lon="2.9395">
        <ele>1047.1</ele>
        <time>2021-07-20T08:03:53Z</time>
      </trkpt>
      <trkpt lat="45.7077" lon="2.93942">
        <ele>1046.8</ele>
        <time>2021-07-20T08:03:55Z</time>
      </trkpt>
      <trkpt lat="45.70764" lon="2.93934">
        <ele>1046.3</ele>
        <time>2021-07-20T08:03:57Z</time>
      </trkpt>
      <trkpt lat="45.70758" lon="2.93928">
        <ele>1046</ele>
        <time>2021-07-20T08:03:59Z</time>
      </trkpt>
      <trkpt lat="45.70755" lon="2.93924">
        <ele>1045.6</ele>
        <time>2021-07-20T08:04:01Z</time>
      </trkpt>
      <trkpt lat="45.70752" lon="2.93919">
        <ele>1045.2</ele>
        <time>2021-07-20T08:05:15Z</time>
      </trkpt>
      <trkpt lat="45.70746" lon="2.9391">
        <ele>1045.6</ele>
        <time>2021-07-20T08:05:23Z</time>
      </trkpt>
      <trkpt lat="45.70741" lon="2.93903">
        <ele>1046.2</ele>
        <time>2021-07-20T08:05:25Z</time>
      </trkpt>
      <trkpt lat="45.70735" lon="2.93895">
        <ele>1047</ele>
        <time>2021-07-20T08:05:27Z</time>
      </trkpt>
      <trkpt lat="45.70729" lon="2.93885">
        <ele>1047.7</ele>
        <time>2021-07-20T08:05:29Z</time>
      </trkpt>
      <trkpt lat="45.70723" lon="2.93874">
        <ele>1048.5</ele>
        <time>2021-07-20T08:05:31Z</time>
      </trkpt>
      <trkpt lat="45.70716" lon="2.93862">
        <ele>1049.2</ele>
        <time>2021-07-20T08:05:33Z</time>
      </trkpt>
      <trkpt lat="45.70709" lon="2.93851">
        <ele>1049.9</ele>
        <time>2021-07-20T08:05:35Z</time>
      </trkpt>
      <trkpt lat="45.70704" lon="2.93837">
        <ele>1050.3</ele>
        <time>2021-07-20T08:05:37Z</time>
      </trkpt>
      <trkpt lat="45.70701" lon="2.93823">
        <ele>1050.6</ele>
        <time>2021-07-20T08:05:39Z</time>
      </trkpt>
      <trkpt lat="45.70698" lon="2.93809">
        <ele>1050.9</ele>
        <time>2021-07-20T08:05:41Z</time>
      </trkpt>
      <trkpt lat="45.70695" lon="2.93795">
        <ele>1051.1</ele>
        <time>2021-07-20T08:05:43Z</time>
      </trkpt>
      <trkpt lat="45.70692" lon="2.93783">
        <ele>1051.3</ele>
        <time>2021-07-20T08:05:45Z</time>
      </trkpt>
      <trkpt lat="45.70689" lon="2.9377">
        <ele>1051.4</ele>
        <time>2021-07-20T08:05:47Z</time>
      </trkpt>
      <trkpt lat="45.70686" lon="2.93756">
        <ele>1051.5</ele>
        <time>2021-07-20T08:05:49Z</time>
      </trkpt>
      <trkpt lat="45.70683" lon="2.93743">
        <ele>1051.6</ele>
        <time>2021-07-20T08:05:51Z</time>
      </trkpt>
      <trkpt lat="45.70679" lon="2.9373">
        <ele>1051.5</ele>
        <time>2021-07-20T08:05:53Z</time>
      </trkpt>
      <trkpt lat="45.70675" lon="2.93717">
        <ele>1051.4</ele>
        <time>2021-07-20T08:05:55Z</time>
      </trkpt>
      <trkpt lat="45.70672" lon="2.93704">
        <ele>1051.1</ele>
        <time>2021-07-20T08:05:57Z</time>
      </trkpt>
      <trkpt lat="45.70669" lon="2.93691">
        <ele>1050.7</ele>
        <time>2021-07-20T08:05:59Z</time>
      </trkpt>
      <trkpt lat="45.70665" lon="2.93678">
        <ele>1050.4</ele>
        <time>2021-07-20T08:06:01Z</time>
      </trkpt>
      <trkpt lat="45.70662" lon="2.93665">
        <ele>1050.5</ele>
        <time>2021-07-20T08:06:03Z</time>
      </trkpt>
      <trkpt lat="45.70657" lon="2.93652">
        <ele>1051.1</ele>
        <time>2021-07-20T08:06:05Z</time>
      </trkpt>
      <trkpt lat="45.70653" lon="2.93639">
        <ele>1051.5</ele>
        <time>2021-07-20T08:06:07Z</time>
      </trkpt>
      <trkpt lat="45.7065" lon="2.93625">
        <ele>1051.8</ele>
        <time>2021-07-20T08:06:09Z</time>
      </trkpt>
      <trkpt lat="45.70648" lon="2.9361">
        <ele>1052</ele>
        <time>2021-07-20T08:06:11Z</time>
      </trkpt>
      <trkpt lat="45.70643" lon="2.93597">
        <ele>1052.5</ele>
        <time>2021-07-20T08:06:13Z</time>
      </trkpt>
      <trkpt lat="45.7064" lon="2.93585">
        <ele>1052.9</ele>
        <time>2021-07-20T08:06:15Z</time>
      </trkpt>
      <trkpt lat="45.70637" lon="2.93574">
        <ele>1053.6</ele>
        <time>2021-07-20T08:06:17Z</time>
      </trkpt>
      <trkpt lat="45.70634" lon="2.93563">
        <ele>1054.4</ele>
        <time>2021-07-20T08:06:19Z</time>
      </trkpt>
      <trkpt lat="45.70632" lon="2.93552">
        <ele>1055</ele>
        <time>2021-07-20T08:06:21Z</time>
      </trkpt>
      <trkpt lat="45.7063" lon="2.93542">
        <ele>1055.6</ele>
        <time>2021-07-20T08:06:23Z</time>
      </trkpt>
      <trkpt lat="45.70628" lon="2.93533">
        <ele>1056.1</ele>
        <time>2021-07-20T08:06:25Z</time>
      </trkpt>
      <trkpt lat="45.70627" lon="2.93524">
        <ele>1056.5</ele>
        <time>2021-07-20T08:06:27Z</time>
      </trkpt>
      <trkpt lat="45.70626" lon="2.93515">
        <ele>1056.9</ele>
        <time>2021-07-20T08:06:29Z</time>
      </trkpt>
      <trkpt lat="45.70623" lon="2.93507">
        <ele>1057.3</ele>
        <time>2021-07-20T08:06:31Z</time>
      </trkpt>
      <trkpt lat="45.70622" lon="2.93499">
        <ele>1057.6</ele>
        <time>2021-07-20T08:06:33Z</time>
      </trkpt>
      <trkpt lat="45.70619" lon="2.93491">
        <ele>1057.5</ele>
        <time>2021-07-20T08:06:35Z</time>
      </trkpt>
      <trkpt lat="45.70617" lon="2.93483">
        <ele>1057.3</ele>
        <time>2021-07-20T08:06:37Z</time>
      </trkpt>
      <trkpt lat="45.70615" lon="2.93475">
        <ele>1057</ele>
        <time>2021-07-20T08:06:39Z</time>
      </trkpt>
      <trkpt lat="45.70614" lon="2.93466">
        <ele>1056.7</ele>
        <time>2021-07-20T08:06:41Z</time>
      </trkpt>
      <trkpt lat="45.70611" lon="2.93457">
        <ele>1056.3</ele>
        <time>2021-07-20T08:06:43Z</time>
      </trkpt>
      <trkpt lat="45.70608" lon="2.93449">
        <ele>1055.8</ele>
        <time>2021-07-20T08:06:45Z</time>
      </trkpt>
      <trkpt lat="45.70605" lon="2.93439">
        <ele>1055.2</ele>
        <time>2021-07-20T08:06:47Z</time>
      </trkpt>
      <trkpt lat="45.70601" lon="2.93428">
        <ele>1054.3</ele>
        <time>2021-07-20T08:06:49Z</time>
      </trkpt>
      <trkpt lat="45.70595" lon="2.93416">
        <ele>1053.1</ele>
        <time>2021-07-20T08:06:51Z</time>
      </trkpt>
      <trkpt lat="45.70591" lon="2.93401">
        <ele>1051.9</ele>
        <time>2021-07-20T08:06:53Z</time>
      </trkpt>
      <trkpt lat="45.70585" lon="2.93388">
        <ele>1050.4</ele>
        <time>2021-07-20T08:06:55Z</time>
      </trkpt>
      <trkpt lat="45.70581" lon="2.93373">
        <ele>1049.3</ele>
        <time>2021-07-20T08:06:57Z</time>
      </trkpt>
      <trkpt lat="45.70576" lon="2.93356">
        <ele>1048.3</ele>
        <time>2021-07-20T08:06:59Z</time>
      </trkpt>
      <trkpt lat="45.7057" lon="2.9334">
        <ele>1047.2</ele>
        <time>2021-07-20T08:07:01Z</time>
      </trkpt>
      <trkpt lat="45.70565" lon="2.93324">
        <ele>1046.7</ele>
        <time>2021-07-20T08:07:03Z</time>
      </trkpt>
      <trkpt lat="45.7056" lon="2.93309">
        <ele>1046.4</ele>
        <time>2021-07-20T08:07:05Z</time>
      </trkpt>
      <trkpt lat="45.70557" lon="2.93296">
        <ele>1046.2</ele>
        <time>2021-07-20T08:07:07Z</time>
      </trkpt>
      <trkpt lat="45.70553" lon="2.93283">
        <ele>1046</ele>
        <time>2021-07-20T08:07:09Z</time>
      </trkpt>
      <trkpt lat="45.7055" lon="2.9327">
        <ele>1045.8</ele>
        <time>2021-07-20T08:07:11Z</time>
      </trkpt>
      <trkpt lat="45.70547" lon="2.93255">
        <ele>1045.6</ele>
        <time>2021-07-20T08:07:13Z</time>
      </trkpt>
      <trkpt lat="45.70545" lon="2.93241">
        <ele>1045.5</ele>
        <time>2021-07-20T08:07:15Z</time>
      </trkpt>
      <trkpt lat="45.70543" lon="2.93227">
        <ele>1045.5</ele>
        <time>2021-07-20T08:07:17Z</time>
      </trkpt>
      <trkpt lat="45.70542" lon="2.93215">
        <ele>1045.5</ele>
        <time>2021-07-20T08:07:19Z</time>
      </trkpt>
      <trkpt lat="45.70542" lon="2.93201">
        <ele>1045.5</ele>
        <time>2021-07-20T08:07:21Z</time>
      </trkpt>
      <trkpt lat="45.70541" lon="2.93186">
        <ele>1045.5</ele>
        <time>2021-07-20T08:07:23Z</time>
      </trkpt>
      <trkpt lat="45.70541" lon="2.93171">
        <ele>1045.5</ele>
        <time>2021-07-20T08:07:25Z</time>
      </trkpt>
      <trkpt lat="45.7054" lon="2.93154">
        <ele>1045</ele>
        <time>2021-07-20T08:07:27Z</time>
      </trkpt>
      <trkpt lat="45.70539" lon="2.93138">
        <ele>1044.3</ele>
        <time>2021-07-20T08:07:29Z</time>
      </trkpt>
      <trkpt lat="45.70538" lon="2.93121">
        <ele>1043.6</ele>
        <time>2021-07-20T08:07:31Z</time>
      </trkpt>
      <trkpt lat="45.70536" lon="2.93106">
        <ele>1043</ele>
        <time>2021-07-20T08:07:33Z</time>
      </trkpt>
      <trkpt lat="45.70535" lon="2.93092">
        <ele>1042.4</ele>
        <time>2021-07-20T08:07:35Z</time>
      </trkpt>
      <trkpt lat="45.70533" lon="2.93081">
        <ele>1041.9</ele>
        <time>2021-07-20T08:07:37Z</time>
      </trkpt>
      <trkpt lat="45.70533" lon="2.93072">
        <ele>1041.7</ele>
        <time>2021-07-20T08:07:39Z</time>
      </trkpt>
      <trkpt lat="45.70532" lon="2.93066">
        <ele>1041.6</ele>
        <time>2021-07-20T08:07:41Z</time>
      </trkpt>
      <trkpt lat="45.70531" lon="2.93057">
        <ele>1041.4</ele>
        <time>2021-07-20T08:07:43Z</time>
      </trkpt>
      <trkpt lat="45.70531" lon="2.93049">
        <ele>1041.2</ele>
        <time>2021-07-20T08:07:45Z</time>
      </trkpt>
      <trkpt lat="45.70531" lon="2.93037">
        <ele>1040.9</ele>
        <time>2021-07-20T08:07:49Z</time>
      </trkpt>
      <trkpt lat="45.70534" lon="2.9303">
        <ele>1040.7</ele>
        <time>2021-07-20T08:07:53Z</time>
      </trkpt>
      <trkpt lat="45.70531" lon="2.93019">
        <ele>1040.5</ele>
        <time>2021-07-20T08:09:23Z</time>
      </trkpt>
      <trkpt lat="45.70532" lon="2.9301">
        <ele>1040.2</ele>
        <time>2021-07-20T08:09:25Z</time>
      </trkpt>
      <trkpt lat="45.70534" lon="2.92999">
        <ele>1040</ele>
        <time>2021-07-20T08:09:27Z</time>
      </trkpt>
      <trkpt lat="45.70535" lon="2.92987">
        <ele>1039.7</ele>
        <time>2021-07-20T08:09:29Z</time>
      </trkpt>
      <trkpt lat="45.70535" lon="2.92976">
        <ele>1039.5</ele>
        <time>2021-07-20T08:09:31Z</time>
      </trkpt>
      <trkpt lat="45.70534" lon="2.92962">
        <ele>1039.2</ele>
        <time>2021-07-20T08:09:33Z</time>
      </trkpt>
      <trkpt lat="45.70534" lon="2.92949">
        <ele>1038.9</ele>
        <time>2021-07-20T08:09:35Z</time>
      </trkpt>
      <trkpt lat="45.70534" lon="2.92937">
        <ele>1038.6</ele>
        <time>2021-07-20T08:09:37Z</time>
      </trkpt>
      <trkpt lat="45.70532" lon="2.92925">
        <ele>1038.4</ele>
        <time>2021-07-20T08:09:39Z</time>
      </trkpt>
      <trkpt lat="45.70528" lon="2.92912">
        <ele>1038.3</ele>
        <time>2021-07-20T08:09:41Z</time>
      </trkpt>
      <trkpt lat="45.70524" lon="2.92899">
        <ele>1038.2</ele>
        <time>2021-07-20T08:09:43Z</time>
      </trkpt>
      <trkpt lat="45.70522" lon="2.92884">
        <ele>1038.1</ele>
        <time>2021-07-20T08:09:45Z</time>
      </trkpt>
      <trkpt lat="45.70519" lon="2.9287">
        <ele>1038</ele>
        <time>2021-07-20T08:09:47Z</time>
      </trkpt>
      <trkpt lat="45.70517" lon="2.92855">
        <ele>1037.9</ele>
        <time>2021-07-20T08:09:49Z</time>
      </trkpt>
      <trkpt lat="45.70514" lon="2.92841">
        <ele>1037.8</ele>
        <time>2021-07-20T08:09:51Z</time>
      </trkpt>
      <trkpt lat="45.70512" lon="2.92824">
        <ele>1037.5</ele>
        <time>2021-07-20T08:09:53Z</time>
      </trkpt>
      <trkpt lat="45.7051" lon="2.92807">
        <ele>1037.1</ele>
        <time>2021-07-20T08:09:55Z</time>
      </trkpt>
      <trkpt lat="45.70507" lon="2.92789">
        <ele>1036.7</ele>
        <time>2021-07-20T08:09:57Z</time>
      </trkpt>
      <trkpt lat="45.70504" lon="2.92773">
        <ele>1036.4</ele>
        <time>2021-07-20T08:09:59Z</time>
      </trkpt>
      <trkpt lat="45.70501" lon="2.92757">
        <ele>1036.1</ele>
        <time>2021-07-20T08:10:01Z</time>
      </trkpt>
      <trkpt lat="45.70498" lon="2.92742">
        <ele>1035.5</ele>
        <time>2021-07-20T08:10:03Z</time>
      </trkpt>
      <trkpt lat="45.70496" lon="2.92727">
        <ele>1034.6</ele>
        <time>2021-07-20T08:10:05Z</time>
      </trkpt>
      <trkpt lat="45.70494" lon="2.92711">
        <ele>1033.7</ele>
        <time>2021-07-20T08:10:07Z</time>
      </trkpt>
      <trkpt lat="45.70493" lon="2.92696">
        <ele>1032.9</ele>
        <time>2021-07-20T08:10:09Z</time>
      </trkpt>
      <trkpt lat="45.70491" lon="2.9268">
        <ele>1032.1</ele>
        <time>2021-07-20T08:10:11Z</time>
      </trkpt>
      <trkpt lat="45.7049" lon="2.92665">
        <ele>1031.3</ele>
        <time>2021-07-20T08:10:13Z</time>
      </trkpt>
      <trkpt lat="45.7049" lon="2.9265">
        <ele>1031.2</ele>
        <time>2021-07-20T08:10:15Z</time>
      </trkpt>
      <trkpt lat="45.70489" lon="2.92636">
        <ele>1031</ele>
        <time>2021-07-20T08:10:17Z</time>
      </trkpt>
      <trkpt lat="45.70487" lon="2.92624">
        <ele>1030.9</ele>
        <time>2021-07-20T08:10:19Z</time>
      </trkpt>
      <trkpt lat="45.70488" lon="2.92614">
        <ele>1030.8</ele>
        <time>2021-07-20T08:10:21Z</time>
      </trkpt>
      <trkpt lat="45.7049" lon="2.92602">
        <ele>1030.6</ele>
        <time>2021-07-20T08:10:25Z</time>
      </trkpt>
      <trkpt lat="45.70491" lon="2.92596">
        <ele>1030.5</ele>
        <time>2021-07-20T08:10:27Z</time>
      </trkpt>
      <trkpt lat="45.70491" lon="2.92582">
        <ele>1030.2</ele>
        <time>2021-07-20T08:10:31Z</time>
      </trkpt>
      <trkpt lat="45.7049" lon="2.92572">
        <ele>1029.7</ele>
        <time>2021-07-20T08:10:33Z</time>
      </trkpt>
      <trkpt lat="45.70489" lon="2.92559">
        <ele>1029</ele>
        <time>2021-07-20T08:10:35Z</time>
      </trkpt>
      <trkpt lat="45.70488" lon="2.92543">
        <ele>1028.1</ele>
        <time>2021-07-20T08:10:37Z</time>
      </trkpt>
      <trkpt lat="45.70489" lon="2.92527">
        <ele>1027.1</ele>
        <time>2021-07-20T08:10:39Z</time>
      </trkpt>
      <trkpt lat="45.70492" lon="2.92511">
        <ele>1026.1</ele>
        <time>2021-07-20T08:10:41Z</time>
      </trkpt>
      <trkpt lat="45.70495" lon="2.92496">
        <ele>1025</ele>
        <time>2021-07-20T08:10:43Z</time>
      </trkpt>
      <trkpt lat="45.70499" lon="2.92482">
        <ele>1023.8</ele>
        <time>2021-07-20T08:10:45Z</time>
      </trkpt>
      <trkpt lat="45.70503" lon="2.92467">
        <ele>1022.7</ele>
        <time>2021-07-20T08:10:47Z</time>
      </trkpt>
      <trkpt lat="45.70506" lon="2.92452">
        <ele>1021.6</ele>
        <time>2021-07-20T08:10:49Z</time>
      </trkpt>
      <trkpt lat="45.70504" lon="2.92435">
        <ele>1020.4</ele>
        <time>2021-07-20T08:10:51Z</time>
      </trkpt>
      <trkpt lat="45.70499" lon="2.92417">
        <ele>1019</ele>
        <time>2021-07-20T08:10:53Z</time>
      </trkpt>
      <trkpt lat="45.70498" lon="2.92404">
        <ele>1018.6</ele>
        <time>2021-07-20T08:10:55Z</time>
      </trkpt>
      <trkpt lat="45.70497" lon="2.92396">
        <ele>1018.3</ele>
        <time>2021-07-20T08:10:57Z</time>
      </trkpt>
      <trkpt lat="45.70498" lon="2.92388">
        <ele>1018</ele>
        <time>2021-07-20T08:11:01Z</time>
      </trkpt>
      <trkpt lat="45.70499" lon="2.92381">
        <ele>1017.8</ele>
        <time>2021-07-20T08:11:21Z</time>
      </trkpt>
      <trkpt lat="45.70497" lon="2.92371">
        <ele>1017.4</ele>
        <time>2021-07-20T08:11:23Z</time>
      </trkpt>
      <trkpt lat="45.70495" lon="2.92361">
        <ele>1017.1</ele>
        <time>2021-07-20T08:11:25Z</time>
      </trkpt>
      <trkpt lat="45.70493" lon="2.92347">
        <ele>1016.6</ele>
        <time>2021-07-20T08:11:27Z</time>
      </trkpt>
      <trkpt lat="45.70493" lon="2.92332">
        <ele>1016</ele>
        <time>2021-07-20T08:11:29Z</time>
      </trkpt>
      <trkpt lat="45.70493" lon="2.92315">
        <ele>1015.4</ele>
        <time>2021-07-20T08:11:31Z</time>
      </trkpt>
      <trkpt lat="45.70493" lon="2.92296">
        <ele>1014.7</ele>
        <time>2021-07-20T08:11:33Z</time>
      </trkpt>
      <trkpt lat="45.70495" lon="2.92276">
        <ele>1014</ele>
        <time>2021-07-20T08:11:35Z</time>
      </trkpt>
      <trkpt lat="45.70495" lon="2.92256">
        <ele>1013.2</ele>
        <time>2021-07-20T08:11:37Z</time>
      </trkpt>
      <trkpt lat="45.70494" lon="2.92235">
        <ele>1012.5</ele>
        <time>2021-07-20T08:11:39Z</time>
      </trkpt>
      <trkpt lat="45.70493" lon="2.92216">
        <ele>1011.7</ele>
        <time>2021-07-20T08:11:41Z</time>
      </trkpt>
      <trkpt lat="45.70492" lon="2.92196">
        <ele>1011</ele>
        <time>2021-07-20T08:11:43Z</time>
      </trkpt>
      <trkpt lat="45.70493" lon="2.92176">
        <ele>1010.3</ele>
        <time>2021-07-20T08:11:45Z</time>
      </trkpt>
      <trkpt lat="45.70494" lon="2.92157">
        <ele>1009.5</ele>
        <time>2021-07-20T08:11:47Z</time>
      </trkpt>
      <trkpt lat="45.70494" lon="2.92137">
        <ele>1008.8</ele>
        <time>2021-07-20T08:11:49Z</time>
      </trkpt>
      <trkpt lat="45.70494" lon="2.92115">
        <ele>1008</ele>
        <time>2021-07-20T08:11:51Z</time>
      </trkpt>
      <trkpt lat="45.70496" lon="2.92094">
        <ele>1007.2</ele>
        <time>2021-07-20T08:11:53Z</time>
      </trkpt>
      <trkpt lat="45.70496" lon="2.92072">
        <ele>1006.3</ele>
        <time>2021-07-20T08:11:55Z</time>
      </trkpt>
      <trkpt lat="45.70495" lon="2.92054">
        <ele>1005.3</ele>
        <time>2021-07-20T08:11:57Z</time>
      </trkpt>
      <trkpt lat="45.70492" lon="2.92036">
        <ele>1004.2</ele>
        <time>2021-07-20T08:11:59Z</time>
      </trkpt>
      <trkpt lat="45.70489" lon="2.92022">
        <ele>1003.3</ele>
        <time>2021-07-20T08:12:01Z</time>
      </trkpt>
      <trkpt lat="45.70486" lon="2.9201">
        <ele>1002.4</ele>
        <time>2021-07-20T08:12:03Z</time>
      </trkpt>
      <trkpt lat="45.70482" lon="2.91998">
        <ele>1001.4</ele>
        <time>2021-07-20T08:12:05Z</time>
      </trkpt>
      <trkpt lat="45.70478" lon="2.91986">
        <ele>1000.1</ele>
        <time>2021-07-20T08:12:07Z</time>
      </trkpt>
      <trkpt lat="45.70475" lon="2.91973">
        <ele>998.8</ele>
        <time>2021-07-20T08:12:09Z</time>
      </trkpt>
      <trkpt lat="45.70469" lon="2.91958">
        <ele>997.2</ele>
        <time>2021-07-20T08:12:11Z</time>
      </trkpt>
      <trkpt lat="45.70465" lon="2.91942">
        <ele>995.5</ele>
        <time>2021-07-20T08:12:13Z</time>
      </trkpt>
      <trkpt lat="45.7046" lon="2.91923">
        <ele>993.7</ele>
        <time>2021-07-20T08:12:15Z</time>
      </trkpt>
      <trkpt lat="45.70454" lon="2.91905">
        <ele>992.1</ele>
        <time>2021-07-20T08:12:17Z</time>
      </trkpt>
      <trkpt lat="45.70448" lon="2.91884">
        <ele>990.7</ele>
        <time>2021-07-20T08:12:19Z</time>
      </trkpt>
      <trkpt lat="45.70441" lon="2.91862">
        <ele>989.3</ele>
        <time>2021-07-20T08:12:21Z</time>
      </trkpt>
      <trkpt lat="45.70435" lon="2.9184">
        <ele>988.1</ele>
        <time>2021-07-20T08:12:23Z</time>
      </trkpt>
      <trkpt lat="45.70427" lon="2.91815">
        <ele>986.1</ele>
        <time>2021-07-20T08:12:25Z</time>
      </trkpt>
      <trkpt lat="45.70421" lon="2.91794">
        <ele>984.1</ele>
        <time>2021-07-20T08:12:27Z</time>
      </trkpt>
      <trkpt lat="45.70415" lon="2.91776">
        <ele>981.9</ele>
        <time>2021-07-20T08:12:29Z</time>
      </trkpt>
      <trkpt lat="45.70411" lon="2.91761">
        <ele>979.8</ele>
        <time>2021-07-20T08:12:31Z</time>
      </trkpt>
      <trkpt lat="45.70406" lon="2.91752">
        <ele>978.1</ele>
        <time>2021-07-20T08:12:33Z</time>
      </trkpt>
      <trkpt lat="45.70399" lon="2.9175">
        <ele>976.6</ele>
        <time>2021-07-20T08:12:35Z</time>
      </trkpt>
      <trkpt lat="45.70391" lon="2.91757">
        <ele>975.6</ele>
        <time>2021-07-20T08:12:37Z</time>
      </trkpt>
      <trkpt lat="45.70386" lon="2.91772">
        <ele>975.7</ele>
        <time>2021-07-20T08:12:39Z</time>
      </trkpt>
      <trkpt lat="45.7038" lon="2.91787">
        <ele>975.7</ele>
        <time>2021-07-20T08:12:41Z</time>
      </trkpt>
      <trkpt lat="45.70373" lon="2.91796">
        <ele>974.8</ele>
        <time>2021-07-20T08:12:43Z</time>
      </trkpt>
      <trkpt lat="45.70365" lon="2.91793">
        <ele>973.1</ele>
        <time>2021-07-20T08:12:45Z</time>
      </trkpt>
      <trkpt lat="45.70364" lon="2.91779">
        <ele>971.8</ele>
        <time>2021-07-20T08:12:47Z</time>
      </trkpt>
      <trkpt lat="45.70367" lon="2.9176">
        <ele>971</ele>
        <time>2021-07-20T08:12:49Z</time>
      </trkpt>
      <trkpt lat="45.70371" lon="2.91739">
        <ele>970</ele>
        <time>2021-07-20T08:12:51Z</time>
      </trkpt>
      <trkpt lat="45.70379" lon="2.91719">
        <ele>968.9</ele>
        <time>2021-07-20T08:12:53Z</time>
      </trkpt>
      <trkpt lat="45.70386" lon="2.917">
        <ele>967.6</ele>
        <time>2021-07-20T08:12:55Z</time>
      </trkpt>
      <trkpt lat="45.70392" lon="2.91682">
        <ele>966.1</ele>
        <time>2021-07-20T08:12:57Z</time>
      </trkpt>
      <trkpt lat="45.704" lon="2.91665">
        <ele>964.7</ele>
        <time>2021-07-20T08:12:59Z</time>
      </trkpt>
      <trkpt lat="45.7041" lon="2.91648">
        <ele>963.5</ele>
        <time>2021-07-20T08:13:01Z</time>
      </trkpt>
      <trkpt lat="45.70422" lon="2.91635">
        <ele>962.9</ele>
        <time>2021-07-20T08:13:03Z</time>
      </trkpt>
      <trkpt lat="45.70433" lon="2.91625">
        <ele>962.9</ele>
        <time>2021-07-20T08:13:05Z</time>
      </trkpt>
      <trkpt lat="45.70441" lon="2.91617">
        <ele>962.8</ele>
        <time>2021-07-20T08:13:07Z</time>
      </trkpt>
      <trkpt lat="45.70444" lon="2.91611">
        <ele>962.3</ele>
        <time>2021-07-20T08:13:19Z</time>
      </trkpt>
      <trkpt lat="45.70443" lon="2.91605">
        <ele>961</ele>
        <time>2021-07-20T08:13:21Z</time>
      </trkpt>
      <trkpt lat="45.70437" lon="2.91603">
        <ele>959.9</ele>
        <time>2021-07-20T08:13:29Z</time>
      </trkpt>
      <trkpt lat="45.70428" lon="2.91607">
        <ele>959.3</ele>
        <time>2021-07-20T08:13:33Z</time>
      </trkpt>
      <trkpt lat="45.70423" lon="2.91611">
        <ele>959.2</ele>
        <time>2021-07-20T08:13:35Z</time>
      </trkpt>
      <trkpt lat="45.70418" lon="2.91614">
        <ele>959.1</ele>
        <time>2021-07-20T08:13:37Z</time>
      </trkpt>
      <trkpt lat="45.70413" lon="2.91619">
        <ele>959.3</ele>
        <time>2021-07-20T08:13:39Z</time>
      </trkpt>
      <trkpt lat="45.70407" lon="2.91622">
        <ele>959.4</ele>
        <time>2021-07-20T08:13:41Z</time>
      </trkpt>
      <trkpt lat="45.70399" lon="2.91624">
        <ele>959.2</ele>
        <time>2021-07-20T08:13:43Z</time>
      </trkpt>
      <trkpt lat="45.70392" lon="2.91626">
        <ele>958.8</ele>
        <time>2021-07-20T08:13:45Z</time>
      </trkpt>
      <trkpt lat="45.70385" lon="2.91626">
        <ele>958.4</ele>
        <time>2021-07-20T08:13:47Z</time>
      </trkpt>
      <trkpt lat="45.70379" lon="2.91628">
        <ele>958.1</ele>
        <time>2021-07-20T08:13:49Z</time>
      </trkpt>
      <trkpt lat="45.70374" lon="2.91629">
        <ele>957.8</ele>
        <time>2021-07-20T08:13:51Z</time>
      </trkpt>
      <trkpt lat="45.70369" lon="2.91626">
        <ele>957.1</ele>
        <time>2021-07-20T08:13:55Z</time>
      </trkpt>
      <trkpt lat="45.70366" lon="2.9162">
        <ele>956.3</ele>
        <time>2021-07-20T08:13:59Z</time>
      </trkpt>
      <trkpt lat="45.70362" lon="2.91608">
        <ele>955</ele>
        <time>2021-07-20T08:14:05Z</time>
      </trkpt>
      <trkpt lat="45.70356" lon="2.91598">
        <ele>953.8</ele>
        <time>2021-07-20T08:14:07Z</time>
      </trkpt>
      <trkpt lat="45.70351" lon="2.91582">
        <ele>952.3</ele>
        <time>2021-07-20T08:14:09Z</time>
      </trkpt>
      <trkpt lat="45.70346" lon="2.91566">
        <ele>951.2</ele>
        <time>2021-07-20T08:14:11Z</time>
      </trkpt>
      <trkpt lat="45.70342" lon="2.91549">
        <ele>950</ele>
        <time>2021-07-20T08:14:13Z</time>
      </trkpt>
      <trkpt lat="45.70337" lon="2.91531">
        <ele>948.9</ele>
        <time>2021-07-20T08:14:15Z</time>
      </trkpt>
      <trkpt lat="45.70334" lon="2.91513">
        <ele>947.7</ele>
        <time>2021-07-20T08:14:17Z</time>
      </trkpt>
      <trkpt lat="45.70335" lon="2.91494">
        <ele>946.5</ele>
        <time>2021-07-20T08:14:19Z</time>
      </trkpt>
      <trkpt lat="45.70338" lon="2.91473">
        <ele>944.9</ele>
        <time>2021-07-20T08:14:21Z</time>
      </trkpt>
      <trkpt lat="45.70341" lon="2.91456">
        <ele>943.6</ele>
        <time>2021-07-20T08:14:23Z</time>
      </trkpt>
      <trkpt lat="45.70341" lon="2.91441">
        <ele>942.5</ele>
        <time>2021-07-20T08:14:25Z</time>
      </trkpt>
      <trkpt lat="45.70336" lon="2.91428">
        <ele>941.7</ele>
        <time>2021-07-20T08:14:27Z</time>
      </trkpt>
      <trkpt lat="45.70329" lon="2.91416">
        <ele>941</ele>
        <time>2021-07-20T08:14:29Z</time>
      </trkpt>
      <trkpt lat="45.70326" lon="2.91403">
        <ele>940</ele>
        <time>2021-07-20T08:14:31Z</time>
      </trkpt>
      <trkpt lat="45.7033" lon="2.91393">
        <ele>938.9</ele>
        <time>2021-07-20T08:14:33Z</time>
      </trkpt>
      <trkpt lat="45.70337" lon="2.91387">
        <ele>938.1</ele>
        <time>2021-07-20T08:14:35Z</time>
      </trkpt>
      <trkpt lat="45.70338" lon="2.91379">
        <ele>937.3</ele>
        <time>2021-07-20T08:14:37Z</time>
      </trkpt>
      <trkpt lat="45.70338" lon="2.91371">
        <ele>936.5</ele>
        <time>2021-07-20T08:14:39Z</time>
      </trkpt>
      <trkpt lat="45.70334" lon="2.91362">
        <ele>935.7</ele>
        <time>2021-07-20T08:14:41Z</time>
      </trkpt>
      <trkpt lat="45.70332" lon="2.91351">
        <ele>934.8</ele>
        <time>2021-07-20T08:14:43Z</time>
      </trkpt>
      <trkpt lat="45.7033" lon="2.91345">
        <ele>934.3</ele>
        <time>2021-07-20T08:14:45Z</time>
      </trkpt>
      <trkpt lat="45.70333" lon="2.91336">
        <ele>933.3</ele>
        <time>2021-07-20T08:14:49Z</time>
      </trkpt>
      <trkpt lat="45.70338" lon="2.91333">
        <ele>933</ele>
        <time>2021-07-20T08:14:51Z</time>
      </trkpt>
      <trkpt lat="45.70344" lon="2.91329">
        <ele>933</ele>
        <time>2021-07-20T08:14:53Z</time>
      </trkpt>
      <trkpt lat="45.7035" lon="2.91323">
        <ele>933.1</ele>
        <time>2021-07-20T08:14:55Z</time>
      </trkpt>
      <trkpt lat="45.70357" lon="2.9132">
        <ele>933</ele>
        <time>2021-07-20T08:14:57Z</time>
      </trkpt>
      <trkpt lat="45.70364" lon="2.91314">
        <ele>933.1</ele>
        <time>2021-07-20T08:14:59Z</time>
      </trkpt>
      <trkpt lat="45.70373" lon="2.91307">
        <ele>933</ele>
        <time>2021-07-20T08:15:01Z</time>
      </trkpt>
      <trkpt lat="45.70383" lon="2.91303">
        <ele>932.9</ele>
        <time>2021-07-20T08:15:03Z</time>
      </trkpt>
      <trkpt lat="45.7039" lon="2.91298">
        <ele>932.7</ele>
        <time>2021-07-20T08:15:05Z</time>
      </trkpt>
      <trkpt lat="45.70398" lon="2.91294">
        <ele>932.5</ele>
        <time>2021-07-20T08:15:07Z</time>
      </trkpt>
      <trkpt lat="45.70405" lon="2.91288">
        <ele>932.4</ele>
        <time>2021-07-20T08:15:09Z</time>
      </trkpt>
      <trkpt lat="45.70412" lon="2.91284">
        <ele>932.2</ele>
        <time>2021-07-20T08:15:11Z</time>
      </trkpt>
      <trkpt lat="45.7042" lon="2.9128">
        <ele>931.9</ele>
        <time>2021-07-20T08:15:13Z</time>
      </trkpt>
      <trkpt lat="45.70427" lon="2.91275">
        <ele>931.5</ele>
        <time>2021-07-20T08:15:15Z</time>
      </trkpt>
      <trkpt lat="45.70435" lon="2.91272">
        <ele>931</ele>
        <time>2021-07-20T08:15:17Z</time>
      </trkpt>
      <trkpt lat="45.70445" lon="2.91267">
        <ele>930.4</ele>
        <time>2021-07-20T08:15:19Z</time>
      </trkpt>
      <trkpt lat="45.70455" lon="2.9126">
        <ele>929.6</ele>
        <time>2021-07-20T08:15:21Z</time>
      </trkpt>
      <trkpt lat="45.70461" lon="2.91257">
        <ele>929.1</ele>
        <time>2021-07-20T08:15:23Z</time>
      </trkpt>
      <trkpt lat="45.70468" lon="2.91255">
        <ele>928.5</ele>
        <time>2021-07-20T08:15:27Z</time>
      </trkpt>
      <trkpt lat="45.70475" lon="2.9125">
        <ele>927.8</ele>
        <time>2021-07-20T08:15:49Z</time>
      </trkpt>
      <trkpt lat="45.70481" lon="2.91243">
        <ele>927.7</ele>
        <time>2021-07-20T08:15:53Z</time>
      </trkpt>
      <trkpt lat="45.70483" lon="2.91236">
        <ele>927.8</ele>
        <time>2021-07-20T08:15:55Z</time>
      </trkpt>
      <trkpt lat="45.70483" lon="2.91227">
        <ele>928.3</ele>
        <time>2021-07-20T08:15:57Z</time>
      </trkpt>
      <trkpt lat="45.7048" lon="2.91218">
        <ele>928.9</ele>
        <time>2021-07-20T08:15:59Z</time>
      </trkpt>
      <trkpt lat="45.70478" lon="2.91209">
        <ele>929.6</ele>
        <time>2021-07-20T08:16:01Z</time>
      </trkpt>
      <trkpt lat="45.70476" lon="2.91201">
        <ele>930.2</ele>
        <time>2021-07-20T08:16:03Z</time>
      </trkpt>
      <trkpt lat="45.70477" lon="2.91193">
        <ele>930.5</ele>
        <time>2021-07-20T08:16:05Z</time>
      </trkpt>
      <trkpt lat="45.70479" lon="2.91188">
        <ele>930.5</ele>
        <time>2021-07-20T08:16:07Z</time>
      </trkpt>
      <trkpt lat="45.70483" lon="2.91179">
        <ele>930.5</ele>
        <time>2021-07-20T08:16:11Z</time>
      </trkpt>
      <trkpt lat="45.70486" lon="2.91172">
        <ele>930.4</ele>
        <time>2021-07-20T08:16:15Z</time>
      </trkpt>
      <trkpt lat="45.70493" lon="2.91167">
        <ele>929.9</ele>
        <time>2021-07-20T08:16:19Z</time>
      </trkpt>
      <trkpt lat="45.70496" lon="2.91158">
        <ele>930.7</ele>
        <time>2021-07-20T08:16:23Z</time>
      </trkpt>
      <trkpt lat="45.705" lon="2.91145">
        <ele>932.2</ele>
        <time>2021-07-20T08:16:27Z</time>
      </trkpt>
      <trkpt lat="45.70505" lon="2.91133">
        <ele>933.1</ele>
        <time>2021-07-20T08:16:31Z</time>
      </trkpt>
      <trkpt lat="45.70507" lon="2.91127">
        <ele>933.6</ele>
        <time>2021-07-20T08:16:33Z</time>
      </trkpt>
      <trkpt lat="45.7051" lon="2.91121">
        <ele>934.1</ele>
        <time>2021-07-20T08:16:35Z</time>
      </trkpt>
      <trkpt lat="45.70513" lon="2.91115">
        <ele>934.4</ele>
        <time>2021-07-20T08:16:37Z</time>
      </trkpt>
      <trkpt lat="45.70518" lon="2.91106">
        <ele>934.8</ele>
        <time>2021-07-20T08:16:41Z</time>
      </trkpt>
      <trkpt lat="45.7052" lon="2.91099">
        <ele>935.5</ele>
        <time>2021-07-20T08:16:43Z</time>
      </trkpt>
      <trkpt lat="45.70522" lon="2.91092">
        <ele>936.1</ele>
        <time>2021-07-20T08:16:45Z</time>
      </trkpt>
      <trkpt lat="45.70525" lon="2.91085">
        <ele>936.6</ele>
        <time>2021-07-20T08:16:47Z</time>
      </trkpt>
      <trkpt lat="45.70527" lon="2.91077">
        <ele>937</ele>
        <time>2021-07-20T08:16:49Z</time>
      </trkpt>
      <trkpt lat="45.70532" lon="2.91066">
        <ele>937.4</ele>
        <time>2021-07-20T08:16:53Z</time>
      </trkpt>
      <trkpt lat="45.70536" lon="2.91061">
        <ele>937.3</ele>
        <time>2021-07-20T08:16:55Z</time>
      </trkpt>
      <trkpt lat="45.70539" lon="2.91057">
        <ele>937.3</ele>
        <time>2021-07-20T08:16:57Z</time>
      </trkpt>
      <trkpt lat="45.70543" lon="2.91052">
        <ele>937.3</ele>
        <time>2021-07-20T08:16:59Z</time>
      </trkpt>
      <trkpt lat="45.70548" lon="2.91048">
        <ele>936.9</ele>
        <time>2021-07-20T08:17:01Z</time>
      </trkpt>
      <trkpt lat="45.70552" lon="2.91043">
        <ele>937</ele>
        <time>2021-07-20T08:17:03Z</time>
      </trkpt>
      <trkpt lat="45.70556" lon="2.91037">
        <ele>937</ele>
        <time>2021-07-20T08:17:05Z</time>
      </trkpt>
      <trkpt lat="45.70564" lon="2.91029">
        <ele>936.9</ele>
        <time>2021-07-20T08:17:09Z</time>
      </trkpt>
      <trkpt lat="45.70568" lon="2.91025">
        <ele>936.7</ele>
        <time>2021-07-20T08:17:11Z</time>
      </trkpt>
      <trkpt lat="45.70574" lon="2.91022">
        <ele>936.4</ele>
        <time>2021-07-20T08:17:13Z</time>
      </trkpt>
      <trkpt lat="45.70577" lon="2.91017">
        <ele>936.5</ele>
        <time>2021-07-20T08:17:15Z</time>
      </trkpt>
      <trkpt lat="45.70583" lon="2.91013">
        <ele>936.3</ele>
        <time>2021-07-20T08:17:17Z</time>
      </trkpt>
      <trkpt lat="45.70587" lon="2.9101">
        <ele>935.9</ele>
        <time>2021-07-20T08:17:19Z</time>
      </trkpt>
      <trkpt lat="45.70591" lon="2.91006">
        <ele>935.5</ele>
        <time>2021-07-20T08:17:21Z</time>
      </trkpt>
      <trkpt lat="45.70596" lon="2.91001">
        <ele>934.9</ele>
        <time>2021-07-20T08:17:23Z</time>
      </trkpt>
      <trkpt lat="45.70601" lon="2.90995">
        <ele>934.4</ele>
        <time>2021-07-20T08:17:25Z</time>
      </trkpt>
      <trkpt lat="45.70606" lon="2.90991">
        <ele>933.6</ele>
        <time>2021-07-20T08:17:27Z</time>
      </trkpt>
      <trkpt lat="45.70614" lon="2.90982">
        <ele>932.6</ele>
        <time>2021-07-20T08:17:31Z</time>
      </trkpt>
      <trkpt lat="45.70618" lon="2.90977">
        <ele>932.2</ele>
        <time>2021-07-20T08:17:33Z</time>
      </trkpt>
      <trkpt lat="45.70621" lon="2.90972">
        <ele>931.9</ele>
        <time>2021-07-20T08:17:35Z</time>
      </trkpt>
      <trkpt lat="45.70626" lon="2.90963">
        <ele>931.6</ele>
        <time>2021-07-20T08:17:39Z</time>
      </trkpt>
      <trkpt lat="45.7063" lon="2.90954">
        <ele>931.7</ele>
        <time>2021-07-20T08:17:43Z</time>
      </trkpt>
      <trkpt lat="45.70632" lon="2.90948">
        <ele>931.9</ele>
        <time>2021-07-20T08:17:47Z</time>
      </trkpt>
      <trkpt lat="45.70634" lon="2.9094">
        <ele>932.4</ele>
        <time>2021-07-20T08:17:51Z</time>
      </trkpt>
      <trkpt lat="45.70636" lon="2.9093">
        <ele>932.8</ele>
        <time>2021-07-20T08:17:55Z</time>
      </trkpt>
      <trkpt lat="45.70641" lon="2.9092">
        <ele>933</ele>
        <time>2021-07-20T08:17:59Z</time>
      </trkpt>
      <trkpt lat="45.70645" lon="2.90908">
        <ele>933.1</ele>
        <time>2021-07-20T08:18:03Z</time>
      </trkpt>
      <trkpt lat="45.70648" lon="2.90896">
        <ele>933.3</ele>
        <time>2021-07-20T08:18:07Z</time>
      </trkpt>
      <trkpt lat="45.7065" lon="2.90889">
        <ele>933.4</ele>
        <time>2021-07-20T08:18:09Z</time>
      </trkpt>
      <trkpt lat="45.70652" lon="2.90878">
        <ele>933.8</ele>
        <time>2021-07-20T08:18:13Z</time>
      </trkpt>
      <trkpt lat="45.70655" lon="2.90871">
        <ele>934</ele>
        <time>2021-07-20T08:18:15Z</time>
      </trkpt>
      <trkpt lat="45.70657" lon="2.90859">
        <ele>934.6</ele>
        <time>2021-07-20T08:18:19Z</time>
      </trkpt>
      <trkpt lat="45.70659" lon="2.90852">
        <ele>934.9</ele>
        <time>2021-07-20T08:18:21Z</time>
      </trkpt>
      <trkpt lat="45.70661" lon="2.90845">
        <ele>935.4</ele>
        <time>2021-07-20T08:18:23Z</time>
      </trkpt>
      <trkpt lat="45.70663" lon="2.90837">
        <ele>935.9</ele>
        <time>2021-07-20T08:18:25Z</time>
      </trkpt>
      <trkpt lat="45.70664" lon="2.90829">
        <ele>935.8</ele>
        <time>2021-07-20T08:18:27Z</time>
      </trkpt>
      <trkpt lat="45.70664" lon="2.90821">
        <ele>935.2</ele>
        <time>2021-07-20T08:18:29Z</time>
      </trkpt>
      <trkpt lat="45.70662" lon="2.90808">
        <ele>934.3</ele>
        <time>2021-07-20T08:18:33Z</time>
      </trkpt>
      <trkpt lat="45.70659" lon="2.90802">
        <ele>933.9</ele>
        <time>2021-07-20T08:18:35Z</time>
      </trkpt>
      <trkpt lat="45.70654" lon="2.90796">
        <ele>933.5</ele>
        <time>2021-07-20T08:18:39Z</time>
      </trkpt>
      <trkpt lat="45.70648" lon="2.90794">
        <ele>933.5</ele>
        <time>2021-07-20T08:18:43Z</time>
      </trkpt>
      <trkpt lat="45.70641" lon="2.90793">
        <ele>933.6</ele>
        <time>2021-07-20T08:18:47Z</time>
      </trkpt>
      <trkpt lat="45.70633" lon="2.90794">
        <ele>933.8</ele>
        <time>2021-07-20T08:19:11Z</time>
      </trkpt>
      <trkpt lat="45.70623" lon="2.90793">
        <ele>934</ele>
        <time>2021-07-20T08:19:13Z</time>
      </trkpt>
      <trkpt lat="45.70612" lon="2.9079">
        <ele>933.9</ele>
        <time>2021-07-20T08:19:15Z</time>
      </trkpt>
      <trkpt lat="45.70601" lon="2.90785">
        <ele>933.5</ele>
        <time>2021-07-20T08:19:17Z</time>
      </trkpt>
      <trkpt lat="45.70591" lon="2.90777">
        <ele>932.8</ele>
        <time>2021-07-20T08:19:19Z</time>
      </trkpt>
      <trkpt lat="45.70581" lon="2.90768">
        <ele>932.1</ele>
        <time>2021-07-20T08:19:21Z</time>
      </trkpt>
      <trkpt lat="45.70572" lon="2.90756">
        <ele>931.4</ele>
        <time>2021-07-20T08:19:23Z</time>
      </trkpt>
      <trkpt lat="45.70566" lon="2.90741">
        <ele>930.3</ele>
        <time>2021-07-20T08:19:25Z</time>
      </trkpt>
      <trkpt lat="45.70558" lon="2.90724">
        <ele>929.2</ele>
        <time>2021-07-20T08:19:27Z</time>
      </trkpt>
      <trkpt lat="45.70549" lon="2.90705">
        <ele>928.2</ele>
        <time>2021-07-20T08:19:29Z</time>
      </trkpt>
      <trkpt lat="45.70541" lon="2.90683">
        <ele>927</ele>
        <time>2021-07-20T08:19:31Z</time>
      </trkpt>
      <trkpt lat="45.70535" lon="2.90662">
        <ele>925.9</ele>
        <time>2021-07-20T08:19:33Z</time>
      </trkpt>
      <trkpt lat="45.70528" lon="2.9064">
        <ele>924.8</ele>
        <time>2021-07-20T08:19:35Z</time>
      </trkpt>
      <trkpt lat="45.70522" lon="2.9062">
        <ele>923.7</ele>
        <time>2021-07-20T08:19:37Z</time>
      </trkpt>
      <trkpt lat="45.70515" lon="2.90602">
        <ele>923.1</ele>
        <time>2021-07-20T08:19:39Z</time>
      </trkpt>
      <trkpt lat="45.70508" lon="2.90586">
        <ele>922.8</ele>
        <time>2021-07-20T08:19:41Z</time>
      </trkpt>
      <trkpt lat="45.70501" lon="2.90567">
        <ele>921.9</ele>
        <time>2021-07-20T08:19:43Z</time>
      </trkpt>
      <trkpt lat="45.70496" lon="2.90556">
        <ele>921.1</ele>
        <time>2021-07-20T08:19:45Z</time>
      </trkpt>
      <trkpt lat="45.70492" lon="2.90547">
        <ele>920.7</ele>
        <time>2021-07-20T08:19:47Z</time>
      </trkpt>
      <trkpt lat="45.70487" lon="2.90536">
        <ele>920</ele>
        <time>2021-07-20T08:19:49Z</time>
      </trkpt>
      <trkpt lat="45.70482" lon="2.90523">
        <ele>919.3</ele>
        <time>2021-07-20T08:19:51Z</time>
      </trkpt>
      <trkpt lat="45.70476" lon="2.9051">
        <ele>918.6</ele>
        <time>2021-07-20T08:19:53Z</time>
      </trkpt>
      <trkpt lat="45.7047" lon="2.90494">
        <ele>917.9</ele>
        <time>2021-07-20T08:19:55Z</time>
      </trkpt>
      <trkpt lat="45.70463" lon="2.90479">
        <ele>917.5</ele>
        <time>2021-07-20T08:19:57Z</time>
      </trkpt>
      <trkpt lat="45.70458" lon="2.90463">
        <ele>916.9</ele>
        <time>2021-07-20T08:19:59Z</time>
      </trkpt>
      <trkpt lat="45.70451" lon="2.90446">
        <ele>916.4</ele>
        <time>2021-07-20T08:20:01Z</time>
      </trkpt>
      <trkpt lat="45.70445" lon="2.90432">
        <ele>916</ele>
        <time>2021-07-20T08:20:03Z</time>
      </trkpt>
      <trkpt lat="45.7044" lon="2.90421">
        <ele>915.5</ele>
        <time>2021-07-20T08:20:05Z</time>
      </trkpt>
      <trkpt lat="45.70436" lon="2.9041">
        <ele>915.4</ele>
        <time>2021-07-20T08:20:07Z</time>
      </trkpt>
      <trkpt lat="45.70435" lon="2.90398">
        <ele>915.1</ele>
        <time>2021-07-20T08:20:09Z</time>
      </trkpt>
      <trkpt lat="45.70433" lon="2.90385">
        <ele>914.7</ele>
        <time>2021-07-20T08:20:11Z</time>
      </trkpt>
      <trkpt lat="45.70432" lon="2.90372">
        <ele>914.2</ele>
        <time>2021-07-20T08:20:13Z</time>
      </trkpt>
      <trkpt lat="45.70436" lon="2.90358">
        <ele>913.3</ele>
        <time>2021-07-20T08:20:15Z</time>
      </trkpt>
      <trkpt lat="45.70443" lon="2.90347">
        <ele>912.5</ele>
        <time>2021-07-20T08:20:17Z</time>
      </trkpt>
      <trkpt lat="45.70452" lon="2.90338">
        <ele>911.8</ele>
        <time>2021-07-20T08:20:19Z</time>
      </trkpt>
      <trkpt lat="45.70461" lon="2.90327">
        <ele>911.6</ele>
        <time>2021-07-20T08:20:21Z</time>
      </trkpt>
      <trkpt lat="45.7047" lon="2.90318">
        <ele>911.7</ele>
        <time>2021-07-20T08:20:23Z</time>
      </trkpt>
      <trkpt lat="45.70476" lon="2.9031">
        <ele>911.8</ele>
        <time>2021-07-20T08:20:25Z</time>
      </trkpt>
      <trkpt lat="45.70481" lon="2.90304">
        <ele>912</ele>
        <time>2021-07-20T08:20:27Z</time>
      </trkpt>
      <trkpt lat="45.70486" lon="2.90299">
        <ele>912</ele>
        <time>2021-07-20T08:20:29Z</time>
      </trkpt>
      <trkpt lat="45.7049" lon="2.90295">
        <ele>912.1</ele>
        <time>2021-07-20T08:20:31Z</time>
      </trkpt>
      <trkpt lat="45.70494" lon="2.9029">
        <ele>912.2</ele>
        <time>2021-07-20T08:20:33Z</time>
      </trkpt>
      <trkpt lat="45.70498" lon="2.90286">
        <ele>912.3</ele>
        <time>2021-07-20T08:20:35Z</time>
      </trkpt>
      <trkpt lat="45.70503" lon="2.90276">
        <ele>912.8</ele>
        <time>2021-07-20T08:20:39Z</time>
      </trkpt>
      <trkpt lat="45.70506" lon="2.90266">
        <ele>913.3</ele>
        <time>2021-07-20T08:20:43Z</time>
      </trkpt>
      <trkpt lat="45.70506" lon="2.90257">
        <ele>913.7</ele>
        <time>2021-07-20T08:20:47Z</time>
      </trkpt>
      <trkpt lat="45.70506" lon="2.90248">
        <ele>914.2</ele>
        <time>2021-07-20T08:20:51Z</time>
      </trkpt>
      <trkpt lat="45.70507" lon="2.90237">
        <ele>914.7</ele>
        <time>2021-07-20T08:20:55Z</time>
      </trkpt>
      <trkpt lat="45.70507" lon="2.90226">
        <ele>915.2</ele>
        <time>2021-07-20T08:20:59Z</time>
      </trkpt>
      <trkpt lat="45.70508" lon="2.90213">
        <ele>915.8</ele>
        <time>2021-07-20T08:21:03Z</time>
      </trkpt>
      <trkpt lat="45.70509" lon="2.902">
        <ele>916.4</ele>
        <time>2021-07-20T08:21:07Z</time>
      </trkpt>
      <trkpt lat="45.70511" lon="2.90188">
        <ele>916.9</ele>
        <time>2021-07-20T08:21:11Z</time>
      </trkpt>
      <trkpt lat="45.70511" lon="2.90182">
        <ele>917.2</ele>
        <time>2021-07-20T08:21:13Z</time>
      </trkpt>
      <trkpt lat="45.70512" lon="2.90174">
        <ele>917.5</ele>
        <time>2021-07-20T08:21:15Z</time>
      </trkpt>
      <trkpt lat="45.70513" lon="2.90167">
        <ele>917.8</ele>
        <time>2021-07-20T08:21:17Z</time>
      </trkpt>
      <trkpt lat="45.70514" lon="2.9016">
        <ele>917.8</ele>
        <time>2021-07-20T08:21:19Z</time>
      </trkpt>
      <trkpt lat="45.70515" lon="2.90153">
        <ele>917.7</ele>
        <time>2021-07-20T08:21:21Z</time>
      </trkpt>
      <trkpt lat="45.70516" lon="2.90144">
        <ele>917.6</ele>
        <time>2021-07-20T08:21:23Z</time>
      </trkpt>
      <trkpt lat="45.70517" lon="2.90136">
        <ele>917.5</ele>
        <time>2021-07-20T08:21:25Z</time>
      </trkpt>
      <trkpt lat="45.70518" lon="2.90126">
        <ele>917.4</ele>
        <time>2021-07-20T08:21:27Z</time>
      </trkpt>
      <trkpt lat="45.70519" lon="2.90118">
        <ele>917.3</ele>
        <time>2021-07-20T08:21:29Z</time>
      </trkpt>
      <trkpt lat="45.7052" lon="2.90109">
        <ele>917.2</ele>
        <time>2021-07-20T08:21:31Z</time>
      </trkpt>
      <trkpt lat="45.70521" lon="2.90102">
        <ele>917.2</ele>
        <time>2021-07-20T08:21:33Z</time>
      </trkpt>
      <trkpt lat="45.70519" lon="2.90092">
        <ele>917.1</ele>
        <time>2021-07-20T08:21:37Z</time>
      </trkpt>
      <trkpt lat="45.70515" lon="2.90087">
        <ele>917</ele>
        <time>2021-07-20T08:21:41Z</time>
      </trkpt>
      <trkpt lat="45.70508" lon="2.90082">
        <ele>916.9</ele>
        <time>2021-07-20T08:21:45Z</time>
      </trkpt>
      <trkpt lat="45.70503" lon="2.90078">
        <ele>916.7</ele>
        <time>2021-07-20T08:21:49Z</time>
      </trkpt>
      <trkpt lat="45.70497" lon="2.90076">
        <ele>916.7</ele>
        <time>2021-07-20T08:21:53Z</time>
      </trkpt>
      <trkpt lat="45.70493" lon="2.90073">
        <ele>916.7</ele>
        <time>2021-07-20T08:21:57Z</time>
      </trkpt>
      <trkpt lat="45.70488" lon="2.90068">
        <ele>916.6</ele>
        <time>2021-07-20T08:22:01Z</time>
      </trkpt>
      <trkpt lat="45.70482" lon="2.90064">
        <ele>916.7</ele>
        <time>2021-07-20T08:22:05Z</time>
      </trkpt>
      <trkpt lat="45.70481" lon="2.90057">
        <ele>916.4</ele>
        <time>2021-07-20T08:22:13Z</time>
      </trkpt>
      <trkpt lat="45.70483" lon="2.9005">
        <ele>915.9</ele>
        <time>2021-07-20T08:22:17Z</time>
      </trkpt>
      <trkpt lat="45.7048" lon="2.9004">
        <ele>915.6</ele>
        <time>2021-07-20T08:23:11Z</time>
      </trkpt>
      <trkpt lat="45.70476" lon="2.90035">
        <ele>915.7</ele>
        <time>2021-07-20T08:23:13Z</time>
      </trkpt>
      <trkpt lat="45.70472" lon="2.9003">
        <ele>915.7</ele>
        <time>2021-07-20T08:23:15Z</time>
      </trkpt>
      <trkpt lat="45.70467" lon="2.90024">
        <ele>915.8</ele>
        <time>2021-07-20T08:23:17Z</time>
      </trkpt>
      <trkpt lat="45.70461" lon="2.90019">
        <ele>916</ele>
        <time>2021-07-20T08:23:19Z</time>
      </trkpt>
      <trkpt lat="45.70455" lon="2.90014">
        <ele>916.3</ele>
        <time>2021-07-20T08:23:21Z</time>
      </trkpt>
      <trkpt lat="45.70449" lon="2.90009">
        <ele>916.6</ele>
        <time>2021-07-20T08:23:23Z</time>
      </trkpt>
      <trkpt lat="45.70442" lon="2.90002">
        <ele>916.9</ele>
        <time>2021-07-20T08:23:25Z</time>
      </trkpt>
      <trkpt lat="45.70435" lon="2.89996">
        <ele>917</ele>
        <time>2021-07-20T08:23:27Z</time>
      </trkpt>
      <trkpt lat="45.70428" lon="2.89989">
        <ele>917</ele>
        <time>2021-07-20T08:23:29Z</time>
      </trkpt>
      <trkpt lat="45.7042" lon="2.89982">
        <ele>917</ele>
        <time>2021-07-20T08:23:31Z</time>
      </trkpt>
      <trkpt lat="45.70414" lon="2.89975">
        <ele>916.9</ele>
        <time>2021-07-20T08:23:33Z</time>
      </trkpt>
      <trkpt lat="45.70409" lon="2.89966">
        <ele>916.4</ele>
        <time>2021-07-20T08:23:35Z</time>
      </trkpt>
      <trkpt lat="45.70403" lon="2.89958">
        <ele>916.2</ele>
        <time>2021-07-20T08:23:37Z</time>
      </trkpt>
      <trkpt lat="45.704" lon="2.8995">
        <ele>915.8</ele>
        <time>2021-07-20T08:23:39Z</time>
      </trkpt>
      <trkpt lat="45.70396" lon="2.89942">
        <ele>915.6</ele>
        <time>2021-07-20T08:23:41Z</time>
      </trkpt>
      <trkpt lat="45.70392" lon="2.89935">
        <ele>915.3</ele>
        <time>2021-07-20T08:23:43Z</time>
      </trkpt>
      <trkpt lat="45.7039" lon="2.89928">
        <ele>914.8</ele>
        <time>2021-07-20T08:23:45Z</time>
      </trkpt>
      <trkpt lat="45.70386" lon="2.89916">
        <ele>914.2</ele>
        <time>2021-07-20T08:23:49Z</time>
      </trkpt>
      <trkpt lat="45.70384" lon="2.8991">
        <ele>913.8</ele>
        <time>2021-07-20T08:23:51Z</time>
      </trkpt>
      <trkpt lat="45.70381" lon="2.89904">
        <ele>913.4</ele>
        <time>2021-07-20T08:23:53Z</time>
      </trkpt>
      <trkpt lat="45.70378" lon="2.89899">
        <ele>913.1</ele>
        <time>2021-07-20T08:23:55Z</time>
      </trkpt>
      <trkpt lat="45.70374" lon="2.89895">
        <ele>912.9</ele>
        <time>2021-07-20T08:23:57Z</time>
      </trkpt>
      <trkpt lat="45.7037" lon="2.89891">
        <ele>912.9</ele>
        <time>2021-07-20T08:23:59Z</time>
      </trkpt>
      <trkpt lat="45.70365" lon="2.89888">
        <ele>912.9</ele>
        <time>2021-07-20T08:24:01Z</time>
      </trkpt>
      <trkpt lat="45.7036" lon="2.89886">
        <ele>913.1</ele>
        <time>2021-07-20T08:24:03Z</time>
      </trkpt>
      <trkpt lat="45.70353" lon="2.89885">
        <ele>913.5</ele>
        <time>2021-07-20T08:24:05Z</time>
      </trkpt>
      <trkpt lat="45.70343" lon="2.89881">
        <ele>913.6</ele>
        <time>2021-07-20T08:24:07Z</time>
      </trkpt>
      <trkpt lat="45.70333" lon="2.89873">
        <ele>913.2</ele>
        <time>2021-07-20T08:24:09Z</time>
      </trkpt>
      <trkpt lat="45.70324" lon="2.89864">
        <ele>912.3</ele>
        <time>2021-07-20T08:24:11Z</time>
      </trkpt>
      <trkpt lat="45.70315" lon="2.89857">
        <ele>911.6</ele>
        <time>2021-07-20T08:24:13Z</time>
      </trkpt>
      <trkpt lat="45.70305" lon="2.8985">
        <ele>911.1</ele>
        <time>2021-07-20T08:24:15Z</time>
      </trkpt>
      <trkpt lat="45.70296" lon="2.89843">
        <ele>910.5</ele>
        <time>2021-07-20T08:24:17Z</time>
      </trkpt>
      <trkpt lat="45.70285" lon="2.89834">
        <ele>910</ele>
        <time>2021-07-20T08:24:19Z</time>
      </trkpt>
      <trkpt lat="45.70274" lon="2.89825">
        <ele>909.2</ele>
        <time>2021-07-20T08:24:21Z</time>
      </trkpt>
      <trkpt lat="45.70264" lon="2.89817">
        <ele>908.4</ele>
        <time>2021-07-20T08:24:23Z</time>
      </trkpt>
      <trkpt lat="45.70255" lon="2.89807">
        <ele>907.5</ele>
        <time>2021-07-20T08:24:25Z</time>
      </trkpt>
      <trkpt lat="45.70247" lon="2.89798">
        <ele>906.7</ele>
        <time>2021-07-20T08:24:27Z</time>
      </trkpt>
      <trkpt lat="45.70238" lon="2.89791">
        <ele>906.1</ele>
        <time>2021-07-20T08:24:29Z</time>
      </trkpt>
      <trkpt lat="45.7023" lon="2.89781">
        <ele>905.1</ele>
        <time>2021-07-20T08:24:31Z</time>
      </trkpt>
      <trkpt lat="45.70223" lon="2.89771">
        <ele>904.1</ele>
        <time>2021-07-20T08:24:33Z</time>
      </trkpt>
      <trkpt lat="45.70215" lon="2.89763">
        <ele>903.7</ele>
        <time>2021-07-20T08:24:35Z</time>
      </trkpt>
      <trkpt lat="45.70209" lon="2.89755">
        <ele>903.1</ele>
        <time>2021-07-20T08:24:37Z</time>
      </trkpt>
      <trkpt lat="45.70203" lon="2.89744">
        <ele>902.2</ele>
        <time>2021-07-20T08:24:39Z</time>
      </trkpt>
      <trkpt lat="45.70197" lon="2.89736">
        <ele>901.5</ele>
        <time>2021-07-20T08:24:41Z</time>
      </trkpt>
      <trkpt lat="45.70195" lon="2.89729">
        <ele>900.7</ele>
        <time>2021-07-20T08:24:43Z</time>
      </trkpt>
      <trkpt lat="45.70193" lon="2.89721">
        <ele>899.8</ele>
        <time>2021-07-20T08:24:45Z</time>
      </trkpt>
      <trkpt lat="45.70192" lon="2.89714">
        <ele>898.8</ele>
        <time>2021-07-20T08:24:47Z</time>
      </trkpt>
      <trkpt lat="45.70188" lon="2.89704">
        <ele>897.9</ele>
        <time>2021-07-20T08:24:49Z</time>
      </trkpt>
      <trkpt lat="45.70184" lon="2.89694">
        <ele>896.9</ele>
        <time>2021-07-20T08:24:51Z</time>
      </trkpt>
      <trkpt lat="45.70179" lon="2.89683">
        <ele>896</ele>
        <time>2021-07-20T08:24:53Z</time>
      </trkpt>
      <trkpt lat="45.70173" lon="2.89673">
        <ele>895.2</ele>
        <time>2021-07-20T08:24:55Z</time>
      </trkpt>
      <trkpt lat="45.70167" lon="2.89666">
        <ele>894.9</ele>
        <time>2021-07-20T08:24:57Z</time>
      </trkpt>
      <trkpt lat="45.70158" lon="2.89662">
        <ele>894.5</ele>
        <time>2021-07-20T08:24:59Z</time>
      </trkpt>
      <trkpt lat="45.70149" lon="2.89659">
        <ele>894.2</ele>
        <time>2021-07-20T08:25:01Z</time>
      </trkpt>
      <trkpt lat="45.7014" lon="2.89657">
        <ele>893.9</ele>
        <time>2021-07-20T08:25:03Z</time>
      </trkpt>
      <trkpt lat="45.7013" lon="2.89658">
        <ele>894</ele>
        <time>2021-07-20T08:25:05Z</time>
      </trkpt>
      <trkpt lat="45.70119" lon="2.89657">
        <ele>893.8</ele>
        <time>2021-07-20T08:25:07Z</time>
      </trkpt>
      <trkpt lat="45.70109" lon="2.89654">
        <ele>893.5</ele>
        <time>2021-07-20T08:25:09Z</time>
      </trkpt>
      <trkpt lat="45.701" lon="2.89647">
        <ele>892.6</ele>
        <time>2021-07-20T08:25:11Z</time>
      </trkpt>
      <trkpt lat="45.7009" lon="2.8964">
        <ele>891.5</ele>
        <time>2021-07-20T08:25:13Z</time>
      </trkpt>
      <trkpt lat="45.7008" lon="2.89634">
        <ele>890.7</ele>
        <time>2021-07-20T08:25:15Z</time>
      </trkpt>
      <trkpt lat="45.70071" lon="2.89627">
        <ele>890</ele>
        <time>2021-07-20T08:25:17Z</time>
      </trkpt>
      <trkpt lat="45.70062" lon="2.89618">
        <ele>889.2</ele>
        <time>2021-07-20T08:25:19Z</time>
      </trkpt>
      <trkpt lat="45.70053" lon="2.89609">
        <ele>888.3</ele>
        <time>2021-07-20T08:25:21Z</time>
      </trkpt>
      <trkpt lat="45.70046" lon="2.89599">
        <ele>887.3</ele>
        <time>2021-07-20T08:25:23Z</time>
      </trkpt>
      <trkpt lat="45.70038" lon="2.89589">
        <ele>886.3</ele>
        <time>2021-07-20T08:25:25Z</time>
      </trkpt>
      <trkpt lat="45.70031" lon="2.89579">
        <ele>885.5</ele>
        <time>2021-07-20T08:25:27Z</time>
      </trkpt>
      <trkpt lat="45.70024" lon="2.89569">
        <ele>884.8</ele>
        <time>2021-07-20T08:25:29Z</time>
      </trkpt>
      <trkpt lat="45.70016" lon="2.89559">
        <ele>884.2</ele>
        <time>2021-07-20T08:25:31Z</time>
      </trkpt>
      <trkpt lat="45.70007" lon="2.89553">
        <ele>883.9</ele>
        <time>2021-07-20T08:25:33Z</time>
      </trkpt>
      <trkpt lat="45.69998" lon="2.89549">
        <ele>883.8</ele>
        <time>2021-07-20T08:25:35Z</time>
      </trkpt>
      <trkpt lat="45.69991" lon="2.89546">
        <ele>883.8</ele>
        <time>2021-07-20T08:25:37Z</time>
      </trkpt>
      <trkpt lat="45.69984" lon="2.89539">
        <ele>883.5</ele>
        <time>2021-07-20T08:25:39Z</time>
      </trkpt>
      <trkpt lat="45.69978" lon="2.89532">
        <ele>883.2</ele>
        <time>2021-07-20T08:25:41Z</time>
      </trkpt>
      <trkpt lat="45.69972" lon="2.89524">
        <ele>882.7</ele>
        <time>2021-07-20T08:25:43Z</time>
      </trkpt>
      <trkpt lat="45.69963" lon="2.89515">
        <ele>882.2</ele>
        <time>2021-07-20T08:25:45Z</time>
      </trkpt>
      <trkpt lat="45.69958" lon="2.89507">
        <ele>881.7</ele>
        <time>2021-07-20T08:25:47Z</time>
      </trkpt>
      <trkpt lat="45.69954" lon="2.89499">
        <ele>881.2</ele>
        <time>2021-07-20T08:25:49Z</time>
      </trkpt>
      <trkpt lat="45.69952" lon="2.89493">
        <ele>881.1</ele>
        <time>2021-07-20T08:25:51Z</time>
      </trkpt>
      <trkpt lat="45.69948" lon="2.89487">
        <ele>881</ele>
        <time>2021-07-20T08:25:55Z</time>
      </trkpt>
      <trkpt lat="45.69947" lon="2.8948">
        <ele>880.8</ele>
        <time>2021-07-20T08:26:05Z</time>
      </trkpt>
      <trkpt lat="45.69947" lon="2.89473">
        <ele>880.5</ele>
        <time>2021-07-20T08:26:13Z</time>
      </trkpt>
      <trkpt lat="45.69944" lon="2.89468">
        <ele>880.5</ele>
        <time>2021-07-20T08:26:23Z</time>
      </trkpt>
      <trkpt lat="45.69941" lon="2.89461">
        <ele>880.4</ele>
        <time>2021-07-20T08:26:39Z</time>
      </trkpt>
      <trkpt lat="45.69936" lon="2.89454">
        <ele>880.4</ele>
        <time>2021-07-20T08:26:45Z</time>
      </trkpt>
      <trkpt lat="45.69934" lon="2.89448">
        <ele>880.3</ele>
        <time>2021-07-20T08:26:47Z</time>
      </trkpt>
      <trkpt lat="45.69932" lon="2.89441">
        <ele>880.1</ele>
        <time>2021-07-20T08:26:49Z</time>
      </trkpt>
      <trkpt lat="45.69931" lon="2.89433">
        <ele>879.9</ele>
        <time>2021-07-20T08:26:51Z</time>
      </trkpt>
      <trkpt lat="45.69929" lon="2.89424">
        <ele>879.7</ele>
        <time>2021-07-20T08:26:53Z</time>
      </trkpt>
      <trkpt lat="45.69927" lon="2.89415">
        <ele>879.6</ele>
        <time>2021-07-20T08:26:55Z</time>
      </trkpt>
      <trkpt lat="45.69926" lon="2.89406">
        <ele>880.3</ele>
        <time>2021-07-20T08:26:57Z</time>
      </trkpt>
      <trkpt lat="45.69924" lon="2.89398">
        <ele>881</ele>
        <time>2021-07-20T08:26:59Z</time>
      </trkpt>
      <trkpt lat="45.69921" lon="2.89386">
        <ele>882</ele>
        <time>2021-07-20T08:27:03Z</time>
      </trkpt>
      <trkpt lat="45.69918" lon="2.89379">
        <ele>882.6</ele>
        <time>2021-07-20T08:27:05Z</time>
      </trkpt>
      <trkpt lat="45.69915" lon="2.89368">
        <ele>883.5</ele>
        <time>2021-07-20T08:27:09Z</time>
      </trkpt>
      <trkpt lat="45.69912" lon="2.89362">
        <ele>884</ele>
        <time>2021-07-20T08:27:13Z</time>
      </trkpt>
      <trkpt lat="45.69908" lon="2.89355">
        <ele>884.6</ele>
        <time>2021-07-20T08:27:17Z</time>
      </trkpt>
      <trkpt lat="45.69904" lon="2.89351">
        <ele>884.8</ele>
        <time>2021-07-20T08:27:21Z</time>
      </trkpt>
      <trkpt lat="45.69899" lon="2.89345">
        <ele>885.3</ele>
        <time>2021-07-20T08:27:25Z</time>
      </trkpt>
      <trkpt lat="45.69893" lon="2.89341">
        <ele>885.5</ele>
        <time>2021-07-20T08:27:29Z</time>
      </trkpt>
      <trkpt lat="45.69887" lon="2.89337">
        <ele>885.8</ele>
        <time>2021-07-20T08:27:33Z</time>
      </trkpt>
      <trkpt lat="45.69883" lon="2.89332">
        <ele>886.1</ele>
        <time>2021-07-20T08:27:37Z</time>
      </trkpt>
      <trkpt lat="45.69879" lon="2.89325">
        <ele>886.6</ele>
        <time>2021-07-20T08:27:41Z</time>
      </trkpt>
      <trkpt lat="45.69875" lon="2.89318">
        <ele>887.2</ele>
        <time>2021-07-20T08:27:45Z</time>
      </trkpt>
      <trkpt lat="45.69874" lon="2.89311">
        <ele>887.8</ele>
        <time>2021-07-20T08:27:49Z</time>
      </trkpt>
      <trkpt lat="45.69876" lon="2.89302">
        <ele>888.4</ele>
        <time>2021-07-20T08:27:53Z</time>
      </trkpt>
      <trkpt lat="45.69879" lon="2.89297">
        <ele>888.8</ele>
        <time>2021-07-20T08:27:57Z</time>
      </trkpt>
      <trkpt lat="45.69884" lon="2.89296">
        <ele>889</ele>
        <time>2021-07-20T08:28:01Z</time>
      </trkpt>
      <trkpt lat="45.69891" lon="2.89292">
        <ele>889.3</ele>
        <time>2021-07-20T08:28:05Z</time>
      </trkpt>
      <trkpt lat="45.69897" lon="2.89288">
        <ele>889.7</ele>
        <time>2021-07-20T08:28:07Z</time>
      </trkpt>
      <trkpt lat="45.69902" lon="2.89285">
        <ele>890</ele>
        <time>2021-07-20T08:28:09Z</time>
      </trkpt>
      <trkpt lat="45.69909" lon="2.89277">
        <ele>890.7</ele>
        <time>2021-07-20T08:28:13Z</time>
      </trkpt>
      <trkpt lat="45.69915" lon="2.89269">
        <ele>891.4</ele>
        <time>2021-07-20T08:28:17Z</time>
      </trkpt>
      <trkpt lat="45.6992" lon="2.89266">
        <ele>891.6</ele>
        <time>2021-07-20T08:28:19Z</time>
      </trkpt>
      <trkpt lat="45.69927" lon="2.89259">
        <ele>892.1</ele>
        <time>2021-07-20T08:28:23Z</time>
      </trkpt>
      <trkpt lat="45.69931" lon="2.89255">
        <ele>892.4</ele>
        <time>2021-07-20T08:28:25Z</time>
      </trkpt>
      <trkpt lat="45.69937" lon="2.89251">
        <ele>892.7</ele>
        <time>2021-07-20T08:28:29Z</time>
      </trkpt>
      <trkpt lat="45.69944" lon="2.89246">
        <ele>893.2</ele>
        <time>2021-07-20T08:28:33Z</time>
      </trkpt>
      <trkpt lat="45.6995" lon="2.89241">
        <ele>893.8</ele>
        <time>2021-07-20T08:28:37Z</time>
      </trkpt>
      <trkpt lat="45.69957" lon="2.89235">
        <ele>894.4</ele>
        <time>2021-07-20T08:28:41Z</time>
      </trkpt>
      <trkpt lat="45.69961" lon="2.89231">
        <ele>894.9</ele>
        <time>2021-07-20T08:28:43Z</time>
      </trkpt>
      <trkpt lat="45.69968" lon="2.89223">
        <ele>895.6</ele>
        <time>2021-07-20T08:28:47Z</time>
      </trkpt>
      <trkpt lat="45.69975" lon="2.89216">
        <ele>896.4</ele>
        <time>2021-07-20T08:28:51Z</time>
      </trkpt>
      <trkpt lat="45.6998" lon="2.89207">
        <ele>897.3</ele>
        <time>2021-07-20T08:28:55Z</time>
      </trkpt>
      <trkpt lat="45.69986" lon="2.89199">
        <ele>898</ele>
        <time>2021-07-20T08:28:59Z</time>
      </trkpt>
      <trkpt lat="45.69991" lon="2.8919">
        <ele>898.9</ele>
        <time>2021-07-20T08:29:03Z</time>
      </trkpt>
      <trkpt lat="45.69993" lon="2.89184">
        <ele>899.3</ele>
        <time>2021-07-20T08:29:05Z</time>
      </trkpt>
      <trkpt lat="45.69996" lon="2.89178">
        <ele>899.9</ele>
        <time>2021-07-20T08:29:07Z</time>
      </trkpt>
      <trkpt lat="45.70001" lon="2.8917">
        <ele>900.7</ele>
        <time>2021-07-20T08:29:11Z</time>
      </trkpt>
      <trkpt lat="45.70007" lon="2.89162">
        <ele>902</ele>
        <time>2021-07-20T08:29:15Z</time>
      </trkpt>
      <trkpt lat="45.70012" lon="2.89153">
        <ele>903.5</ele>
        <time>2021-07-20T08:29:19Z</time>
      </trkpt>
      <trkpt lat="45.70017" lon="2.89146">
        <ele>904.9</ele>
        <time>2021-07-20T08:29:23Z</time>
      </trkpt>
      <trkpt lat="45.70023" lon="2.89139">
        <ele>906.1</ele>
        <time>2021-07-20T08:29:27Z</time>
      </trkpt>
      <trkpt lat="45.7003" lon="2.89135">
        <ele>907</ele>
        <time>2021-07-20T08:29:31Z</time>
      </trkpt>
      <trkpt lat="45.70036" lon="2.89132">
        <ele>907.7</ele>
        <time>2021-07-20T08:29:35Z</time>
      </trkpt>
      <trkpt lat="45.70044" lon="2.89131">
        <ele>908.2</ele>
        <time>2021-07-20T08:29:39Z</time>
      </trkpt>
      <trkpt lat="45.70051" lon="2.8913">
        <ele>908.6</ele>
        <time>2021-07-20T08:29:43Z</time>
      </trkpt>
      <trkpt lat="45.70058" lon="2.89128">
        <ele>909.2</ele>
        <time>2021-07-20T08:29:47Z</time>
      </trkpt>
      <trkpt lat="45.70065" lon="2.89125">
        <ele>909.9</ele>
        <time>2021-07-20T08:29:51Z</time>
      </trkpt>
      <trkpt lat="45.70071" lon="2.89123">
        <ele>910.4</ele>
        <time>2021-07-20T08:29:55Z</time>
      </trkpt>
      <trkpt lat="45.70077" lon="2.89122">
        <ele>910.8</ele>
        <time>2021-07-20T08:29:59Z</time>
      </trkpt>
      <trkpt lat="45.70082" lon="2.89122">
        <ele>910.9</ele>
        <time>2021-07-20T08:30:03Z</time>
      </trkpt>
      <trkpt lat="45.70089" lon="2.89125">
        <ele>910.8</ele>
        <time>2021-07-20T08:30:07Z</time>
      </trkpt>
      <trkpt lat="45.70095" lon="2.89126">
        <ele>911</ele>
        <time>2021-07-20T08:30:11Z</time>
      </trkpt>
      <trkpt lat="45.70102" lon="2.89126">
        <ele>911.2</ele>
        <time>2021-07-20T08:30:15Z</time>
      </trkpt>
      <trkpt lat="45.70108" lon="2.8913">
        <ele>911</ele>
        <time>2021-07-20T08:30:19Z</time>
      </trkpt>
      <trkpt lat="45.70115" lon="2.89131">
        <ele>911.1</ele>
        <time>2021-07-20T08:30:23Z</time>
      </trkpt>
      <trkpt lat="45.70121" lon="2.89132">
        <ele>911.3</ele>
        <time>2021-07-20T08:30:27Z</time>
      </trkpt>
      <trkpt lat="45.70128" lon="2.89132">
        <ele>911.6</ele>
        <time>2021-07-20T08:30:31Z</time>
      </trkpt>
      <trkpt lat="45.70135" lon="2.89132">
        <ele>911.9</ele>
        <time>2021-07-20T08:30:35Z</time>
      </trkpt>
      <trkpt lat="45.70141" lon="2.89132">
        <ele>912.2</ele>
        <time>2021-07-20T08:30:39Z</time>
      </trkpt>
      <trkpt lat="45.70146" lon="2.89133">
        <ele>912.3</ele>
        <time>2021-07-20T08:30:43Z</time>
      </trkpt>
      <trkpt lat="45.70154" lon="2.89133">
        <ele>912.6</ele>
        <time>2021-07-20T08:30:47Z</time>
      </trkpt>
      <trkpt lat="45.70161" lon="2.89132">
        <ele>913.1</ele>
        <time>2021-07-20T08:30:51Z</time>
      </trkpt>
      <trkpt lat="45.70167" lon="2.89131">
        <ele>913.5</ele>
        <time>2021-07-20T08:30:55Z</time>
      </trkpt>
      <trkpt lat="45.70173" lon="2.89131">
        <ele>913.9</ele>
        <time>2021-07-20T08:30:59Z</time>
      </trkpt>
      <trkpt lat="45.7018" lon="2.8913">
        <ele>914.4</ele>
        <time>2021-07-20T08:31:03Z</time>
      </trkpt>
      <trkpt lat="45.70186" lon="2.89131">
        <ele>914.7</ele>
        <time>2021-07-20T08:31:07Z</time>
      </trkpt>
      <trkpt lat="45.70193" lon="2.89132">
        <ele>914.9</ele>
        <time>2021-07-20T08:31:11Z</time>
      </trkpt>
      <trkpt lat="45.70199" lon="2.89132">
        <ele>915.3</ele>
        <time>2021-07-20T08:31:15Z</time>
      </trkpt>
      <trkpt lat="45.70205" lon="2.89132">
        <ele>915.6</ele>
        <time>2021-07-20T08:31:19Z</time>
      </trkpt>
      <trkpt lat="45.70211" lon="2.89131">
        <ele>916.1</ele>
        <time>2021-07-20T08:31:23Z</time>
      </trkpt>
      <trkpt lat="45.70217" lon="2.8913">
        <ele>916.6</ele>
        <time>2021-07-20T08:31:27Z</time>
      </trkpt>
      <trkpt lat="45.70223" lon="2.89129">
        <ele>917.1</ele>
        <time>2021-07-20T08:31:31Z</time>
      </trkpt>
      <trkpt lat="45.70228" lon="2.89125">
        <ele>917.8</ele>
        <time>2021-07-20T08:31:35Z</time>
      </trkpt>
      <trkpt lat="45.70234" lon="2.89121">
        <ele>918.7</ele>
        <time>2021-07-20T08:31:39Z</time>
      </trkpt>
      <trkpt lat="45.7024" lon="2.89114">
        <ele>919.9</ele>
        <time>2021-07-20T08:31:43Z</time>
      </trkpt>
      <trkpt lat="45.70247" lon="2.89107">
        <ele>921.1</ele>
        <time>2021-07-20T08:31:47Z</time>
      </trkpt>
      <trkpt lat="45.70252" lon="2.89098">
        <ele>922.3</ele>
        <time>2021-07-20T08:31:51Z</time>
      </trkpt>
      <trkpt lat="45.70258" lon="2.89088">
        <ele>923.4</ele>
        <time>2021-07-20T08:31:55Z</time>
      </trkpt>
      <trkpt lat="45.70261" lon="2.89083">
        <ele>923.9</ele>
        <time>2021-07-20T08:31:57Z</time>
      </trkpt>
      <trkpt lat="45.70264" lon="2.89077">
        <ele>924</ele>
        <time>2021-07-20T08:31:59Z</time>
      </trkpt>
      <trkpt lat="45.70268" lon="2.89071">
        <ele>924.2</ele>
        <time>2021-07-20T08:32:01Z</time>
      </trkpt>
      <trkpt lat="45.70271" lon="2.89064">
        <ele>924.3</ele>
        <time>2021-07-20T08:32:03Z</time>
      </trkpt>
      <trkpt lat="45.70274" lon="2.89059">
        <ele>924.4</ele>
        <time>2021-07-20T08:32:05Z</time>
      </trkpt>
      <trkpt lat="45.70278" lon="2.89052">
        <ele>924.5</ele>
        <time>2021-07-20T08:32:07Z</time>
      </trkpt>
      <trkpt lat="45.70281" lon="2.89045">
        <ele>924.7</ele>
        <time>2021-07-20T08:32:09Z</time>
      </trkpt>
      <trkpt lat="45.70283" lon="2.89038">
        <ele>924.8</ele>
        <time>2021-07-20T08:32:11Z</time>
      </trkpt>
      <trkpt lat="45.70287" lon="2.89032">
        <ele>924.9</ele>
        <time>2021-07-20T08:32:13Z</time>
      </trkpt>
      <trkpt lat="45.70292" lon="2.89029">
        <ele>924.8</ele>
        <time>2021-07-20T08:32:17Z</time>
      </trkpt>
      <trkpt lat="45.70294" lon="2.89022">
        <ele>924.9</ele>
        <time>2021-07-20T08:33:47Z</time>
      </trkpt>
      <trkpt lat="45.70297" lon="2.8901">
        <ele>925.1</ele>
        <time>2021-07-20T08:33:51Z</time>
      </trkpt>
      <trkpt lat="45.70299" lon="2.89003">
        <ele>925.2</ele>
        <time>2021-07-20T08:33:53Z</time>
      </trkpt>
      <trkpt lat="45.70303" lon="2.88995">
        <ele>925.1</ele>
        <time>2021-07-20T08:33:55Z</time>
      </trkpt>
      <trkpt lat="45.70306" lon="2.88986">
        <ele>924.9</ele>
        <time>2021-07-20T08:33:57Z</time>
      </trkpt>
      <trkpt lat="45.70308" lon="2.88977">
        <ele>924.8</ele>
        <time>2021-07-20T08:33:59Z</time>
      </trkpt>
      <trkpt lat="45.70311" lon="2.88966">
        <ele>924.7</ele>
        <time>2021-07-20T08:34:01Z</time>
      </trkpt>
      <trkpt lat="45.70311" lon="2.88957">
        <ele>924.7</ele>
        <time>2021-07-20T08:34:03Z</time>
      </trkpt>
      <trkpt lat="45.70306" lon="2.88951">
        <ele>924.8</ele>
        <time>2021-07-20T08:34:07Z</time>
      </trkpt>
      <trkpt lat="45.70299" lon="2.88949">
        <ele>925</ele>
        <time>2021-07-20T08:34:11Z</time>
      </trkpt>
      <trkpt lat="45.70292" lon="2.88948">
        <ele>925.2</ele>
        <time>2021-07-20T08:34:15Z</time>
      </trkpt>
      <trkpt lat="45.70287" lon="2.88948">
        <ele>925.3</ele>
        <time>2021-07-20T08:34:17Z</time>
      </trkpt>
      <trkpt lat="45.70278" lon="2.88946">
        <ele>925.6</ele>
        <time>2021-07-20T08:34:21Z</time>
      </trkpt>
      <trkpt lat="45.70273" lon="2.88945">
        <ele>925.7</ele>
        <time>2021-07-20T08:34:23Z</time>
      </trkpt>
      <trkpt lat="45.70268" lon="2.88943">
        <ele>925.8</ele>
        <time>2021-07-20T08:34:25Z</time>
      </trkpt>
      <trkpt lat="45.70263" lon="2.88941">
        <ele>925.9</ele>
        <time>2021-07-20T08:34:27Z</time>
      </trkpt>
      <trkpt lat="45.70258" lon="2.88941">
        <ele>926.1</ele>
        <time>2021-07-20T08:34:29Z</time>
      </trkpt>
      <trkpt lat="45.70253" lon="2.88942">
        <ele>926.2</ele>
        <time>2021-07-20T08:34:31Z</time>
      </trkpt>
      <trkpt lat="45.70245" lon="2.88939">
        <ele>926.2</ele>
        <time>2021-07-20T08:34:35Z</time>
      </trkpt>
      <trkpt lat="45.7024" lon="2.88938">
        <ele>926.2</ele>
        <time>2021-07-20T08:36:57Z</time>
      </trkpt>
      <trkpt lat="45.70234" lon="2.88937">
        <ele>926.2</ele>
        <time>2021-07-20T08:37:01Z</time>
      </trkpt>
      <trkpt lat="45.70229" lon="2.88937">
        <ele>926.2</ele>
        <time>2021-07-20T08:37:03Z</time>
      </trkpt>
      <trkpt lat="45.70224" lon="2.88935">
        <ele>926.2</ele>
        <time>2021-07-20T08:37:05Z</time>
      </trkpt>
      <trkpt lat="45.70219" lon="2.88934">
        <ele>926.1</ele>
        <time>2021-07-20T08:37:07Z</time>
      </trkpt>
      <trkpt lat="45.70213" lon="2.88933">
        <ele>926.1</ele>
        <time>2021-07-20T08:37:09Z</time>
      </trkpt>
      <trkpt lat="45.70208" lon="2.88932">
        <ele>926.1</ele>
        <time>2021-07-20T08:37:11Z</time>
      </trkpt>
      <trkpt lat="45.70203" lon="2.88931">
        <ele>926.1</ele>
        <time>2021-07-20T08:37:13Z</time>
      </trkpt>
      <trkpt lat="45.70198" lon="2.8893">
        <ele>926.1</ele>
        <time>2021-07-20T08:37:15Z</time>
      </trkpt>
      <trkpt lat="45.70193" lon="2.88929">
        <ele>926</ele>
        <time>2021-07-20T08:37:17Z</time>
      </trkpt>
      <trkpt lat="45.70187" lon="2.88928">
        <ele>926</ele>
        <time>2021-07-20T08:37:19Z</time>
      </trkpt>
      <trkpt lat="45.7018" lon="2.88927">
        <ele>926</ele>
        <time>2021-07-20T08:37:21Z</time>
      </trkpt>
      <trkpt lat="45.70175" lon="2.88925">
        <ele>926</ele>
        <time>2021-07-20T08:37:23Z</time>
      </trkpt>
      <trkpt lat="45.70168" lon="2.88924">
        <ele>926</ele>
        <time>2021-07-20T08:37:25Z</time>
      </trkpt>
      <trkpt lat="45.70163" lon="2.88923">
        <ele>926.1</ele>
        <time>2021-07-20T08:37:27Z</time>
      </trkpt>
      <trkpt lat="45.70156" lon="2.88922">
        <ele>926.4</ele>
        <time>2021-07-20T08:37:29Z</time>
      </trkpt>
      <trkpt lat="45.7015" lon="2.88921">
        <ele>926.6</ele>
        <time>2021-07-20T08:37:31Z</time>
      </trkpt>
      <trkpt lat="45.70143" lon="2.88919">
        <ele>926.8</ele>
        <time>2021-07-20T08:37:33Z</time>
      </trkpt>
      <trkpt lat="45.70137" lon="2.88917">
        <ele>927.1</ele>
        <time>2021-07-20T08:37:35Z</time>
      </trkpt>
      <trkpt lat="45.7013" lon="2.88916">
        <ele>927.3</ele>
        <time>2021-07-20T08:37:37Z</time>
      </trkpt>
      <trkpt lat="45.70123" lon="2.88915">
        <ele>927.5</ele>
        <time>2021-07-20T08:37:39Z</time>
      </trkpt>
      <trkpt lat="45.70117" lon="2.88913">
        <ele>927.8</ele>
        <time>2021-07-20T08:37:41Z</time>
      </trkpt>
      <trkpt lat="45.7011" lon="2.88911">
        <ele>928</ele>
        <time>2021-07-20T08:37:43Z</time>
      </trkpt>
      <trkpt lat="45.70104" lon="2.88911">
        <ele>928.2</ele>
        <time>2021-07-20T08:37:45Z</time>
      </trkpt>
      <trkpt lat="45.70097" lon="2.8891">
        <ele>928.4</ele>
        <time>2021-07-20T08:37:47Z</time>
      </trkpt>
      <trkpt lat="45.70091" lon="2.88908">
        <ele>928.6</ele>
        <time>2021-07-20T08:37:49Z</time>
      </trkpt>
      <trkpt lat="45.70084" lon="2.88907">
        <ele>928.9</ele>
        <time>2021-07-20T08:37:51Z</time>
      </trkpt>
      <trkpt lat="45.70077" lon="2.88906">
        <ele>929</ele>
        <time>2021-07-20T08:37:53Z</time>
      </trkpt>
      <trkpt lat="45.7007" lon="2.88905">
        <ele>929.2</ele>
        <time>2021-07-20T08:37:55Z</time>
      </trkpt>
      <trkpt lat="45.70063" lon="2.88903">
        <ele>929.4</ele>
        <time>2021-07-20T08:37:57Z</time>
      </trkpt>
      <trkpt lat="45.70056" lon="2.88903">
        <ele>929.5</ele>
        <time>2021-07-20T08:37:59Z</time>
      </trkpt>
      <trkpt lat="45.70049" lon="2.88902">
        <ele>929.7</ele>
        <time>2021-07-20T08:38:01Z</time>
      </trkpt>
      <trkpt lat="45.70041" lon="2.889">
        <ele>929.9</ele>
        <time>2021-07-20T08:38:03Z</time>
      </trkpt>
      <trkpt lat="45.70035" lon="2.88899">
        <ele>930.1</ele>
        <time>2021-07-20T08:38:05Z</time>
      </trkpt>
      <trkpt lat="45.70028" lon="2.88898">
        <ele>930.3</ele>
        <time>2021-07-20T08:38:07Z</time>
      </trkpt>
      <trkpt lat="45.70021" lon="2.88896">
        <ele>930.4</ele>
        <time>2021-07-20T08:38:09Z</time>
      </trkpt>
      <trkpt lat="45.70014" lon="2.88895">
        <ele>930.6</ele>
        <time>2021-07-20T08:38:11Z</time>
      </trkpt>
      <trkpt lat="45.70008" lon="2.88894">
        <ele>930.8</ele>
        <time>2021-07-20T08:38:13Z</time>
      </trkpt>
      <trkpt lat="45.70002" lon="2.88893">
        <ele>931</ele>
        <time>2021-07-20T08:38:15Z</time>
      </trkpt>
      <trkpt lat="45.69996" lon="2.88893">
        <ele>931</ele>
        <time>2021-07-20T08:38:17Z</time>
      </trkpt>
      <trkpt lat="45.6999" lon="2.88893">
        <ele>930.9</ele>
        <time>2021-07-20T08:38:19Z</time>
      </trkpt>
      <trkpt lat="45.69984" lon="2.88894">
        <ele>930.9</ele>
        <time>2021-07-20T08:38:21Z</time>
      </trkpt>
      <trkpt lat="45.69978" lon="2.88895">
        <ele>930.9</ele>
        <time>2021-07-20T08:38:23Z</time>
      </trkpt>
      <trkpt lat="45.69972" lon="2.88896">
        <ele>930.8</ele>
        <time>2021-07-20T08:38:25Z</time>
      </trkpt>
      <trkpt lat="45.69966" lon="2.88896">
        <ele>930.8</ele>
        <time>2021-07-20T08:38:27Z</time>
      </trkpt>
      <trkpt lat="45.6996" lon="2.88897">
        <ele>930.7</ele>
        <time>2021-07-20T08:38:29Z</time>
      </trkpt>
      <trkpt lat="45.69953" lon="2.88897">
        <ele>930.7</ele>
        <time>2021-07-20T08:38:31Z</time>
      </trkpt>
      <trkpt lat="45.69947" lon="2.88898">
        <ele>930.7</ele>
        <time>2021-07-20T08:38:33Z</time>
      </trkpt>
      <trkpt lat="45.6994" lon="2.88899">
        <ele>930.6</ele>
        <time>2021-07-20T08:38:35Z</time>
      </trkpt>
      <trkpt lat="45.69933" lon="2.88899">
        <ele>930.5</ele>
        <time>2021-07-20T08:38:37Z</time>
      </trkpt>
      <trkpt lat="45.69926" lon="2.889">
        <ele>930.5</ele>
        <time>2021-07-20T08:38:39Z</time>
      </trkpt>
      <trkpt lat="45.6992" lon="2.88901">
        <ele>930.4</ele>
        <time>2021-07-20T08:38:41Z</time>
      </trkpt>
      <trkpt lat="45.69913" lon="2.88902">
        <ele>930.4</ele>
        <time>2021-07-20T08:38:43Z</time>
      </trkpt>
      <trkpt lat="45.69906" lon="2.88902">
        <ele>930.5</ele>
        <time>2021-07-20T08:38:45Z</time>
      </trkpt>
      <trkpt lat="45.69899" lon="2.88903">
        <ele>930.5</ele>
        <time>2021-07-20T08:38:47Z</time>
      </trkpt>
      <trkpt lat="45.69892" lon="2.88903">
        <ele>930.6</ele>
        <time>2021-07-20T08:38:49Z</time>
      </trkpt>
      <trkpt lat="45.69886" lon="2.88904">
        <ele>930.7</ele>
        <time>2021-07-20T08:38:51Z</time>
      </trkpt>
      <trkpt lat="45.6988" lon="2.88905">
        <ele>930.7</ele>
        <time>2021-07-20T08:38:53Z</time>
      </trkpt>
      <trkpt lat="45.69873" lon="2.88906">
        <ele>930.8</ele>
        <time>2021-07-20T08:38:55Z</time>
      </trkpt>
      <trkpt lat="45.69867" lon="2.88906">
        <ele>930.9</ele>
        <time>2021-07-20T08:38:57Z</time>
      </trkpt>
      <trkpt lat="45.6986" lon="2.88907">
        <ele>930.9</ele>
        <time>2021-07-20T08:38:59Z</time>
      </trkpt>
      <trkpt lat="45.69856" lon="2.88907">
        <ele>931</ele>
        <time>2021-07-20T08:39:01Z</time>
      </trkpt>
      <trkpt lat="45.69848" lon="2.88908">
        <ele>931</ele>
        <time>2021-07-20T08:39:05Z</time>
      </trkpt>
      <trkpt lat="45.69843" lon="2.88908">
        <ele>931.1</ele>
        <time>2021-07-20T08:39:09Z</time>
      </trkpt>
      <trkpt lat="45.69837" lon="2.8891">
        <ele>931.1</ele>
        <time>2021-07-20T08:39:43Z</time>
      </trkpt>
      <trkpt lat="45.69832" lon="2.88911">
        <ele>931.2</ele>
        <time>2021-07-20T08:39:45Z</time>
      </trkpt>
      <trkpt lat="45.69827" lon="2.88912">
        <ele>931.3</ele>
        <time>2021-07-20T08:39:47Z</time>
      </trkpt>
      <trkpt lat="45.69821" lon="2.88912">
        <ele>931.5</ele>
        <time>2021-07-20T08:39:49Z</time>
      </trkpt>
      <trkpt lat="45.69815" lon="2.88912">
        <ele>931.7</ele>
        <time>2021-07-20T08:39:51Z</time>
      </trkpt>
      <trkpt lat="45.69808" lon="2.88913">
        <ele>932</ele>
        <time>2021-07-20T08:39:53Z</time>
      </trkpt>
      <trkpt lat="45.69802" lon="2.88913">
        <ele>932.2</ele>
        <time>2021-07-20T08:39:55Z</time>
      </trkpt>
      <trkpt lat="45.69795" lon="2.88915">
        <ele>932.4</ele>
        <time>2021-07-20T08:39:57Z</time>
      </trkpt>
      <trkpt lat="45.69788" lon="2.88915">
        <ele>932.6</ele>
        <time>2021-07-20T08:39:59Z</time>
      </trkpt>
      <trkpt lat="45.69781" lon="2.88916">
        <ele>932.9</ele>
        <time>2021-07-20T08:40:01Z</time>
      </trkpt>
      <trkpt lat="45.69775" lon="2.88916">
        <ele>933.1</ele>
        <time>2021-07-20T08:40:03Z</time>
      </trkpt>
      <trkpt lat="45.6977" lon="2.88917">
        <ele>933.3</ele>
        <time>2021-07-20T08:40:05Z</time>
      </trkpt>
      <trkpt lat="45.69765" lon="2.88918">
        <ele>933.3</ele>
        <time>2021-07-20T08:40:07Z</time>
      </trkpt>
      <trkpt lat="45.69759" lon="2.88919">
        <ele>933.4</ele>
        <time>2021-07-20T08:40:09Z</time>
      </trkpt>
      <trkpt lat="45.69752" lon="2.8892">
        <ele>933.6</ele>
        <time>2021-07-20T08:40:11Z</time>
      </trkpt>
      <trkpt lat="45.69746" lon="2.8892">
        <ele>933.7</ele>
        <time>2021-07-20T08:40:13Z</time>
      </trkpt>
      <trkpt lat="45.69738" lon="2.8892">
        <ele>933.7</ele>
        <time>2021-07-20T08:40:15Z</time>
      </trkpt>
      <trkpt lat="45.69731" lon="2.88921">
        <ele>933.6</ele>
        <time>2021-07-20T08:40:17Z</time>
      </trkpt>
      <trkpt lat="45.69723" lon="2.88921">
        <ele>933.6</ele>
        <time>2021-07-20T08:40:19Z</time>
      </trkpt>
      <trkpt lat="45.69716" lon="2.88922">
        <ele>933.5</ele>
        <time>2021-07-20T08:40:21Z</time>
      </trkpt>
      <trkpt lat="45.69709" lon="2.88923">
        <ele>933.4</ele>
        <time>2021-07-20T08:40:23Z</time>
      </trkpt>
      <trkpt lat="45.69702" lon="2.88922">
        <ele>933.5</ele>
        <time>2021-07-20T08:40:25Z</time>
      </trkpt>
      <trkpt lat="45.69695" lon="2.88922">
        <ele>933.5</ele>
        <time>2021-07-20T08:40:27Z</time>
      </trkpt>
      <trkpt lat="45.69688" lon="2.88924">
        <ele>933.3</ele>
        <time>2021-07-20T08:40:29Z</time>
      </trkpt>
      <trkpt lat="45.69682" lon="2.88923">
        <ele>933.4</ele>
        <time>2021-07-20T08:40:31Z</time>
      </trkpt>
      <trkpt lat="45.69675" lon="2.88922">
        <ele>933.5</ele>
        <time>2021-07-20T08:40:33Z</time>
      </trkpt>
      <trkpt lat="45.69668" lon="2.88922">
        <ele>933.5</ele>
        <time>2021-07-20T08:40:35Z</time>
      </trkpt>
      <trkpt lat="45.69661" lon="2.88922">
        <ele>933.4</ele>
        <time>2021-07-20T08:40:37Z</time>
      </trkpt>
      <trkpt lat="45.69654" lon="2.88922">
        <ele>933.3</ele>
        <time>2021-07-20T08:40:39Z</time>
      </trkpt>
      <trkpt lat="45.69646" lon="2.88922">
        <ele>933.2</ele>
        <time>2021-07-20T08:40:41Z</time>
      </trkpt>
      <trkpt lat="45.69638" lon="2.88921">
        <ele>933.2</ele>
        <time>2021-07-20T08:40:43Z</time>
      </trkpt>
      <trkpt lat="45.69631" lon="2.88921">
        <ele>933.1</ele>
        <time>2021-07-20T08:40:45Z</time>
      </trkpt>
      <trkpt lat="45.69624" lon="2.8892">
        <ele>933.2</ele>
        <time>2021-07-20T08:40:47Z</time>
      </trkpt>
      <trkpt lat="45.69617" lon="2.88919">
        <ele>933.2</ele>
        <time>2021-07-20T08:40:49Z</time>
      </trkpt>
      <trkpt lat="45.69609" lon="2.88919">
        <ele>933.1</ele>
        <time>2021-07-20T08:40:51Z</time>
      </trkpt>
      <trkpt lat="45.69602" lon="2.88918">
        <ele>933.1</ele>
        <time>2021-07-20T08:40:53Z</time>
      </trkpt>
      <trkpt lat="45.69595" lon="2.88917">
        <ele>933.1</ele>
        <time>2021-07-20T08:40:55Z</time>
      </trkpt>
      <trkpt lat="45.69588" lon="2.88915">
        <ele>933</ele>
        <time>2021-07-20T08:40:57Z</time>
      </trkpt>
      <trkpt lat="45.6958" lon="2.88914">
        <ele>932.9</ele>
        <time>2021-07-20T08:40:59Z</time>
      </trkpt>
      <trkpt lat="45.69573" lon="2.88911">
        <ele>932.8</ele>
        <time>2021-07-20T08:41:01Z</time>
      </trkpt>
      <trkpt lat="45.69567" lon="2.88908">
        <ele>932.8</ele>
        <time>2021-07-20T08:41:03Z</time>
      </trkpt>
      <trkpt lat="45.6956" lon="2.88905">
        <ele>932.7</ele>
        <time>2021-07-20T08:41:05Z</time>
      </trkpt>
      <trkpt lat="45.69552" lon="2.88903">
        <ele>932.7</ele>
        <time>2021-07-20T08:41:07Z</time>
      </trkpt>
      <trkpt lat="45.69546" lon="2.88899">
        <ele>932.7</ele>
        <time>2021-07-20T08:41:09Z</time>
      </trkpt>
      <trkpt lat="45.69539" lon="2.88896">
        <ele>932.7</ele>
        <time>2021-07-20T08:41:11Z</time>
      </trkpt>
      <trkpt lat="45.69533" lon="2.88893">
        <ele>932.7</ele>
        <time>2021-07-20T08:41:13Z</time>
      </trkpt>
      <trkpt lat="45.69527" lon="2.88889">
        <ele>932.7</ele>
        <time>2021-07-20T08:41:15Z</time>
      </trkpt>
      <trkpt lat="45.6952" lon="2.88886">
        <ele>932.7</ele>
        <time>2021-07-20T08:41:17Z</time>
      </trkpt>
      <trkpt lat="45.69514" lon="2.88883">
        <ele>932.8</ele>
        <time>2021-07-20T08:41:19Z</time>
      </trkpt>
      <trkpt lat="45.69507" lon="2.88879">
        <ele>932.9</ele>
        <time>2021-07-20T08:41:21Z</time>
      </trkpt>
      <trkpt lat="45.695" lon="2.88876">
        <ele>933</ele>
        <time>2021-07-20T08:41:23Z</time>
      </trkpt>
      <trkpt lat="45.69493" lon="2.88872">
        <ele>933.1</ele>
        <time>2021-07-20T08:41:25Z</time>
      </trkpt>
      <trkpt lat="45.69485" lon="2.88868">
        <ele>933.3</ele>
        <time>2021-07-20T08:41:27Z</time>
      </trkpt>
      <trkpt lat="45.69478" lon="2.88864">
        <ele>933.5</ele>
        <time>2021-07-20T08:41:29Z</time>
      </trkpt>
      <trkpt lat="45.69471" lon="2.8886">
        <ele>933.7</ele>
        <time>2021-07-20T08:41:31Z</time>
      </trkpt>
      <trkpt lat="45.69464" lon="2.88857">
        <ele>933.9</ele>
        <time>2021-07-20T08:41:33Z</time>
      </trkpt>
      <trkpt lat="45.69457" lon="2.88853">
        <ele>934.2</ele>
        <time>2021-07-20T08:41:35Z</time>
      </trkpt>
      <trkpt lat="45.6945" lon="2.88849">
        <ele>934.5</ele>
        <time>2021-07-20T08:41:37Z</time>
      </trkpt>
      <trkpt lat="45.69443" lon="2.88847">
        <ele>934.7</ele>
        <time>2021-07-20T08:41:39Z</time>
      </trkpt>
      <trkpt lat="45.69435" lon="2.88844">
        <ele>935</ele>
        <time>2021-07-20T08:41:41Z</time>
      </trkpt>
      <trkpt lat="45.69428" lon="2.88842">
        <ele>935.3</ele>
        <time>2021-07-20T08:41:43Z</time>
      </trkpt>
      <trkpt lat="45.6942" lon="2.88839">
        <ele>935.7</ele>
        <time>2021-07-20T08:41:45Z</time>
      </trkpt>
      <trkpt lat="45.69413" lon="2.88836">
        <ele>936</ele>
        <time>2021-07-20T08:41:47Z</time>
      </trkpt>
      <trkpt lat="45.69406" lon="2.88835">
        <ele>936.3</ele>
        <time>2021-07-20T08:41:49Z</time>
      </trkpt>
      <trkpt lat="45.69399" lon="2.88833">
        <ele>936.6</ele>
        <time>2021-07-20T08:41:51Z</time>
      </trkpt>
      <trkpt lat="45.69394" lon="2.88833">
        <ele>936.8</ele>
        <time>2021-07-20T08:41:53Z</time>
      </trkpt>
      <trkpt lat="45.69388" lon="2.88834">
        <ele>937</ele>
        <time>2021-07-20T08:41:55Z</time>
      </trkpt>
      <trkpt lat="45.6938" lon="2.88837">
        <ele>937.1</ele>
        <time>2021-07-20T08:41:59Z</time>
      </trkpt>
      <trkpt lat="45.69373" lon="2.8884">
        <ele>937.3</ele>
        <time>2021-07-20T08:42:03Z</time>
      </trkpt>
      <trkpt lat="45.69365" lon="2.88843">
        <ele>937.4</ele>
        <time>2021-07-20T08:42:07Z</time>
      </trkpt>
      <trkpt lat="45.69361" lon="2.88844">
        <ele>937.4</ele>
        <time>2021-07-20T08:42:09Z</time>
      </trkpt>
      <trkpt lat="45.69356" lon="2.88846">
        <ele>937.5</ele>
        <time>2021-07-20T08:42:11Z</time>
      </trkpt>
      <trkpt lat="45.69351" lon="2.88846">
        <ele>937.6</ele>
        <time>2021-07-20T08:42:13Z</time>
      </trkpt>
      <trkpt lat="45.69347" lon="2.88848">
        <ele>937.7</ele>
        <time>2021-07-20T08:42:15Z</time>
      </trkpt>
      <trkpt lat="45.69342" lon="2.88848">
        <ele>937.8</ele>
        <time>2021-07-20T08:42:17Z</time>
      </trkpt>
      <trkpt lat="45.69337" lon="2.88849">
        <ele>938</ele>
        <time>2021-07-20T08:42:19Z</time>
      </trkpt>
      <trkpt lat="45.69332" lon="2.88849">
        <ele>938.1</ele>
        <time>2021-07-20T08:42:21Z</time>
      </trkpt>
      <trkpt lat="45.69322" lon="2.88849">
        <ele>938.7</ele>
        <time>2021-07-20T08:42:25Z</time>
      </trkpt>
      <trkpt lat="45.69318" lon="2.88849">
        <ele>938.9</ele>
        <time>2021-07-20T08:42:27Z</time>
      </trkpt>
      <trkpt lat="45.69313" lon="2.88849">
        <ele>939.2</ele>
        <time>2021-07-20T08:42:29Z</time>
      </trkpt>
      <trkpt lat="45.69307" lon="2.88848">
        <ele>939.6</ele>
        <time>2021-07-20T08:42:33Z</time>
      </trkpt>
      <trkpt lat="45.69302" lon="2.88849">
        <ele>939.8</ele>
        <time>2021-07-20T08:42:37Z</time>
      </trkpt>
      <trkpt lat="45.69293" lon="2.88848">
        <ele>940.3</ele>
        <time>2021-07-20T08:42:41Z</time>
      </trkpt>
      <trkpt lat="45.69289" lon="2.88848">
        <ele>940.6</ele>
        <time>2021-07-20T08:42:43Z</time>
      </trkpt>
      <trkpt lat="45.69281" lon="2.88848">
        <ele>941</ele>
        <time>2021-07-20T08:42:47Z</time>
      </trkpt>
      <trkpt lat="45.69273" lon="2.88848">
        <ele>941.5</ele>
        <time>2021-07-20T08:42:51Z</time>
      </trkpt>
      <trkpt lat="45.69265" lon="2.88848">
        <ele>941.9</ele>
        <time>2021-07-20T08:42:55Z</time>
      </trkpt>
      <trkpt lat="45.69256" lon="2.88848">
        <ele>942.4</ele>
        <time>2021-07-20T08:42:59Z</time>
      </trkpt>
      <trkpt lat="45.69251" lon="2.88849">
        <ele>942.7</ele>
        <time>2021-07-20T08:43:01Z</time>
      </trkpt>
      <trkpt lat="45.69243" lon="2.88848">
        <ele>942.6</ele>
        <time>2021-07-20T08:43:05Z</time>
      </trkpt>
      <trkpt lat="45.69239" lon="2.88849">
        <ele>942.4</ele>
        <time>2021-07-20T08:43:07Z</time>
      </trkpt>
      <trkpt lat="45.69234" lon="2.88849">
        <ele>942.3</ele>
        <time>2021-07-20T08:43:09Z</time>
      </trkpt>
      <trkpt lat="45.69225" lon="2.88849">
        <ele>942.1</ele>
        <time>2021-07-20T08:43:13Z</time>
      </trkpt>
      <trkpt lat="45.69219" lon="2.88849">
        <ele>941.9</ele>
        <time>2021-07-20T08:43:15Z</time>
      </trkpt>
      <trkpt lat="45.69212" lon="2.88847">
        <ele>941.9</ele>
        <time>2021-07-20T08:43:17Z</time>
      </trkpt>
      <trkpt lat="45.69204" lon="2.88842">
        <ele>942.2</ele>
        <time>2021-07-20T08:43:19Z</time>
      </trkpt>
      <trkpt lat="45.69197" lon="2.88835">
        <ele>942.6</ele>
        <time>2021-07-20T08:43:21Z</time>
      </trkpt>
      <trkpt lat="45.69191" lon="2.88828">
        <ele>942.8</ele>
        <time>2021-07-20T08:43:23Z</time>
      </trkpt>
      <trkpt lat="45.69185" lon="2.8882">
        <ele>943.1</ele>
        <time>2021-07-20T08:43:25Z</time>
      </trkpt>
      <trkpt lat="45.69181" lon="2.88814">
        <ele>943.3</ele>
        <time>2021-07-20T08:43:27Z</time>
      </trkpt>
      <trkpt lat="45.69177" lon="2.88809">
        <ele>943.5</ele>
        <time>2021-07-20T08:43:29Z</time>
      </trkpt>
      <trkpt lat="45.69173" lon="2.88805">
        <ele>943.7</ele>
        <time>2021-07-20T08:43:31Z</time>
      </trkpt>
      <trkpt lat="45.69168" lon="2.888">
        <ele>944</ele>
        <time>2021-07-20T08:43:33Z</time>
      </trkpt>
      <trkpt lat="45.69163" lon="2.88794">
        <ele>944.4</ele>
        <time>2021-07-20T08:43:35Z</time>
      </trkpt>
      <trkpt lat="45.69158" lon="2.88788">
        <ele>944.7</ele>
        <time>2021-07-20T08:43:37Z</time>
      </trkpt>
      <trkpt lat="45.69153" lon="2.88784">
        <ele>944.9</ele>
        <time>2021-07-20T08:43:39Z</time>
      </trkpt>
      <trkpt lat="45.69148" lon="2.88781">
        <ele>945.1</ele>
        <time>2021-07-20T08:43:41Z</time>
      </trkpt>
      <trkpt lat="45.69142" lon="2.88777">
        <ele>945.4</ele>
        <time>2021-07-20T08:43:43Z</time>
      </trkpt>
      <trkpt lat="45.69136" lon="2.88774">
        <ele>945.6</ele>
        <time>2021-07-20T08:43:45Z</time>
      </trkpt>
      <trkpt lat="45.6913" lon="2.88771">
        <ele>945.8</ele>
        <time>2021-07-20T08:43:47Z</time>
      </trkpt>
      <trkpt lat="45.69123" lon="2.88768">
        <ele>946.1</ele>
        <time>2021-07-20T08:43:49Z</time>
      </trkpt>
      <trkpt lat="45.69117" lon="2.88766">
        <ele>946.3</ele>
        <time>2021-07-20T08:43:51Z</time>
      </trkpt>
      <trkpt lat="45.69109" lon="2.88765">
        <ele>946.4</ele>
        <time>2021-07-20T08:43:53Z</time>
      </trkpt>
      <trkpt lat="45.69103" lon="2.88765">
        <ele>946.4</ele>
        <time>2021-07-20T08:43:55Z</time>
      </trkpt>
      <trkpt lat="45.69096" lon="2.88766">
        <ele>946.4</ele>
        <time>2021-07-20T08:43:57Z</time>
      </trkpt>
      <trkpt lat="45.69089" lon="2.88767">
        <ele>946.4</ele>
        <time>2021-07-20T08:43:59Z</time>
      </trkpt>
      <trkpt lat="45.69082" lon="2.88768">
        <ele>946.3</ele>
        <time>2021-07-20T08:44:01Z</time>
      </trkpt>
      <trkpt lat="45.69075" lon="2.88769">
        <ele>946.2</ele>
        <time>2021-07-20T08:44:03Z</time>
      </trkpt>
      <trkpt lat="45.69069" lon="2.88769">
        <ele>946.3</ele>
        <time>2021-07-20T08:44:05Z</time>
      </trkpt>
      <trkpt lat="45.69062" lon="2.88769">
        <ele>946.3</ele>
        <time>2021-07-20T08:44:07Z</time>
      </trkpt>
      <trkpt lat="45.69055" lon="2.88769">
        <ele>946.4</ele>
        <time>2021-07-20T08:44:09Z</time>
      </trkpt>
      <trkpt lat="45.69048" lon="2.88767">
        <ele>946.7</ele>
        <time>2021-07-20T08:44:11Z</time>
      </trkpt>
      <trkpt lat="45.69042" lon="2.88764">
        <ele>947.1</ele>
        <time>2021-07-20T08:44:13Z</time>
      </trkpt>
      <trkpt lat="45.69036" lon="2.88762">
        <ele>947.5</ele>
        <time>2021-07-20T08:44:15Z</time>
      </trkpt>
      <trkpt lat="45.6903" lon="2.88759">
        <ele>948</ele>
        <time>2021-07-20T08:44:17Z</time>
      </trkpt>
      <trkpt lat="45.69024" lon="2.88756">
        <ele>948.5</ele>
        <time>2021-07-20T08:44:19Z</time>
      </trkpt>
      <trkpt lat="45.69019" lon="2.88754">
        <ele>949</ele>
        <time>2021-07-20T08:44:21Z</time>
      </trkpt>
      <trkpt lat="45.69014" lon="2.8875">
        <ele>949.6</ele>
        <time>2021-07-20T08:44:23Z</time>
      </trkpt>
      <trkpt lat="45.69009" lon="2.88748">
        <ele>950</ele>
        <time>2021-07-20T08:44:25Z</time>
      </trkpt>
      <trkpt lat="45.69004" lon="2.88745">
        <ele>950.3</ele>
        <time>2021-07-20T08:44:27Z</time>
      </trkpt>
      <trkpt lat="45.68997" lon="2.8874">
        <ele>950.8</ele>
        <time>2021-07-20T08:44:29Z</time>
      </trkpt>
      <trkpt lat="45.68991" lon="2.88736">
        <ele>951</ele>
        <time>2021-07-20T08:44:31Z</time>
      </trkpt>
      <trkpt lat="45.68984" lon="2.88732">
        <ele>951.1</ele>
        <time>2021-07-20T08:44:33Z</time>
      </trkpt>
      <trkpt lat="45.68978" lon="2.88728">
        <ele>951.3</ele>
        <time>2021-07-20T08:44:35Z</time>
      </trkpt>
      <trkpt lat="45.68972" lon="2.88724">
        <ele>951.5</ele>
        <time>2021-07-20T08:44:37Z</time>
      </trkpt>
      <trkpt lat="45.68967" lon="2.88721">
        <ele>951.7</ele>
        <time>2021-07-20T08:44:39Z</time>
      </trkpt>
      <trkpt lat="45.68962" lon="2.88718">
        <ele>951.8</ele>
        <time>2021-07-20T08:44:41Z</time>
      </trkpt>
      <trkpt lat="45.68956" lon="2.88713">
        <ele>952.1</ele>
        <time>2021-07-20T08:44:43Z</time>
      </trkpt>
      <trkpt lat="45.68951" lon="2.88708">
        <ele>952.3</ele>
        <time>2021-07-20T08:44:45Z</time>
      </trkpt>
      <trkpt lat="45.68947" lon="2.88705">
        <ele>952.5</ele>
        <time>2021-07-20T08:44:47Z</time>
      </trkpt>
      <trkpt lat="45.68941" lon="2.88702">
        <ele>952.6</ele>
        <time>2021-07-20T08:44:49Z</time>
      </trkpt>
      <trkpt lat="45.68937" lon="2.887">
        <ele>952.7</ele>
        <time>2021-07-20T08:44:51Z</time>
      </trkpt>
      <trkpt lat="45.68933" lon="2.88696">
        <ele>952.9</ele>
        <time>2021-07-20T08:44:53Z</time>
      </trkpt>
      <trkpt lat="45.68928" lon="2.88692">
        <ele>953.1</ele>
        <time>2021-07-20T08:44:55Z</time>
      </trkpt>
      <trkpt lat="45.68924" lon="2.88688">
        <ele>953.4</ele>
        <time>2021-07-20T08:44:57Z</time>
      </trkpt>
      <trkpt lat="45.68916" lon="2.8868">
        <ele>953.8</ele>
        <time>2021-07-20T08:45:01Z</time>
      </trkpt>
      <trkpt lat="45.68912" lon="2.88676">
        <ele>954</ele>
        <time>2021-07-20T08:45:03Z</time>
      </trkpt>
      <trkpt lat="45.68907" lon="2.88672">
        <ele>954.3</ele>
        <time>2021-07-20T08:45:05Z</time>
      </trkpt>
      <trkpt lat="45.68902" lon="2.88667">
        <ele>954.5</ele>
        <time>2021-07-20T08:45:07Z</time>
      </trkpt>
      <trkpt lat="45.68898" lon="2.88663">
        <ele>954.5</ele>
        <time>2021-07-20T08:45:09Z</time>
      </trkpt>
      <trkpt lat="45.68893" lon="2.8866">
        <ele>954.6</ele>
        <time>2021-07-20T08:45:11Z</time>
      </trkpt>
      <trkpt lat="45.68889" lon="2.88656">
        <ele>954.7</ele>
        <time>2021-07-20T08:45:13Z</time>
      </trkpt>
      <trkpt lat="45.68885" lon="2.88652">
        <ele>954.8</ele>
        <time>2021-07-20T08:45:15Z</time>
      </trkpt>
      <trkpt lat="45.68881" lon="2.88646">
        <ele>955.1</ele>
        <time>2021-07-20T08:45:19Z</time>
      </trkpt>
      <trkpt lat="45.68882" lon="2.88637">
        <ele>955.7</ele>
        <time>2021-07-20T08:45:23Z</time>
      </trkpt>
      <trkpt lat="45.68877" lon="2.88637">
        <ele>955.5</ele>
        <time>2021-07-20T08:46:05Z</time>
      </trkpt>
      <trkpt lat="45.68882" lon="2.88637">
        <ele>955.7</ele>
        <time>2021-07-20T08:47:21Z</time>
      </trkpt>
      <trkpt lat="45.68885" lon="2.88629">
        <ele>956.3</ele>
        <time>2021-07-20T08:48:45Z</time>
      </trkpt>
      <trkpt lat="45.68888" lon="2.88622">
        <ele>956.8</ele>
        <time>2021-07-20T08:48:49Z</time>
      </trkpt>
      <trkpt lat="45.68891" lon="2.88613">
        <ele>957.5</ele>
        <time>2021-07-20T08:48:53Z</time>
      </trkpt>
      <trkpt lat="45.68895" lon="2.88605">
        <ele>958.1</ele>
        <time>2021-07-20T08:48:57Z</time>
      </trkpt>
      <trkpt lat="45.68897" lon="2.88594">
        <ele>958.9</ele>
        <time>2021-07-20T08:49:01Z</time>
      </trkpt>
      <trkpt lat="45.68897" lon="2.88583">
        <ele>959.5</ele>
        <time>2021-07-20T08:49:05Z</time>
      </trkpt>
      <trkpt lat="45.68897" lon="2.88572">
        <ele>959.7</ele>
        <time>2021-07-20T08:49:09Z</time>
      </trkpt>
      <trkpt lat="45.68898" lon="2.88562">
        <ele>959.9</ele>
        <time>2021-07-20T08:49:13Z</time>
      </trkpt>
      <trkpt lat="45.68897" lon="2.88551">
        <ele>960</ele>
        <time>2021-07-20T08:49:17Z</time>
      </trkpt>
      <trkpt lat="45.68895" lon="2.8854">
        <ele>960.1</ele>
        <time>2021-07-20T08:49:21Z</time>
      </trkpt>
      <trkpt lat="45.68894" lon="2.88528">
        <ele>960.3</ele>
        <time>2021-07-20T08:49:25Z</time>
      </trkpt>
      <trkpt lat="45.68893" lon="2.88516">
        <ele>960.5</ele>
        <time>2021-07-20T08:49:29Z</time>
      </trkpt>
      <trkpt lat="45.68892" lon="2.8851">
        <ele>960.6</ele>
        <time>2021-07-20T08:49:31Z</time>
      </trkpt>
      <trkpt lat="45.68894" lon="2.88499">
        <ele>960.7</ele>
        <time>2021-07-20T08:49:35Z</time>
      </trkpt>
      <trkpt lat="45.68896" lon="2.88489">
        <ele>960.4</ele>
        <time>2021-07-20T08:49:39Z</time>
      </trkpt>
      <trkpt lat="45.68897" lon="2.88482">
        <ele>960.3</ele>
        <time>2021-07-20T08:49:41Z</time>
      </trkpt>
      <trkpt lat="45.68898" lon="2.88475">
        <ele>960.1</ele>
        <time>2021-07-20T08:49:43Z</time>
      </trkpt>
      <trkpt lat="45.68901" lon="2.88466">
        <ele>959.8</ele>
        <time>2021-07-20T08:49:45Z</time>
      </trkpt>
      <trkpt lat="45.68904" lon="2.88458">
        <ele>959.6</ele>
        <time>2021-07-20T08:49:47Z</time>
      </trkpt>
      <trkpt lat="45.68906" lon="2.88448">
        <ele>959.2</ele>
        <time>2021-07-20T08:49:49Z</time>
      </trkpt>
      <trkpt lat="45.68907" lon="2.88435">
        <ele>958.8</ele>
        <time>2021-07-20T08:49:51Z</time>
      </trkpt>
      <trkpt lat="45.68909" lon="2.88426">
        <ele>958.5</ele>
        <time>2021-07-20T08:49:53Z</time>
      </trkpt>
      <trkpt lat="45.68912" lon="2.88415">
        <ele>958.1</ele>
        <time>2021-07-20T08:49:57Z</time>
      </trkpt>
      <trkpt lat="45.68912" lon="2.88407">
        <ele>957.9</ele>
        <time>2021-07-20T08:50:01Z</time>
      </trkpt>
      <trkpt lat="45.68914" lon="2.88401">
        <ele>957.7</ele>
        <time>2021-07-20T08:50:13Z</time>
      </trkpt>
      <trkpt lat="45.68915" lon="2.88392">
        <ele>957.4</ele>
        <time>2021-07-20T08:50:37Z</time>
      </trkpt>
      <trkpt lat="45.68915" lon="2.88386">
        <ele>957.3</ele>
        <time>2021-07-20T08:50:41Z</time>
      </trkpt>
      <trkpt lat="45.68916" lon="2.88379">
        <ele>957.1</ele>
        <time>2021-07-20T08:50:45Z</time>
      </trkpt>
      <trkpt lat="45.68916" lon="2.88372">
        <ele>956.9</ele>
        <time>2021-07-20T08:50:49Z</time>
      </trkpt>
      <trkpt lat="45.68917" lon="2.88361">
        <ele>956.7</ele>
        <time>2021-07-20T08:50:59Z</time>
      </trkpt>
      <trkpt lat="45.68918" lon="2.88354">
        <ele>956.5</ele>
        <time>2021-07-20T08:51:01Z</time>
      </trkpt>
      <trkpt lat="45.68918" lon="2.88347">
        <ele>956.3</ele>
        <time>2021-07-20T08:51:03Z</time>
      </trkpt>
      <trkpt lat="45.68919" lon="2.88338">
        <ele>956.1</ele>
        <time>2021-07-20T08:51:05Z</time>
      </trkpt>
      <trkpt lat="45.6892" lon="2.88329">
        <ele>956.2</ele>
        <time>2021-07-20T08:51:07Z</time>
      </trkpt>
      <trkpt lat="45.68921" lon="2.88319">
        <ele>956.5</ele>
        <time>2021-07-20T08:51:09Z</time>
      </trkpt>
      <trkpt lat="45.68922" lon="2.8831">
        <ele>956.8</ele>
        <time>2021-07-20T08:51:11Z</time>
      </trkpt>
      <trkpt lat="45.68923" lon="2.88301">
        <ele>957.2</ele>
        <time>2021-07-20T08:51:13Z</time>
      </trkpt>
      <trkpt lat="45.68925" lon="2.88292">
        <ele>957.5</ele>
        <time>2021-07-20T08:51:15Z</time>
      </trkpt>
      <trkpt lat="45.68926" lon="2.88283">
        <ele>957.8</ele>
        <time>2021-07-20T08:51:17Z</time>
      </trkpt>
      <trkpt lat="45.68926" lon="2.88274">
        <ele>958.1</ele>
        <time>2021-07-20T08:51:19Z</time>
      </trkpt>
      <trkpt lat="45.68926" lon="2.88267">
        <ele>958.4</ele>
        <time>2021-07-20T08:51:21Z</time>
      </trkpt>
      <trkpt lat="45.68927" lon="2.88259">
        <ele>958.7</ele>
        <time>2021-07-20T08:51:23Z</time>
      </trkpt>
      <trkpt lat="45.68928" lon="2.88252">
        <ele>958.9</ele>
        <time>2021-07-20T08:51:25Z</time>
      </trkpt>
      <trkpt lat="45.68929" lon="2.88238">
        <ele>958.8</ele>
        <time>2021-07-20T08:51:29Z</time>
      </trkpt>
      <trkpt lat="45.6893" lon="2.88231">
        <ele>958.7</ele>
        <time>2021-07-20T08:51:31Z</time>
      </trkpt>
      <trkpt lat="45.6893" lon="2.88225">
        <ele>958.6</ele>
        <time>2021-07-20T08:51:33Z</time>
      </trkpt>
      <trkpt lat="45.68931" lon="2.88218">
        <ele>958.5</ele>
        <time>2021-07-20T08:51:35Z</time>
      </trkpt>
      <trkpt lat="45.68931" lon="2.88211">
        <ele>958.4</ele>
        <time>2021-07-20T08:51:37Z</time>
      </trkpt>
      <trkpt lat="45.68931" lon="2.88203">
        <ele>958.3</ele>
        <time>2021-07-20T08:51:39Z</time>
      </trkpt>
      <trkpt lat="45.68932" lon="2.88195">
        <ele>958.2</ele>
        <time>2021-07-20T08:51:41Z</time>
      </trkpt>
      <trkpt lat="45.68933" lon="2.88188">
        <ele>958.1</ele>
        <time>2021-07-20T08:51:43Z</time>
      </trkpt>
      <trkpt lat="45.68932" lon="2.8818">
        <ele>958</ele>
        <time>2021-07-20T08:51:45Z</time>
      </trkpt>
      <trkpt lat="45.68933" lon="2.88172">
        <ele>957.9</ele>
        <time>2021-07-20T08:51:47Z</time>
      </trkpt>
      <trkpt lat="45.68933" lon="2.88164">
        <ele>957.7</ele>
        <time>2021-07-20T08:51:49Z</time>
      </trkpt>
      <trkpt lat="45.68934" lon="2.88155">
        <ele>957.3</ele>
        <time>2021-07-20T08:51:51Z</time>
      </trkpt>
      <trkpt lat="45.68934" lon="2.88146">
        <ele>956.8</ele>
        <time>2021-07-20T08:51:53Z</time>
      </trkpt>
      <trkpt lat="45.68936" lon="2.88138">
        <ele>956.4</ele>
        <time>2021-07-20T08:51:55Z</time>
      </trkpt>
      <trkpt lat="45.68937" lon="2.8813">
        <ele>956</ele>
        <time>2021-07-20T08:51:57Z</time>
      </trkpt>
      <trkpt lat="45.68936" lon="2.88121">
        <ele>955.6</ele>
        <time>2021-07-20T08:51:59Z</time>
      </trkpt>
      <trkpt lat="45.68941" lon="2.8811">
        <ele>954.9</ele>
        <time>2021-07-20T08:52:03Z</time>
      </trkpt>
      <trkpt lat="45.68944" lon="2.88102">
        <ele>954.4</ele>
        <time>2021-07-20T08:52:05Z</time>
      </trkpt>
      <trkpt lat="45.68944" lon="2.88094">
        <ele>953.9</ele>
        <time>2021-07-20T08:52:07Z</time>
      </trkpt>
      <trkpt lat="45.68943" lon="2.88088">
        <ele>953.7</ele>
        <time>2021-07-20T08:52:09Z</time>
      </trkpt>
      <trkpt lat="45.68941" lon="2.88081">
        <ele>953.2</ele>
        <time>2021-07-20T08:52:11Z</time>
      </trkpt>
      <trkpt lat="45.68938" lon="2.88073">
        <ele>952.2</ele>
        <time>2021-07-20T08:52:13Z</time>
      </trkpt>
      <trkpt lat="45.68935" lon="2.88064">
        <ele>951.2</ele>
        <time>2021-07-20T08:52:15Z</time>
      </trkpt>
      <trkpt lat="45.68931" lon="2.88053">
        <ele>950</ele>
        <time>2021-07-20T08:52:17Z</time>
      </trkpt>
      <trkpt lat="45.68926" lon="2.88042">
        <ele>948.8</ele>
        <time>2021-07-20T08:52:19Z</time>
      </trkpt>
      <trkpt lat="45.68923" lon="2.8803">
        <ele>947.5</ele>
        <time>2021-07-20T08:52:21Z</time>
      </trkpt>
      <trkpt lat="45.6892" lon="2.88018">
        <ele>946.1</ele>
        <time>2021-07-20T08:52:23Z</time>
      </trkpt>
      <trkpt lat="45.68918" lon="2.88005">
        <ele>944.5</ele>
        <time>2021-07-20T08:52:25Z</time>
      </trkpt>
      <trkpt lat="45.68916" lon="2.87992">
        <ele>943.4</ele>
        <time>2021-07-20T08:52:27Z</time>
      </trkpt>
      <trkpt lat="45.68916" lon="2.8798">
        <ele>942.5</ele>
        <time>2021-07-20T08:52:29Z</time>
      </trkpt>
      <trkpt lat="45.68915" lon="2.87965">
        <ele>941.4</ele>
        <time>2021-07-20T08:52:31Z</time>
      </trkpt>
      <trkpt lat="45.68915" lon="2.87951">
        <ele>940.2</ele>
        <time>2021-07-20T08:52:33Z</time>
      </trkpt>
      <trkpt lat="45.68916" lon="2.87935">
        <ele>938.7</ele>
        <time>2021-07-20T08:52:35Z</time>
      </trkpt>
      <trkpt lat="45.68918" lon="2.87915">
        <ele>936.8</ele>
        <time>2021-07-20T08:52:37Z</time>
      </trkpt>
      <trkpt lat="45.68919" lon="2.87896">
        <ele>935.6</ele>
        <time>2021-07-20T08:52:39Z</time>
      </trkpt>
      <trkpt lat="45.6892" lon="2.87876">
        <ele>934.4</ele>
        <time>2021-07-20T08:52:41Z</time>
      </trkpt>
      <trkpt lat="45.68921" lon="2.87856">
        <ele>933.3</ele>
        <time>2021-07-20T08:52:43Z</time>
      </trkpt>
      <trkpt lat="45.68922" lon="2.87841">
        <ele>932.4</ele>
        <time>2021-07-20T08:52:45Z</time>
      </trkpt>
      <trkpt lat="45.68921" lon="2.87829">
        <ele>931.7</ele>
        <time>2021-07-20T08:52:47Z</time>
      </trkpt>
      <trkpt lat="45.68921" lon="2.87821">
        <ele>931.2</ele>
        <time>2021-07-20T08:52:49Z</time>
      </trkpt>
      <trkpt lat="45.68921" lon="2.87812">
        <ele>930.5</ele>
        <time>2021-07-20T08:52:51Z</time>
      </trkpt>
      <trkpt lat="45.68922" lon="2.87801">
        <ele>929.3</ele>
        <time>2021-07-20T08:52:53Z</time>
      </trkpt>
      <trkpt lat="45.68921" lon="2.87787">
        <ele>928.3</ele>
        <time>2021-07-20T08:52:55Z</time>
      </trkpt>
      <trkpt lat="45.6892" lon="2.87769">
        <ele>927.1</ele>
        <time>2021-07-20T08:52:57Z</time>
      </trkpt>
      <trkpt lat="45.68917" lon="2.87749">
        <ele>925.9</ele>
        <time>2021-07-20T08:52:59Z</time>
      </trkpt>
      <trkpt lat="45.68914" lon="2.87728">
        <ele>924.9</ele>
        <time>2021-07-20T08:53:01Z</time>
      </trkpt>
      <trkpt lat="45.68911" lon="2.87709">
        <ele>924</ele>
        <time>2021-07-20T08:53:03Z</time>
      </trkpt>
      <trkpt lat="45.68909" lon="2.87693">
        <ele>923</ele>
        <time>2021-07-20T08:53:05Z</time>
      </trkpt>
      <trkpt lat="45.68908" lon="2.87678">
        <ele>921.6</ele>
        <time>2021-07-20T08:53:07Z</time>
      </trkpt>
      <trkpt lat="45.68909" lon="2.8766">
        <ele>919.9</ele>
        <time>2021-07-20T08:53:09Z</time>
      </trkpt>
      <trkpt lat="45.68908" lon="2.87641">
        <ele>918</ele>
        <time>2021-07-20T08:53:11Z</time>
      </trkpt>
      <trkpt lat="45.68909" lon="2.8762">
        <ele>915.8</ele>
        <time>2021-07-20T08:53:13Z</time>
      </trkpt>
      <trkpt lat="45.68907" lon="2.87602">
        <ele>914.1</ele>
        <time>2021-07-20T08:53:15Z</time>
      </trkpt>
      <trkpt lat="45.68907" lon="2.8759">
        <ele>913</ele>
        <time>2021-07-20T08:53:17Z</time>
      </trkpt>
      <trkpt lat="45.68906" lon="2.8758">
        <ele>911.8</ele>
        <time>2021-07-20T08:53:19Z</time>
      </trkpt>
      <trkpt lat="45.68905" lon="2.87567">
        <ele>909.7</ele>
        <time>2021-07-20T08:53:21Z</time>
      </trkpt>
      <trkpt lat="45.68905" lon="2.87553">
        <ele>907.6</ele>
        <time>2021-07-20T08:53:23Z</time>
      </trkpt>
      <trkpt lat="45.68904" lon="2.87542">
        <ele>905.8</ele>
        <time>2021-07-20T08:53:25Z</time>
      </trkpt>
      <trkpt lat="45.68903" lon="2.87529">
        <ele>903.9</ele>
        <time>2021-07-20T08:53:27Z</time>
      </trkpt>
      <trkpt lat="45.68905" lon="2.87519">
        <ele>902.4</ele>
        <time>2021-07-20T08:53:29Z</time>
      </trkpt>
      <trkpt lat="45.68907" lon="2.87509">
        <ele>900.9</ele>
        <time>2021-07-20T08:53:31Z</time>
      </trkpt>
      <trkpt lat="45.6891" lon="2.87497">
        <ele>899.2</ele>
        <time>2021-07-20T08:53:33Z</time>
      </trkpt>
      <trkpt lat="45.68914" lon="2.87486">
        <ele>897.4</ele>
        <time>2021-07-20T08:53:35Z</time>
      </trkpt>
      <trkpt lat="45.68915" lon="2.87477">
        <ele>895.8</ele>
        <time>2021-07-20T08:53:37Z</time>
      </trkpt>
      <trkpt lat="45.68918" lon="2.87467">
        <ele>894.1</ele>
        <time>2021-07-20T08:53:39Z</time>
      </trkpt>
      <trkpt lat="45.6892" lon="2.87458">
        <ele>892.6</ele>
        <time>2021-07-20T08:53:41Z</time>
      </trkpt>
      <trkpt lat="45.68923" lon="2.87446">
        <ele>890.4</ele>
        <time>2021-07-20T08:53:43Z</time>
      </trkpt>
      <trkpt lat="45.68925" lon="2.87434">
        <ele>888.4</ele>
        <time>2021-07-20T08:53:45Z</time>
      </trkpt>
      <trkpt lat="45.68928" lon="2.87424">
        <ele>886.6</ele>
        <time>2021-07-20T08:53:47Z</time>
      </trkpt>
      <trkpt lat="45.68931" lon="2.87414">
        <ele>885.2</ele>
        <time>2021-07-20T08:53:49Z</time>
      </trkpt>
      <trkpt lat="45.68934" lon="2.87405">
        <ele>884.2</ele>
        <time>2021-07-20T08:53:51Z</time>
      </trkpt>
      <trkpt lat="45.68936" lon="2.87397">
        <ele>883.3</ele>
        <time>2021-07-20T08:53:53Z</time>
      </trkpt>
      <trkpt lat="45.68939" lon="2.87388">
        <ele>882.2</ele>
        <time>2021-07-20T08:53:55Z</time>
      </trkpt>
      <trkpt lat="45.6894" lon="2.87377">
        <ele>881</ele>
        <time>2021-07-20T08:53:57Z</time>
      </trkpt>
      <trkpt lat="45.68944" lon="2.87369">
        <ele>880.1</ele>
        <time>2021-07-20T08:53:59Z</time>
      </trkpt>
      <trkpt lat="45.68947" lon="2.87358">
        <ele>878.8</ele>
        <time>2021-07-20T08:54:01Z</time>
      </trkpt>
      <trkpt lat="45.6895" lon="2.87348">
        <ele>877.6</ele>
        <time>2021-07-20T08:54:03Z</time>
      </trkpt>
      <trkpt lat="45.68954" lon="2.87335">
        <ele>876.1</ele>
        <time>2021-07-20T08:54:05Z</time>
      </trkpt>
      <trkpt lat="45.68957" lon="2.87325">
        <ele>875</ele>
        <time>2021-07-20T08:54:07Z</time>
      </trkpt>
      <trkpt lat="45.68961" lon="2.87317">
        <ele>874.1</ele>
        <time>2021-07-20T08:54:09Z</time>
      </trkpt>
      <trkpt lat="45.68965" lon="2.87305">
        <ele>872.8</ele>
        <time>2021-07-20T08:54:11Z</time>
      </trkpt>
      <trkpt lat="45.68968" lon="2.87289">
        <ele>871.1</ele>
        <time>2021-07-20T08:54:13Z</time>
      </trkpt>
      <trkpt lat="45.68971" lon="2.87272">
        <ele>869.5</ele>
        <time>2021-07-20T08:54:15Z</time>
      </trkpt>
      <trkpt lat="45.68973" lon="2.87255">
        <ele>867.6</ele>
        <time>2021-07-20T08:54:17Z</time>
      </trkpt>
      <trkpt lat="45.68972" lon="2.87236">
        <ele>865.7</ele>
        <time>2021-07-20T08:54:19Z</time>
      </trkpt>
      <trkpt lat="45.68971" lon="2.87219">
        <ele>864.1</ele>
        <time>2021-07-20T08:54:21Z</time>
      </trkpt>
      <trkpt lat="45.68969" lon="2.87202">
        <ele>862.4</ele>
        <time>2021-07-20T08:54:23Z</time>
      </trkpt>
      <trkpt lat="45.68967" lon="2.87187">
        <ele>860.9</ele>
        <time>2021-07-20T08:54:25Z</time>
      </trkpt>
      <trkpt lat="45.68966" lon="2.87174">
        <ele>859.6</ele>
        <time>2021-07-20T08:54:27Z</time>
      </trkpt>
      <trkpt lat="45.68965" lon="2.87162">
        <ele>858.4</ele>
        <time>2021-07-20T08:54:29Z</time>
      </trkpt>
      <trkpt lat="45.68963" lon="2.87151">
        <ele>857</ele>
        <time>2021-07-20T08:54:31Z</time>
      </trkpt>
      <trkpt lat="45.68961" lon="2.87141">
        <ele>855.9</ele>
        <time>2021-07-20T08:54:33Z</time>
      </trkpt>
      <trkpt lat="45.68959" lon="2.87132">
        <ele>854.9</ele>
        <time>2021-07-20T08:54:35Z</time>
      </trkpt>
      <trkpt lat="45.68953" lon="2.87121">
        <ele>853.4</ele>
        <time>2021-07-20T08:54:39Z</time>
      </trkpt>
      <trkpt lat="45.68949" lon="2.87116">
        <ele>852.5</ele>
        <time>2021-07-20T08:54:41Z</time>
      </trkpt>
      <trkpt lat="45.68944" lon="2.8711">
        <ele>851.5</ele>
        <time>2021-07-20T08:54:43Z</time>
      </trkpt>
      <trkpt lat="45.68939" lon="2.87103">
        <ele>850.5</ele>
        <time>2021-07-20T08:54:45Z</time>
      </trkpt>
      <trkpt lat="45.68934" lon="2.87095">
        <ele>849.3</ele>
        <time>2021-07-20T08:54:47Z</time>
      </trkpt>
      <trkpt lat="45.68933" lon="2.87088">
        <ele>848.7</ele>
        <time>2021-07-20T08:54:49Z</time>
      </trkpt>
      <trkpt lat="45.68932" lon="2.87081">
        <ele>848.1</ele>
        <time>2021-07-20T08:54:55Z</time>
      </trkpt>
      <trkpt lat="45.68934" lon="2.87075">
        <ele>847.9</ele>
        <time>2021-07-20T08:55:05Z</time>
      </trkpt>
      <trkpt lat="45.68937" lon="2.87069">
        <ele>847.8</ele>
        <time>2021-07-20T08:55:07Z</time>
      </trkpt>
      <trkpt lat="45.68937" lon="2.87062">
        <ele>847.4</ele>
        <time>2021-07-20T08:55:17Z</time>
      </trkpt>
      <trkpt lat="45.68939" lon="2.87051">
        <ele>846.8</ele>
        <time>2021-07-20T08:58:57Z</time>
      </trkpt>
      <trkpt lat="45.6894" lon="2.87041">
        <ele>846.2</ele>
        <time>2021-07-20T08:58:59Z</time>
      </trkpt>
      <trkpt lat="45.68938" lon="2.8703">
        <ele>845.4</ele>
        <time>2021-07-20T08:59:01Z</time>
      </trkpt>
      <trkpt lat="45.68935" lon="2.8702">
        <ele>844.6</ele>
        <time>2021-07-20T08:59:03Z</time>
      </trkpt>
      <trkpt lat="45.68932" lon="2.87007">
        <ele>843.8</ele>
        <time>2021-07-20T08:59:05Z</time>
      </trkpt>
      <trkpt lat="45.6893" lon="2.86993">
        <ele>843.5</ele>
        <time>2021-07-20T08:59:07Z</time>
      </trkpt>
      <trkpt lat="45.68933" lon="2.86981">
        <ele>843.8</ele>
        <time>2021-07-20T08:59:09Z</time>
      </trkpt>
      <trkpt lat="45.68935" lon="2.86969">
        <ele>844.1</ele>
        <time>2021-07-20T08:59:11Z</time>
      </trkpt>
      <trkpt lat="45.68938" lon="2.86958">
        <ele>844.2</ele>
        <time>2021-07-20T08:59:13Z</time>
      </trkpt>
      <trkpt lat="45.68941" lon="2.86947">
        <ele>844.4</ele>
        <time>2021-07-20T08:59:15Z</time>
      </trkpt>
      <trkpt lat="45.68943" lon="2.86937">
        <ele>844.5</ele>
        <time>2021-07-20T08:59:17Z</time>
      </trkpt>
      <trkpt lat="45.68945" lon="2.86927">
        <ele>844.5</ele>
        <time>2021-07-20T08:59:19Z</time>
      </trkpt>
      <trkpt lat="45.68948" lon="2.86918">
        <ele>844.5</ele>
        <time>2021-07-20T08:59:21Z</time>
      </trkpt>
      <trkpt lat="45.68951" lon="2.86909">
        <ele>844.6</ele>
        <time>2021-07-20T08:59:23Z</time>
      </trkpt>
      <trkpt lat="45.68954" lon="2.869">
        <ele>844.7</ele>
        <time>2021-07-20T08:59:25Z</time>
      </trkpt>
      <trkpt lat="45.68958" lon="2.86892">
        <ele>844.7</ele>
        <time>2021-07-20T08:59:27Z</time>
      </trkpt>
      <trkpt lat="45.68963" lon="2.86884">
        <ele>844.7</ele>
        <time>2021-07-20T08:59:29Z</time>
      </trkpt>
      <trkpt lat="45.68968" lon="2.86876">
        <ele>844.6</ele>
        <time>2021-07-20T08:59:31Z</time>
      </trkpt>
      <trkpt lat="45.68973" lon="2.86869">
        <ele>844.4</ele>
        <time>2021-07-20T08:59:33Z</time>
      </trkpt>
      <trkpt lat="45.68982" lon="2.86863">
        <ele>844</ele>
        <time>2021-07-20T08:59:35Z</time>
      </trkpt>
      <trkpt lat="45.68991" lon="2.86861">
        <ele>843.3</ele>
        <time>2021-07-20T08:59:37Z</time>
      </trkpt>
      <trkpt lat="45.69001" lon="2.86864">
        <ele>842.6</ele>
        <time>2021-07-20T08:59:39Z</time>
      </trkpt>
      <trkpt lat="45.69011" lon="2.86866">
        <ele>842.4</ele>
        <time>2021-07-20T08:59:41Z</time>
      </trkpt>
      <trkpt lat="45.69018" lon="2.86867">
        <ele>842.3</ele>
        <time>2021-07-20T08:59:43Z</time>
      </trkpt>
      <trkpt lat="45.69026" lon="2.86865">
        <ele>842.2</ele>
        <time>2021-07-20T08:59:55Z</time>
      </trkpt>
      <trkpt lat="45.69032" lon="2.86863">
        <ele>842.1</ele>
        <time>2021-07-20T08:59:57Z</time>
      </trkpt>
      <trkpt lat="45.69041" lon="2.86862">
        <ele>842</ele>
        <time>2021-07-20T08:59:59Z</time>
      </trkpt>
      <trkpt lat="45.69049" lon="2.8686">
        <ele>841.9</ele>
        <time>2021-07-20T09:00:01Z</time>
      </trkpt>
      <trkpt lat="45.69059" lon="2.86858">
        <ele>841.8</ele>
        <time>2021-07-20T09:00:03Z</time>
      </trkpt>
      <trkpt lat="45.69069" lon="2.86857">
        <ele>841.6</ele>
        <time>2021-07-20T09:00:05Z</time>
      </trkpt>
      <trkpt lat="45.6908" lon="2.86855">
        <ele>841.5</ele>
        <time>2021-07-20T09:00:07Z</time>
      </trkpt>
      <trkpt lat="45.6909" lon="2.86853">
        <ele>841.3</ele>
        <time>2021-07-20T09:00:09Z</time>
      </trkpt>
      <trkpt lat="45.691" lon="2.86851">
        <ele>840.9</ele>
        <time>2021-07-20T09:00:11Z</time>
      </trkpt>
      <trkpt lat="45.69111" lon="2.8685">
        <ele>840.4</ele>
        <time>2021-07-20T09:00:13Z</time>
      </trkpt>
      <trkpt lat="45.69122" lon="2.86849">
        <ele>839.9</ele>
        <time>2021-07-20T09:00:15Z</time>
      </trkpt>
      <trkpt lat="45.69131" lon="2.86847">
        <ele>839.6</ele>
        <time>2021-07-20T09:00:17Z</time>
      </trkpt>
      <trkpt lat="45.6914" lon="2.86844">
        <ele>839.2</ele>
        <time>2021-07-20T09:00:19Z</time>
      </trkpt>
      <trkpt lat="45.69148" lon="2.86838">
        <ele>838.9</ele>
        <time>2021-07-20T09:00:21Z</time>
      </trkpt>
      <trkpt lat="45.69157" lon="2.86835">
        <ele>838.5</ele>
        <time>2021-07-20T09:00:23Z</time>
      </trkpt>
      <trkpt lat="45.69165" lon="2.8683">
        <ele>838.3</ele>
        <time>2021-07-20T09:00:25Z</time>
      </trkpt>
      <trkpt lat="45.69173" lon="2.86826">
        <ele>838.3</ele>
        <time>2021-07-20T09:00:27Z</time>
      </trkpt>
      <trkpt lat="45.69181" lon="2.86821">
        <ele>838.3</ele>
        <time>2021-07-20T09:00:29Z</time>
      </trkpt>
      <trkpt lat="45.69188" lon="2.86816">
        <ele>838.3</ele>
        <time>2021-07-20T09:00:31Z</time>
      </trkpt>
      <trkpt lat="45.69196" lon="2.86812">
        <ele>838.2</ele>
        <time>2021-07-20T09:00:33Z</time>
      </trkpt>
      <trkpt lat="45.69204" lon="2.86807">
        <ele>838.1</ele>
        <time>2021-07-20T09:00:35Z</time>
      </trkpt>
      <trkpt lat="45.6921" lon="2.86801">
        <ele>838.1</ele>
        <time>2021-07-20T09:00:37Z</time>
      </trkpt>
      <trkpt lat="45.69216" lon="2.86794">
        <ele>838.1</ele>
        <time>2021-07-20T09:00:39Z</time>
      </trkpt>
      <trkpt lat="45.69217" lon="2.86784">
        <ele>838.3</ele>
        <time>2021-07-20T09:00:41Z</time>
      </trkpt>
      <trkpt lat="45.69216" lon="2.86778">
        <ele>838.6</ele>
        <time>2021-07-20T09:00:43Z</time>
      </trkpt>
      <trkpt lat="45.69214" lon="2.86772">
        <ele>838.9</ele>
        <time>2021-07-20T09:00:45Z</time>
      </trkpt>
      <trkpt lat="45.6921" lon="2.86764">
        <ele>839.4</ele>
        <time>2021-07-20T09:00:49Z</time>
      </trkpt>
      <trkpt lat="45.69207" lon="2.86753">
        <ele>840</ele>
        <time>2021-07-20T09:00:53Z</time>
      </trkpt>
      <trkpt lat="45.69205" lon="2.86744">
        <ele>840.5</ele>
        <time>2021-07-20T09:00:57Z</time>
      </trkpt>
      <trkpt lat="45.69204" lon="2.86735">
        <ele>841.1</ele>
        <time>2021-07-20T09:01:01Z</time>
      </trkpt>
      <trkpt lat="45.69208" lon="2.86728">
        <ele>841.2</ele>
        <time>2021-07-20T09:01:05Z</time>
      </trkpt>
      <trkpt lat="45.69216" lon="2.86722">
        <ele>841</ele>
        <time>2021-07-20T09:01:13Z</time>
      </trkpt>
      <trkpt lat="45.69221" lon="2.86717">
        <ele>841.1</ele>
        <time>2021-07-20T09:01:15Z</time>
      </trkpt>
      <trkpt lat="45.69225" lon="2.86711">
        <ele>841.2</ele>
        <time>2021-07-20T09:01:17Z</time>
      </trkpt>
      <trkpt lat="45.69228" lon="2.86705">
        <ele>841.4</ele>
        <time>2021-07-20T09:01:19Z</time>
      </trkpt>
      <trkpt lat="45.6923" lon="2.86699">
        <ele>841.7</ele>
        <time>2021-07-20T09:01:21Z</time>
      </trkpt>
      <trkpt lat="45.6923" lon="2.86691">
        <ele>842.2</ele>
        <time>2021-07-20T09:01:23Z</time>
      </trkpt>
      <trkpt lat="45.69229" lon="2.86683">
        <ele>842.7</ele>
        <time>2021-07-20T09:01:25Z</time>
      </trkpt>
      <trkpt lat="45.69228" lon="2.86675">
        <ele>843.3</ele>
        <time>2021-07-20T09:01:27Z</time>
      </trkpt>
      <trkpt lat="45.6923" lon="2.86667">
        <ele>843.7</ele>
        <time>2021-07-20T09:01:29Z</time>
      </trkpt>
      <trkpt lat="45.69233" lon="2.86659">
        <ele>843.4</ele>
        <time>2021-07-20T09:01:31Z</time>
      </trkpt>
      <trkpt lat="45.69234" lon="2.8665">
        <ele>843.1</ele>
        <time>2021-07-20T09:01:33Z</time>
      </trkpt>
      <trkpt lat="45.69233" lon="2.86644">
        <ele>842.9</ele>
        <time>2021-07-20T09:01:35Z</time>
      </trkpt>
      <trkpt lat="45.69226" lon="2.86645">
        <ele>843.1</ele>
        <time>2021-07-20T09:01:39Z</time>
      </trkpt>
      <trkpt lat="45.6922" lon="2.86654">
        <ele>843.6</ele>
        <time>2021-07-20T09:01:43Z</time>
      </trkpt>
      <trkpt lat="45.69217" lon="2.86659">
        <ele>843.9</ele>
        <time>2021-07-20T09:01:45Z</time>
      </trkpt>
      <trkpt lat="45.6921" lon="2.86667">
        <ele>844.4</ele>
        <time>2021-07-20T09:01:49Z</time>
      </trkpt>
      <trkpt lat="45.69202" lon="2.86676">
        <ele>844.2</ele>
        <time>2021-07-20T09:01:53Z</time>
      </trkpt>
      <trkpt lat="45.69198" lon="2.86679">
        <ele>844.3</ele>
        <time>2021-07-20T09:01:55Z</time>
      </trkpt>
      <trkpt lat="45.69193" lon="2.86682">
        <ele>844.3</ele>
        <time>2021-07-20T09:01:57Z</time>
      </trkpt>
      <trkpt lat="45.69188" lon="2.86686">
        <ele>844.4</ele>
        <time>2021-07-20T09:01:59Z</time>
      </trkpt>
      <trkpt lat="45.69184" lon="2.86688">
        <ele>844.5</ele>
        <time>2021-07-20T09:02:01Z</time>
      </trkpt>
      <trkpt lat="45.69175" lon="2.86692">
        <ele>844.7</ele>
        <time>2021-07-20T09:02:05Z</time>
      </trkpt>
      <trkpt lat="45.69166" lon="2.86695">
        <ele>845</ele>
        <time>2021-07-20T09:02:09Z</time>
      </trkpt>
      <trkpt lat="45.69162" lon="2.86696">
        <ele>845.2</ele>
        <time>2021-07-20T09:02:11Z</time>
      </trkpt>
      <trkpt lat="45.69157" lon="2.86696">
        <ele>845.4</ele>
        <time>2021-07-20T09:02:13Z</time>
      </trkpt>
      <trkpt lat="45.69147" lon="2.86697">
        <ele>845.8</ele>
        <time>2021-07-20T09:02:17Z</time>
      </trkpt>
      <trkpt lat="45.69142" lon="2.86697">
        <ele>846</ele>
        <time>2021-07-20T09:02:19Z</time>
      </trkpt>
      <trkpt lat="45.69137" lon="2.86698">
        <ele>846.2</ele>
        <time>2021-07-20T09:02:21Z</time>
      </trkpt>
      <trkpt lat="45.69131" lon="2.86698">
        <ele>846.5</ele>
        <time>2021-07-20T09:02:23Z</time>
      </trkpt>
      <trkpt lat="45.69124" lon="2.86699">
        <ele>846.8</ele>
        <time>2021-07-20T09:02:27Z</time>
      </trkpt>
      <trkpt lat="45.69118" lon="2.867">
        <ele>847</ele>
        <time>2021-07-20T09:02:31Z</time>
      </trkpt>
      <trkpt lat="45.69113" lon="2.86698">
        <ele>847.3</ele>
        <time>2021-07-20T09:02:35Z</time>
      </trkpt>
      <trkpt lat="45.69117" lon="2.86702">
        <ele>847</ele>
        <time>2021-07-20T09:09:39Z</time>
      </trkpt>
      <trkpt lat="45.69125" lon="2.86702">
        <ele>846.6</ele>
        <time>2021-07-20T09:09:43Z</time>
      </trkpt>
      <trkpt lat="45.69131" lon="2.86703">
        <ele>846.4</ele>
        <time>2021-07-20T09:09:45Z</time>
      </trkpt>
      <trkpt lat="45.69137" lon="2.86702">
        <ele>846.1</ele>
        <time>2021-07-20T09:09:47Z</time>
      </trkpt>
      <trkpt lat="45.69144" lon="2.86701">
        <ele>845.8</ele>
        <time>2021-07-20T09:09:49Z</time>
      </trkpt>
      <trkpt lat="45.69152" lon="2.86701">
        <ele>845.5</ele>
        <time>2021-07-20T09:09:51Z</time>
      </trkpt>
      <trkpt lat="45.6916" lon="2.86699">
        <ele>845.2</ele>
        <time>2021-07-20T09:09:53Z</time>
      </trkpt>
      <trkpt lat="45.6917" lon="2.86696">
        <ele>844.8</ele>
        <time>2021-07-20T09:09:55Z</time>
      </trkpt>
      <trkpt lat="45.6918" lon="2.86693">
        <ele>844.4</ele>
        <time>2021-07-20T09:09:57Z</time>
      </trkpt>
      <trkpt lat="45.69189" lon="2.86689">
        <ele>844.2</ele>
        <time>2021-07-20T09:09:59Z</time>
      </trkpt>
      <trkpt lat="45.69197" lon="2.86685">
        <ele>844</ele>
        <time>2021-07-20T09:10:01Z</time>
      </trkpt>
      <trkpt lat="45.69206" lon="2.86679">
        <ele>844</ele>
        <time>2021-07-20T09:10:03Z</time>
      </trkpt>
      <trkpt lat="45.69213" lon="2.86671">
        <ele>844.1</ele>
        <time>2021-07-20T09:10:05Z</time>
      </trkpt>
      <trkpt lat="45.6922" lon="2.86663">
        <ele>843.9</ele>
        <time>2021-07-20T09:10:07Z</time>
      </trkpt>
      <trkpt lat="45.69225" lon="2.86655">
        <ele>843.5</ele>
        <time>2021-07-20T09:10:09Z</time>
      </trkpt>
      <trkpt lat="45.69229" lon="2.8665">
        <ele>843.2</ele>
        <time>2021-07-20T09:10:11Z</time>
      </trkpt>
      <trkpt lat="45.69233" lon="2.86644">
        <ele>842.9</ele>
        <time>2021-07-20T09:10:15Z</time>
      </trkpt>
      <trkpt lat="45.69239" lon="2.86646">
        <ele>842.8</ele>
        <time>2021-07-20T09:10:19Z</time>
      </trkpt>
      <trkpt lat="45.69238" lon="2.86656">
        <ele>843.1</ele>
        <time>2021-07-20T09:10:23Z</time>
      </trkpt>
      <trkpt lat="45.69235" lon="2.8666">
        <ele>843.3</ele>
        <time>2021-07-20T09:10:25Z</time>
      </trkpt>
      <trkpt lat="45.69231" lon="2.86667">
        <ele>843.6</ele>
        <time>2021-07-20T09:10:27Z</time>
      </trkpt>
      <trkpt lat="45.69228" lon="2.86675">
        <ele>843.2</ele>
        <time>2021-07-20T09:10:29Z</time>
      </trkpt>
      <trkpt lat="45.69228" lon="2.86683">
        <ele>842.8</ele>
        <time>2021-07-20T09:10:31Z</time>
      </trkpt>
      <trkpt lat="45.69229" lon="2.8669">
        <ele>842.3</ele>
        <time>2021-07-20T09:10:33Z</time>
      </trkpt>
      <trkpt lat="45.69231" lon="2.86695">
        <ele>841.8</ele>
        <time>2021-07-20T09:10:39Z</time>
      </trkpt>
      <trkpt lat="45.6923" lon="2.86704">
        <ele>841.4</ele>
        <time>2021-07-20T09:10:47Z</time>
      </trkpt>
      <trkpt lat="45.69226" lon="2.86713">
        <ele>841</ele>
        <time>2021-07-20T09:10:51Z</time>
      </trkpt>
      <trkpt lat="45.69221" lon="2.86723">
        <ele>840.7</ele>
        <time>2021-07-20T09:10:55Z</time>
      </trkpt>
      <trkpt lat="45.69216" lon="2.8673">
        <ele>840.6</ele>
        <time>2021-07-20T09:10:59Z</time>
      </trkpt>
      <trkpt lat="45.69211" lon="2.86732">
        <ele>840.8</ele>
        <time>2021-07-20T09:11:01Z</time>
      </trkpt>
      <trkpt lat="45.69205" lon="2.86739">
        <ele>840.8</ele>
        <time>2021-07-20T09:11:05Z</time>
      </trkpt>
      <trkpt lat="45.69206" lon="2.86749">
        <ele>840.2</ele>
        <time>2021-07-20T09:11:09Z</time>
      </trkpt>
      <trkpt lat="45.69208" lon="2.86755">
        <ele>839.9</ele>
        <time>2021-07-20T09:11:11Z</time>
      </trkpt>
      <trkpt lat="45.69212" lon="2.86765">
        <ele>839.3</ele>
        <time>2021-07-20T09:11:15Z</time>
      </trkpt>
      <trkpt lat="45.69215" lon="2.86775">
        <ele>838.7</ele>
        <time>2021-07-20T09:11:19Z</time>
      </trkpt>
      <trkpt lat="45.69218" lon="2.86786">
        <ele>838.2</ele>
        <time>2021-07-20T09:11:23Z</time>
      </trkpt>
      <trkpt lat="45.69218" lon="2.86792">
        <ele>838</ele>
        <time>2021-07-20T09:11:25Z</time>
      </trkpt>
      <trkpt lat="45.69217" lon="2.86782">
        <ele>838.4</ele>
        <time>2021-07-20T09:11:49Z</time>
      </trkpt>
      <trkpt lat="45.69213" lon="2.86771">
        <ele>839</ele>
        <time>2021-07-20T09:11:53Z</time>
      </trkpt>
      <trkpt lat="45.69209" lon="2.86761">
        <ele>839.5</ele>
        <time>2021-07-20T09:11:57Z</time>
      </trkpt>
      <trkpt lat="45.69206" lon="2.8675">
        <ele>840.2</ele>
        <time>2021-07-20T09:12:01Z</time>
      </trkpt>
      <trkpt lat="45.69205" lon="2.86742">
        <ele>840.6</ele>
        <time>2021-07-20T09:12:03Z</time>
      </trkpt>
      <trkpt lat="45.69205" lon="2.86736">
        <ele>841</ele>
        <time>2021-07-20T09:12:05Z</time>
      </trkpt>
      <trkpt lat="45.69211" lon="2.86729">
        <ele>841</ele>
        <time>2021-07-20T09:12:09Z</time>
      </trkpt>
      <trkpt lat="45.69215" lon="2.86724">
        <ele>841</ele>
        <time>2021-07-20T09:12:11Z</time>
      </trkpt>
      <trkpt lat="45.69221" lon="2.86717">
        <ele>841.1</ele>
        <time>2021-07-20T09:12:15Z</time>
      </trkpt>
      <trkpt lat="45.69226" lon="2.86711">
        <ele>841.2</ele>
        <time>2021-07-20T09:12:19Z</time>
      </trkpt>
      <trkpt lat="45.69229" lon="2.86704">
        <ele>841.4</ele>
        <time>2021-07-20T09:12:23Z</time>
      </trkpt>
      <trkpt lat="45.69229" lon="2.86697">
        <ele>841.8</ele>
        <time>2021-07-20T09:12:27Z</time>
      </trkpt>
      <trkpt lat="45.69237" lon="2.86701">
        <ele>841.1</ele>
        <time>2021-07-20T09:12:37Z</time>
      </trkpt>
      <trkpt lat="45.6924" lon="2.86707">
        <ele>840.6</ele>
        <time>2021-07-20T09:12:39Z</time>
      </trkpt>
      <trkpt lat="45.69242" lon="2.86715">
        <ele>839.9</ele>
        <time>2021-07-20T09:12:41Z</time>
      </trkpt>
      <trkpt lat="45.69244" lon="2.86725">
        <ele>839.2</ele>
        <time>2021-07-20T09:12:43Z</time>
      </trkpt>
      <trkpt lat="45.69246" lon="2.86736">
        <ele>838.3</ele>
        <time>2021-07-20T09:12:45Z</time>
      </trkpt>
      <trkpt lat="45.69247" lon="2.86748">
        <ele>837.4</ele>
        <time>2021-07-20T09:12:47Z</time>
      </trkpt>
      <trkpt lat="45.69247" lon="2.86761">
        <ele>837.1</ele>
        <time>2021-07-20T09:12:49Z</time>
      </trkpt>
      <trkpt lat="45.6925" lon="2.86772">
        <ele>836.7</ele>
        <time>2021-07-20T09:12:51Z</time>
      </trkpt>
      <trkpt lat="45.69255" lon="2.86781">
        <ele>836.5</ele>
        <time>2021-07-20T09:12:53Z</time>
      </trkpt>
      <trkpt lat="45.69264" lon="2.86787">
        <ele>836.2</ele>
        <time>2021-07-20T09:12:55Z</time>
      </trkpt>
      <trkpt lat="45.69271" lon="2.86796">
        <ele>836</ele>
        <time>2021-07-20T09:12:57Z</time>
      </trkpt>
      <trkpt lat="45.6928" lon="2.86801">
        <ele>835.9</ele>
        <time>2021-07-20T09:12:59Z</time>
      </trkpt>
      <trkpt lat="45.69286" lon="2.86802">
        <ele>835.8</ele>
        <time>2021-07-20T09:13:01Z</time>
      </trkpt>
      <trkpt lat="45.69294" lon="2.86804">
        <ele>835.8</ele>
        <time>2021-07-20T09:13:03Z</time>
      </trkpt>
      <trkpt lat="45.69299" lon="2.86802">
        <ele>835.6</ele>
        <time>2021-07-20T09:13:05Z</time>
      </trkpt>
      <trkpt lat="45.69309" lon="2.86803">
        <ele>835.5</ele>
        <time>2021-07-20T09:13:09Z</time>
      </trkpt>
      <trkpt lat="45.69315" lon="2.86805">
        <ele>835.5</ele>
        <time>2021-07-20T09:13:11Z</time>
      </trkpt>
      <trkpt lat="45.69323" lon="2.86807">
        <ele>835.6</ele>
        <time>2021-07-20T09:13:13Z</time>
      </trkpt>
      <trkpt lat="45.69329" lon="2.86808">
        <ele>835.5</ele>
        <time>2021-07-20T09:13:15Z</time>
      </trkpt>
      <trkpt lat="45.69335" lon="2.86809">
        <ele>835.6</ele>
        <time>2021-07-20T09:13:19Z</time>
      </trkpt>
      <trkpt lat="45.69343" lon="2.86811">
        <ele>836</ele>
        <time>2021-07-20T09:13:23Z</time>
      </trkpt>
      <trkpt lat="45.69349" lon="2.86811">
        <ele>836.2</ele>
        <time>2021-07-20T09:13:25Z</time>
      </trkpt>
      <trkpt lat="45.69353" lon="2.8681">
        <ele>836.3</ele>
        <time>2021-07-20T09:13:27Z</time>
      </trkpt>
      <trkpt lat="45.69358" lon="2.8681">
        <ele>836.4</ele>
        <time>2021-07-20T09:13:29Z</time>
      </trkpt>
      <trkpt lat="45.69364" lon="2.86812">
        <ele>836.7</ele>
        <time>2021-07-20T09:13:31Z</time>
      </trkpt>
      <trkpt lat="45.69371" lon="2.86811">
        <ele>836.9</ele>
        <time>2021-07-20T09:13:33Z</time>
      </trkpt>
      <trkpt lat="45.69377" lon="2.86811">
        <ele>837.1</ele>
        <time>2021-07-20T09:13:35Z</time>
      </trkpt>
      <trkpt lat="45.69384" lon="2.86809">
        <ele>837.2</ele>
        <time>2021-07-20T09:13:37Z</time>
      </trkpt>
      <trkpt lat="45.69389" lon="2.86808">
        <ele>837.3</ele>
        <time>2021-07-20T09:13:39Z</time>
      </trkpt>
      <trkpt lat="45.69394" lon="2.86808">
        <ele>837.4</ele>
        <time>2021-07-20T09:13:41Z</time>
      </trkpt>
      <trkpt lat="45.69399" lon="2.86806">
        <ele>837.4</ele>
        <time>2021-07-20T09:13:43Z</time>
      </trkpt>
      <trkpt lat="45.69408" lon="2.86804">
        <ele>837.6</ele>
        <time>2021-07-20T09:13:47Z</time>
      </trkpt>
      <trkpt lat="45.69413" lon="2.86804">
        <ele>837.8</ele>
        <time>2021-07-20T09:13:49Z</time>
      </trkpt>
      <trkpt lat="45.69419" lon="2.86803">
        <ele>838</ele>
        <time>2021-07-20T09:13:51Z</time>
      </trkpt>
      <trkpt lat="45.69424" lon="2.86805">
        <ele>838.6</ele>
        <time>2021-07-20T09:13:53Z</time>
      </trkpt>
      <trkpt lat="45.69428" lon="2.86808">
        <ele>839.1</ele>
        <time>2021-07-20T09:13:55Z</time>
      </trkpt>
      <trkpt lat="45.69432" lon="2.86811">
        <ele>839.7</ele>
        <time>2021-07-20T09:13:57Z</time>
      </trkpt>
      <trkpt lat="45.69436" lon="2.86816">
        <ele>840.4</ele>
        <time>2021-07-20T09:13:59Z</time>
      </trkpt>
      <trkpt lat="45.69439" lon="2.86821">
        <ele>841.1</ele>
        <time>2021-07-20T09:14:01Z</time>
      </trkpt>
      <trkpt lat="45.69444" lon="2.86832">
        <ele>842.2</ele>
        <time>2021-07-20T09:14:05Z</time>
      </trkpt>
      <trkpt lat="45.69449" lon="2.86841">
        <ele>843.3</ele>
        <time>2021-07-20T09:14:09Z</time>
      </trkpt>
      <trkpt lat="45.69453" lon="2.86851">
        <ele>844.4</ele>
        <time>2021-07-20T09:14:13Z</time>
      </trkpt>
      <trkpt lat="45.69458" lon="2.86859">
        <ele>845.5</ele>
        <time>2021-07-20T09:14:17Z</time>
      </trkpt>
      <trkpt lat="45.69464" lon="2.86866">
        <ele>846.5</ele>
        <time>2021-07-20T09:14:21Z</time>
      </trkpt>
      <trkpt lat="45.69472" lon="2.86869">
        <ele>847.3</ele>
        <time>2021-07-20T09:14:25Z</time>
      </trkpt>
      <trkpt lat="45.69479" lon="2.86862">
        <ele>847.4</ele>
        <time>2021-07-20T09:14:29Z</time>
      </trkpt>
      <trkpt lat="45.69487" lon="2.86854">
        <ele>847.4</ele>
        <time>2021-07-20T09:14:33Z</time>
      </trkpt>
      <trkpt lat="45.6949" lon="2.8685">
        <ele>847.4</ele>
        <time>2021-07-20T09:14:35Z</time>
      </trkpt>
      <trkpt lat="45.69493" lon="2.86844">
        <ele>847.2</ele>
        <time>2021-07-20T09:14:37Z</time>
      </trkpt>
      <trkpt lat="45.69496" lon="2.86838">
        <ele>847</ele>
        <time>2021-07-20T09:14:39Z</time>
      </trkpt>
      <trkpt lat="45.69499" lon="2.86833">
        <ele>846.9</ele>
        <time>2021-07-20T09:14:41Z</time>
      </trkpt>
      <trkpt lat="45.69502" lon="2.86827">
        <ele>846.8</ele>
        <time>2021-07-20T09:14:43Z</time>
      </trkpt>
      <trkpt lat="45.69506" lon="2.86821">
        <ele>846.8</ele>
        <time>2021-07-20T09:14:45Z</time>
      </trkpt>
      <trkpt lat="45.6951" lon="2.86816">
        <ele>846.8</ele>
        <time>2021-07-20T09:14:47Z</time>
      </trkpt>
      <trkpt lat="45.69514" lon="2.86811">
        <ele>846.7</ele>
        <time>2021-07-20T09:14:49Z</time>
      </trkpt>
      <trkpt lat="45.69519" lon="2.86806">
        <ele>846.8</ele>
        <time>2021-07-20T09:14:51Z</time>
      </trkpt>
      <trkpt lat="45.69523" lon="2.86803">
        <ele>847</ele>
        <time>2021-07-20T09:14:53Z</time>
      </trkpt>
      <trkpt lat="45.69528" lon="2.86801">
        <ele>847.2</ele>
        <time>2021-07-20T09:14:55Z</time>
      </trkpt>
      <trkpt lat="45.69537" lon="2.86799">
        <ele>847.7</ele>
        <time>2021-07-20T09:14:59Z</time>
      </trkpt>
      <trkpt lat="45.69542" lon="2.86799">
        <ele>848.1</ele>
        <time>2021-07-20T09:15:01Z</time>
      </trkpt>
      <trkpt lat="45.69551" lon="2.86801">
        <ele>848.9</ele>
        <time>2021-07-20T09:15:05Z</time>
      </trkpt>
      <trkpt lat="45.69557" lon="2.86804">
        <ele>849.5</ele>
        <time>2021-07-20T09:15:09Z</time>
      </trkpt>
      <trkpt lat="45.69565" lon="2.86806">
        <ele>850.3</ele>
        <time>2021-07-20T09:15:13Z</time>
      </trkpt>
      <trkpt lat="45.69573" lon="2.86808">
        <ele>851.1</ele>
        <time>2021-07-20T09:15:17Z</time>
      </trkpt>
      <trkpt lat="45.6958" lon="2.8681">
        <ele>851.8</ele>
        <time>2021-07-20T09:15:21Z</time>
      </trkpt>
      <trkpt lat="45.69586" lon="2.8681">
        <ele>852</ele>
        <time>2021-07-20T09:15:25Z</time>
      </trkpt>
      <trkpt lat="45.69593" lon="2.86808">
        <ele>851.8</ele>
        <time>2021-07-20T09:15:29Z</time>
      </trkpt>
      <trkpt lat="45.69597" lon="2.86805">
        <ele>851.5</ele>
        <time>2021-07-20T09:15:39Z</time>
      </trkpt>
      <trkpt lat="45.69602" lon="2.86804">
        <ele>851.4</ele>
        <time>2021-07-20T09:15:43Z</time>
      </trkpt>
      <trkpt lat="45.69607" lon="2.86806">
        <ele>851.5</ele>
        <time>2021-07-20T09:17:03Z</time>
      </trkpt>
      <trkpt lat="45.69616" lon="2.86801">
        <ele>851</ele>
        <time>2021-07-20T09:19:09Z</time>
      </trkpt>
      <trkpt lat="45.69621" lon="2.86799">
        <ele>850.7</ele>
        <time>2021-07-20T09:19:11Z</time>
      </trkpt>
      <trkpt lat="45.69627" lon="2.86797">
        <ele>850.5</ele>
        <time>2021-07-20T09:19:13Z</time>
      </trkpt>
      <trkpt lat="45.69632" lon="2.86796">
        <ele>850.3</ele>
        <time>2021-07-20T09:19:15Z</time>
      </trkpt>
      <trkpt lat="45.69638" lon="2.86793">
        <ele>849.9</ele>
        <time>2021-07-20T09:19:17Z</time>
      </trkpt>
      <trkpt lat="45.69645" lon="2.86791">
        <ele>849.7</ele>
        <time>2021-07-20T09:19:19Z</time>
      </trkpt>
      <trkpt lat="45.69652" lon="2.86788">
        <ele>849.3</ele>
        <time>2021-07-20T09:19:21Z</time>
      </trkpt>
      <trkpt lat="45.69661" lon="2.86786">
        <ele>849</ele>
        <time>2021-07-20T09:19:23Z</time>
      </trkpt>
      <trkpt lat="45.6967" lon="2.86784">
        <ele>848.6</ele>
        <time>2021-07-20T09:19:25Z</time>
      </trkpt>
      <trkpt lat="45.6968" lon="2.86781">
        <ele>848.1</ele>
        <time>2021-07-20T09:19:27Z</time>
      </trkpt>
      <trkpt lat="45.69691" lon="2.86779">
        <ele>847.6</ele>
        <time>2021-07-20T09:19:29Z</time>
      </trkpt>
      <trkpt lat="45.69702" lon="2.86776">
        <ele>847.1</ele>
        <time>2021-07-20T09:19:31Z</time>
      </trkpt>
      <trkpt lat="45.69713" lon="2.86772">
        <ele>846.4</ele>
        <time>2021-07-20T09:19:33Z</time>
      </trkpt>
      <trkpt lat="45.69723" lon="2.8677">
        <ele>845.9</ele>
        <time>2021-07-20T09:19:35Z</time>
      </trkpt>
      <trkpt lat="45.69732" lon="2.86767">
        <ele>845.4</ele>
        <time>2021-07-20T09:19:37Z</time>
      </trkpt>
      <trkpt lat="45.6974" lon="2.86765">
        <ele>845.1</ele>
        <time>2021-07-20T09:19:39Z</time>
      </trkpt>
      <trkpt lat="45.69748" lon="2.86763">
        <ele>844.6</ele>
        <time>2021-07-20T09:19:41Z</time>
      </trkpt>
      <trkpt lat="45.69757" lon="2.86761">
        <ele>843.9</ele>
        <time>2021-07-20T09:19:43Z</time>
      </trkpt>
      <trkpt lat="45.69765" lon="2.86758">
        <ele>843.2</ele>
        <time>2021-07-20T09:19:45Z</time>
      </trkpt>
      <trkpt lat="45.69775" lon="2.86756">
        <ele>842.4</ele>
        <time>2021-07-20T09:19:47Z</time>
      </trkpt>
      <trkpt lat="45.69786" lon="2.86753">
        <ele>841.7</ele>
        <time>2021-07-20T09:19:49Z</time>
      </trkpt>
      <trkpt lat="45.69797" lon="2.8675">
        <ele>840.7</ele>
        <time>2021-07-20T09:19:51Z</time>
      </trkpt>
      <trkpt lat="45.69809" lon="2.86747">
        <ele>839.9</ele>
        <time>2021-07-20T09:19:53Z</time>
      </trkpt>
      <trkpt lat="45.69823" lon="2.86745">
        <ele>839</ele>
        <time>2021-07-20T09:19:55Z</time>
      </trkpt>
      <trkpt lat="45.69837" lon="2.86741">
        <ele>838</ele>
        <time>2021-07-20T09:19:57Z</time>
      </trkpt>
      <trkpt lat="45.69852" lon="2.86738">
        <ele>836.7</ele>
        <time>2021-07-20T09:19:59Z</time>
      </trkpt>
      <trkpt lat="45.69866" lon="2.86735">
        <ele>835.5</ele>
        <time>2021-07-20T09:20:01Z</time>
      </trkpt>
      <trkpt lat="45.6988" lon="2.86731">
        <ele>834.3</ele>
        <time>2021-07-20T09:20:03Z</time>
      </trkpt>
      <trkpt lat="45.69894" lon="2.86726">
        <ele>833</ele>
        <time>2021-07-20T09:20:05Z</time>
      </trkpt>
      <trkpt lat="45.69908" lon="2.86723">
        <ele>831.9</ele>
        <time>2021-07-20T09:20:07Z</time>
      </trkpt>
      <trkpt lat="45.69924" lon="2.8672">
        <ele>831.1</ele>
        <time>2021-07-20T09:20:09Z</time>
      </trkpt>
      <trkpt lat="45.69941" lon="2.86715">
        <ele>830.5</ele>
        <time>2021-07-20T09:20:11Z</time>
      </trkpt>
      <trkpt lat="45.69958" lon="2.86712">
        <ele>830</ele>
        <time>2021-07-20T09:20:13Z</time>
      </trkpt>
      <trkpt lat="45.69975" lon="2.86709">
        <ele>829.5</ele>
        <time>2021-07-20T09:20:15Z</time>
      </trkpt>
      <trkpt lat="45.6999" lon="2.86705">
        <ele>829</ele>
        <time>2021-07-20T09:20:17Z</time>
      </trkpt>
      <trkpt lat="45.70005" lon="2.867">
        <ele>828.4</ele>
        <time>2021-07-20T09:20:19Z</time>
      </trkpt>
      <trkpt lat="45.70022" lon="2.86696">
        <ele>827.9</ele>
        <time>2021-07-20T09:20:21Z</time>
      </trkpt>
      <trkpt lat="45.70037" lon="2.86693">
        <ele>827.5</ele>
        <time>2021-07-20T09:20:23Z</time>
      </trkpt>
      <trkpt lat="45.70052" lon="2.8669">
        <ele>827</ele>
        <time>2021-07-20T09:20:25Z</time>
      </trkpt>
      <trkpt lat="45.70065" lon="2.86687">
        <ele>826.6</ele>
        <time>2021-07-20T09:20:27Z</time>
      </trkpt>
      <trkpt lat="45.70077" lon="2.86684">
        <ele>826.3</ele>
        <time>2021-07-20T09:20:29Z</time>
      </trkpt>
      <trkpt lat="45.70089" lon="2.86681">
        <ele>826.1</ele>
        <time>2021-07-20T09:20:31Z</time>
      </trkpt>
      <trkpt lat="45.701" lon="2.86679">
        <ele>825.9</ele>
        <time>2021-07-20T09:20:33Z</time>
      </trkpt>
      <trkpt lat="45.70111" lon="2.86676">
        <ele>825.7</ele>
        <time>2021-07-20T09:20:35Z</time>
      </trkpt>
      <trkpt lat="45.70121" lon="2.86675">
        <ele>825.6</ele>
        <time>2021-07-20T09:20:37Z</time>
      </trkpt>
      <trkpt lat="45.70131" lon="2.86672">
        <ele>825.4</ele>
        <time>2021-07-20T09:20:39Z</time>
      </trkpt>
      <trkpt lat="45.70141" lon="2.8667">
        <ele>825.2</ele>
        <time>2021-07-20T09:20:41Z</time>
      </trkpt>
      <trkpt lat="45.70151" lon="2.86667">
        <ele>825</ele>
        <time>2021-07-20T09:20:43Z</time>
      </trkpt>
      <trkpt lat="45.70161" lon="2.86665">
        <ele>824.8</ele>
        <time>2021-07-20T09:20:45Z</time>
      </trkpt>
      <trkpt lat="45.70171" lon="2.86664">
        <ele>824.6</ele>
        <time>2021-07-20T09:20:47Z</time>
      </trkpt>
      <trkpt lat="45.7018" lon="2.8666">
        <ele>824.1</ele>
        <time>2021-07-20T09:20:49Z</time>
      </trkpt>
      <trkpt lat="45.70189" lon="2.86659">
        <ele>823.8</ele>
        <time>2021-07-20T09:20:51Z</time>
      </trkpt>
      <trkpt lat="45.70199" lon="2.86656">
        <ele>823.3</ele>
        <time>2021-07-20T09:20:53Z</time>
      </trkpt>
      <trkpt lat="45.70208" lon="2.86652">
        <ele>822.9</ele>
        <time>2021-07-20T09:20:55Z</time>
      </trkpt>
      <trkpt lat="45.70217" lon="2.8665">
        <ele>822.5</ele>
        <time>2021-07-20T09:20:57Z</time>
      </trkpt>
      <trkpt lat="45.70227" lon="2.86645">
        <ele>822.1</ele>
        <time>2021-07-20T09:20:59Z</time>
      </trkpt>
      <trkpt lat="45.70239" lon="2.86641">
        <ele>821.6</ele>
        <time>2021-07-20T09:21:01Z</time>
      </trkpt>
      <trkpt lat="45.70252" lon="2.86636">
        <ele>821.2</ele>
        <time>2021-07-20T09:21:03Z</time>
      </trkpt>
      <trkpt lat="45.70264" lon="2.86631">
        <ele>821.3</ele>
        <time>2021-07-20T09:21:05Z</time>
      </trkpt>
      <trkpt lat="45.70275" lon="2.86626">
        <ele>821.4</ele>
        <time>2021-07-20T09:21:07Z</time>
      </trkpt>
      <trkpt lat="45.70285" lon="2.86621">
        <ele>821.5</ele>
        <time>2021-07-20T09:21:09Z</time>
      </trkpt>
      <trkpt lat="45.70293" lon="2.86617">
        <ele>821.7</ele>
        <time>2021-07-20T09:21:11Z</time>
      </trkpt>
      <trkpt lat="45.70301" lon="2.86614">
        <ele>821.9</ele>
        <time>2021-07-20T09:21:13Z</time>
      </trkpt>
      <trkpt lat="45.70309" lon="2.86612">
        <ele>822</ele>
        <time>2021-07-20T09:21:15Z</time>
      </trkpt>
      <trkpt lat="45.70315" lon="2.86609">
        <ele>822.2</ele>
        <time>2021-07-20T09:21:17Z</time>
      </trkpt>
      <trkpt lat="45.70322" lon="2.86606">
        <ele>822.3</ele>
        <time>2021-07-20T09:21:19Z</time>
      </trkpt>
      <trkpt lat="45.70329" lon="2.86604">
        <ele>822.5</ele>
        <time>2021-07-20T09:21:21Z</time>
      </trkpt>
      <trkpt lat="45.70336" lon="2.86602">
        <ele>822.7</ele>
        <time>2021-07-20T09:21:23Z</time>
      </trkpt>
      <trkpt lat="45.70342" lon="2.86599">
        <ele>822.9</ele>
        <time>2021-07-20T09:21:25Z</time>
      </trkpt>
      <trkpt lat="45.70349" lon="2.86597">
        <ele>823.1</ele>
        <time>2021-07-20T09:21:27Z</time>
      </trkpt>
      <trkpt lat="45.70357" lon="2.86594">
        <ele>823.2</ele>
        <time>2021-07-20T09:21:29Z</time>
      </trkpt>
      <trkpt lat="45.70364" lon="2.86591">
        <ele>823.3</ele>
        <time>2021-07-20T09:21:31Z</time>
      </trkpt>
      <trkpt lat="45.70371" lon="2.86589">
        <ele>823.6</ele>
        <time>2021-07-20T09:21:33Z</time>
      </trkpt>
      <trkpt lat="45.70378" lon="2.86587">
        <ele>823.7</ele>
        <time>2021-07-20T09:21:35Z</time>
      </trkpt>
      <trkpt lat="45.70385" lon="2.86584">
        <ele>823.9</ele>
        <time>2021-07-20T09:21:37Z</time>
      </trkpt>
      <trkpt lat="45.70392" lon="2.86582">
        <ele>824.1</ele>
        <time>2021-07-20T09:21:39Z</time>
      </trkpt>
      <trkpt lat="45.704" lon="2.86578">
        <ele>824.2</ele>
        <time>2021-07-20T09:21:41Z</time>
      </trkpt>
      <trkpt lat="45.70407" lon="2.86575">
        <ele>824.3</ele>
        <time>2021-07-20T09:21:43Z</time>
      </trkpt>
      <trkpt lat="45.70415" lon="2.86572">
        <ele>824.5</ele>
        <time>2021-07-20T09:21:45Z</time>
      </trkpt>
      <trkpt lat="45.70423" lon="2.86569">
        <ele>824.7</ele>
        <time>2021-07-20T09:21:47Z</time>
      </trkpt>
      <trkpt lat="45.70431" lon="2.86566">
        <ele>824.8</ele>
        <time>2021-07-20T09:21:49Z</time>
      </trkpt>
      <trkpt lat="45.70439" lon="2.86563">
        <ele>824.9</ele>
        <time>2021-07-20T09:21:51Z</time>
      </trkpt>
      <trkpt lat="45.70447" lon="2.8656">
        <ele>825.1</ele>
        <time>2021-07-20T09:21:53Z</time>
      </trkpt>
      <trkpt lat="45.70455" lon="2.86557">
        <ele>825.2</ele>
        <time>2021-07-20T09:21:55Z</time>
      </trkpt>
      <trkpt lat="45.70463" lon="2.86554">
        <ele>825.2</ele>
        <time>2021-07-20T09:21:57Z</time>
      </trkpt>
      <trkpt lat="45.70472" lon="2.86551">
        <ele>825.3</ele>
        <time>2021-07-20T09:21:59Z</time>
      </trkpt>
      <trkpt lat="45.7048" lon="2.86547">
        <ele>825.3</ele>
        <time>2021-07-20T09:22:01Z</time>
      </trkpt>
      <trkpt lat="45.70488" lon="2.86544">
        <ele>825.3</ele>
        <time>2021-07-20T09:22:03Z</time>
      </trkpt>
      <trkpt lat="45.70496" lon="2.86541">
        <ele>825.3</ele>
        <time>2021-07-20T09:22:05Z</time>
      </trkpt>
      <trkpt lat="45.70505" lon="2.86537">
        <ele>825.3</ele>
        <time>2021-07-20T09:22:07Z</time>
      </trkpt>
      <trkpt lat="45.70512" lon="2.86534">
        <ele>825.3</ele>
        <time>2021-07-20T09:22:09Z</time>
      </trkpt>
      <trkpt lat="45.7052" lon="2.8653">
        <ele>825.3</ele>
        <time>2021-07-20T09:22:11Z</time>
      </trkpt>
      <trkpt lat="45.70529" lon="2.86527">
        <ele>825.3</ele>
        <time>2021-07-20T09:22:13Z</time>
      </trkpt>
      <trkpt lat="45.70536" lon="2.86525">
        <ele>825.3</ele>
        <time>2021-07-20T09:22:15Z</time>
      </trkpt>
      <trkpt lat="45.70544" lon="2.86522">
        <ele>825.4</ele>
        <time>2021-07-20T09:22:17Z</time>
      </trkpt>
      <trkpt lat="45.7055" lon="2.8652">
        <ele>825.4</ele>
        <time>2021-07-20T09:22:19Z</time>
      </trkpt>
      <trkpt lat="45.70556" lon="2.86517">
        <ele>825.4</ele>
        <time>2021-07-20T09:22:21Z</time>
      </trkpt>
      <trkpt lat="45.70563" lon="2.86516">
        <ele>825.4</ele>
        <time>2021-07-20T09:22:23Z</time>
      </trkpt>
      <trkpt lat="45.7057" lon="2.86513">
        <ele>825.5</ele>
        <time>2021-07-20T09:22:25Z</time>
      </trkpt>
      <trkpt lat="45.70576" lon="2.86511">
        <ele>825.5</ele>
        <time>2021-07-20T09:22:27Z</time>
      </trkpt>
      <trkpt lat="45.70582" lon="2.86507">
        <ele>825.4</ele>
        <time>2021-07-20T09:22:29Z</time>
      </trkpt>
      <trkpt lat="45.7059" lon="2.86505">
        <ele>824.9</ele>
        <time>2021-07-20T09:22:31Z</time>
      </trkpt>
      <trkpt lat="45.70597" lon="2.86502">
        <ele>824.4</ele>
        <time>2021-07-20T09:22:33Z</time>
      </trkpt>
      <trkpt lat="45.70604" lon="2.86499">
        <ele>823.7</ele>
        <time>2021-07-20T09:22:35Z</time>
      </trkpt>
      <trkpt lat="45.70613" lon="2.86496">
        <ele>822.9</ele>
        <time>2021-07-20T09:22:37Z</time>
      </trkpt>
      <trkpt lat="45.70621" lon="2.86492">
        <ele>822.1</ele>
        <time>2021-07-20T09:22:39Z</time>
      </trkpt>
      <trkpt lat="45.7063" lon="2.86489">
        <ele>821.3</ele>
        <time>2021-07-20T09:22:41Z</time>
      </trkpt>
      <trkpt lat="45.70639" lon="2.86485">
        <ele>820.5</ele>
        <time>2021-07-20T09:22:43Z</time>
      </trkpt>
      <trkpt lat="45.70647" lon="2.86482">
        <ele>819.7</ele>
        <time>2021-07-20T09:22:45Z</time>
      </trkpt>
      <trkpt lat="45.70655" lon="2.86478">
        <ele>818.9</ele>
        <time>2021-07-20T09:22:47Z</time>
      </trkpt>
      <trkpt lat="45.70661" lon="2.86476">
        <ele>818.4</ele>
        <time>2021-07-20T09:22:49Z</time>
      </trkpt>
      <trkpt lat="45.70666" lon="2.86475">
        <ele>818</ele>
        <time>2021-07-20T09:22:51Z</time>
      </trkpt>
      <trkpt lat="45.70671" lon="2.86474">
        <ele>817.5</ele>
        <time>2021-07-20T09:22:53Z</time>
      </trkpt>
      <trkpt lat="45.70678" lon="2.86473">
        <ele>817</ele>
        <time>2021-07-20T09:22:57Z</time>
      </trkpt>
      <trkpt lat="45.70674" lon="2.86467">
        <ele>816.7</ele>
        <time>2021-07-20T09:23:59Z</time>
      </trkpt>
      <trkpt lat="45.70672" lon="2.8646">
        <ele>816.3</ele>
        <time>2021-07-20T09:24:01Z</time>
      </trkpt>
      <trkpt lat="45.70669" lon="2.86449">
        <ele>815.6</ele>
        <time>2021-07-20T09:24:03Z</time>
      </trkpt>
      <trkpt lat="45.70667" lon="2.86435">
        <ele>814.5</ele>
        <time>2021-07-20T09:24:05Z</time>
      </trkpt>
      <trkpt lat="45.70664" lon="2.86418">
        <ele>813.4</ele>
        <time>2021-07-20T09:24:07Z</time>
      </trkpt>
      <trkpt lat="45.70659" lon="2.86398">
        <ele>812.6</ele>
        <time>2021-07-20T09:24:09Z</time>
      </trkpt>
      <trkpt lat="45.70655" lon="2.86378">
        <ele>811.9</ele>
        <time>2021-07-20T09:24:11Z</time>
      </trkpt>
      <trkpt lat="45.70652" lon="2.86359">
        <ele>811</ele>
        <time>2021-07-20T09:24:13Z</time>
      </trkpt>
      <trkpt lat="45.70651" lon="2.86337">
        <ele>810</ele>
        <time>2021-07-20T09:24:15Z</time>
      </trkpt>
      <trkpt lat="45.70653" lon="2.86314">
        <ele>807.8</ele>
        <time>2021-07-20T09:24:17Z</time>
      </trkpt>
      <trkpt lat="45.70655" lon="2.8629">
        <ele>805.4</ele>
        <time>2021-07-20T09:24:19Z</time>
      </trkpt>
      <trkpt lat="45.70657" lon="2.86264">
        <ele>803</ele>
        <time>2021-07-20T09:24:21Z</time>
      </trkpt>
      <trkpt lat="45.70654" lon="2.86237">
        <ele>801.6</ele>
        <time>2021-07-20T09:24:23Z</time>
      </trkpt>
      <trkpt lat="45.70647" lon="2.86212">
        <ele>801.4</ele>
        <time>2021-07-20T09:24:25Z</time>
      </trkpt>
      <trkpt lat="45.70641" lon="2.86189">
        <ele>801.1</ele>
        <time>2021-07-20T09:24:27Z</time>
      </trkpt>
      <trkpt lat="45.70635" lon="2.86168">
        <ele>800.8</ele>
        <time>2021-07-20T09:24:29Z</time>
      </trkpt>
      <trkpt lat="45.70629" lon="2.86149">
        <ele>801.6</ele>
        <time>2021-07-20T09:24:31Z</time>
      </trkpt>
      <trkpt lat="45.70625" lon="2.86133">
        <ele>802.2</ele>
        <time>2021-07-20T09:24:33Z</time>
      </trkpt>
      <trkpt lat="45.70623" lon="2.86115">
        <ele>802.9</ele>
        <time>2021-07-20T09:24:35Z</time>
      </trkpt>
      <trkpt lat="45.70623" lon="2.86099">
        <ele>803.4</ele>
        <time>2021-07-20T09:24:37Z</time>
      </trkpt>
      <trkpt lat="45.70623" lon="2.86087">
        <ele>803.9</ele>
        <time>2021-07-20T09:24:39Z</time>
      </trkpt>
      <trkpt lat="45.70622" lon="2.86077">
        <ele>804.7</ele>
        <time>2021-07-20T09:24:41Z</time>
      </trkpt>
      <trkpt lat="45.70621" lon="2.8607">
        <ele>805.6</ele>
        <time>2021-07-20T09:24:43Z</time>
      </trkpt>
      <trkpt lat="45.7062" lon="2.86059">
        <ele>807</ele>
        <time>2021-07-20T09:24:47Z</time>
      </trkpt>
      <trkpt lat="45.70617" lon="2.86047">
        <ele>808.3</ele>
        <time>2021-07-20T09:24:51Z</time>
      </trkpt>
      <trkpt lat="45.70613" lon="2.86038">
        <ele>809.4</ele>
        <time>2021-07-20T09:24:55Z</time>
      </trkpt>
      <trkpt lat="45.70611" lon="2.86028">
        <ele>810.7</ele>
        <time>2021-07-20T09:24:59Z</time>
      </trkpt>
      <trkpt lat="45.70609" lon="2.86016">
        <ele>812.1</ele>
        <time>2021-07-20T09:25:03Z</time>
      </trkpt>
      <trkpt lat="45.70605" lon="2.86005">
        <ele>813.4</ele>
        <time>2021-07-20T09:25:07Z</time>
      </trkpt>
      <trkpt lat="45.70601" lon="2.85996">
        <ele>814.5</ele>
        <time>2021-07-20T09:25:11Z</time>
      </trkpt>
      <trkpt lat="45.70597" lon="2.85987">
        <ele>815.7</ele>
        <time>2021-07-20T09:25:15Z</time>
      </trkpt>
      <trkpt lat="45.70594" lon="2.85976">
        <ele>817.1</ele>
        <time>2021-07-20T09:25:19Z</time>
      </trkpt>
      <trkpt lat="45.70593" lon="2.85964">
        <ele>818.8</ele>
        <time>2021-07-20T09:25:23Z</time>
      </trkpt>
      <trkpt lat="45.70593" lon="2.85954">
        <ele>820</ele>
        <time>2021-07-20T09:25:27Z</time>
      </trkpt>
      <trkpt lat="45.70594" lon="2.85946">
        <ele>821</ele>
        <time>2021-07-20T09:25:31Z</time>
      </trkpt>
      <trkpt lat="45.70593" lon="2.85936">
        <ele>822.4</ele>
        <time>2021-07-20T09:25:35Z</time>
      </trkpt>
      <trkpt lat="45.70594" lon="2.85928">
        <ele>823.4</ele>
        <time>2021-07-20T09:25:39Z</time>
      </trkpt>
      <trkpt lat="45.70596" lon="2.85922">
        <ele>824.2</ele>
        <time>2021-07-20T09:25:43Z</time>
      </trkpt>
      <trkpt lat="45.70601" lon="2.85918">
        <ele>824.7</ele>
        <time>2021-07-20T09:25:47Z</time>
      </trkpt>
      <trkpt lat="45.70606" lon="2.85913">
        <ele>825.6</ele>
        <time>2021-07-20T09:25:51Z</time>
      </trkpt>
      <trkpt lat="45.70612" lon="2.85908">
        <ele>826.4</ele>
        <time>2021-07-20T09:25:55Z</time>
      </trkpt>
      <trkpt lat="45.70618" lon="2.85904">
        <ele>827</ele>
        <time>2021-07-20T09:25:59Z</time>
      </trkpt>
      <trkpt lat="45.70625" lon="2.85902">
        <ele>827.4</ele>
        <time>2021-07-20T09:26:03Z</time>
      </trkpt>
      <trkpt lat="45.70632" lon="2.85899">
        <ele>827.8</ele>
        <time>2021-07-20T09:26:07Z</time>
      </trkpt>
      <trkpt lat="45.70638" lon="2.85898">
        <ele>827.7</ele>
        <time>2021-07-20T09:26:09Z</time>
      </trkpt>
      <trkpt lat="45.70642" lon="2.85899">
        <ele>827.6</ele>
        <time>2021-07-20T09:26:11Z</time>
      </trkpt>
      <trkpt lat="45.70648" lon="2.85898">
        <ele>827.6</ele>
        <time>2021-07-20T09:26:15Z</time>
      </trkpt>
      <trkpt lat="45.70655" lon="2.85896">
        <ele>827.8</ele>
        <time>2021-07-20T09:26:19Z</time>
      </trkpt>
      <trkpt lat="45.70662" lon="2.85896">
        <ele>827.6</ele>
        <time>2021-07-20T09:26:23Z</time>
      </trkpt>
      <trkpt lat="45.70669" lon="2.85897">
        <ele>827.3</ele>
        <time>2021-07-20T09:26:27Z</time>
      </trkpt>
      <trkpt lat="45.70675" lon="2.85893">
        <ele>827.7</ele>
        <time>2021-07-20T09:26:31Z</time>
      </trkpt>
      <trkpt lat="45.70676" lon="2.85887">
        <ele>828.8</ele>
        <time>2021-07-20T09:27:59Z</time>
      </trkpt>
      <trkpt lat="45.7068" lon="2.85879">
        <ele>829.9</ele>
        <time>2021-07-20T09:28:05Z</time>
      </trkpt>
      <trkpt lat="45.70685" lon="2.85873">
        <ele>830.8</ele>
        <time>2021-07-20T09:28:09Z</time>
      </trkpt>
      <trkpt lat="45.7069" lon="2.85867">
        <ele>831.5</ele>
        <time>2021-07-20T09:28:13Z</time>
      </trkpt>
      <trkpt lat="45.70694" lon="2.8586">
        <ele>832.4</ele>
        <time>2021-07-20T09:28:17Z</time>
      </trkpt>
      <trkpt lat="45.707" lon="2.85855">
        <ele>833.1</ele>
        <time>2021-07-20T09:28:21Z</time>
      </trkpt>
      <trkpt lat="45.70705" lon="2.8585">
        <ele>833.7</ele>
        <time>2021-07-20T09:28:23Z</time>
      </trkpt>
      <trkpt lat="45.70709" lon="2.85847">
        <ele>833.9</ele>
        <time>2021-07-20T09:28:25Z</time>
      </trkpt>
      <trkpt lat="45.70714" lon="2.85844">
        <ele>834.2</ele>
        <time>2021-07-20T09:28:27Z</time>
      </trkpt>
      <trkpt lat="45.70718" lon="2.8584">
        <ele>834.6</ele>
        <time>2021-07-20T09:28:29Z</time>
      </trkpt>
      <trkpt lat="45.70722" lon="2.85835">
        <ele>835.1</ele>
        <time>2021-07-20T09:28:31Z</time>
      </trkpt>
      <trkpt lat="45.70727" lon="2.85828">
        <ele>836.1</ele>
        <time>2021-07-20T09:28:35Z</time>
      </trkpt>
      <trkpt lat="45.70732" lon="2.85823">
        <ele>836.9</ele>
        <time>2021-07-20T09:28:39Z</time>
      </trkpt>
      <trkpt lat="45.70737" lon="2.85818">
        <ele>837.6</ele>
        <time>2021-07-20T09:28:43Z</time>
      </trkpt>
      <trkpt lat="45.70742" lon="2.85813">
        <ele>838.2</ele>
        <time>2021-07-20T09:28:47Z</time>
      </trkpt>
      <trkpt lat="45.70747" lon="2.85807">
        <ele>839</ele>
        <time>2021-07-20T09:28:51Z</time>
      </trkpt>
      <trkpt lat="45.70752" lon="2.85799">
        <ele>840.2</ele>
        <time>2021-07-20T09:28:55Z</time>
      </trkpt>
      <trkpt lat="45.70755" lon="2.85789">
        <ele>841.9</ele>
        <time>2021-07-20T09:28:59Z</time>
      </trkpt>
      <trkpt lat="45.7076" lon="2.85783">
        <ele>843</ele>
        <time>2021-07-20T09:29:03Z</time>
      </trkpt>
      <trkpt lat="45.70764" lon="2.85775">
        <ele>844.3</ele>
        <time>2021-07-20T09:29:07Z</time>
      </trkpt>
      <trkpt lat="45.70769" lon="2.85768">
        <ele>845.3</ele>
        <time>2021-07-20T09:29:11Z</time>
      </trkpt>
      <trkpt lat="45.70772" lon="2.85763">
        <ele>846.1</ele>
        <time>2021-07-20T09:29:15Z</time>
      </trkpt>
      <trkpt lat="45.70777" lon="2.8576">
        <ele>846.4</ele>
        <time>2021-07-20T09:29:19Z</time>
      </trkpt>
      <trkpt lat="45.70784" lon="2.85759">
        <ele>846.4</ele>
        <time>2021-07-20T09:29:23Z</time>
      </trkpt>
      <trkpt lat="45.70789" lon="2.85759">
        <ele>846.2</ele>
        <time>2021-07-20T09:29:25Z</time>
      </trkpt>
      <trkpt lat="45.70793" lon="2.85759">
        <ele>846.1</ele>
        <time>2021-07-20T09:29:27Z</time>
      </trkpt>
      <trkpt lat="45.70798" lon="2.8576">
        <ele>845.8</ele>
        <time>2021-07-20T09:29:29Z</time>
      </trkpt>
      <trkpt lat="45.70803" lon="2.85762">
        <ele>845.4</ele>
        <time>2021-07-20T09:29:31Z</time>
      </trkpt>
      <trkpt lat="45.70809" lon="2.85765">
        <ele>844.8</ele>
        <time>2021-07-20T09:29:33Z</time>
      </trkpt>
      <trkpt lat="45.70813" lon="2.85768">
        <ele>844.4</ele>
        <time>2021-07-20T09:29:35Z</time>
      </trkpt>
      <trkpt lat="45.70818" lon="2.85769">
        <ele>844</ele>
        <time>2021-07-20T09:29:37Z</time>
      </trkpt>
      <trkpt lat="45.70824" lon="2.85771">
        <ele>843.6</ele>
        <time>2021-07-20T09:29:39Z</time>
      </trkpt>
      <trkpt lat="45.70829" lon="2.85774">
        <ele>843.3</ele>
        <time>2021-07-20T09:29:41Z</time>
      </trkpt>
      <trkpt lat="45.70834" lon="2.85775">
        <ele>843</ele>
        <time>2021-07-20T09:29:43Z</time>
      </trkpt>
      <trkpt lat="45.70839" lon="2.85777">
        <ele>843</ele>
        <time>2021-07-20T09:29:45Z</time>
      </trkpt>
      <trkpt lat="45.70843" lon="2.85779">
        <ele>843.1</ele>
        <time>2021-07-20T09:29:47Z</time>
      </trkpt>
      <trkpt lat="45.70849" lon="2.85782">
        <ele>843</ele>
        <time>2021-07-20T09:29:49Z</time>
      </trkpt>
      <trkpt lat="45.70857" lon="2.85786">
        <ele>843</ele>
        <time>2021-07-20T09:29:53Z</time>
      </trkpt>
      <trkpt lat="45.70862" lon="2.85787">
        <ele>843.1</ele>
        <time>2021-07-20T09:29:55Z</time>
      </trkpt>
      <trkpt lat="45.70868" lon="2.85787">
        <ele>843.5</ele>
        <time>2021-07-20T09:29:57Z</time>
      </trkpt>
      <trkpt lat="45.70874" lon="2.85788">
        <ele>843.7</ele>
        <time>2021-07-20T09:29:59Z</time>
      </trkpt>
      <trkpt lat="45.7088" lon="2.85789">
        <ele>843.9</ele>
        <time>2021-07-20T09:30:01Z</time>
      </trkpt>
      <trkpt lat="45.70887" lon="2.85789">
        <ele>844.2</ele>
        <time>2021-07-20T09:30:03Z</time>
      </trkpt>
      <trkpt lat="45.70893" lon="2.8579">
        <ele>844.5</ele>
        <time>2021-07-20T09:30:05Z</time>
      </trkpt>
      <trkpt lat="45.70899" lon="2.8579">
        <ele>844.8</ele>
        <time>2021-07-20T09:30:07Z</time>
      </trkpt>
      <trkpt lat="45.70905" lon="2.85791">
        <ele>845</ele>
        <time>2021-07-20T09:30:09Z</time>
      </trkpt>
      <trkpt lat="45.70912" lon="2.85791">
        <ele>845.4</ele>
        <time>2021-07-20T09:30:11Z</time>
      </trkpt>
      <trkpt lat="45.70918" lon="2.85792">
        <ele>845.4</ele>
        <time>2021-07-20T09:30:13Z</time>
      </trkpt>
      <trkpt lat="45.70925" lon="2.85792">
        <ele>845.3</ele>
        <time>2021-07-20T09:30:15Z</time>
      </trkpt>
      <trkpt lat="45.70931" lon="2.85792">
        <ele>845.2</ele>
        <time>2021-07-20T09:30:17Z</time>
      </trkpt>
      <trkpt lat="45.70937" lon="2.85792">
        <ele>845.1</ele>
        <time>2021-07-20T09:30:19Z</time>
      </trkpt>
      <trkpt lat="45.70944" lon="2.85792">
        <ele>845.1</ele>
        <time>2021-07-20T09:30:21Z</time>
      </trkpt>
      <trkpt lat="45.7095" lon="2.85791">
        <ele>845.3</ele>
        <time>2021-07-20T09:30:23Z</time>
      </trkpt>
      <trkpt lat="45.70956" lon="2.85789">
        <ele>845.5</ele>
        <time>2021-07-20T09:30:25Z</time>
      </trkpt>
      <trkpt lat="45.70962" lon="2.85786">
        <ele>845.8</ele>
        <time>2021-07-20T09:30:27Z</time>
      </trkpt>
      <trkpt lat="45.70968" lon="2.85785">
        <ele>846.1</ele>
        <time>2021-07-20T09:30:29Z</time>
      </trkpt>
      <trkpt lat="45.70974" lon="2.85784">
        <ele>846.2</ele>
        <time>2021-07-20T09:30:31Z</time>
      </trkpt>
      <trkpt lat="45.7098" lon="2.85782">
        <ele>846.4</ele>
        <time>2021-07-20T09:30:33Z</time>
      </trkpt>
      <trkpt lat="45.70985" lon="2.85782">
        <ele>846.5</ele>
        <time>2021-07-20T09:30:35Z</time>
      </trkpt>
      <trkpt lat="45.70992" lon="2.85782">
        <ele>846.4</ele>
        <time>2021-07-20T09:30:37Z</time>
      </trkpt>
      <trkpt lat="45.70997" lon="2.85781">
        <ele>846.4</ele>
        <time>2021-07-20T09:30:39Z</time>
      </trkpt>
      <trkpt lat="45.71002" lon="2.85779">
        <ele>846.6</ele>
        <time>2021-07-20T09:30:41Z</time>
      </trkpt>
      <trkpt lat="45.71005" lon="2.85775">
        <ele>847.2</ele>
        <time>2021-07-20T09:30:43Z</time>
      </trkpt>
      <trkpt lat="45.71007" lon="2.85769">
        <ele>848.3</ele>
        <time>2021-07-20T09:30:45Z</time>
      </trkpt>
      <trkpt lat="45.71003" lon="2.85757">
        <ele>850.6</ele>
        <time>2021-07-20T09:30:49Z</time>
      </trkpt>
      <trkpt lat="45.70998" lon="2.85754">
        <ele>851.3</ele>
        <time>2021-07-20T09:30:51Z</time>
      </trkpt>
      <trkpt lat="45.70991" lon="2.85752">
        <ele>851.7</ele>
        <time>2021-07-20T09:30:53Z</time>
      </trkpt>
      <trkpt lat="45.70984" lon="2.8575">
        <ele>851.9</ele>
        <time>2021-07-20T09:30:55Z</time>
      </trkpt>
      <trkpt lat="45.70977" lon="2.85749">
        <ele>852.2</ele>
        <time>2021-07-20T09:30:57Z</time>
      </trkpt>
      <trkpt lat="45.7097" lon="2.85748">
        <ele>852.7</ele>
        <time>2021-07-20T09:30:59Z</time>
      </trkpt>
      <trkpt lat="45.70964" lon="2.85745">
        <ele>853.4</ele>
        <time>2021-07-20T09:31:01Z</time>
      </trkpt>
      <trkpt lat="45.70958" lon="2.85743">
        <ele>853.9</ele>
        <time>2021-07-20T09:31:03Z</time>
      </trkpt>
      <trkpt lat="45.70951" lon="2.85742">
        <ele>854.2</ele>
        <time>2021-07-20T09:31:05Z</time>
      </trkpt>
      <trkpt lat="45.70946" lon="2.85739">
        <ele>854.7</ele>
        <time>2021-07-20T09:31:07Z</time>
      </trkpt>
      <trkpt lat="45.70941" lon="2.85737">
        <ele>855.4</ele>
        <time>2021-07-20T09:31:09Z</time>
      </trkpt>
      <trkpt lat="45.70935" lon="2.85734">
        <ele>856</ele>
        <time>2021-07-20T09:31:11Z</time>
      </trkpt>
      <trkpt lat="45.7093" lon="2.8573">
        <ele>856.6</ele>
        <time>2021-07-20T09:31:13Z</time>
      </trkpt>
      <trkpt lat="45.70925" lon="2.85727">
        <ele>857.2</ele>
        <time>2021-07-20T09:31:15Z</time>
      </trkpt>
      <trkpt lat="45.70921" lon="2.85724">
        <ele>857.9</ele>
        <time>2021-07-20T09:31:17Z</time>
      </trkpt>
      <trkpt lat="45.70917" lon="2.85719">
        <ele>858.6</ele>
        <time>2021-07-20T09:31:19Z</time>
      </trkpt>
      <trkpt lat="45.70913" lon="2.85715">
        <ele>859.1</ele>
        <time>2021-07-20T09:31:21Z</time>
      </trkpt>
      <trkpt lat="45.70909" lon="2.85712">
        <ele>859.5</ele>
        <time>2021-07-20T09:31:23Z</time>
      </trkpt>
      <trkpt lat="45.70905" lon="2.85708">
        <ele>859.7</ele>
        <time>2021-07-20T09:31:25Z</time>
      </trkpt>
      <trkpt lat="45.70901" lon="2.85704">
        <ele>860.2</ele>
        <time>2021-07-20T09:31:27Z</time>
      </trkpt>
      <trkpt lat="45.70897" lon="2.857">
        <ele>860.6</ele>
        <time>2021-07-20T09:31:29Z</time>
      </trkpt>
      <trkpt lat="45.70893" lon="2.85695">
        <ele>861.1</ele>
        <time>2021-07-20T09:31:31Z</time>
      </trkpt>
      <trkpt lat="45.70889" lon="2.8569">
        <ele>861.7</ele>
        <time>2021-07-20T09:31:33Z</time>
      </trkpt>
      <trkpt lat="45.70885" lon="2.85685">
        <ele>862.1</ele>
        <time>2021-07-20T09:31:35Z</time>
      </trkpt>
      <trkpt lat="45.70882" lon="2.8568">
        <ele>862.5</ele>
        <time>2021-07-20T09:31:37Z</time>
      </trkpt>
      <trkpt lat="45.70878" lon="2.85675">
        <ele>863</ele>
        <time>2021-07-20T09:31:39Z</time>
      </trkpt>
      <trkpt lat="45.70875" lon="2.8567">
        <ele>863.5</ele>
        <time>2021-07-20T09:31:41Z</time>
      </trkpt>
      <trkpt lat="45.70869" lon="2.8566">
        <ele>863.6</ele>
        <time>2021-07-20T09:31:45Z</time>
      </trkpt>
      <trkpt lat="45.70863" lon="2.8565">
        <ele>863.4</ele>
        <time>2021-07-20T09:31:49Z</time>
      </trkpt>
      <trkpt lat="45.70859" lon="2.8564">
        <ele>863.4</ele>
        <time>2021-07-20T09:31:53Z</time>
      </trkpt>
      <trkpt lat="45.70856" lon="2.85633">
        <ele>863.7</ele>
        <time>2021-07-20T09:31:57Z</time>
      </trkpt>
      <trkpt lat="45.70853" lon="2.85638">
        <ele>862.7</ele>
        <time>2021-07-20T09:32:07Z</time>
      </trkpt>
      <trkpt lat="45.70849" lon="2.85643">
        <ele>861.9</ele>
        <time>2021-07-20T09:32:13Z</time>
      </trkpt>
      <trkpt lat="45.70854" lon="2.85638">
        <ele>863</ele>
        <time>2021-07-20T09:32:51Z</time>
      </trkpt>
      <trkpt lat="45.70855" lon="2.8563">
        <ele>863.7</ele>
        <time>2021-07-20T09:32:53Z</time>
      </trkpt>
      <trkpt lat="45.70853" lon="2.85619">
        <ele>864.1</ele>
        <time>2021-07-20T09:32:55Z</time>
      </trkpt>
      <trkpt lat="45.70849" lon="2.85609">
        <ele>864.4</ele>
        <time>2021-07-20T09:32:57Z</time>
      </trkpt>
      <trkpt lat="45.70846" lon="2.85598">
        <ele>864.7</ele>
        <time>2021-07-20T09:32:59Z</time>
      </trkpt>
      <trkpt lat="45.70844" lon="2.85589">
        <ele>865.1</ele>
        <time>2021-07-20T09:33:01Z</time>
      </trkpt>
      <trkpt lat="45.70843" lon="2.85579">
        <ele>865.3</ele>
        <time>2021-07-20T09:33:03Z</time>
      </trkpt>
      <trkpt lat="45.70842" lon="2.85571">
        <ele>865.3</ele>
        <time>2021-07-20T09:33:05Z</time>
      </trkpt>
      <trkpt lat="45.7084" lon="2.85564">
        <ele>865.2</ele>
        <time>2021-07-20T09:33:07Z</time>
      </trkpt>
      <trkpt lat="45.70837" lon="2.85558">
        <ele>864.9</ele>
        <time>2021-07-20T09:33:09Z</time>
      </trkpt>
      <trkpt lat="45.70832" lon="2.85556">
        <ele>864.9</ele>
        <time>2021-07-20T09:33:11Z</time>
      </trkpt>
      <trkpt lat="45.70829" lon="2.85561">
        <ele>865.4</ele>
        <time>2021-07-20T09:33:27Z</time>
      </trkpt>
      <trkpt lat="45.70823" lon="2.85563">
        <ele>866.5</ele>
        <time>2021-07-20T09:36:23Z</time>
      </trkpt>
      <trkpt lat="45.70817" lon="2.8557">
        <ele>867.3</ele>
        <time>2021-07-20T09:36:27Z</time>
      </trkpt>
      <trkpt lat="45.7081" lon="2.85575">
        <ele>868.4</ele>
        <time>2021-07-20T09:36:31Z</time>
      </trkpt>
      <trkpt lat="45.70803" lon="2.8558">
        <ele>869.6</ele>
        <time>2021-07-20T09:36:35Z</time>
      </trkpt>
      <trkpt lat="45.70797" lon="2.85587">
        <ele>870.2</ele>
        <time>2021-07-20T09:36:39Z</time>
      </trkpt>
      <trkpt lat="45.70793" lon="2.85592">
        <ele>870.3</ele>
        <time>2021-07-20T09:36:41Z</time>
      </trkpt>
      <trkpt lat="45.7079" lon="2.85597">
        <ele>870.2</ele>
        <time>2021-07-20T09:36:43Z</time>
      </trkpt>
      <trkpt lat="45.70786" lon="2.85601">
        <ele>870.3</ele>
        <time>2021-07-20T09:36:45Z</time>
      </trkpt>
      <trkpt lat="45.70779" lon="2.85607">
        <ele>870.7</ele>
        <time>2021-07-20T09:36:49Z</time>
      </trkpt>
      <trkpt lat="45.70773" lon="2.85613">
        <ele>870.9</ele>
        <time>2021-07-20T09:36:53Z</time>
      </trkpt>
      <trkpt lat="45.70767" lon="2.85618">
        <ele>871.2</ele>
        <time>2021-07-20T09:36:57Z</time>
      </trkpt>
      <trkpt lat="45.70761" lon="2.85621">
        <ele>871.5</ele>
        <time>2021-07-20T09:37:01Z</time>
      </trkpt>
      <trkpt lat="45.70755" lon="2.85624">
        <ele>872</ele>
        <time>2021-07-20T09:37:05Z</time>
      </trkpt>
      <trkpt lat="45.70749" lon="2.85627">
        <ele>872.4</ele>
        <time>2021-07-20T09:37:09Z</time>
      </trkpt>
      <trkpt lat="45.70743" lon="2.85631">
        <ele>873.3</ele>
        <time>2021-07-20T09:37:13Z</time>
      </trkpt>
      <trkpt lat="45.70738" lon="2.85632">
        <ele>874.5</ele>
        <time>2021-07-20T09:37:17Z</time>
      </trkpt>
      <trkpt lat="45.70732" lon="2.85634">
        <ele>875.7</ele>
        <time>2021-07-20T09:37:21Z</time>
      </trkpt>
      <trkpt lat="45.70727" lon="2.85635">
        <ele>876.8</ele>
        <time>2021-07-20T09:37:25Z</time>
      </trkpt>
      <trkpt lat="45.70721" lon="2.85637">
        <ele>878.1</ele>
        <time>2021-07-20T09:37:29Z</time>
      </trkpt>
      <trkpt lat="45.70715" lon="2.85638">
        <ele>879.3</ele>
        <time>2021-07-20T09:37:33Z</time>
      </trkpt>
      <trkpt lat="45.7071" lon="2.85638">
        <ele>880.4</ele>
        <time>2021-07-20T09:37:37Z</time>
      </trkpt>
      <trkpt lat="45.70705" lon="2.85639">
        <ele>881.5</ele>
        <time>2021-07-20T09:37:41Z</time>
      </trkpt>
      <trkpt lat="45.707" lon="2.85641">
        <ele>882.7</ele>
        <time>2021-07-20T09:37:45Z</time>
      </trkpt>
      <trkpt lat="45.70694" lon="2.8564">
        <ele>884.3</ele>
        <time>2021-07-20T09:37:49Z</time>
      </trkpt>
      <trkpt lat="45.70688" lon="2.85642">
        <ele>885.4</ele>
        <time>2021-07-20T09:37:53Z</time>
      </trkpt>
      <trkpt lat="45.7068" lon="2.85644">
        <ele>886.7</ele>
        <time>2021-07-20T09:37:57Z</time>
      </trkpt>
      <trkpt lat="45.70673" lon="2.85643">
        <ele>888.8</ele>
        <time>2021-07-20T09:38:01Z</time>
      </trkpt>
      <trkpt lat="45.70668" lon="2.85642">
        <ele>890.5</ele>
        <time>2021-07-20T09:38:05Z</time>
      </trkpt>
      <trkpt lat="45.70661" lon="2.85642">
        <ele>890.4</ele>
        <time>2021-07-20T09:38:09Z</time>
      </trkpt>
      <trkpt lat="45.70654" lon="2.85643">
        <ele>889.9</ele>
        <time>2021-07-20T09:38:13Z</time>
      </trkpt>
      <trkpt lat="45.70649" lon="2.85644">
        <ele>889.5</ele>
        <time>2021-07-20T09:38:17Z</time>
      </trkpt>
      <trkpt lat="45.70641" lon="2.85643">
        <ele>889.5</ele>
        <time>2021-07-20T09:38:21Z</time>
      </trkpt>
      <trkpt lat="45.70635" lon="2.85642">
        <ele>889.3</ele>
        <time>2021-07-20T09:38:25Z</time>
      </trkpt>
      <trkpt lat="45.70629" lon="2.85642">
        <ele>889.2</ele>
        <time>2021-07-20T09:38:29Z</time>
      </trkpt>
      <trkpt lat="45.70622" lon="2.85639">
        <ele>889.5</ele>
        <time>2021-07-20T09:38:33Z</time>
      </trkpt>
      <trkpt lat="45.70614" lon="2.85639">
        <ele>889.3</ele>
        <time>2021-07-20T09:38:37Z</time>
      </trkpt>
      <trkpt lat="45.70605" lon="2.85637">
        <ele>889.4</ele>
        <time>2021-07-20T09:38:41Z</time>
      </trkpt>
      <trkpt lat="45.70601" lon="2.85636">
        <ele>889.3</ele>
        <time>2021-07-20T09:38:43Z</time>
      </trkpt>
      <trkpt lat="45.70594" lon="2.85633">
        <ele>889.8</ele>
        <time>2021-07-20T09:38:47Z</time>
      </trkpt>
      <trkpt lat="45.70586" lon="2.8563">
        <ele>890</ele>
        <time>2021-07-20T09:38:51Z</time>
      </trkpt>
      <trkpt lat="45.70582" lon="2.85628">
        <ele>890.2</ele>
        <time>2021-07-20T09:38:53Z</time>
      </trkpt>
      <trkpt lat="45.70574" lon="2.85624">
        <ele>890</ele>
        <time>2021-07-20T09:38:57Z</time>
      </trkpt>
      <trkpt lat="45.70567" lon="2.8562">
        <ele>889.9</ele>
        <time>2021-07-20T09:39:01Z</time>
      </trkpt>
      <trkpt lat="45.70562" lon="2.85616">
        <ele>890.2</ele>
        <time>2021-07-20T09:39:05Z</time>
      </trkpt>
      <trkpt lat="45.70556" lon="2.85611">
        <ele>890.4</ele>
        <time>2021-07-20T09:39:09Z</time>
      </trkpt>
      <trkpt lat="45.7055" lon="2.85606">
        <ele>890.6</ele>
        <time>2021-07-20T09:39:13Z</time>
      </trkpt>
      <trkpt lat="45.70543" lon="2.85602">
        <ele>890.5</ele>
        <time>2021-07-20T09:39:17Z</time>
      </trkpt>
      <trkpt lat="45.70539" lon="2.85598">
        <ele>891</ele>
        <time>2021-07-20T09:39:21Z</time>
      </trkpt>
      <trkpt lat="45.70535" lon="2.85593">
        <ele>891.5</ele>
        <time>2021-07-20T09:39:25Z</time>
      </trkpt>
      <trkpt lat="45.7053" lon="2.85584">
        <ele>892.8</ele>
        <time>2021-07-20T09:39:29Z</time>
      </trkpt>
      <trkpt lat="45.70526" lon="2.85576">
        <ele>893.4</ele>
        <time>2021-07-20T09:39:33Z</time>
      </trkpt>
      <trkpt lat="45.7052" lon="2.85569">
        <ele>893.7</ele>
        <time>2021-07-20T09:39:37Z</time>
      </trkpt>
      <trkpt lat="45.70514" lon="2.85558">
        <ele>894.6</ele>
        <time>2021-07-20T09:39:41Z</time>
      </trkpt>
      <trkpt lat="45.70509" lon="2.85549">
        <ele>895.4</ele>
        <time>2021-07-20T09:39:45Z</time>
      </trkpt>
      <trkpt lat="45.70505" lon="2.85539">
        <ele>896.5</ele>
        <time>2021-07-20T09:39:49Z</time>
      </trkpt>
      <trkpt lat="45.70501" lon="2.85529">
        <ele>897.6</ele>
        <time>2021-07-20T09:39:53Z</time>
      </trkpt>
      <trkpt lat="45.70498" lon="2.85521">
        <ele>898.3</ele>
        <time>2021-07-20T09:39:57Z</time>
      </trkpt>
      <trkpt lat="45.70494" lon="2.85512">
        <ele>898.9</ele>
        <time>2021-07-20T09:40:01Z</time>
      </trkpt>
      <trkpt lat="45.70491" lon="2.85502">
        <ele>900</ele>
        <time>2021-07-20T09:40:05Z</time>
      </trkpt>
      <trkpt lat="45.70488" lon="2.85492">
        <ele>900.4</ele>
        <time>2021-07-20T09:40:09Z</time>
      </trkpt>
      <trkpt lat="45.70483" lon="2.85482">
        <ele>900.8</ele>
        <time>2021-07-20T09:40:13Z</time>
      </trkpt>
      <trkpt lat="45.7048" lon="2.85477">
        <ele>900.8</ele>
        <time>2021-07-20T09:40:15Z</time>
      </trkpt>
      <trkpt lat="45.70476" lon="2.85473">
        <ele>900.7</ele>
        <time>2021-07-20T09:40:17Z</time>
      </trkpt>
      <trkpt lat="45.70472" lon="2.85469">
        <ele>900.7</ele>
        <time>2021-07-20T09:40:19Z</time>
      </trkpt>
      <trkpt lat="45.70465" lon="2.85462">
        <ele>900.7</ele>
        <time>2021-07-20T09:40:23Z</time>
      </trkpt>
      <trkpt lat="45.70462" lon="2.85457">
        <ele>900.8</ele>
        <time>2021-07-20T09:40:25Z</time>
      </trkpt>
      <trkpt lat="45.70455" lon="2.8545">
        <ele>901.1</ele>
        <time>2021-07-20T09:40:29Z</time>
      </trkpt>
      <trkpt lat="45.7045" lon="2.85443">
        <ele>901.7</ele>
        <time>2021-07-20T09:40:33Z</time>
      </trkpt>
      <trkpt lat="45.70444" lon="2.85435">
        <ele>902.5</ele>
        <time>2021-07-20T09:40:37Z</time>
      </trkpt>
      <trkpt lat="45.70438" lon="2.85427">
        <ele>903.4</ele>
        <time>2021-07-20T09:40:41Z</time>
      </trkpt>
      <trkpt lat="45.70431" lon="2.8542">
        <ele>904.2</ele>
        <time>2021-07-20T09:40:45Z</time>
      </trkpt>
      <trkpt lat="45.70427" lon="2.85414">
        <ele>904.9</ele>
        <time>2021-07-20T09:40:49Z</time>
      </trkpt>
      <trkpt lat="45.70421" lon="2.85407">
        <ele>905.6</ele>
        <time>2021-07-20T09:40:53Z</time>
      </trkpt>
      <trkpt lat="45.70414" lon="2.854">
        <ele>906.4</ele>
        <time>2021-07-20T09:40:57Z</time>
      </trkpt>
      <trkpt lat="45.70408" lon="2.85393">
        <ele>907.2</ele>
        <time>2021-07-20T09:41:01Z</time>
      </trkpt>
      <trkpt lat="45.70402" lon="2.85386">
        <ele>908.2</ele>
        <time>2021-07-20T09:41:05Z</time>
      </trkpt>
      <trkpt lat="45.70396" lon="2.85379">
        <ele>909.1</ele>
        <time>2021-07-20T09:41:09Z</time>
      </trkpt>
      <trkpt lat="45.7039" lon="2.85373">
        <ele>910</ele>
        <time>2021-07-20T09:41:13Z</time>
      </trkpt>
      <trkpt lat="45.70382" lon="2.85369">
        <ele>910.5</ele>
        <time>2021-07-20T09:41:17Z</time>
      </trkpt>
      <trkpt lat="45.70378" lon="2.85366">
        <ele>910.9</ele>
        <time>2021-07-20T09:41:19Z</time>
      </trkpt>
      <trkpt lat="45.70371" lon="2.85363">
        <ele>911.4</ele>
        <time>2021-07-20T09:41:23Z</time>
      </trkpt>
      <trkpt lat="45.70363" lon="2.8536">
        <ele>911.7</ele>
        <time>2021-07-20T09:41:27Z</time>
      </trkpt>
      <trkpt lat="45.70356" lon="2.85356">
        <ele>912.4</ele>
        <time>2021-07-20T09:41:31Z</time>
      </trkpt>
      <trkpt lat="45.70348" lon="2.85353">
        <ele>912.8</ele>
        <time>2021-07-20T09:41:35Z</time>
      </trkpt>
      <trkpt lat="45.70339" lon="2.85352">
        <ele>912.9</ele>
        <time>2021-07-20T09:41:39Z</time>
      </trkpt>
      <trkpt lat="45.70335" lon="2.85351">
        <ele>913.1</ele>
        <time>2021-07-20T09:41:41Z</time>
      </trkpt>
      <trkpt lat="45.7033" lon="2.8535">
        <ele>913.4</ele>
        <time>2021-07-20T09:41:43Z</time>
      </trkpt>
      <trkpt lat="45.70321" lon="2.85348">
        <ele>914</ele>
        <time>2021-07-20T09:41:47Z</time>
      </trkpt>
      <trkpt lat="45.70317" lon="2.85346">
        <ele>914.4</ele>
        <time>2021-07-20T09:41:49Z</time>
      </trkpt>
      <trkpt lat="45.70312" lon="2.85344">
        <ele>914.9</ele>
        <time>2021-07-20T09:41:51Z</time>
      </trkpt>
      <trkpt lat="45.70304" lon="2.8534">
        <ele>915.7</ele>
        <time>2021-07-20T09:41:55Z</time>
      </trkpt>
      <trkpt lat="45.70295" lon="2.85336">
        <ele>916.5</ele>
        <time>2021-07-20T09:41:59Z</time>
      </trkpt>
      <trkpt lat="45.70287" lon="2.85332">
        <ele>917.2</ele>
        <time>2021-07-20T09:42:03Z</time>
      </trkpt>
      <trkpt lat="45.70282" lon="2.85329">
        <ele>917.3</ele>
        <time>2021-07-20T09:42:05Z</time>
      </trkpt>
      <trkpt lat="45.70277" lon="2.85326">
        <ele>917.5</ele>
        <time>2021-07-20T09:42:07Z</time>
      </trkpt>
      <trkpt lat="45.70272" lon="2.85323">
        <ele>917.7</ele>
        <time>2021-07-20T09:42:09Z</time>
      </trkpt>
      <trkpt lat="45.70267" lon="2.8532">
        <ele>917.8</ele>
        <time>2021-07-20T09:42:11Z</time>
      </trkpt>
      <trkpt lat="45.70261" lon="2.85319">
        <ele>917.9</ele>
        <time>2021-07-20T09:42:13Z</time>
      </trkpt>
      <trkpt lat="45.70257" lon="2.85316">
        <ele>918.1</ele>
        <time>2021-07-20T09:42:15Z</time>
      </trkpt>
      <trkpt lat="45.70251" lon="2.85313">
        <ele>918.2</ele>
        <time>2021-07-20T09:42:17Z</time>
      </trkpt>
      <trkpt lat="45.70247" lon="2.85309">
        <ele>918.4</ele>
        <time>2021-07-20T09:42:19Z</time>
      </trkpt>
      <trkpt lat="45.70241" lon="2.85307">
        <ele>918.7</ele>
        <time>2021-07-20T09:42:21Z</time>
      </trkpt>
      <trkpt lat="45.70236" lon="2.85305">
        <ele>918.9</ele>
        <time>2021-07-20T09:42:23Z</time>
      </trkpt>
      <trkpt lat="45.70231" lon="2.85302">
        <ele>919.1</ele>
        <time>2021-07-20T09:42:25Z</time>
      </trkpt>
      <trkpt lat="45.70226" lon="2.85302">
        <ele>919.3</ele>
        <time>2021-07-20T09:42:27Z</time>
      </trkpt>
      <trkpt lat="45.70221" lon="2.853">
        <ele>919.6</ele>
        <time>2021-07-20T09:42:29Z</time>
      </trkpt>
      <trkpt lat="45.70216" lon="2.85297">
        <ele>919.9</ele>
        <time>2021-07-20T09:42:31Z</time>
      </trkpt>
      <trkpt lat="45.7021" lon="2.85295">
        <ele>920.1</ele>
        <time>2021-07-20T09:42:33Z</time>
      </trkpt>
      <trkpt lat="45.70204" lon="2.85294">
        <ele>920.4</ele>
        <time>2021-07-20T09:42:35Z</time>
      </trkpt>
      <trkpt lat="45.70198" lon="2.85292">
        <ele>920.7</ele>
        <time>2021-07-20T09:42:37Z</time>
      </trkpt>
      <trkpt lat="45.70192" lon="2.8529">
        <ele>921</ele>
        <time>2021-07-20T09:42:39Z</time>
      </trkpt>
      <trkpt lat="45.70186" lon="2.85287">
        <ele>921.3</ele>
        <time>2021-07-20T09:42:41Z</time>
      </trkpt>
      <trkpt lat="45.70179" lon="2.85285">
        <ele>921.6</ele>
        <time>2021-07-20T09:42:43Z</time>
      </trkpt>
      <trkpt lat="45.70173" lon="2.85282">
        <ele>922</ele>
        <time>2021-07-20T09:42:45Z</time>
      </trkpt>
      <trkpt lat="45.70166" lon="2.8528">
        <ele>922.3</ele>
        <time>2021-07-20T09:42:47Z</time>
      </trkpt>
      <trkpt lat="45.70159" lon="2.85278">
        <ele>922.7</ele>
        <time>2021-07-20T09:42:49Z</time>
      </trkpt>
      <trkpt lat="45.70154" lon="2.85275">
        <ele>923</ele>
        <time>2021-07-20T09:42:51Z</time>
      </trkpt>
      <trkpt lat="45.70147" lon="2.85272">
        <ele>923.4</ele>
        <time>2021-07-20T09:42:53Z</time>
      </trkpt>
      <trkpt lat="45.70141" lon="2.85268">
        <ele>923.7</ele>
        <time>2021-07-20T09:42:55Z</time>
      </trkpt>
      <trkpt lat="45.70135" lon="2.85266">
        <ele>924.1</ele>
        <time>2021-07-20T09:42:57Z</time>
      </trkpt>
      <trkpt lat="45.7013" lon="2.85264">
        <ele>924.4</ele>
        <time>2021-07-20T09:42:59Z</time>
      </trkpt>
      <trkpt lat="45.70124" lon="2.85262">
        <ele>924.7</ele>
        <time>2021-07-20T09:43:01Z</time>
      </trkpt>
      <trkpt lat="45.70117" lon="2.8526">
        <ele>925.1</ele>
        <time>2021-07-20T09:43:03Z</time>
      </trkpt>
      <trkpt lat="45.70111" lon="2.85257">
        <ele>925.4</ele>
        <time>2021-07-20T09:43:05Z</time>
      </trkpt>
      <trkpt lat="45.70105" lon="2.85255">
        <ele>925.8</ele>
        <time>2021-07-20T09:43:07Z</time>
      </trkpt>
      <trkpt lat="45.701" lon="2.85254">
        <ele>926.1</ele>
        <time>2021-07-20T09:43:09Z</time>
      </trkpt>
      <trkpt lat="45.70094" lon="2.85251">
        <ele>926.4</ele>
        <time>2021-07-20T09:43:11Z</time>
      </trkpt>
      <trkpt lat="45.70089" lon="2.85249">
        <ele>926.7</ele>
        <time>2021-07-20T09:43:13Z</time>
      </trkpt>
      <trkpt lat="45.70083" lon="2.85248">
        <ele>927</ele>
        <time>2021-07-20T09:43:15Z</time>
      </trkpt>
      <trkpt lat="45.70077" lon="2.85245">
        <ele>927.1</ele>
        <time>2021-07-20T09:43:17Z</time>
      </trkpt>
      <trkpt lat="45.70072" lon="2.85243">
        <ele>927.3</ele>
        <time>2021-07-20T09:43:19Z</time>
      </trkpt>
      <trkpt lat="45.70066" lon="2.8524">
        <ele>927.4</ele>
        <time>2021-07-20T09:43:21Z</time>
      </trkpt>
      <trkpt lat="45.7006" lon="2.85238">
        <ele>927.6</ele>
        <time>2021-07-20T09:43:23Z</time>
      </trkpt>
      <trkpt lat="45.70055" lon="2.85236">
        <ele>927.7</ele>
        <time>2021-07-20T09:43:25Z</time>
      </trkpt>
      <trkpt lat="45.7005" lon="2.85234">
        <ele>927.9</ele>
        <time>2021-07-20T09:43:27Z</time>
      </trkpt>
      <trkpt lat="45.70044" lon="2.85232">
        <ele>928.1</ele>
        <time>2021-07-20T09:43:29Z</time>
      </trkpt>
      <trkpt lat="45.70039" lon="2.8523">
        <ele>928.2</ele>
        <time>2021-07-20T09:43:31Z</time>
      </trkpt>
      <trkpt lat="45.70034" lon="2.85228">
        <ele>928.4</ele>
        <time>2021-07-20T09:43:33Z</time>
      </trkpt>
      <trkpt lat="45.70029" lon="2.85225">
        <ele>928.6</ele>
        <time>2021-07-20T09:43:35Z</time>
      </trkpt>
      <trkpt lat="45.70024" lon="2.85223">
        <ele>928.7</ele>
        <time>2021-07-20T09:43:37Z</time>
      </trkpt>
      <trkpt lat="45.70018" lon="2.85222">
        <ele>928.9</ele>
        <time>2021-07-20T09:43:39Z</time>
      </trkpt>
      <trkpt lat="45.70013" lon="2.8522">
        <ele>929.1</ele>
        <time>2021-07-20T09:43:41Z</time>
      </trkpt>
      <trkpt lat="45.70007" lon="2.85218">
        <ele>929.3</ele>
        <time>2021-07-20T09:43:43Z</time>
      </trkpt>
      <trkpt lat="45.70002" lon="2.85216">
        <ele>929.5</ele>
        <time>2021-07-20T09:43:45Z</time>
      </trkpt>
      <trkpt lat="45.69996" lon="2.85214">
        <ele>929.7</ele>
        <time>2021-07-20T09:43:47Z</time>
      </trkpt>
      <trkpt lat="45.69991" lon="2.85211">
        <ele>929.8</ele>
        <time>2021-07-20T09:43:49Z</time>
      </trkpt>
      <trkpt lat="45.69986" lon="2.85209">
        <ele>930</ele>
        <time>2021-07-20T09:43:51Z</time>
      </trkpt>
      <trkpt lat="45.6998" lon="2.85208">
        <ele>930.2</ele>
        <time>2021-07-20T09:43:53Z</time>
      </trkpt>
      <trkpt lat="45.69975" lon="2.85205">
        <ele>930.4</ele>
        <time>2021-07-20T09:43:55Z</time>
      </trkpt>
      <trkpt lat="45.69969" lon="2.85202">
        <ele>930.6</ele>
        <time>2021-07-20T09:43:57Z</time>
      </trkpt>
      <trkpt lat="45.69963" lon="2.852">
        <ele>930.8</ele>
        <time>2021-07-20T09:43:59Z</time>
      </trkpt>
      <trkpt lat="45.69958" lon="2.85198">
        <ele>931</ele>
        <time>2021-07-20T09:44:01Z</time>
      </trkpt>
      <trkpt lat="45.69952" lon="2.85194">
        <ele>931.3</ele>
        <time>2021-07-20T09:44:03Z</time>
      </trkpt>
      <trkpt lat="45.69946" lon="2.85192">
        <ele>931.5</ele>
        <time>2021-07-20T09:44:05Z</time>
      </trkpt>
      <trkpt lat="45.69939" lon="2.8519">
        <ele>931.8</ele>
        <time>2021-07-20T09:44:07Z</time>
      </trkpt>
      <trkpt lat="45.69933" lon="2.85188">
        <ele>932.1</ele>
        <time>2021-07-20T09:44:09Z</time>
      </trkpt>
      <trkpt lat="45.69927" lon="2.85185">
        <ele>932.3</ele>
        <time>2021-07-20T09:44:11Z</time>
      </trkpt>
      <trkpt lat="45.69921" lon="2.85182">
        <ele>932.6</ele>
        <time>2021-07-20T09:44:13Z</time>
      </trkpt>
      <trkpt lat="45.69915" lon="2.8518">
        <ele>932.9</ele>
        <time>2021-07-20T09:44:15Z</time>
      </trkpt>
      <trkpt lat="45.69909" lon="2.85177">
        <ele>933</ele>
        <time>2021-07-20T09:44:17Z</time>
      </trkpt>
      <trkpt lat="45.69903" lon="2.85175">
        <ele>933.2</ele>
        <time>2021-07-20T09:44:19Z</time>
      </trkpt>
      <trkpt lat="45.69897" lon="2.85172">
        <ele>933.4</ele>
        <time>2021-07-20T09:44:21Z</time>
      </trkpt>
      <trkpt lat="45.69891" lon="2.85171">
        <ele>933.6</ele>
        <time>2021-07-20T09:44:23Z</time>
      </trkpt>
      <trkpt lat="45.69885" lon="2.85167">
        <ele>933.8</ele>
        <time>2021-07-20T09:44:25Z</time>
      </trkpt>
      <trkpt lat="45.69879" lon="2.85164">
        <ele>933.9</ele>
        <time>2021-07-20T09:44:27Z</time>
      </trkpt>
      <trkpt lat="45.69873" lon="2.85162">
        <ele>934</ele>
        <time>2021-07-20T09:44:29Z</time>
      </trkpt>
      <trkpt lat="45.69867" lon="2.8516">
        <ele>934.1</ele>
        <time>2021-07-20T09:44:31Z</time>
      </trkpt>
      <trkpt lat="45.69861" lon="2.85157">
        <ele>934.3</ele>
        <time>2021-07-20T09:44:33Z</time>
      </trkpt>
      <trkpt lat="45.69855" lon="2.85156">
        <ele>934.4</ele>
        <time>2021-07-20T09:44:35Z</time>
      </trkpt>
      <trkpt lat="45.69849" lon="2.85154">
        <ele>934.6</ele>
        <time>2021-07-20T09:44:37Z</time>
      </trkpt>
      <trkpt lat="45.69843" lon="2.85153">
        <ele>934.7</ele>
        <time>2021-07-20T09:44:39Z</time>
      </trkpt>
      <trkpt lat="45.69837" lon="2.8515">
        <ele>934.9</ele>
        <time>2021-07-20T09:44:41Z</time>
      </trkpt>
      <trkpt lat="45.69831" lon="2.85148">
        <ele>935.1</ele>
        <time>2021-07-20T09:44:43Z</time>
      </trkpt>
      <trkpt lat="45.69824" lon="2.85146">
        <ele>935.4</ele>
        <time>2021-07-20T09:44:45Z</time>
      </trkpt>
      <trkpt lat="45.69818" lon="2.85144">
        <ele>935.7</ele>
        <time>2021-07-20T09:44:47Z</time>
      </trkpt>
      <trkpt lat="45.69811" lon="2.85141">
        <ele>936</ele>
        <time>2021-07-20T09:44:49Z</time>
      </trkpt>
      <trkpt lat="45.69806" lon="2.85139">
        <ele>936.2</ele>
        <time>2021-07-20T09:44:51Z</time>
      </trkpt>
      <trkpt lat="45.698" lon="2.85137">
        <ele>936.5</ele>
        <time>2021-07-20T09:44:53Z</time>
      </trkpt>
      <trkpt lat="45.69794" lon="2.85134">
        <ele>936.7</ele>
        <time>2021-07-20T09:44:55Z</time>
      </trkpt>
      <trkpt lat="45.69788" lon="2.85132">
        <ele>937</ele>
        <time>2021-07-20T09:44:57Z</time>
      </trkpt>
      <trkpt lat="45.69781" lon="2.85129">
        <ele>937.2</ele>
        <time>2021-07-20T09:44:59Z</time>
      </trkpt>
      <trkpt lat="45.69776" lon="2.85127">
        <ele>937.4</ele>
        <time>2021-07-20T09:45:01Z</time>
      </trkpt>
      <trkpt lat="45.69769" lon="2.85125">
        <ele>937.7</ele>
        <time>2021-07-20T09:45:03Z</time>
      </trkpt>
      <trkpt lat="45.69763" lon="2.85123">
        <ele>937.9</ele>
        <time>2021-07-20T09:45:05Z</time>
      </trkpt>
      <trkpt lat="45.69757" lon="2.8512">
        <ele>938.2</ele>
        <time>2021-07-20T09:45:07Z</time>
      </trkpt>
      <trkpt lat="45.69751" lon="2.85117">
        <ele>938.4</ele>
        <time>2021-07-20T09:45:09Z</time>
      </trkpt>
      <trkpt lat="45.69745" lon="2.85114">
        <ele>938.7</ele>
        <time>2021-07-20T09:45:11Z</time>
      </trkpt>
      <trkpt lat="45.69739" lon="2.85111">
        <ele>938.9</ele>
        <time>2021-07-20T09:45:13Z</time>
      </trkpt>
      <trkpt lat="45.69732" lon="2.85109">
        <ele>939.2</ele>
        <time>2021-07-20T09:45:15Z</time>
      </trkpt>
      <trkpt lat="45.69726" lon="2.85106">
        <ele>939.5</ele>
        <time>2021-07-20T09:45:17Z</time>
      </trkpt>
      <trkpt lat="45.6972" lon="2.85104">
        <ele>939.8</ele>
        <time>2021-07-20T09:45:19Z</time>
      </trkpt>
      <trkpt lat="45.69714" lon="2.85101">
        <ele>940</ele>
        <time>2021-07-20T09:45:21Z</time>
      </trkpt>
      <trkpt lat="45.69707" lon="2.85099">
        <ele>940.3</ele>
        <time>2021-07-20T09:45:23Z</time>
      </trkpt>
      <trkpt lat="45.69701" lon="2.85097">
        <ele>940.6</ele>
        <time>2021-07-20T09:45:25Z</time>
      </trkpt>
      <trkpt lat="45.69695" lon="2.85095">
        <ele>940.9</ele>
        <time>2021-07-20T09:45:27Z</time>
      </trkpt>
      <trkpt lat="45.69689" lon="2.85092">
        <ele>941.1</ele>
        <time>2021-07-20T09:45:29Z</time>
      </trkpt>
      <trkpt lat="45.69682" lon="2.8509">
        <ele>941.4</ele>
        <time>2021-07-20T09:45:31Z</time>
      </trkpt>
      <trkpt lat="45.69676" lon="2.85087">
        <ele>941.7</ele>
        <time>2021-07-20T09:45:33Z</time>
      </trkpt>
      <trkpt lat="45.69669" lon="2.85085">
        <ele>941.9</ele>
        <time>2021-07-20T09:45:35Z</time>
      </trkpt>
      <trkpt lat="45.69663" lon="2.85081">
        <ele>942.1</ele>
        <time>2021-07-20T09:45:37Z</time>
      </trkpt>
      <trkpt lat="45.69657" lon="2.85078">
        <ele>942.3</ele>
        <time>2021-07-20T09:45:39Z</time>
      </trkpt>
      <trkpt lat="45.69651" lon="2.85075">
        <ele>942.4</ele>
        <time>2021-07-20T09:45:41Z</time>
      </trkpt>
      <trkpt lat="45.69645" lon="2.85072">
        <ele>942.6</ele>
        <time>2021-07-20T09:45:43Z</time>
      </trkpt>
      <trkpt lat="45.69639" lon="2.85069">
        <ele>942.7</ele>
        <time>2021-07-20T09:45:45Z</time>
      </trkpt>
      <trkpt lat="45.69633" lon="2.85065">
        <ele>942.9</ele>
        <time>2021-07-20T09:45:47Z</time>
      </trkpt>
      <trkpt lat="45.69627" lon="2.85062">
        <ele>943</ele>
        <time>2021-07-20T09:45:49Z</time>
      </trkpt>
      <trkpt lat="45.69622" lon="2.85059">
        <ele>943.2</ele>
        <time>2021-07-20T09:45:51Z</time>
      </trkpt>
      <trkpt lat="45.69616" lon="2.85055">
        <ele>943.3</ele>
        <time>2021-07-20T09:45:53Z</time>
      </trkpt>
      <trkpt lat="45.6961" lon="2.85052">
        <ele>943.4</ele>
        <time>2021-07-20T09:45:55Z</time>
      </trkpt>
      <trkpt lat="45.69604" lon="2.85049">
        <ele>943.5</ele>
        <time>2021-07-20T09:45:57Z</time>
      </trkpt>
      <trkpt lat="45.69599" lon="2.85046">
        <ele>943.6</ele>
        <time>2021-07-20T09:45:59Z</time>
      </trkpt>
      <trkpt lat="45.69594" lon="2.85042">
        <ele>943.7</ele>
        <time>2021-07-20T09:46:01Z</time>
      </trkpt>
      <trkpt lat="45.69589" lon="2.85037">
        <ele>943.7</ele>
        <time>2021-07-20T09:46:03Z</time>
      </trkpt>
      <trkpt lat="45.69582" lon="2.85032">
        <ele>943.8</ele>
        <time>2021-07-20T09:46:05Z</time>
      </trkpt>
      <trkpt lat="45.69576" lon="2.85027">
        <ele>943.9</ele>
        <time>2021-07-20T09:46:07Z</time>
      </trkpt>
      <trkpt lat="45.6957" lon="2.8502">
        <ele>944</ele>
        <time>2021-07-20T09:46:09Z</time>
      </trkpt>
      <trkpt lat="45.69562" lon="2.85014">
        <ele>944.1</ele>
        <time>2021-07-20T09:46:11Z</time>
      </trkpt>
      <trkpt lat="45.69555" lon="2.85008">
        <ele>944.2</ele>
        <time>2021-07-20T09:46:13Z</time>
      </trkpt>
      <trkpt lat="45.69547" lon="2.85001">
        <ele>944.3</ele>
        <time>2021-07-20T09:46:15Z</time>
      </trkpt>
      <trkpt lat="45.69539" lon="2.84994">
        <ele>944.2</ele>
        <time>2021-07-20T09:46:17Z</time>
      </trkpt>
      <trkpt lat="45.6953" lon="2.84989">
        <ele>944.1</ele>
        <time>2021-07-20T09:46:19Z</time>
      </trkpt>
      <trkpt lat="45.69522" lon="2.84984">
        <ele>944.1</ele>
        <time>2021-07-20T09:46:21Z</time>
      </trkpt>
      <trkpt lat="45.69515" lon="2.8498">
        <ele>944</ele>
        <time>2021-07-20T09:46:23Z</time>
      </trkpt>
      <trkpt lat="45.69509" lon="2.84979">
        <ele>944.1</ele>
        <time>2021-07-20T09:46:25Z</time>
      </trkpt>
      <trkpt lat="45.69505" lon="2.84975">
        <ele>944</ele>
        <time>2021-07-20T09:59:13Z</time>
      </trkpt>
      <trkpt lat="45.695" lon="2.84973">
        <ele>944.1</ele>
        <time>2021-07-20T09:59:17Z</time>
      </trkpt>
      <trkpt lat="45.69495" lon="2.84972">
        <ele>944.1</ele>
        <time>2021-07-20T09:59:19Z</time>
      </trkpt>
      <trkpt lat="45.6949" lon="2.8497">
        <ele>944.2</ele>
        <time>2021-07-20T09:59:21Z</time>
      </trkpt>
      <trkpt lat="45.69483" lon="2.84967">
        <ele>944.2</ele>
        <time>2021-07-20T09:59:23Z</time>
      </trkpt>
      <trkpt lat="45.69476" lon="2.84965">
        <ele>944.4</ele>
        <time>2021-07-20T09:59:25Z</time>
      </trkpt>
      <trkpt lat="45.69469" lon="2.84963">
        <ele>944.5</ele>
        <time>2021-07-20T09:59:27Z</time>
      </trkpt>
      <trkpt lat="45.69463" lon="2.8496">
        <ele>944.5</ele>
        <time>2021-07-20T09:59:29Z</time>
      </trkpt>
      <trkpt lat="45.69455" lon="2.84958">
        <ele>944.6</ele>
        <time>2021-07-20T09:59:31Z</time>
      </trkpt>
      <trkpt lat="45.69448" lon="2.84955">
        <ele>944.6</ele>
        <time>2021-07-20T09:59:33Z</time>
      </trkpt>
      <trkpt lat="45.69441" lon="2.84953">
        <ele>944.7</ele>
        <time>2021-07-20T09:59:35Z</time>
      </trkpt>
      <trkpt lat="45.69434" lon="2.84949">
        <ele>944.8</ele>
        <time>2021-07-20T09:59:37Z</time>
      </trkpt>
      <trkpt lat="45.69427" lon="2.84947">
        <ele>944.8</ele>
        <time>2021-07-20T09:59:39Z</time>
      </trkpt>
      <trkpt lat="45.6942" lon="2.84944">
        <ele>944.8</ele>
        <time>2021-07-20T09:59:41Z</time>
      </trkpt>
      <trkpt lat="45.69413" lon="2.8494">
        <ele>945.2</ele>
        <time>2021-07-20T09:59:43Z</time>
      </trkpt>
      <trkpt lat="45.69406" lon="2.84937">
        <ele>945.9</ele>
        <time>2021-07-20T09:59:45Z</time>
      </trkpt>
      <trkpt lat="45.69398" lon="2.84934">
        <ele>946.6</ele>
        <time>2021-07-20T09:59:47Z</time>
      </trkpt>
      <trkpt lat="45.69391" lon="2.8493">
        <ele>947.2</ele>
        <time>2021-07-20T09:59:49Z</time>
      </trkpt>
      <trkpt lat="45.69383" lon="2.84927">
        <ele>947.7</ele>
        <time>2021-07-20T09:59:51Z</time>
      </trkpt>
      <trkpt lat="45.69376" lon="2.84923">
        <ele>948.1</ele>
        <time>2021-07-20T09:59:53Z</time>
      </trkpt>
      <trkpt lat="45.6937" lon="2.8492">
        <ele>948.5</ele>
        <time>2021-07-20T09:59:55Z</time>
      </trkpt>
      <trkpt lat="45.69363" lon="2.84915">
        <ele>948.5</ele>
        <time>2021-07-20T09:59:57Z</time>
      </trkpt>
      <trkpt lat="45.69357" lon="2.8491">
        <ele>948.3</ele>
        <time>2021-07-20T09:59:59Z</time>
      </trkpt>
      <trkpt lat="45.6935" lon="2.84906">
        <ele>948.3</ele>
        <time>2021-07-20T10:00:01Z</time>
      </trkpt>
      <trkpt lat="45.69342" lon="2.84901">
        <ele>948.2</ele>
        <time>2021-07-20T10:00:03Z</time>
      </trkpt>
      <trkpt lat="45.69335" lon="2.84898">
        <ele>948.2</ele>
        <time>2021-07-20T10:00:05Z</time>
      </trkpt>
      <trkpt lat="45.69328" lon="2.84893">
        <ele>948</ele>
        <time>2021-07-20T10:00:07Z</time>
      </trkpt>
      <trkpt lat="45.69322" lon="2.84889">
        <ele>948</ele>
        <time>2021-07-20T10:00:09Z</time>
      </trkpt>
      <trkpt lat="45.69315" lon="2.84884">
        <ele>947.7</ele>
        <time>2021-07-20T10:00:11Z</time>
      </trkpt>
      <trkpt lat="45.6931" lon="2.84879">
        <ele>947.3</ele>
        <time>2021-07-20T10:00:13Z</time>
      </trkpt>
      <trkpt lat="45.69303" lon="2.84875">
        <ele>947</ele>
        <time>2021-07-20T10:00:15Z</time>
      </trkpt>
      <trkpt lat="45.69297" lon="2.84868">
        <ele>946.1</ele>
        <time>2021-07-20T10:00:17Z</time>
      </trkpt>
      <trkpt lat="45.6929" lon="2.84862">
        <ele>945.5</ele>
        <time>2021-07-20T10:00:19Z</time>
      </trkpt>
      <trkpt lat="45.69281" lon="2.84855">
        <ele>944.8</ele>
        <time>2021-07-20T10:00:21Z</time>
      </trkpt>
      <trkpt lat="45.69271" lon="2.84848">
        <ele>943.9</ele>
        <time>2021-07-20T10:00:23Z</time>
      </trkpt>
      <trkpt lat="45.69261" lon="2.84842">
        <ele>943.2</ele>
        <time>2021-07-20T10:00:25Z</time>
      </trkpt>
      <trkpt lat="45.6925" lon="2.84837">
        <ele>942.8</ele>
        <time>2021-07-20T10:00:27Z</time>
      </trkpt>
      <trkpt lat="45.69239" lon="2.84831">
        <ele>941.9</ele>
        <time>2021-07-20T10:00:29Z</time>
      </trkpt>
      <trkpt lat="45.69229" lon="2.84824">
        <ele>941.5</ele>
        <time>2021-07-20T10:00:31Z</time>
      </trkpt>
      <trkpt lat="45.6922" lon="2.84817">
        <ele>941.3</ele>
        <time>2021-07-20T10:00:33Z</time>
      </trkpt>
      <trkpt lat="45.6921" lon="2.8481">
        <ele>941.2</ele>
        <time>2021-07-20T10:00:35Z</time>
      </trkpt>
      <trkpt lat="45.69202" lon="2.84803">
        <ele>941.1</ele>
        <time>2021-07-20T10:00:37Z</time>
      </trkpt>
      <trkpt lat="45.69195" lon="2.84794">
        <ele>941.1</ele>
        <time>2021-07-20T10:00:39Z</time>
      </trkpt>
      <trkpt lat="45.69187" lon="2.84785">
        <ele>941.1</ele>
        <time>2021-07-20T10:00:41Z</time>
      </trkpt>
      <trkpt lat="45.69181" lon="2.84775">
        <ele>941.3</ele>
        <time>2021-07-20T10:00:43Z</time>
      </trkpt>
      <trkpt lat="45.69174" lon="2.84765">
        <ele>941.6</ele>
        <time>2021-07-20T10:00:45Z</time>
      </trkpt>
      <trkpt lat="45.69168" lon="2.84755">
        <ele>941.9</ele>
        <time>2021-07-20T10:00:47Z</time>
      </trkpt>
      <trkpt lat="45.69163" lon="2.84747">
        <ele>942.1</ele>
        <time>2021-07-20T10:00:49Z</time>
      </trkpt>
      <trkpt lat="45.69157" lon="2.84739">
        <ele>942.3</ele>
        <time>2021-07-20T10:00:51Z</time>
      </trkpt>
      <trkpt lat="45.6915" lon="2.84732">
        <ele>942.4</ele>
        <time>2021-07-20T10:00:53Z</time>
      </trkpt>
      <trkpt lat="45.69144" lon="2.84724">
        <ele>942.6</ele>
        <time>2021-07-20T10:00:55Z</time>
      </trkpt>
      <trkpt lat="45.69139" lon="2.84719">
        <ele>942.8</ele>
        <time>2021-07-20T10:00:57Z</time>
      </trkpt>
      <trkpt lat="45.69132" lon="2.84716">
        <ele>943</ele>
        <time>2021-07-20T10:00:59Z</time>
      </trkpt>
      <trkpt lat="45.69126" lon="2.84712">
        <ele>943.2</ele>
        <time>2021-07-20T10:01:01Z</time>
      </trkpt>
      <trkpt lat="45.6912" lon="2.84708">
        <ele>943.5</ele>
        <time>2021-07-20T10:01:03Z</time>
      </trkpt>
      <trkpt lat="45.69114" lon="2.84706">
        <ele>943.7</ele>
        <time>2021-07-20T10:01:05Z</time>
      </trkpt>
      <trkpt lat="45.69109" lon="2.84702">
        <ele>943.9</ele>
        <time>2021-07-20T10:01:07Z</time>
      </trkpt>
      <trkpt lat="45.69104" lon="2.847">
        <ele>944.1</ele>
        <time>2021-07-20T10:01:09Z</time>
      </trkpt>
      <trkpt lat="45.691" lon="2.84698">
        <ele>944.3</ele>
        <time>2021-07-20T10:01:11Z</time>
      </trkpt>
      <trkpt lat="45.69095" lon="2.84696">
        <ele>944.5</ele>
        <time>2021-07-20T10:01:13Z</time>
      </trkpt>
      <trkpt lat="45.6909" lon="2.84694">
        <ele>944.7</ele>
        <time>2021-07-20T10:01:15Z</time>
      </trkpt>
      <trkpt lat="45.69084" lon="2.84692">
        <ele>945</ele>
        <time>2021-07-20T10:01:17Z</time>
      </trkpt>
      <trkpt lat="45.69079" lon="2.84689">
        <ele>945.1</ele>
        <time>2021-07-20T10:01:19Z</time>
      </trkpt>
      <trkpt lat="45.69071" lon="2.84687">
        <ele>945.3</ele>
        <time>2021-07-20T10:01:23Z</time>
      </trkpt>
      <trkpt lat="45.69064" lon="2.84681">
        <ele>945.4</ele>
        <time>2021-07-20T10:01:27Z</time>
      </trkpt>
      <trkpt lat="45.69059" lon="2.84676">
        <ele>945.5</ele>
        <time>2021-07-20T10:01:29Z</time>
      </trkpt>
      <trkpt lat="45.69055" lon="2.8467">
        <ele>945.4</ele>
        <time>2021-07-20T10:01:31Z</time>
      </trkpt>
      <trkpt lat="45.6905" lon="2.84664">
        <ele>945.3</ele>
        <time>2021-07-20T10:01:33Z</time>
      </trkpt>
      <trkpt lat="45.69044" lon="2.84658">
        <ele>945.1</ele>
        <time>2021-07-20T10:01:35Z</time>
      </trkpt>
      <trkpt lat="45.69037" lon="2.84651">
        <ele>944.8</ele>
        <time>2021-07-20T10:01:37Z</time>
      </trkpt>
      <trkpt lat="45.6903" lon="2.84643">
        <ele>944.3</ele>
        <time>2021-07-20T10:01:39Z</time>
      </trkpt>
      <trkpt lat="45.69022" lon="2.84635">
        <ele>943.6</ele>
        <time>2021-07-20T10:01:41Z</time>
      </trkpt>
      <trkpt lat="45.69013" lon="2.84625">
        <ele>942.5</ele>
        <time>2021-07-20T10:01:43Z</time>
      </trkpt>
      <trkpt lat="45.69003" lon="2.84614">
        <ele>941.1</ele>
        <time>2021-07-20T10:01:45Z</time>
      </trkpt>
      <trkpt lat="45.68992" lon="2.84603">
        <ele>940.2</ele>
        <time>2021-07-20T10:01:47Z</time>
      </trkpt>
      <trkpt lat="45.6898" lon="2.84589">
        <ele>939.3</ele>
        <time>2021-07-20T10:01:49Z</time>
      </trkpt>
      <trkpt lat="45.68969" lon="2.84577">
        <ele>938.6</ele>
        <time>2021-07-20T10:01:51Z</time>
      </trkpt>
      <trkpt lat="45.68958" lon="2.84565">
        <ele>937.9</ele>
        <time>2021-07-20T10:01:53Z</time>
      </trkpt>
      <trkpt lat="45.68948" lon="2.84555">
        <ele>937.2</ele>
        <time>2021-07-20T10:01:55Z</time>
      </trkpt>
      <trkpt lat="45.68937" lon="2.84542">
        <ele>936.5</ele>
        <time>2021-07-20T10:01:57Z</time>
      </trkpt>
      <trkpt lat="45.68925" lon="2.84531">
        <ele>935.7</ele>
        <time>2021-07-20T10:01:59Z</time>
      </trkpt>
      <trkpt lat="45.68915" lon="2.8452">
        <ele>934.9</ele>
        <time>2021-07-20T10:02:01Z</time>
      </trkpt>
      <trkpt lat="45.68903" lon="2.84509">
        <ele>933.6</ele>
        <time>2021-07-20T10:02:03Z</time>
      </trkpt>
      <trkpt lat="45.68895" lon="2.84501">
        <ele>932.6</ele>
        <time>2021-07-20T10:02:05Z</time>
      </trkpt>
      <trkpt lat="45.68885" lon="2.84492">
        <ele>931.1</ele>
        <time>2021-07-20T10:02:07Z</time>
      </trkpt>
      <trkpt lat="45.68875" lon="2.84486">
        <ele>930.1</ele>
        <time>2021-07-20T10:02:09Z</time>
      </trkpt>
      <trkpt lat="45.68865" lon="2.84485">
        <ele>929.7</ele>
        <time>2021-07-20T10:02:11Z</time>
      </trkpt>
      <trkpt lat="45.68859" lon="2.84486">
        <ele>929.6</ele>
        <time>2021-07-20T10:02:13Z</time>
      </trkpt>
      <trkpt lat="45.68853" lon="2.84485">
        <ele>929.3</ele>
        <time>2021-07-20T10:02:15Z</time>
      </trkpt>
      <trkpt lat="45.68848" lon="2.84484">
        <ele>929</ele>
        <time>2021-07-20T10:02:17Z</time>
      </trkpt>
      <trkpt lat="45.68842" lon="2.84482">
        <ele>928.7</ele>
        <time>2021-07-20T10:02:19Z</time>
      </trkpt>
      <trkpt lat="45.68834" lon="2.84481">
        <ele>928.3</ele>
        <time>2021-07-20T10:02:21Z</time>
      </trkpt>
      <trkpt lat="45.68825" lon="2.8448">
        <ele>928</ele>
        <time>2021-07-20T10:02:23Z</time>
      </trkpt>
      <trkpt lat="45.68815" lon="2.84477">
        <ele>927.4</ele>
        <time>2021-07-20T10:02:25Z</time>
      </trkpt>
      <trkpt lat="45.68803" lon="2.84471">
        <ele>926.1</ele>
        <time>2021-07-20T10:02:27Z</time>
      </trkpt>
      <trkpt lat="45.6879" lon="2.84466">
        <ele>924.8</ele>
        <time>2021-07-20T10:02:29Z</time>
      </trkpt>
      <trkpt lat="45.68776" lon="2.84465">
        <ele>924</ele>
        <time>2021-07-20T10:02:31Z</time>
      </trkpt>
      <trkpt lat="45.68764" lon="2.84466">
        <ele>923.8</ele>
        <time>2021-07-20T10:02:33Z</time>
      </trkpt>
      <trkpt lat="45.68749" lon="2.84462">
        <ele>922.4</ele>
        <time>2021-07-20T10:02:35Z</time>
      </trkpt>
      <trkpt lat="45.68735" lon="2.84457">
        <ele>919.7</ele>
        <time>2021-07-20T10:02:37Z</time>
      </trkpt>
      <trkpt lat="45.6872" lon="2.8445">
        <ele>916.6</ele>
        <time>2021-07-20T10:02:39Z</time>
      </trkpt>
      <trkpt lat="45.68708" lon="2.84444">
        <ele>913.9</ele>
        <time>2021-07-20T10:02:41Z</time>
      </trkpt>
      <trkpt lat="45.68696" lon="2.8444">
        <ele>911.6</ele>
        <time>2021-07-20T10:02:43Z</time>
      </trkpt>
      <trkpt lat="45.68685" lon="2.84437">
        <ele>909.6</ele>
        <time>2021-07-20T10:02:45Z</time>
      </trkpt>
      <trkpt lat="45.68677" lon="2.8443">
        <ele>906.8</ele>
        <time>2021-07-20T10:02:47Z</time>
      </trkpt>
      <trkpt lat="45.6867" lon="2.84423">
        <ele>904.1</ele>
        <time>2021-07-20T10:02:49Z</time>
      </trkpt>
      <trkpt lat="45.68665" lon="2.8442">
        <ele>902.9</ele>
        <time>2021-07-20T10:02:53Z</time>
      </trkpt>
      <trkpt lat="45.68665" lon="2.8443">
        <ele>905.8</ele>
        <time>2021-07-20T10:04:09Z</time>
      </trkpt>
      <trkpt lat="45.68662" lon="2.84438">
        <ele>907.6</ele>
        <time>2021-07-20T10:04:11Z</time>
      </trkpt>
      <trkpt lat="45.68655" lon="2.84439">
        <ele>907.3</ele>
        <time>2021-07-20T10:04:23Z</time>
      </trkpt>
      <trkpt lat="45.68649" lon="2.84441">
        <ele>907</ele>
        <time>2021-07-20T10:04:25Z</time>
      </trkpt>
      <trkpt lat="45.68638" lon="2.84441">
        <ele>906.1</ele>
        <time>2021-07-20T10:04:27Z</time>
      </trkpt>
      <trkpt lat="45.68627" lon="2.84442">
        <ele>905.1</ele>
        <time>2021-07-20T10:04:29Z</time>
      </trkpt>
      <trkpt lat="45.68612" lon="2.84438">
        <ele>902.6</ele>
        <time>2021-07-20T10:04:31Z</time>
      </trkpt>
      <trkpt lat="45.68595" lon="2.84433">
        <ele>899.5</ele>
        <time>2021-07-20T10:04:33Z</time>
      </trkpt>
      <trkpt lat="45.68578" lon="2.84429">
        <ele>896.9</ele>
        <time>2021-07-20T10:04:35Z</time>
      </trkpt>
      <trkpt lat="45.68563" lon="2.84423">
        <ele>894.6</ele>
        <time>2021-07-20T10:04:37Z</time>
      </trkpt>
      <trkpt lat="45.68548" lon="2.8442">
        <ele>893.1</ele>
        <time>2021-07-20T10:04:39Z</time>
      </trkpt>
      <trkpt lat="45.68531" lon="2.84415">
        <ele>891.1</ele>
        <time>2021-07-20T10:04:41Z</time>
      </trkpt>
      <trkpt lat="45.68518" lon="2.84412">
        <ele>889.8</ele>
        <time>2021-07-20T10:04:43Z</time>
      </trkpt>
      <trkpt lat="45.68506" lon="2.84408">
        <ele>888.5</ele>
        <time>2021-07-20T10:04:45Z</time>
      </trkpt>
      <trkpt lat="45.68499" lon="2.84403">
        <ele>887.3</ele>
        <time>2021-07-20T10:04:47Z</time>
      </trkpt>
      <trkpt lat="45.68494" lon="2.84396">
        <ele>886.1</ele>
        <time>2021-07-20T10:04:49Z</time>
      </trkpt>
      <trkpt lat="45.68486" lon="2.84393">
        <ele>885.7</ele>
        <time>2021-07-20T10:04:51Z</time>
      </trkpt>
      <trkpt lat="45.68477" lon="2.84391">
        <ele>885.8</ele>
        <time>2021-07-20T10:04:53Z</time>
      </trkpt>
      <trkpt lat="45.68469" lon="2.84392">
        <ele>886.2</ele>
        <time>2021-07-20T10:04:55Z</time>
      </trkpt>
      <trkpt lat="45.68461" lon="2.84392">
        <ele>886.7</ele>
        <time>2021-07-20T10:04:57Z</time>
      </trkpt>
      <trkpt lat="45.68453" lon="2.84394">
        <ele>887.3</ele>
        <time>2021-07-20T10:04:59Z</time>
      </trkpt>
      <trkpt lat="45.68445" lon="2.84395">
        <ele>887.8</ele>
        <time>2021-07-20T10:05:01Z</time>
      </trkpt>
      <trkpt lat="45.68438" lon="2.84396">
        <ele>888.1</ele>
        <time>2021-07-20T10:05:03Z</time>
      </trkpt>
      <trkpt lat="45.68431" lon="2.84395">
        <ele>888.3</ele>
        <time>2021-07-20T10:05:05Z</time>
      </trkpt>
      <trkpt lat="45.68424" lon="2.84393">
        <ele>888.3</ele>
        <time>2021-07-20T10:05:07Z</time>
      </trkpt>
      <trkpt lat="45.68417" lon="2.8439">
        <ele>888.1</ele>
        <time>2021-07-20T10:05:09Z</time>
      </trkpt>
      <trkpt lat="45.68411" lon="2.84387">
        <ele>888.2</ele>
        <time>2021-07-20T10:05:11Z</time>
      </trkpt>
      <trkpt lat="45.68406" lon="2.84385">
        <ele>888.2</ele>
        <time>2021-07-20T10:05:13Z</time>
      </trkpt>
      <trkpt lat="45.684" lon="2.84382">
        <ele>888.2</ele>
        <time>2021-07-20T10:05:15Z</time>
      </trkpt>
      <trkpt lat="45.68395" lon="2.84379">
        <ele>888.2</ele>
        <time>2021-07-20T10:05:17Z</time>
      </trkpt>
      <trkpt lat="45.6839" lon="2.84377">
        <ele>888.3</ele>
        <time>2021-07-20T10:05:19Z</time>
      </trkpt>
      <trkpt lat="45.68384" lon="2.84376">
        <ele>888.4</ele>
        <time>2021-07-20T10:05:21Z</time>
      </trkpt>
      <trkpt lat="45.68379" lon="2.84373">
        <ele>888.4</ele>
        <time>2021-07-20T10:05:23Z</time>
      </trkpt>
      <trkpt lat="45.68374" lon="2.84371">
        <ele>888.5</ele>
        <time>2021-07-20T10:05:25Z</time>
      </trkpt>
      <trkpt lat="45.68368" lon="2.84369">
        <ele>888.5</ele>
        <time>2021-07-20T10:05:27Z</time>
      </trkpt>
      <trkpt lat="45.68363" lon="2.84366">
        <ele>888.5</ele>
        <time>2021-07-20T10:05:29Z</time>
      </trkpt>
      <trkpt lat="45.68358" lon="2.84364">
        <ele>888.4</ele>
        <time>2021-07-20T10:05:31Z</time>
      </trkpt>
      <trkpt lat="45.68353" lon="2.84363">
        <ele>888.6</ele>
        <time>2021-07-20T10:05:33Z</time>
      </trkpt>
      <trkpt lat="45.68348" lon="2.8436">
        <ele>888.4</ele>
        <time>2021-07-20T10:05:37Z</time>
      </trkpt>
      <trkpt lat="45.68344" lon="2.84353">
        <ele>887.7</ele>
        <time>2021-07-20T10:05:51Z</time>
      </trkpt>
      <trkpt lat="45.68338" lon="2.8435">
        <ele>887.6</ele>
        <time>2021-07-20T10:05:55Z</time>
      </trkpt>
      <trkpt lat="45.68332" lon="2.8435">
        <ele>887.8</ele>
        <time>2021-07-20T10:05:57Z</time>
      </trkpt>
      <trkpt lat="45.68325" lon="2.84346">
        <ele>887.7</ele>
        <time>2021-07-20T10:06:01Z</time>
      </trkpt>
      <trkpt lat="45.68319" lon="2.8434">
        <ele>887.1</ele>
        <time>2021-07-20T10:06:05Z</time>
      </trkpt>
      <trkpt lat="45.68312" lon="2.84338">
        <ele>887.2</ele>
        <time>2021-07-20T10:06:07Z</time>
      </trkpt>
      <trkpt lat="45.68306" lon="2.84338">
        <ele>887.5</ele>
        <time>2021-07-20T10:06:09Z</time>
      </trkpt>
      <trkpt lat="45.683" lon="2.84335">
        <ele>887.3</ele>
        <time>2021-07-20T10:06:11Z</time>
      </trkpt>
      <trkpt lat="45.68295" lon="2.84331">
        <ele>887</ele>
        <time>2021-07-20T10:06:13Z</time>
      </trkpt>
      <trkpt lat="45.68291" lon="2.84329">
        <ele>886.9</ele>
        <time>2021-07-20T10:06:15Z</time>
      </trkpt>
      <trkpt lat="45.68286" lon="2.84326">
        <ele>886.8</ele>
        <time>2021-07-20T10:06:17Z</time>
      </trkpt>
      <trkpt lat="45.68283" lon="2.84321">
        <ele>886.3</ele>
        <time>2021-07-20T10:06:21Z</time>
      </trkpt>
      <trkpt lat="45.68289" lon="2.84321">
        <ele>885.9</ele>
        <time>2021-07-20T10:06:27Z</time>
      </trkpt>
      <trkpt lat="45.68296" lon="2.84323">
        <ele>885.8</ele>
        <time>2021-07-20T10:06:29Z</time>
      </trkpt>
      <trkpt lat="45.68303" lon="2.84319">
        <ele>884.9</ele>
        <time>2021-07-20T10:06:33Z</time>
      </trkpt>
      <trkpt lat="45.68305" lon="2.84312">
        <ele>883.7</ele>
        <time>2021-07-20T10:06:35Z</time>
      </trkpt>
      <trkpt lat="45.68306" lon="2.84301">
        <ele>882.2</ele>
        <time>2021-07-20T10:06:37Z</time>
      </trkpt>
      <trkpt lat="45.68307" lon="2.84295">
        <ele>881.3</ele>
        <time>2021-07-20T10:06:39Z</time>
      </trkpt>
      <trkpt lat="45.68313" lon="2.84288">
        <ele>880.1</ele>
        <time>2021-07-20T10:06:43Z</time>
      </trkpt>
      <trkpt lat="45.68317" lon="2.84281">
        <ele>879</ele>
        <time>2021-07-20T10:06:45Z</time>
      </trkpt>
      <trkpt lat="45.68319" lon="2.84274">
        <ele>877.9</ele>
        <time>2021-07-20T10:06:47Z</time>
      </trkpt>
      <trkpt lat="45.68321" lon="2.84268">
        <ele>877</ele>
        <time>2021-07-20T10:06:49Z</time>
      </trkpt>
      <trkpt lat="45.68323" lon="2.84261">
        <ele>876</ele>
        <time>2021-07-20T10:06:51Z</time>
      </trkpt>
      <trkpt lat="45.68322" lon="2.84255">
        <ele>875.2</ele>
        <time>2021-07-20T10:06:53Z</time>
      </trkpt>
      <trkpt lat="45.68321" lon="2.84247">
        <ele>874.6</ele>
        <time>2021-07-20T10:06:55Z</time>
      </trkpt>
      <trkpt lat="45.68318" lon="2.8424">
        <ele>874.7</ele>
        <time>2021-07-20T10:06:57Z</time>
      </trkpt>
      <trkpt lat="45.68316" lon="2.84231">
        <ele>874.8</ele>
        <time>2021-07-20T10:06:59Z</time>
      </trkpt>
      <trkpt lat="45.68313" lon="2.84223">
        <ele>874.8</ele>
        <time>2021-07-20T10:07:01Z</time>
      </trkpt>
      <trkpt lat="45.68311" lon="2.84215">
        <ele>874.8</ele>
        <time>2021-07-20T10:07:03Z</time>
      </trkpt>
      <trkpt lat="45.68309" lon="2.84204">
        <ele>874.8</ele>
        <time>2021-07-20T10:07:07Z</time>
      </trkpt>
      <trkpt lat="45.6831" lon="2.84195">
        <ele>874.8</ele>
        <time>2021-07-20T10:07:11Z</time>
      </trkpt>
      <trkpt lat="45.68314" lon="2.84187">
        <ele>874.6</ele>
        <time>2021-07-20T10:07:15Z</time>
      </trkpt>
      <trkpt lat="45.68318" lon="2.84179">
        <ele>874.4</ele>
        <time>2021-07-20T10:07:19Z</time>
      </trkpt>
      <trkpt lat="45.68312" lon="2.84179">
        <ele>874.6</ele>
        <time>2021-07-20T10:07:23Z</time>
      </trkpt>
      <trkpt lat="45.68306" lon="2.84182">
        <ele>874.8</ele>
        <time>2021-07-20T10:07:27Z</time>
      </trkpt>
      <trkpt lat="45.68298" lon="2.84183">
        <ele>875</ele>
        <time>2021-07-20T10:07:31Z</time>
      </trkpt>
      <trkpt lat="45.68292" lon="2.84179">
        <ele>875.1</ele>
        <time>2021-07-20T10:07:35Z</time>
      </trkpt>
      <trkpt lat="45.68286" lon="2.84174">
        <ele>875.2</ele>
        <time>2021-07-20T10:07:39Z</time>
      </trkpt>
      <trkpt lat="45.68282" lon="2.84167">
        <ele>875.2</ele>
        <time>2021-07-20T10:07:43Z</time>
      </trkpt>
      <trkpt lat="45.68278" lon="2.84161">
        <ele>876.5</ele>
        <time>2021-07-20T10:07:47Z</time>
      </trkpt>
      <trkpt lat="45.68282" lon="2.84155">
        <ele>877.9</ele>
        <time>2021-07-20T10:07:55Z</time>
      </trkpt>
      <trkpt lat="45.68277" lon="2.84156">
        <ele>877.8</ele>
        <time>2021-07-20T10:08:57Z</time>
      </trkpt>
      <trkpt lat="45.68275" lon="2.84149">
        <ele>879.3</ele>
        <time>2021-07-20T10:09:33Z</time>
      </trkpt>
      <trkpt lat="45.68241" lon="2.8416">
        <ele>877.8</ele>
        <time>2021-07-20T10:16:47Z</time>
      </trkpt>
      <trkpt lat="45.68249" lon="2.8415">
        <ele>879.4</ele>
        <time>2021-07-20T10:16:54Z</time>
      </trkpt>
      <trkpt lat="45.68253" lon="2.84153">
        <ele>878.7</ele>
        <time>2021-07-20T10:17:03Z</time>
      </trkpt>
      <trkpt lat="45.68258" lon="2.84156">
        <ele>878</ele>
        <time>2021-07-20T10:20:43Z</time>
      </trkpt>
      <trkpt lat="45.68264" lon="2.84156">
        <ele>877.9</ele>
        <time>2021-07-20T10:20:47Z</time>
      </trkpt>
      <trkpt lat="45.6827" lon="2.84153">
        <ele>878.5</ele>
        <time>2021-07-20T10:20:51Z</time>
      </trkpt>
      <trkpt lat="45.68275" lon="2.84155">
        <ele>878</ele>
        <time>2021-07-20T10:20:57Z</time>
      </trkpt>
      <trkpt lat="45.6828" lon="2.84155">
        <ele>878</ele>
        <time>2021-07-20T10:21:11Z</time>
      </trkpt>
      <trkpt lat="45.68282" lon="2.84162">
        <ele>876.3</ele>
        <time>2021-07-20T10:21:37Z</time>
      </trkpt>
      <trkpt lat="45.68285" lon="2.84169">
        <ele>875.2</ele>
        <time>2021-07-20T10:21:43Z</time>
      </trkpt>
      <trkpt lat="45.68288" lon="2.84174">
        <ele>875.2</ele>
        <time>2021-07-20T10:21:47Z</time>
      </trkpt>
      <trkpt lat="45.68291" lon="2.8418">
        <ele>875.2</ele>
        <time>2021-07-20T10:21:51Z</time>
      </trkpt>
      <trkpt lat="45.68295" lon="2.84186">
        <ele>875.1</ele>
        <time>2021-07-20T10:21:55Z</time>
      </trkpt>
      <trkpt lat="45.68301" lon="2.84189">
        <ele>875</ele>
        <time>2021-07-20T10:22:01Z</time>
      </trkpt>
      <trkpt lat="45.68305" lon="2.84191">
        <ele>874.9</ele>
        <time>2021-07-20T10:22:05Z</time>
      </trkpt>
      <trkpt lat="45.68307" lon="2.84199">
        <ele>874.9</ele>
        <time>2021-07-20T10:22:13Z</time>
      </trkpt>
      <trkpt lat="45.68312" lon="2.84197">
        <ele>874.7</ele>
        <time>2021-07-20T10:22:25Z</time>
      </trkpt>
      <trkpt lat="45.68315" lon="2.84192">
        <ele>874.6</ele>
        <time>2021-07-20T10:22:41Z</time>
      </trkpt>
      <trkpt lat="45.68314" lon="2.84184">
        <ele>874.6</ele>
        <time>2021-07-20T10:22:47Z</time>
      </trkpt>
      <trkpt lat="45.6831" lon="2.8418">
        <ele>874.7</ele>
        <time>2021-07-20T10:23:05Z</time>
      </trkpt>
      <trkpt lat="45.68305" lon="2.84182">
        <ele>874.8</ele>
        <time>2021-07-20T10:23:31Z</time>
      </trkpt>
      <trkpt lat="45.68302" lon="2.84177">
        <ele>874.8</ele>
        <time>2021-07-20T10:23:55Z</time>
      </trkpt>
      <trkpt lat="45.68306" lon="2.84172">
        <ele>874.7</ele>
        <time>2021-07-20T10:25:33Z</time>
      </trkpt>
      <trkpt lat="45.68308" lon="2.84165">
        <ele>874.9</ele>
        <time>2021-07-20T10:28:15Z</time>
      </trkpt>
      <trkpt lat="45.68309" lon="2.84173">
        <ele>874.6</ele>
        <time>2021-07-20T10:28:19Z</time>
      </trkpt>
      <trkpt lat="45.68309" lon="2.8418">
        <ele>874.7</ele>
        <time>2021-07-20T10:29:07Z</time>
      </trkpt>
      <trkpt lat="45.68304" lon="2.84183">
        <ele>874.9</ele>
        <time>2021-07-20T10:29:13Z</time>
      </trkpt>
      <trkpt lat="45.68299" lon="2.84181">
        <ele>875</ele>
        <time>2021-07-20T10:29:17Z</time>
      </trkpt>
      <trkpt lat="45.68293" lon="2.8418">
        <ele>875.1</ele>
        <time>2021-07-20T10:29:21Z</time>
      </trkpt>
      <trkpt lat="45.68287" lon="2.84177">
        <ele>875.3</ele>
        <time>2021-07-20T10:29:27Z</time>
      </trkpt>
      <trkpt lat="45.68283" lon="2.84172">
        <ele>875.3</ele>
        <time>2021-07-20T10:29:31Z</time>
      </trkpt>
      <trkpt lat="45.68281" lon="2.84167">
        <ele>875.3</ele>
        <time>2021-07-20T10:29:35Z</time>
      </trkpt>
      <trkpt lat="45.68281" lon="2.84159">
        <ele>877.1</ele>
        <time>2021-07-20T10:29:41Z</time>
      </trkpt>
      <trkpt lat="45.68283" lon="2.84152">
        <ele>878.5</ele>
        <time>2021-07-20T10:29:53Z</time>
      </trkpt>
      <trkpt lat="45.68278" lon="2.8415">
        <ele>879.2</ele>
        <time>2021-07-20T10:31:09Z</time>
      </trkpt>
      <trkpt lat="45.68274" lon="2.84148">
        <ele>879.6</ele>
        <time>2021-07-20T10:31:15Z</time>
      </trkpt>
      <trkpt lat="45.68271" lon="2.84142">
        <ele>880.8</ele>
        <time>2021-07-20T10:31:21Z</time>
      </trkpt>
      <trkpt lat="45.68267" lon="2.8414">
        <ele>881.3</ele>
        <time>2021-07-20T10:31:59Z</time>
      </trkpt>
      <trkpt lat="45.68272" lon="2.84149">
        <ele>879.5</ele>
        <time>2021-07-20T10:36:53Z</time>
      </trkpt>
      <trkpt lat="45.68277" lon="2.8415">
        <ele>879</ele>
        <time>2021-07-20T10:36:57Z</time>
      </trkpt>
      <trkpt lat="45.6828" lon="2.84155">
        <ele>877.9</ele>
        <time>2021-07-20T10:37:03Z</time>
      </trkpt>
      <trkpt lat="45.68281" lon="2.84166">
        <ele>875.4</ele>
        <time>2021-07-20T10:38:49Z</time>
      </trkpt>
      <trkpt lat="45.68277" lon="2.8417">
        <ele>875.4</ele>
        <time>2021-07-20T10:38:53Z</time>
      </trkpt>
      <trkpt lat="45.68275" lon="2.84164">
        <ele>876.1</ele>
        <time>2021-07-20T10:39:13Z</time>
      </trkpt>
      <trkpt lat="45.68268" lon="2.84163">
        <ele>876.3</ele>
        <time>2021-07-20T10:39:25Z</time>
      </trkpt>
      <trkpt lat="45.68262" lon="2.84164">
        <ele>876.4</ele>
        <time>2021-07-20T10:39:29Z</time>
      </trkpt>
      <trkpt lat="45.68258" lon="2.84164">
        <ele>876.4</ele>
        <time>2021-07-20T10:39:47Z</time>
      </trkpt>
      <trkpt lat="45.68256" lon="2.84173">
        <ele>876</ele>
        <time>2021-07-20T10:39:51Z</time>
      </trkpt>
      <trkpt lat="45.68257" lon="2.84184">
        <ele>876.2</ele>
        <time>2021-07-20T10:39:55Z</time>
      </trkpt>
      <trkpt lat="45.68255" lon="2.84193">
        <ele>876.5</ele>
        <time>2021-07-20T10:39:57Z</time>
      </trkpt>
      <trkpt lat="45.68253" lon="2.84204">
        <ele>876.8</ele>
        <time>2021-07-20T10:39:59Z</time>
      </trkpt>
      <trkpt lat="45.6825" lon="2.84213">
        <ele>877.1</ele>
        <time>2021-07-20T10:40:01Z</time>
      </trkpt>
      <trkpt lat="45.68246" lon="2.84215">
        <ele>877.4</ele>
        <time>2021-07-20T10:40:05Z</time>
      </trkpt>
      <trkpt lat="45.68241" lon="2.84218">
        <ele>877.7</ele>
        <time>2021-07-20T10:40:09Z</time>
      </trkpt>
      <trkpt lat="45.68236" lon="2.8422">
        <ele>877.9</ele>
        <time>2021-07-20T10:40:13Z</time>
      </trkpt>
      <trkpt lat="45.68231" lon="2.8422">
        <ele>878.2</ele>
        <time>2021-07-20T10:40:17Z</time>
      </trkpt>
      <trkpt lat="45.68225" lon="2.84219">
        <ele>878.5</ele>
        <time>2021-07-20T10:40:21Z</time>
      </trkpt>
      <trkpt lat="45.68219" lon="2.84218">
        <ele>878.7</ele>
        <time>2021-07-20T10:40:25Z</time>
      </trkpt>
      <trkpt lat="45.68213" lon="2.84217">
        <ele>879</ele>
        <time>2021-07-20T10:40:29Z</time>
      </trkpt>
      <trkpt lat="45.68207" lon="2.84218">
        <ele>879.3</ele>
        <time>2021-07-20T10:40:33Z</time>
      </trkpt>
      <trkpt lat="45.68202" lon="2.84219">
        <ele>879.6</ele>
        <time>2021-07-20T10:40:37Z</time>
      </trkpt>
      <trkpt lat="45.68196" lon="2.84221">
        <ele>879.9</ele>
        <time>2021-07-20T10:40:41Z</time>
      </trkpt>
      <trkpt lat="45.6819" lon="2.84224">
        <ele>880.3</ele>
        <time>2021-07-20T10:40:45Z</time>
      </trkpt>
      <trkpt lat="45.68183" lon="2.84227">
        <ele>880.7</ele>
        <time>2021-07-20T10:40:49Z</time>
      </trkpt>
      <trkpt lat="45.68175" lon="2.8423">
        <ele>881.1</ele>
        <time>2021-07-20T10:40:53Z</time>
      </trkpt>
      <trkpt lat="45.68169" lon="2.84232">
        <ele>881.5</ele>
        <time>2021-07-20T10:40:57Z</time>
      </trkpt>
      <trkpt lat="45.68162" lon="2.84234">
        <ele>881.9</ele>
        <time>2021-07-20T10:41:01Z</time>
      </trkpt>
      <trkpt lat="45.68156" lon="2.84238">
        <ele>882.3</ele>
        <time>2021-07-20T10:41:05Z</time>
      </trkpt>
      <trkpt lat="45.68152" lon="2.84244">
        <ele>882.6</ele>
        <time>2021-07-20T10:41:09Z</time>
      </trkpt>
      <trkpt lat="45.68148" lon="2.8425">
        <ele>883</ele>
        <time>2021-07-20T10:41:13Z</time>
      </trkpt>
      <trkpt lat="45.68144" lon="2.84255">
        <ele>884</ele>
        <time>2021-07-20T10:41:17Z</time>
      </trkpt>
      <trkpt lat="45.68141" lon="2.84261">
        <ele>885.1</ele>
        <time>2021-07-20T10:41:21Z</time>
      </trkpt>
      <trkpt lat="45.68138" lon="2.84266">
        <ele>886.2</ele>
        <time>2021-07-20T10:41:25Z</time>
      </trkpt>
      <trkpt lat="45.68133" lon="2.84272">
        <ele>887.4</ele>
        <time>2021-07-20T10:41:29Z</time>
      </trkpt>
      <trkpt lat="45.68128" lon="2.84277">
        <ele>888.5</ele>
        <time>2021-07-20T10:41:33Z</time>
      </trkpt>
      <trkpt lat="45.68123" lon="2.84282">
        <ele>889.8</ele>
        <time>2021-07-20T10:41:37Z</time>
      </trkpt>
      <trkpt lat="45.68114" lon="2.84284">
        <ele>890.6</ele>
        <time>2021-07-20T10:41:41Z</time>
      </trkpt>
      <trkpt lat="45.68105" lon="2.84285">
        <ele>891.4</ele>
        <time>2021-07-20T10:41:45Z</time>
      </trkpt>
      <trkpt lat="45.68097" lon="2.84283">
        <ele>891.4</ele>
        <time>2021-07-20T10:41:49Z</time>
      </trkpt>
      <trkpt lat="45.68089" lon="2.84279">
        <ele>891.2</ele>
        <time>2021-07-20T10:41:53Z</time>
      </trkpt>
      <trkpt lat="45.68085" lon="2.84278">
        <ele>891.2</ele>
        <time>2021-07-20T10:41:55Z</time>
      </trkpt>
      <trkpt lat="45.68077" lon="2.84274">
        <ele>891.5</ele>
        <time>2021-07-20T10:41:59Z</time>
      </trkpt>
      <trkpt lat="45.6807" lon="2.84274">
        <ele>892.3</ele>
        <time>2021-07-20T10:42:03Z</time>
      </trkpt>
      <trkpt lat="45.68063" lon="2.84272">
        <ele>892.9</ele>
        <time>2021-07-20T10:42:07Z</time>
      </trkpt>
      <trkpt lat="45.68056" lon="2.84269">
        <ele>893.3</ele>
        <time>2021-07-20T10:42:11Z</time>
      </trkpt>
      <trkpt lat="45.68048" lon="2.84268">
        <ele>894.1</ele>
        <time>2021-07-20T10:42:15Z</time>
      </trkpt>
      <trkpt lat="45.68041" lon="2.84265">
        <ele>894.6</ele>
        <time>2021-07-20T10:42:19Z</time>
      </trkpt>
      <trkpt lat="45.68034" lon="2.84261">
        <ele>894.6</ele>
        <time>2021-07-20T10:42:23Z</time>
      </trkpt>
      <trkpt lat="45.68028" lon="2.84257">
        <ele>894.7</ele>
        <time>2021-07-20T10:42:27Z</time>
      </trkpt>
      <trkpt lat="45.68021" lon="2.84254">
        <ele>895</ele>
        <time>2021-07-20T10:42:31Z</time>
      </trkpt>
      <trkpt lat="45.68016" lon="2.84249">
        <ele>894.8</ele>
        <time>2021-07-20T10:42:35Z</time>
      </trkpt>
      <trkpt lat="45.6801" lon="2.84244">
        <ele>895.2</ele>
        <time>2021-07-20T10:42:39Z</time>
      </trkpt>
      <trkpt lat="45.68003" lon="2.84241">
        <ele>895.6</ele>
        <time>2021-07-20T10:42:43Z</time>
      </trkpt>
      <trkpt lat="45.67997" lon="2.84237">
        <ele>895.7</ele>
        <time>2021-07-20T10:42:47Z</time>
      </trkpt>
      <trkpt lat="45.67991" lon="2.84233">
        <ele>895.7</ele>
        <time>2021-07-20T10:42:51Z</time>
      </trkpt>
      <trkpt lat="45.67984" lon="2.84229">
        <ele>895.6</ele>
        <time>2021-07-20T10:42:55Z</time>
      </trkpt>
      <trkpt lat="45.67977" lon="2.84224">
        <ele>895.4</ele>
        <time>2021-07-20T10:42:59Z</time>
      </trkpt>
      <trkpt lat="45.6797" lon="2.84219">
        <ele>895.2</ele>
        <time>2021-07-20T10:43:03Z</time>
      </trkpt>
      <trkpt lat="45.67962" lon="2.84215">
        <ele>895.1</ele>
        <time>2021-07-20T10:43:07Z</time>
      </trkpt>
      <trkpt lat="45.67955" lon="2.8421">
        <ele>894.9</ele>
        <time>2021-07-20T10:43:11Z</time>
      </trkpt>
      <trkpt lat="45.67947" lon="2.84207">
        <ele>894.8</ele>
        <time>2021-07-20T10:43:15Z</time>
      </trkpt>
      <trkpt lat="45.67942" lon="2.84205">
        <ele>894.8</ele>
        <time>2021-07-20T10:43:17Z</time>
      </trkpt>
      <trkpt lat="45.67937" lon="2.84203">
        <ele>894.9</ele>
        <time>2021-07-20T10:43:19Z</time>
      </trkpt>
      <trkpt lat="45.67932" lon="2.84203">
        <ele>895.1</ele>
        <time>2021-07-20T10:43:21Z</time>
      </trkpt>
      <trkpt lat="45.67927" lon="2.84202">
        <ele>895.2</ele>
        <time>2021-07-20T10:43:23Z</time>
      </trkpt>
      <trkpt lat="45.67921" lon="2.84201">
        <ele>895.3</ele>
        <time>2021-07-20T10:43:25Z</time>
      </trkpt>
      <trkpt lat="45.67916" lon="2.84201">
        <ele>895.6</ele>
        <time>2021-07-20T10:43:27Z</time>
      </trkpt>
      <trkpt lat="45.6791" lon="2.84201">
        <ele>896</ele>
        <time>2021-07-20T10:43:29Z</time>
      </trkpt>
      <trkpt lat="45.67905" lon="2.84201">
        <ele>896.5</ele>
        <time>2021-07-20T10:43:31Z</time>
      </trkpt>
      <trkpt lat="45.67899" lon="2.84201">
        <ele>897</ele>
        <time>2021-07-20T10:43:33Z</time>
      </trkpt>
      <trkpt lat="45.67892" lon="2.84201">
        <ele>897.4</ele>
        <time>2021-07-20T10:43:35Z</time>
      </trkpt>
      <trkpt lat="45.67886" lon="2.84201">
        <ele>897.9</ele>
        <time>2021-07-20T10:43:37Z</time>
      </trkpt>
      <trkpt lat="45.67879" lon="2.842">
        <ele>898.4</ele>
        <time>2021-07-20T10:43:39Z</time>
      </trkpt>
      <trkpt lat="45.67873" lon="2.842">
        <ele>898.9</ele>
        <time>2021-07-20T10:43:41Z</time>
      </trkpt>
      <trkpt lat="45.67867" lon="2.84202">
        <ele>899.6</ele>
        <time>2021-07-20T10:43:43Z</time>
      </trkpt>
      <trkpt lat="45.67861" lon="2.84203">
        <ele>900.1</ele>
        <time>2021-07-20T10:43:45Z</time>
      </trkpt>
      <trkpt lat="45.67856" lon="2.84204">
        <ele>900.7</ele>
        <time>2021-07-20T10:43:47Z</time>
      </trkpt>
      <trkpt lat="45.67848" lon="2.84206">
        <ele>901.6</ele>
        <time>2021-07-20T10:43:51Z</time>
      </trkpt>
      <trkpt lat="45.67841" lon="2.84206">
        <ele>902.2</ele>
        <time>2021-07-20T10:43:55Z</time>
      </trkpt>
      <trkpt lat="45.67832" lon="2.84206">
        <ele>902.8</ele>
        <time>2021-07-20T10:44:01Z</time>
      </trkpt>
      <trkpt lat="45.67827" lon="2.84207">
        <ele>903.3</ele>
        <time>2021-07-20T10:44:05Z</time>
      </trkpt>
      <trkpt lat="45.67822" lon="2.84207">
        <ele>903.6</ele>
        <time>2021-07-20T10:44:09Z</time>
      </trkpt>
      <trkpt lat="45.67816" lon="2.84207">
        <ele>904.1</ele>
        <time>2021-07-20T10:44:13Z</time>
      </trkpt>
      <trkpt lat="45.67811" lon="2.84206">
        <ele>904.3</ele>
        <time>2021-07-20T10:44:17Z</time>
      </trkpt>
      <trkpt lat="45.67805" lon="2.84207">
        <ele>904.9</ele>
        <time>2021-07-20T10:44:21Z</time>
      </trkpt>
      <trkpt lat="45.678" lon="2.84207">
        <ele>905.3</ele>
        <time>2021-07-20T10:44:25Z</time>
      </trkpt>
      <trkpt lat="45.67794" lon="2.84207">
        <ele>905.7</ele>
        <time>2021-07-20T10:44:29Z</time>
      </trkpt>
      <trkpt lat="45.67789" lon="2.84208">
        <ele>906.2</ele>
        <time>2021-07-20T10:44:33Z</time>
      </trkpt>
      <trkpt lat="45.67784" lon="2.8421">
        <ele>906.8</ele>
        <time>2021-07-20T10:44:37Z</time>
      </trkpt>
      <trkpt lat="45.67778" lon="2.84211">
        <ele>907.3</ele>
        <time>2021-07-20T10:44:41Z</time>
      </trkpt>
      <trkpt lat="45.67773" lon="2.84211">
        <ele>907.7</ele>
        <time>2021-07-20T10:44:45Z</time>
      </trkpt>
      <trkpt lat="45.67768" lon="2.84212">
        <ele>908.3</ele>
        <time>2021-07-20T10:44:49Z</time>
      </trkpt>
      <trkpt lat="45.67762" lon="2.84213">
        <ele>908.9</ele>
        <time>2021-07-20T10:44:53Z</time>
      </trkpt>
      <trkpt lat="45.67757" lon="2.84214">
        <ele>909.4</ele>
        <time>2021-07-20T10:44:57Z</time>
      </trkpt>
      <trkpt lat="45.67752" lon="2.84214">
        <ele>909.8</ele>
        <time>2021-07-20T10:45:01Z</time>
      </trkpt>
      <trkpt lat="45.67747" lon="2.84214">
        <ele>910.1</ele>
        <time>2021-07-20T10:45:05Z</time>
      </trkpt>
      <trkpt lat="45.67741" lon="2.84215">
        <ele>910.4</ele>
        <time>2021-07-20T10:45:09Z</time>
      </trkpt>
      <trkpt lat="45.67736" lon="2.84213">
        <ele>910.4</ele>
        <time>2021-07-20T10:45:13Z</time>
      </trkpt>
      <trkpt lat="45.67731" lon="2.84214">
        <ele>910.6</ele>
        <time>2021-07-20T10:45:17Z</time>
      </trkpt>
      <trkpt lat="45.67725" lon="2.84214">
        <ele>910.8</ele>
        <time>2021-07-20T10:45:21Z</time>
      </trkpt>
      <trkpt lat="45.67718" lon="2.84214">
        <ele>911.1</ele>
        <time>2021-07-20T10:45:27Z</time>
      </trkpt>
      <trkpt lat="45.67713" lon="2.84214">
        <ele>911.3</ele>
        <time>2021-07-20T10:45:31Z</time>
      </trkpt>
      <trkpt lat="45.67709" lon="2.84216">
        <ele>911.8</ele>
        <time>2021-07-20T10:45:35Z</time>
      </trkpt>
      <trkpt lat="45.67704" lon="2.84219">
        <ele>912.4</ele>
        <time>2021-07-20T10:45:39Z</time>
      </trkpt>
      <trkpt lat="45.67699" lon="2.84221">
        <ele>913</ele>
        <time>2021-07-20T10:45:43Z</time>
      </trkpt>
      <trkpt lat="45.67696" lon="2.84225">
        <ele>913.7</ele>
        <time>2021-07-20T10:45:47Z</time>
      </trkpt>
      <trkpt lat="45.6769" lon="2.8423">
        <ele>914.9</ele>
        <time>2021-07-20T10:45:53Z</time>
      </trkpt>
      <trkpt lat="45.67686" lon="2.84234">
        <ele>915.6</ele>
        <time>2021-07-20T10:45:57Z</time>
      </trkpt>
      <trkpt lat="45.67682" lon="2.84239">
        <ele>916.6</ele>
        <time>2021-07-20T10:46:01Z</time>
      </trkpt>
      <trkpt lat="45.67679" lon="2.84243">
        <ele>917.4</ele>
        <time>2021-07-20T10:46:05Z</time>
      </trkpt>
      <trkpt lat="45.67675" lon="2.84246">
        <ele>918.1</ele>
        <time>2021-07-20T10:46:09Z</time>
      </trkpt>
      <trkpt lat="45.6767" lon="2.84249">
        <ele>918.7</ele>
        <time>2021-07-20T10:46:13Z</time>
      </trkpt>
      <trkpt lat="45.67664" lon="2.84255">
        <ele>920.1</ele>
        <time>2021-07-20T10:46:19Z</time>
      </trkpt>
      <trkpt lat="45.67661" lon="2.84261">
        <ele>921.2</ele>
        <time>2021-07-20T10:46:23Z</time>
      </trkpt>
      <trkpt lat="45.67656" lon="2.84267">
        <ele>922.3</ele>
        <time>2021-07-20T10:46:27Z</time>
      </trkpt>
      <trkpt lat="45.67652" lon="2.84271">
        <ele>923.1</ele>
        <time>2021-07-20T10:46:31Z</time>
      </trkpt>
      <trkpt lat="45.67647" lon="2.84276">
        <ele>923.9</ele>
        <time>2021-07-20T10:46:35Z</time>
      </trkpt>
      <trkpt lat="45.67644" lon="2.84282">
        <ele>925</ele>
        <time>2021-07-20T10:46:39Z</time>
      </trkpt>
      <trkpt lat="45.6764" lon="2.84288">
        <ele>925.9</ele>
        <time>2021-07-20T10:46:43Z</time>
      </trkpt>
      <trkpt lat="45.67636" lon="2.84292">
        <ele>926.6</ele>
        <time>2021-07-20T10:46:47Z</time>
      </trkpt>
      <trkpt lat="45.6763" lon="2.84299">
        <ele>927.5</ele>
        <time>2021-07-20T10:46:53Z</time>
      </trkpt>
      <trkpt lat="45.67627" lon="2.84305">
        <ele>928.5</ele>
        <time>2021-07-20T10:46:57Z</time>
      </trkpt>
      <trkpt lat="45.67624" lon="2.84311">
        <ele>929.4</ele>
        <time>2021-07-20T10:47:01Z</time>
      </trkpt>
      <trkpt lat="45.6762" lon="2.84316">
        <ele>930.1</ele>
        <time>2021-07-20T10:47:05Z</time>
      </trkpt>
      <trkpt lat="45.67616" lon="2.84322">
        <ele>931</ele>
        <time>2021-07-20T10:47:09Z</time>
      </trkpt>
      <trkpt lat="45.67612" lon="2.84328">
        <ele>931.6</ele>
        <time>2021-07-20T10:47:13Z</time>
      </trkpt>
      <trkpt lat="45.67608" lon="2.84333">
        <ele>932.3</ele>
        <time>2021-07-20T10:47:17Z</time>
      </trkpt>
      <trkpt lat="45.67604" lon="2.84338">
        <ele>933.1</ele>
        <time>2021-07-20T10:47:21Z</time>
      </trkpt>
      <trkpt lat="45.67601" lon="2.84344">
        <ele>933.9</ele>
        <time>2021-07-20T10:47:25Z</time>
      </trkpt>
      <trkpt lat="45.67597" lon="2.8435">
        <ele>934.9</ele>
        <time>2021-07-20T10:47:29Z</time>
      </trkpt>
      <trkpt lat="45.67594" lon="2.84355">
        <ele>935.4</ele>
        <time>2021-07-20T10:47:33Z</time>
      </trkpt>
      <trkpt lat="45.67591" lon="2.84362">
        <ele>936.5</ele>
        <time>2021-07-20T10:47:37Z</time>
      </trkpt>
      <trkpt lat="45.67588" lon="2.84368">
        <ele>937.3</ele>
        <time>2021-07-20T10:47:41Z</time>
      </trkpt>
      <trkpt lat="45.67584" lon="2.84374">
        <ele>937.9</ele>
        <time>2021-07-20T10:47:45Z</time>
      </trkpt>
      <trkpt lat="45.67581" lon="2.84379">
        <ele>938.6</ele>
        <time>2021-07-20T10:47:49Z</time>
      </trkpt>
      <trkpt lat="45.67578" lon="2.84385">
        <ele>939.4</ele>
        <time>2021-07-20T10:47:53Z</time>
      </trkpt>
      <trkpt lat="45.67575" lon="2.84392">
        <ele>940.3</ele>
        <time>2021-07-20T10:47:57Z</time>
      </trkpt>
      <trkpt lat="45.67572" lon="2.84398">
        <ele>941.1</ele>
        <time>2021-07-20T10:48:01Z</time>
      </trkpt>
      <trkpt lat="45.67569" lon="2.84404">
        <ele>941.8</ele>
        <time>2021-07-20T10:48:05Z</time>
      </trkpt>
      <trkpt lat="45.67565" lon="2.84411">
        <ele>942.6</ele>
        <time>2021-07-20T10:48:11Z</time>
      </trkpt>
      <trkpt lat="45.67562" lon="2.84418">
        <ele>943.5</ele>
        <time>2021-07-20T10:48:15Z</time>
      </trkpt>
      <trkpt lat="45.67559" lon="2.84425">
        <ele>944.4</ele>
        <time>2021-07-20T10:48:19Z</time>
      </trkpt>
      <trkpt lat="45.67556" lon="2.84431">
        <ele>945</ele>
        <time>2021-07-20T10:48:23Z</time>
      </trkpt>
      <trkpt lat="45.67553" lon="2.84438">
        <ele>946</ele>
        <time>2021-07-20T10:48:27Z</time>
      </trkpt>
      <trkpt lat="45.67551" lon="2.84445">
        <ele>947</ele>
        <time>2021-07-20T10:48:31Z</time>
      </trkpt>
      <trkpt lat="45.67548" lon="2.84452">
        <ele>947.8</ele>
        <time>2021-07-20T10:48:35Z</time>
      </trkpt>
      <trkpt lat="45.67546" lon="2.84461">
        <ele>949.1</ele>
        <time>2021-07-20T10:48:39Z</time>
      </trkpt>
      <trkpt lat="45.67543" lon="2.84468">
        <ele>950</ele>
        <time>2021-07-20T10:48:43Z</time>
      </trkpt>
      <trkpt lat="45.6754" lon="2.84475">
        <ele>950.9</ele>
        <time>2021-07-20T10:48:47Z</time>
      </trkpt>
      <trkpt lat="45.67538" lon="2.84481">
        <ele>951.6</ele>
        <time>2021-07-20T10:48:51Z</time>
      </trkpt>
      <trkpt lat="45.67536" lon="2.84489">
        <ele>952.6</ele>
        <time>2021-07-20T10:48:55Z</time>
      </trkpt>
      <trkpt lat="45.67532" lon="2.84495">
        <ele>953.2</ele>
        <time>2021-07-20T10:48:59Z</time>
      </trkpt>
      <trkpt lat="45.67529" lon="2.84501">
        <ele>953.8</ele>
        <time>2021-07-20T10:49:03Z</time>
      </trkpt>
      <trkpt lat="45.67526" lon="2.84507">
        <ele>955</ele>
        <time>2021-07-20T10:49:07Z</time>
      </trkpt>
      <trkpt lat="45.67523" lon="2.84512">
        <ele>955.9</ele>
        <time>2021-07-20T10:49:11Z</time>
      </trkpt>
      <trkpt lat="45.67519" lon="2.84518">
        <ele>956.7</ele>
        <time>2021-07-20T10:49:15Z</time>
      </trkpt>
      <trkpt lat="45.67518" lon="2.84525">
        <ele>958.2</ele>
        <time>2021-07-20T10:49:19Z</time>
      </trkpt>
      <trkpt lat="45.67515" lon="2.84531">
        <ele>959.3</ele>
        <time>2021-07-20T10:49:23Z</time>
      </trkpt>
      <trkpt lat="45.67512" lon="2.84536">
        <ele>960.1</ele>
        <time>2021-07-20T10:49:27Z</time>
      </trkpt>
      <trkpt lat="45.67509" lon="2.84543">
        <ele>961.1</ele>
        <time>2021-07-20T10:49:33Z</time>
      </trkpt>
      <trkpt lat="45.67505" lon="2.84548">
        <ele>961.6</ele>
        <time>2021-07-20T10:49:37Z</time>
      </trkpt>
      <trkpt lat="45.67502" lon="2.84554">
        <ele>962.2</ele>
        <time>2021-07-20T10:49:43Z</time>
      </trkpt>
      <trkpt lat="45.67499" lon="2.84559">
        <ele>963.2</ele>
        <time>2021-07-20T10:49:47Z</time>
      </trkpt>
      <trkpt lat="45.67495" lon="2.84564">
        <ele>964.3</ele>
        <time>2021-07-20T10:49:55Z</time>
      </trkpt>
      <trkpt lat="45.67494" lon="2.84572">
        <ele>966.1</ele>
        <time>2021-07-20T10:50:03Z</time>
      </trkpt>
      <trkpt lat="45.67491" lon="2.84577">
        <ele>967.2</ele>
        <time>2021-07-20T10:50:13Z</time>
      </trkpt>
      <trkpt lat="45.6749" lon="2.84585">
        <ele>969.3</ele>
        <time>2021-07-20T10:50:21Z</time>
      </trkpt>
      <trkpt lat="45.67486" lon="2.84591">
        <ele>971.6</ele>
        <time>2021-07-20T10:50:29Z</time>
      </trkpt>
      <trkpt lat="45.67481" lon="2.84596">
        <ele>973.6</ele>
        <time>2021-07-20T10:50:39Z</time>
      </trkpt>
      <trkpt lat="45.67477" lon="2.84601">
        <ele>975.5</ele>
        <time>2021-07-20T10:50:51Z</time>
      </trkpt>
      <trkpt lat="45.67474" lon="2.84606">
        <ele>977.2</ele>
        <time>2021-07-20T10:51:01Z</time>
      </trkpt>
      <trkpt lat="45.67469" lon="2.8461">
        <ele>978.5</ele>
        <time>2021-07-20T10:51:15Z</time>
      </trkpt>
      <trkpt lat="45.67466" lon="2.84614">
        <ele>979.9</ele>
        <time>2021-07-20T10:51:27Z</time>
      </trkpt>
      <trkpt lat="45.67463" lon="2.84619">
        <ele>981.5</ele>
        <time>2021-07-20T10:51:33Z</time>
      </trkpt>
      <trkpt lat="45.67462" lon="2.84626">
        <ele>984.1</ele>
        <time>2021-07-20T10:51:43Z</time>
      </trkpt>
      <trkpt lat="45.67457" lon="2.84629">
        <ele>985.1</ele>
        <time>2021-07-20T10:51:55Z</time>
      </trkpt>
      <trkpt lat="45.67454" lon="2.84634">
        <ele>986.7</ele>
        <time>2021-07-20T10:52:01Z</time>
      </trkpt>
      <trkpt lat="45.6745" lon="2.8464">
        <ele>988.6</ele>
        <time>2021-07-20T10:52:09Z</time>
      </trkpt>
      <trkpt lat="45.67448" lon="2.84647">
        <ele>990.7</ele>
        <time>2021-07-20T10:52:17Z</time>
      </trkpt>
      <trkpt lat="45.67444" lon="2.84652">
        <ele>992.1</ele>
        <time>2021-07-20T10:52:25Z</time>
      </trkpt>
      <trkpt lat="45.67438" lon="2.84653">
        <ele>992</ele>
        <time>2021-07-20T10:58:51Z</time>
      </trkpt>
      <trkpt lat="45.67434" lon="2.84656">
        <ele>992.4</ele>
        <time>2021-07-20T10:59:09Z</time>
      </trkpt>
      <trkpt lat="45.67429" lon="2.84657">
        <ele>992.4</ele>
        <time>2021-07-20T10:59:15Z</time>
      </trkpt>
      <trkpt lat="45.67424" lon="2.84659">
        <ele>992.2</ele>
        <time>2021-07-20T10:59:19Z</time>
      </trkpt>
      <trkpt lat="45.67419" lon="2.84658">
        <ele>991.4</ele>
        <time>2021-07-20T10:59:25Z</time>
      </trkpt>
      <trkpt lat="45.67413" lon="2.84658">
        <ele>991.4</ele>
        <time>2021-07-20T10:59:31Z</time>
      </trkpt>
      <trkpt lat="45.67407" lon="2.84659">
        <ele>992.5</ele>
        <time>2021-07-20T10:59:37Z</time>
      </trkpt>
      <trkpt lat="45.67401" lon="2.84659">
        <ele>992.9</ele>
        <time>2021-07-20T10:59:43Z</time>
      </trkpt>
      <trkpt lat="45.67395" lon="2.84657">
        <ele>993.1</ele>
        <time>2021-07-20T10:59:49Z</time>
      </trkpt>
      <trkpt lat="45.6739" lon="2.84656">
        <ele>993.5</ele>
        <time>2021-07-20T10:59:53Z</time>
      </trkpt>
      <trkpt lat="45.67386" lon="2.84656">
        <ele>994</ele>
        <time>2021-07-20T10:59:57Z</time>
      </trkpt>
      <trkpt lat="45.67379" lon="2.84654">
        <ele>994.2</ele>
        <time>2021-07-20T11:00:03Z</time>
      </trkpt>
      <trkpt lat="45.67374" lon="2.8465">
        <ele>993.7</ele>
        <time>2021-07-20T11:00:09Z</time>
      </trkpt>
      <trkpt lat="45.67368" lon="2.84645">
        <ele>993.1</ele>
        <time>2021-07-20T11:00:15Z</time>
      </trkpt>
      <trkpt lat="45.67363" lon="2.84641">
        <ele>992.7</ele>
        <time>2021-07-20T11:00:19Z</time>
      </trkpt>
      <trkpt lat="45.6736" lon="2.84635">
        <ele>991.7</ele>
        <time>2021-07-20T11:00:23Z</time>
      </trkpt>
      <trkpt lat="45.67356" lon="2.8463">
        <ele>990.9</ele>
        <time>2021-07-20T11:00:27Z</time>
      </trkpt>
      <trkpt lat="45.67353" lon="2.84623">
        <ele>989.9</ele>
        <time>2021-07-20T11:00:31Z</time>
      </trkpt>
      <trkpt lat="45.67349" lon="2.84618">
        <ele>989.3</ele>
        <time>2021-07-20T11:00:35Z</time>
      </trkpt>
      <trkpt lat="45.67345" lon="2.84613">
        <ele>988.9</ele>
        <time>2021-07-20T11:00:39Z</time>
      </trkpt>
      <trkpt lat="45.67339" lon="2.84608">
        <ele>989</ele>
        <time>2021-07-20T11:00:45Z</time>
      </trkpt>
      <trkpt lat="45.67335" lon="2.84606">
        <ele>989.3</ele>
        <time>2021-07-20T11:00:49Z</time>
      </trkpt>
      <trkpt lat="45.6733" lon="2.84604">
        <ele>988.7</ele>
        <time>2021-07-20T11:00:53Z</time>
      </trkpt>
      <trkpt lat="45.67324" lon="2.84601">
        <ele>987.2</ele>
        <time>2021-07-20T11:00:59Z</time>
      </trkpt>
      <trkpt lat="45.67318" lon="2.846">
        <ele>986.1</ele>
        <time>2021-07-20T11:01:05Z</time>
      </trkpt>
      <trkpt lat="45.67313" lon="2.84602">
        <ele>985.7</ele>
        <time>2021-07-20T11:01:09Z</time>
      </trkpt>
      <trkpt lat="45.67307" lon="2.84606">
        <ele>985.7</ele>
        <time>2021-07-20T11:01:15Z</time>
      </trkpt>
      <trkpt lat="45.67305" lon="2.84612">
        <ele>986.4</ele>
        <time>2021-07-20T11:01:19Z</time>
      </trkpt>
      <trkpt lat="45.67304" lon="2.84618">
        <ele>987.5</ele>
        <time>2021-07-20T11:01:23Z</time>
      </trkpt>
      <trkpt lat="45.67305" lon="2.84628">
        <ele>989.4</ele>
        <time>2021-07-20T11:01:29Z</time>
      </trkpt>
      <trkpt lat="45.67307" lon="2.84637">
        <ele>991.6</ele>
        <time>2021-07-20T11:01:35Z</time>
      </trkpt>
      <trkpt lat="45.6731" lon="2.84645">
        <ele>993.7</ele>
        <time>2021-07-20T11:01:41Z</time>
      </trkpt>
      <trkpt lat="45.67311" lon="2.84652">
        <ele>995.1</ele>
        <time>2021-07-20T11:01:45Z</time>
      </trkpt>
      <trkpt lat="45.67312" lon="2.8466">
        <ele>996.9</ele>
        <time>2021-07-20T11:01:51Z</time>
      </trkpt>
      <trkpt lat="45.67312" lon="2.84669">
        <ele>998.5</ele>
        <time>2021-07-20T11:01:57Z</time>
      </trkpt>
      <trkpt lat="45.67312" lon="2.84678">
        <ele>999.7</ele>
        <time>2021-07-20T11:02:03Z</time>
      </trkpt>
      <trkpt lat="45.67311" lon="2.84688">
        <ele>1001.1</ele>
        <time>2021-07-20T11:02:09Z</time>
      </trkpt>
      <trkpt lat="45.67309" lon="2.84697">
        <ele>1002</ele>
        <time>2021-07-20T11:02:15Z</time>
      </trkpt>
      <trkpt lat="45.67308" lon="2.84704">
        <ele>1002.7</ele>
        <time>2021-07-20T11:02:19Z</time>
      </trkpt>
      <trkpt lat="45.67306" lon="2.84711">
        <ele>1003.4</ele>
        <time>2021-07-20T11:02:23Z</time>
      </trkpt>
      <trkpt lat="45.67304" lon="2.84719">
        <ele>1004.4</ele>
        <time>2021-07-20T11:02:29Z</time>
      </trkpt>
      <trkpt lat="45.67304" lon="2.84725">
        <ele>1005.2</ele>
        <time>2021-07-20T11:02:33Z</time>
      </trkpt>
      <trkpt lat="45.67303" lon="2.84732">
        <ele>1006.1</ele>
        <time>2021-07-20T11:02:37Z</time>
      </trkpt>
      <trkpt lat="45.67301" lon="2.8474">
        <ele>1006.9</ele>
        <time>2021-07-20T11:02:43Z</time>
      </trkpt>
      <trkpt lat="45.67299" lon="2.84747">
        <ele>1007.6</ele>
        <time>2021-07-20T11:02:49Z</time>
      </trkpt>
      <trkpt lat="45.67296" lon="2.84756">
        <ele>1008.4</ele>
        <time>2021-07-20T11:02:55Z</time>
      </trkpt>
      <trkpt lat="45.67294" lon="2.84766">
        <ele>1009.7</ele>
        <time>2021-07-20T11:03:01Z</time>
      </trkpt>
      <trkpt lat="45.67293" lon="2.84775">
        <ele>1010.7</ele>
        <time>2021-07-20T11:03:07Z</time>
      </trkpt>
      <trkpt lat="45.67291" lon="2.84781">
        <ele>1011.3</ele>
        <time>2021-07-20T11:03:11Z</time>
      </trkpt>
      <trkpt lat="45.67289" lon="2.84787">
        <ele>1011.9</ele>
        <time>2021-07-20T11:03:15Z</time>
      </trkpt>
      <trkpt lat="45.67285" lon="2.84796">
        <ele>1012.7</ele>
        <time>2021-07-20T11:03:21Z</time>
      </trkpt>
      <trkpt lat="45.67283" lon="2.84802">
        <ele>1013.3</ele>
        <time>2021-07-20T11:03:25Z</time>
      </trkpt>
      <trkpt lat="45.67281" lon="2.8481">
        <ele>1014.1</ele>
        <time>2021-07-20T11:03:29Z</time>
      </trkpt>
      <trkpt lat="45.6728" lon="2.84816">
        <ele>1014.9</ele>
        <time>2021-07-20T11:03:33Z</time>
      </trkpt>
      <trkpt lat="45.67278" lon="2.84823">
        <ele>1015.5</ele>
        <time>2021-07-20T11:03:37Z</time>
      </trkpt>
      <trkpt lat="45.67276" lon="2.84829">
        <ele>1016.1</ele>
        <time>2021-07-20T11:03:41Z</time>
      </trkpt>
      <trkpt lat="45.67272" lon="2.84837">
        <ele>1016.6</ele>
        <time>2021-07-20T11:03:45Z</time>
      </trkpt>
      <trkpt lat="45.6727" lon="2.84844">
        <ele>1016.9</ele>
        <time>2021-07-20T11:03:47Z</time>
      </trkpt>
      <trkpt lat="45.67269" lon="2.8485">
        <ele>1017.2</ele>
        <time>2021-07-20T11:03:49Z</time>
      </trkpt>
      <trkpt lat="45.67267" lon="2.84856">
        <ele>1017.6</ele>
        <time>2021-07-20T11:03:51Z</time>
      </trkpt>
      <trkpt lat="45.67265" lon="2.84862">
        <ele>1017.9</ele>
        <time>2021-07-20T11:03:53Z</time>
      </trkpt>
      <trkpt lat="45.67262" lon="2.84872">
        <ele>1018.5</ele>
        <time>2021-07-20T11:03:57Z</time>
      </trkpt>
      <trkpt lat="45.67259" lon="2.84878">
        <ele>1018.8</ele>
        <time>2021-07-20T11:03:59Z</time>
      </trkpt>
      <trkpt lat="45.67256" lon="2.84888">
        <ele>1019.4</ele>
        <time>2021-07-20T11:04:03Z</time>
      </trkpt>
      <trkpt lat="45.67252" lon="2.84897">
        <ele>1020</ele>
        <time>2021-07-20T11:04:07Z</time>
      </trkpt>
      <trkpt lat="45.67251" lon="2.84904">
        <ele>1020.7</ele>
        <time>2021-07-20T11:08:11Z</time>
      </trkpt>
      <trkpt lat="45.67249" lon="2.84912">
        <ele>1021.4</ele>
        <time>2021-07-20T11:08:17Z</time>
      </trkpt>
      <trkpt lat="45.67245" lon="2.84922">
        <ele>1021.9</ele>
        <time>2021-07-20T11:08:21Z</time>
      </trkpt>
      <trkpt lat="45.67243" lon="2.84929">
        <ele>1022.2</ele>
        <time>2021-07-20T11:08:23Z</time>
      </trkpt>
      <trkpt lat="45.67241" lon="2.84935">
        <ele>1022.5</ele>
        <time>2021-07-20T11:08:25Z</time>
      </trkpt>
      <trkpt lat="45.67237" lon="2.84945">
        <ele>1023.1</ele>
        <time>2021-07-20T11:08:29Z</time>
      </trkpt>
      <trkpt lat="45.67234" lon="2.84952">
        <ele>1023.4</ele>
        <time>2021-07-20T11:08:31Z</time>
      </trkpt>
      <trkpt lat="45.6723" lon="2.84958">
        <ele>1023.7</ele>
        <time>2021-07-20T11:08:33Z</time>
      </trkpt>
      <trkpt lat="45.67226" lon="2.84965">
        <ele>1024.1</ele>
        <time>2021-07-20T11:08:35Z</time>
      </trkpt>
      <trkpt lat="45.67221" lon="2.84971">
        <ele>1024.4</ele>
        <time>2021-07-20T11:08:37Z</time>
      </trkpt>
      <trkpt lat="45.67216" lon="2.84977">
        <ele>1024.7</ele>
        <time>2021-07-20T11:08:39Z</time>
      </trkpt>
      <trkpt lat="45.67211" lon="2.84982">
        <ele>1025.1</ele>
        <time>2021-07-20T11:08:41Z</time>
      </trkpt>
      <trkpt lat="45.67206" lon="2.84987">
        <ele>1025.5</ele>
        <time>2021-07-20T11:08:43Z</time>
      </trkpt>
      <trkpt lat="45.67199" lon="2.84991">
        <ele>1025.7</ele>
        <time>2021-07-20T11:08:45Z</time>
      </trkpt>
      <trkpt lat="45.67192" lon="2.84993">
        <ele>1025.7</ele>
        <time>2021-07-20T11:08:47Z</time>
      </trkpt>
      <trkpt lat="45.67186" lon="2.84993">
        <ele>1025.5</ele>
        <time>2021-07-20T11:08:49Z</time>
      </trkpt>
      <trkpt lat="45.6718" lon="2.84992">
        <ele>1025.2</ele>
        <time>2021-07-20T11:08:51Z</time>
      </trkpt>
      <trkpt lat="45.67174" lon="2.84992">
        <ele>1024.9</ele>
        <time>2021-07-20T11:08:53Z</time>
      </trkpt>
      <trkpt lat="45.67168" lon="2.84992">
        <ele>1024.8</ele>
        <time>2021-07-20T11:08:55Z</time>
      </trkpt>
      <trkpt lat="45.67163" lon="2.84992">
        <ele>1025</ele>
        <time>2021-07-20T11:08:57Z</time>
      </trkpt>
      <trkpt lat="45.67158" lon="2.84993">
        <ele>1025.3</ele>
        <time>2021-07-20T11:08:59Z</time>
      </trkpt>
      <trkpt lat="45.67149" lon="2.84994">
        <ele>1025.9</ele>
        <time>2021-07-20T11:09:03Z</time>
      </trkpt>
      <trkpt lat="45.67141" lon="2.84993">
        <ele>1026.2</ele>
        <time>2021-07-20T11:09:07Z</time>
      </trkpt>
      <trkpt lat="45.67134" lon="2.84994">
        <ele>1026.6</ele>
        <time>2021-07-20T11:09:11Z</time>
      </trkpt>
      <trkpt lat="45.67128" lon="2.84993">
        <ele>1026.8</ele>
        <time>2021-07-20T11:09:15Z</time>
      </trkpt>
      <trkpt lat="45.67123" lon="2.84994">
        <ele>1027.1</ele>
        <time>2021-07-20T11:09:19Z</time>
      </trkpt>
      <trkpt lat="45.67122" lon="2.85001">
        <ele>1028.2</ele>
        <time>2021-07-20T11:09:23Z</time>
      </trkpt>
      <trkpt lat="45.67127" lon="2.85009">
        <ele>1028.4</ele>
        <time>2021-07-20T11:09:27Z</time>
      </trkpt>
      <trkpt lat="45.67131" lon="2.85013">
        <ele>1028.5</ele>
        <time>2021-07-20T11:09:29Z</time>
      </trkpt>
      <trkpt lat="45.67138" lon="2.85022">
        <ele>1028.7</ele>
        <time>2021-07-20T11:09:33Z</time>
      </trkpt>
      <trkpt lat="45.67142" lon="2.85026">
        <ele>1028.8</ele>
        <time>2021-07-20T11:09:35Z</time>
      </trkpt>
      <trkpt lat="45.67147" lon="2.85035">
        <ele>1029</ele>
        <time>2021-07-20T11:09:39Z</time>
      </trkpt>
      <trkpt lat="45.67151" lon="2.8504">
        <ele>1029.2</ele>
        <time>2021-07-20T11:09:41Z</time>
      </trkpt>
      <trkpt lat="45.67156" lon="2.8505">
        <ele>1029.5</ele>
        <time>2021-07-20T11:09:45Z</time>
      </trkpt>
      <trkpt lat="45.67159" lon="2.85055">
        <ele>1029.6</ele>
        <time>2021-07-20T11:09:47Z</time>
      </trkpt>
      <trkpt lat="45.67166" lon="2.85064">
        <ele>1029.9</ele>
        <time>2021-07-20T11:09:51Z</time>
      </trkpt>
      <trkpt lat="45.67169" lon="2.85069">
        <ele>1030.2</ele>
        <time>2021-07-20T11:09:53Z</time>
      </trkpt>
      <trkpt lat="45.67172" lon="2.85074">
        <ele>1030.6</ele>
        <time>2021-07-20T11:09:55Z</time>
      </trkpt>
      <trkpt lat="45.67175" lon="2.85079">
        <ele>1031</ele>
        <time>2021-07-20T11:09:57Z</time>
      </trkpt>
      <trkpt lat="45.67178" lon="2.85084">
        <ele>1031.3</ele>
        <time>2021-07-20T11:09:59Z</time>
      </trkpt>
      <trkpt lat="45.67183" lon="2.85094">
        <ele>1031.5</ele>
        <time>2021-07-20T11:10:03Z</time>
      </trkpt>
      <trkpt lat="45.67189" lon="2.85104">
        <ele>1031.8</ele>
        <time>2021-07-20T11:10:07Z</time>
      </trkpt>
      <trkpt lat="45.67192" lon="2.85114">
        <ele>1032</ele>
        <time>2021-07-20T11:10:11Z</time>
      </trkpt>
      <trkpt lat="45.67192" lon="2.85122">
        <ele>1032.1</ele>
        <time>2021-07-20T11:10:15Z</time>
      </trkpt>
      <trkpt lat="45.67185" lon="2.85124">
        <ele>1031.9</ele>
        <time>2021-07-20T11:10:19Z</time>
      </trkpt>
      <trkpt lat="45.67177" lon="2.85122">
        <ele>1031.7</ele>
        <time>2021-07-20T11:10:23Z</time>
      </trkpt>
      <trkpt lat="45.67168" lon="2.85118">
        <ele>1031.4</ele>
        <time>2021-07-20T11:10:27Z</time>
      </trkpt>
      <trkpt lat="45.67163" lon="2.85117">
        <ele>1031.5</ele>
        <time>2021-07-20T11:10:29Z</time>
      </trkpt>
      <trkpt lat="45.67158" lon="2.85115">
        <ele>1031.6</ele>
        <time>2021-07-20T11:10:31Z</time>
      </trkpt>
      <trkpt lat="45.67153" lon="2.85114">
        <ele>1031.8</ele>
        <time>2021-07-20T11:10:33Z</time>
      </trkpt>
      <trkpt lat="45.67147" lon="2.85113">
        <ele>1032</ele>
        <time>2021-07-20T11:10:35Z</time>
      </trkpt>
      <trkpt lat="45.67143" lon="2.85111">
        <ele>1032.1</ele>
        <time>2021-07-20T11:10:37Z</time>
      </trkpt>
      <trkpt lat="45.67138" lon="2.85109">
        <ele>1032.3</ele>
        <time>2021-07-20T11:10:39Z</time>
      </trkpt>
      <trkpt lat="45.67133" lon="2.85107">
        <ele>1032.4</ele>
        <time>2021-07-20T11:10:41Z</time>
      </trkpt>
      <trkpt lat="45.67127" lon="2.85106">
        <ele>1032.6</ele>
        <time>2021-07-20T11:10:43Z</time>
      </trkpt>
      <trkpt lat="45.67122" lon="2.85105">
        <ele>1032.8</ele>
        <time>2021-07-20T11:10:45Z</time>
      </trkpt>
      <trkpt lat="45.67117" lon="2.85103">
        <ele>1033.1</ele>
        <time>2021-07-20T11:10:47Z</time>
      </trkpt>
      <trkpt lat="45.67112" lon="2.85102">
        <ele>1033.3</ele>
        <time>2021-07-20T11:10:49Z</time>
      </trkpt>
      <trkpt lat="45.67106" lon="2.851">
        <ele>1033.5</ele>
        <time>2021-07-20T11:10:51Z</time>
      </trkpt>
      <trkpt lat="45.67101" lon="2.85099">
        <ele>1033.8</ele>
        <time>2021-07-20T11:10:53Z</time>
      </trkpt>
      <trkpt lat="45.67095" lon="2.85097">
        <ele>1034</ele>
        <time>2021-07-20T11:10:55Z</time>
      </trkpt>
      <trkpt lat="45.6709" lon="2.85095">
        <ele>1034.3</ele>
        <time>2021-07-20T11:10:57Z</time>
      </trkpt>
      <trkpt lat="45.67085" lon="2.85093">
        <ele>1034.6</ele>
        <time>2021-07-20T11:10:59Z</time>
      </trkpt>
      <trkpt lat="45.67079" lon="2.85091">
        <ele>1034.9</ele>
        <time>2021-07-20T11:11:01Z</time>
      </trkpt>
      <trkpt lat="45.67074" lon="2.85089">
        <ele>1035.2</ele>
        <time>2021-07-20T11:11:03Z</time>
      </trkpt>
      <trkpt lat="45.67068" lon="2.85088">
        <ele>1035.5</ele>
        <time>2021-07-20T11:11:05Z</time>
      </trkpt>
      <trkpt lat="45.67063" lon="2.85086">
        <ele>1035.9</ele>
        <time>2021-07-20T11:11:07Z</time>
      </trkpt>
      <trkpt lat="45.67058" lon="2.85085">
        <ele>1036.2</ele>
        <time>2021-07-20T11:11:09Z</time>
      </trkpt>
      <trkpt lat="45.67053" lon="2.85082">
        <ele>1036.4</ele>
        <time>2021-07-20T11:11:11Z</time>
      </trkpt>
      <trkpt lat="45.67048" lon="2.8508">
        <ele>1036.6</ele>
        <time>2021-07-20T11:11:13Z</time>
      </trkpt>
      <trkpt lat="45.67043" lon="2.85078">
        <ele>1036.8</ele>
        <time>2021-07-20T11:11:15Z</time>
      </trkpt>
      <trkpt lat="45.67038" lon="2.85076">
        <ele>1037</ele>
        <time>2021-07-20T11:11:17Z</time>
      </trkpt>
      <trkpt lat="45.67032" lon="2.85074">
        <ele>1037.3</ele>
        <time>2021-07-20T11:11:19Z</time>
      </trkpt>
      <trkpt lat="45.67027" lon="2.85072">
        <ele>1037.6</ele>
        <time>2021-07-20T11:11:21Z</time>
      </trkpt>
      <trkpt lat="45.67022" lon="2.8507">
        <ele>1037.8</ele>
        <time>2021-07-20T11:11:23Z</time>
      </trkpt>
      <trkpt lat="45.67018" lon="2.85068">
        <ele>1038.1</ele>
        <time>2021-07-20T11:11:25Z</time>
      </trkpt>
      <trkpt lat="45.67013" lon="2.85065">
        <ele>1038.4</ele>
        <time>2021-07-20T11:11:27Z</time>
      </trkpt>
      <trkpt lat="45.67005" lon="2.85062">
        <ele>1038.9</ele>
        <time>2021-07-20T11:11:31Z</time>
      </trkpt>
      <trkpt lat="45.66997" lon="2.85058">
        <ele>1039.5</ele>
        <time>2021-07-20T11:11:35Z</time>
      </trkpt>
      <trkpt lat="45.6699" lon="2.85055">
        <ele>1040.1</ele>
        <time>2021-07-20T11:11:39Z</time>
      </trkpt>
      <trkpt lat="45.66982" lon="2.85054">
        <ele>1040.7</ele>
        <time>2021-07-20T11:11:43Z</time>
      </trkpt>
      <trkpt lat="45.66974" lon="2.85051">
        <ele>1041.3</ele>
        <time>2021-07-20T11:11:47Z</time>
      </trkpt>
      <trkpt lat="45.66966" lon="2.85048">
        <ele>1042</ele>
        <time>2021-07-20T11:11:51Z</time>
      </trkpt>
      <trkpt lat="45.66962" lon="2.85046">
        <ele>1042.3</ele>
        <time>2021-07-20T11:11:53Z</time>
      </trkpt>
      <trkpt lat="45.66955" lon="2.85042">
        <ele>1043</ele>
        <time>2021-07-20T11:11:57Z</time>
      </trkpt>
      <trkpt lat="45.66947" lon="2.85039">
        <ele>1043.7</ele>
        <time>2021-07-20T11:12:01Z</time>
      </trkpt>
      <trkpt lat="45.6694" lon="2.85035">
        <ele>1044.5</ele>
        <time>2021-07-20T11:12:05Z</time>
      </trkpt>
      <trkpt lat="45.66932" lon="2.85031">
        <ele>1045.2</ele>
        <time>2021-07-20T11:12:09Z</time>
      </trkpt>
      <trkpt lat="45.66926" lon="2.85028">
        <ele>1045.9</ele>
        <time>2021-07-20T11:12:13Z</time>
      </trkpt>
      <trkpt lat="45.66919" lon="2.85025">
        <ele>1046.6</ele>
        <time>2021-07-20T11:12:17Z</time>
      </trkpt>
      <trkpt lat="45.66912" lon="2.85021">
        <ele>1047.2</ele>
        <time>2021-07-20T11:12:21Z</time>
      </trkpt>
      <trkpt lat="45.66906" lon="2.85018">
        <ele>1047.8</ele>
        <time>2021-07-20T11:12:25Z</time>
      </trkpt>
      <trkpt lat="45.66899" lon="2.85015">
        <ele>1048.4</ele>
        <time>2021-07-20T11:12:29Z</time>
      </trkpt>
      <trkpt lat="45.66892" lon="2.85011">
        <ele>1049.1</ele>
        <time>2021-07-20T11:12:33Z</time>
      </trkpt>
      <trkpt lat="45.66885" lon="2.85007">
        <ele>1049.8</ele>
        <time>2021-07-20T11:12:37Z</time>
      </trkpt>
      <trkpt lat="45.66878" lon="2.85003">
        <ele>1050.6</ele>
        <time>2021-07-20T11:12:41Z</time>
      </trkpt>
      <trkpt lat="45.66871" lon="2.85">
        <ele>1051.3</ele>
        <time>2021-07-20T11:12:45Z</time>
      </trkpt>
      <trkpt lat="45.66864" lon="2.84997">
        <ele>1051.9</ele>
        <time>2021-07-20T11:12:49Z</time>
      </trkpt>
      <trkpt lat="45.66857" lon="2.84994">
        <ele>1052.6</ele>
        <time>2021-07-20T11:12:53Z</time>
      </trkpt>
      <trkpt lat="45.66851" lon="2.84991">
        <ele>1053.3</ele>
        <time>2021-07-20T11:12:57Z</time>
      </trkpt>
      <trkpt lat="45.66844" lon="2.84989">
        <ele>1054</ele>
        <time>2021-07-20T11:13:01Z</time>
      </trkpt>
      <trkpt lat="45.66838" lon="2.84986">
        <ele>1054.7</ele>
        <time>2021-07-20T11:13:05Z</time>
      </trkpt>
      <trkpt lat="45.66831" lon="2.84983">
        <ele>1055.3</ele>
        <time>2021-07-20T11:13:09Z</time>
      </trkpt>
      <trkpt lat="45.66825" lon="2.84981">
        <ele>1055.9</ele>
        <time>2021-07-20T11:13:13Z</time>
      </trkpt>
      <trkpt lat="45.66818" lon="2.8498">
        <ele>1056.4</ele>
        <time>2021-07-20T11:13:17Z</time>
      </trkpt>
      <trkpt lat="45.66812" lon="2.84978">
        <ele>1056.9</ele>
        <time>2021-07-20T11:13:21Z</time>
      </trkpt>
      <trkpt lat="45.66807" lon="2.84975">
        <ele>1057.5</ele>
        <time>2021-07-20T11:13:25Z</time>
      </trkpt>
      <trkpt lat="45.66801" lon="2.84973">
        <ele>1058.1</ele>
        <time>2021-07-20T11:13:29Z</time>
      </trkpt>
      <trkpt lat="45.66794" lon="2.8497">
        <ele>1058.7</ele>
        <time>2021-07-20T11:13:33Z</time>
      </trkpt>
      <trkpt lat="45.66788" lon="2.84968">
        <ele>1059.3</ele>
        <time>2021-07-20T11:13:37Z</time>
      </trkpt>
      <trkpt lat="45.66782" lon="2.84966">
        <ele>1059.8</ele>
        <time>2021-07-20T11:13:41Z</time>
      </trkpt>
      <trkpt lat="45.66776" lon="2.84964">
        <ele>1060.3</ele>
        <time>2021-07-20T11:13:45Z</time>
      </trkpt>
      <trkpt lat="45.6677" lon="2.84961">
        <ele>1060.9</ele>
        <time>2021-07-20T11:13:49Z</time>
      </trkpt>
      <trkpt lat="45.66764" lon="2.8496">
        <ele>1061.4</ele>
        <time>2021-07-20T11:13:53Z</time>
      </trkpt>
      <trkpt lat="45.66759" lon="2.84958">
        <ele>1062</ele>
        <time>2021-07-20T11:13:57Z</time>
      </trkpt>
      <trkpt lat="45.66753" lon="2.84955">
        <ele>1062.6</ele>
        <time>2021-07-20T11:14:01Z</time>
      </trkpt>
      <trkpt lat="45.66747" lon="2.84953">
        <ele>1063.2</ele>
        <time>2021-07-20T11:14:05Z</time>
      </trkpt>
      <trkpt lat="45.6674" lon="2.84948">
        <ele>1064</ele>
        <time>2021-07-20T11:14:09Z</time>
      </trkpt>
      <trkpt lat="45.66734" lon="2.84945">
        <ele>1064.7</ele>
        <time>2021-07-20T11:14:13Z</time>
      </trkpt>
      <trkpt lat="45.66727" lon="2.84944">
        <ele>1065.3</ele>
        <time>2021-07-20T11:14:17Z</time>
      </trkpt>
      <trkpt lat="45.66721" lon="2.84942">
        <ele>1065.9</ele>
        <time>2021-07-20T11:14:21Z</time>
      </trkpt>
      <trkpt lat="45.66716" lon="2.84939">
        <ele>1066.5</ele>
        <time>2021-07-20T11:14:25Z</time>
      </trkpt>
      <trkpt lat="45.6671" lon="2.84937">
        <ele>1067.1</ele>
        <time>2021-07-20T11:14:29Z</time>
      </trkpt>
      <trkpt lat="45.66704" lon="2.84934">
        <ele>1067.7</ele>
        <time>2021-07-20T11:14:33Z</time>
      </trkpt>
      <trkpt lat="45.66698" lon="2.84932">
        <ele>1068.4</ele>
        <time>2021-07-20T11:14:37Z</time>
      </trkpt>
      <trkpt lat="45.6669" lon="2.8493">
        <ele>1069.1</ele>
        <time>2021-07-20T11:14:41Z</time>
      </trkpt>
      <trkpt lat="45.66683" lon="2.84927">
        <ele>1069.9</ele>
        <time>2021-07-20T11:14:45Z</time>
      </trkpt>
      <trkpt lat="45.66676" lon="2.84924">
        <ele>1070.7</ele>
        <time>2021-07-20T11:14:49Z</time>
      </trkpt>
      <trkpt lat="45.6667" lon="2.8492">
        <ele>1071.4</ele>
        <time>2021-07-20T11:14:53Z</time>
      </trkpt>
      <trkpt lat="45.66664" lon="2.84918">
        <ele>1071.9</ele>
        <time>2021-07-20T11:14:57Z</time>
      </trkpt>
      <trkpt lat="45.66657" lon="2.84916">
        <ele>1072.3</ele>
        <time>2021-07-20T11:15:01Z</time>
      </trkpt>
      <trkpt lat="45.66651" lon="2.84915">
        <ele>1072.6</ele>
        <time>2021-07-20T11:15:05Z</time>
      </trkpt>
      <trkpt lat="45.66645" lon="2.84914">
        <ele>1072.8</ele>
        <time>2021-07-20T11:15:09Z</time>
      </trkpt>
      <trkpt lat="45.66638" lon="2.84913">
        <ele>1073</ele>
        <time>2021-07-20T11:15:13Z</time>
      </trkpt>
      <trkpt lat="45.66632" lon="2.84911">
        <ele>1073.4</ele>
        <time>2021-07-20T11:15:17Z</time>
      </trkpt>
      <trkpt lat="45.66625" lon="2.8491">
        <ele>1073.7</ele>
        <time>2021-07-20T11:15:21Z</time>
      </trkpt>
      <trkpt lat="45.66618" lon="2.84909">
        <ele>1073.9</ele>
        <time>2021-07-20T11:15:25Z</time>
      </trkpt>
      <trkpt lat="45.66611" lon="2.84907">
        <ele>1074.2</ele>
        <time>2021-07-20T11:15:29Z</time>
      </trkpt>
      <trkpt lat="45.66604" lon="2.84905">
        <ele>1074.6</ele>
        <time>2021-07-20T11:15:33Z</time>
      </trkpt>
      <trkpt lat="45.66598" lon="2.84901">
        <ele>1075</ele>
        <time>2021-07-20T11:15:37Z</time>
      </trkpt>
      <trkpt lat="45.66592" lon="2.849">
        <ele>1075.2</ele>
        <time>2021-07-20T11:15:41Z</time>
      </trkpt>
      <trkpt lat="45.66586" lon="2.84896">
        <ele>1075.7</ele>
        <time>2021-07-20T11:15:45Z</time>
      </trkpt>
      <trkpt lat="45.66579" lon="2.84893">
        <ele>1076.2</ele>
        <time>2021-07-20T11:15:49Z</time>
      </trkpt>
      <trkpt lat="45.66573" lon="2.84889">
        <ele>1076.7</ele>
        <time>2021-07-20T11:15:53Z</time>
      </trkpt>
      <trkpt lat="45.66568" lon="2.84887">
        <ele>1077</ele>
        <time>2021-07-20T11:15:57Z</time>
      </trkpt>
      <trkpt lat="45.66563" lon="2.84884">
        <ele>1077.3</ele>
        <time>2021-07-20T11:16:15Z</time>
      </trkpt>
      <trkpt lat="45.66556" lon="2.8488">
        <ele>1078</ele>
        <time>2021-07-20T11:16:19Z</time>
      </trkpt>
      <trkpt lat="45.66551" lon="2.84878">
        <ele>1078.2</ele>
        <time>2021-07-20T11:16:21Z</time>
      </trkpt>
      <trkpt lat="45.66544" lon="2.84873">
        <ele>1078.9</ele>
        <time>2021-07-20T11:16:25Z</time>
      </trkpt>
      <trkpt lat="45.66536" lon="2.84868">
        <ele>1079.5</ele>
        <time>2021-07-20T11:16:29Z</time>
      </trkpt>
      <trkpt lat="45.66528" lon="2.84864">
        <ele>1080</ele>
        <time>2021-07-20T11:16:33Z</time>
      </trkpt>
      <trkpt lat="45.6652" lon="2.8486">
        <ele>1080.5</ele>
        <time>2021-07-20T11:16:37Z</time>
      </trkpt>
      <trkpt lat="45.66512" lon="2.84856">
        <ele>1081.1</ele>
        <time>2021-07-20T11:16:41Z</time>
      </trkpt>
      <trkpt lat="45.66504" lon="2.84852">
        <ele>1081.6</ele>
        <time>2021-07-20T11:16:45Z</time>
      </trkpt>
      <trkpt lat="45.66496" lon="2.84848">
        <ele>1082</ele>
        <time>2021-07-20T11:16:49Z</time>
      </trkpt>
      <trkpt lat="45.66488" lon="2.84843">
        <ele>1082.6</ele>
        <time>2021-07-20T11:16:53Z</time>
      </trkpt>
      <trkpt lat="45.66481" lon="2.84839">
        <ele>1083.1</ele>
        <time>2021-07-20T11:16:57Z</time>
      </trkpt>
      <trkpt lat="45.66474" lon="2.84834">
        <ele>1083.6</ele>
        <time>2021-07-20T11:17:01Z</time>
      </trkpt>
      <trkpt lat="45.66466" lon="2.84829">
        <ele>1084.1</ele>
        <time>2021-07-20T11:17:05Z</time>
      </trkpt>
      <trkpt lat="45.6646" lon="2.84824">
        <ele>1084.5</ele>
        <time>2021-07-20T11:17:09Z</time>
      </trkpt>
      <trkpt lat="45.66453" lon="2.84819">
        <ele>1084.9</ele>
        <time>2021-07-20T11:17:13Z</time>
      </trkpt>
      <trkpt lat="45.66446" lon="2.84813">
        <ele>1085.3</ele>
        <time>2021-07-20T11:17:17Z</time>
      </trkpt>
      <trkpt lat="45.66439" lon="2.84808">
        <ele>1085.7</ele>
        <time>2021-07-20T11:17:21Z</time>
      </trkpt>
      <trkpt lat="45.66432" lon="2.84802">
        <ele>1086.2</ele>
        <time>2021-07-20T11:17:25Z</time>
      </trkpt>
      <trkpt lat="45.66428" lon="2.84798">
        <ele>1086.5</ele>
        <time>2021-07-20T11:17:27Z</time>
      </trkpt>
      <trkpt lat="45.66421" lon="2.84792">
        <ele>1086.9</ele>
        <time>2021-07-20T11:17:31Z</time>
      </trkpt>
      <trkpt lat="45.66414" lon="2.84788">
        <ele>1087.2</ele>
        <time>2021-07-20T11:17:35Z</time>
      </trkpt>
      <trkpt lat="45.66406" lon="2.84784">
        <ele>1087.3</ele>
        <time>2021-07-20T11:17:39Z</time>
      </trkpt>
      <trkpt lat="45.664" lon="2.8478">
        <ele>1087.5</ele>
        <time>2021-07-20T11:17:43Z</time>
      </trkpt>
      <trkpt lat="45.66393" lon="2.84775">
        <ele>1087.7</ele>
        <time>2021-07-20T11:17:47Z</time>
      </trkpt>
      <trkpt lat="45.66385" lon="2.84771">
        <ele>1087.8</ele>
        <time>2021-07-20T11:17:51Z</time>
      </trkpt>
      <trkpt lat="45.66377" lon="2.84766">
        <ele>1087.9</ele>
        <time>2021-07-20T11:17:55Z</time>
      </trkpt>
      <trkpt lat="45.66369" lon="2.84762">
        <ele>1088</ele>
        <time>2021-07-20T11:17:59Z</time>
      </trkpt>
      <trkpt lat="45.66365" lon="2.84759">
        <ele>1088.1</ele>
        <time>2021-07-20T11:18:01Z</time>
      </trkpt>
      <trkpt lat="45.6636" lon="2.84757">
        <ele>1088.1</ele>
        <time>2021-07-20T11:18:03Z</time>
      </trkpt>
      <trkpt lat="45.66356" lon="2.84754">
        <ele>1088.1</ele>
        <time>2021-07-20T11:18:05Z</time>
      </trkpt>
      <trkpt lat="45.66348" lon="2.84749">
        <ele>1088.1</ele>
        <time>2021-07-20T11:18:09Z</time>
      </trkpt>
      <trkpt lat="45.66343" lon="2.84746">
        <ele>1088</ele>
        <time>2021-07-20T11:18:11Z</time>
      </trkpt>
      <trkpt lat="45.66338" lon="2.84742">
        <ele>1087.9</ele>
        <time>2021-07-20T11:18:13Z</time>
      </trkpt>
      <trkpt lat="45.66332" lon="2.84736">
        <ele>1087.7</ele>
        <time>2021-07-20T11:18:15Z</time>
      </trkpt>
      <trkpt lat="45.66326" lon="2.8473">
        <ele>1087.3</ele>
        <time>2021-07-20T11:18:17Z</time>
      </trkpt>
      <trkpt lat="45.6632" lon="2.84724">
        <ele>1087</ele>
        <time>2021-07-20T11:18:19Z</time>
      </trkpt>
      <trkpt lat="45.66312" lon="2.84721">
        <ele>1086.6</ele>
        <time>2021-07-20T11:18:21Z</time>
      </trkpt>
      <trkpt lat="45.66305" lon="2.84724">
        <ele>1086.5</ele>
        <time>2021-07-20T11:18:23Z</time>
      </trkpt>
      <trkpt lat="45.66301" lon="2.84729">
        <ele>1086.6</ele>
        <time>2021-07-20T11:18:25Z</time>
      </trkpt>
      <trkpt lat="45.66296" lon="2.84731">
        <ele>1086.6</ele>
        <time>2021-07-20T11:18:27Z</time>
      </trkpt>
      <trkpt lat="45.66292" lon="2.84734">
        <ele>1086.7</ele>
        <time>2021-07-20T11:18:29Z</time>
      </trkpt>
      <trkpt lat="45.66289" lon="2.84738">
        <ele>1086.8</ele>
        <time>2021-07-20T11:18:31Z</time>
      </trkpt>
      <trkpt lat="45.66285" lon="2.84741">
        <ele>1086.9</ele>
        <time>2021-07-20T11:18:33Z</time>
      </trkpt>
      <trkpt lat="45.66281" lon="2.84744">
        <ele>1087</ele>
        <time>2021-07-20T11:18:35Z</time>
      </trkpt>
      <trkpt lat="45.66277" lon="2.84748">
        <ele>1087.2</ele>
        <time>2021-07-20T11:18:37Z</time>
      </trkpt>
      <trkpt lat="45.66273" lon="2.84751">
        <ele>1087.3</ele>
        <time>2021-07-20T11:18:39Z</time>
      </trkpt>
      <trkpt lat="45.66265" lon="2.84757">
        <ele>1087.2</ele>
        <time>2021-07-20T11:18:43Z</time>
      </trkpt>
      <trkpt lat="45.66257" lon="2.84761">
        <ele>1087.2</ele>
        <time>2021-07-20T11:18:47Z</time>
      </trkpt>
      <trkpt lat="45.66252" lon="2.84763">
        <ele>1087.2</ele>
        <time>2021-07-20T11:18:49Z</time>
      </trkpt>
      <trkpt lat="45.66244" lon="2.84766">
        <ele>1087.7</ele>
        <time>2021-07-20T11:18:53Z</time>
      </trkpt>
      <trkpt lat="45.66236" lon="2.84767">
        <ele>1088.6</ele>
        <time>2021-07-20T11:18:57Z</time>
      </trkpt>
      <trkpt lat="45.66227" lon="2.8477">
        <ele>1089.4</ele>
        <time>2021-07-20T11:19:01Z</time>
      </trkpt>
      <trkpt lat="45.66222" lon="2.84772">
        <ele>1089.9</ele>
        <time>2021-07-20T11:19:03Z</time>
      </trkpt>
      <trkpt lat="45.66214" lon="2.84772">
        <ele>1090.7</ele>
        <time>2021-07-20T11:19:07Z</time>
      </trkpt>
      <trkpt lat="45.66207" lon="2.84777">
        <ele>1091.6</ele>
        <time>2021-07-20T11:19:11Z</time>
      </trkpt>
      <trkpt lat="45.66203" lon="2.84785">
        <ele>1092.3</ele>
        <time>2021-07-20T11:19:15Z</time>
      </trkpt>
      <trkpt lat="45.66201" lon="2.84794">
        <ele>1092.9</ele>
        <time>2021-07-20T11:19:19Z</time>
      </trkpt>
      <trkpt lat="45.66201" lon="2.84803">
        <ele>1093.3</ele>
        <time>2021-07-20T11:19:23Z</time>
      </trkpt>
      <trkpt lat="45.66201" lon="2.84812">
        <ele>1093.6</ele>
        <time>2021-07-20T11:19:27Z</time>
      </trkpt>
      <trkpt lat="45.662" lon="2.84824">
        <ele>1094.2</ele>
        <time>2021-07-20T11:19:31Z</time>
      </trkpt>
      <trkpt lat="45.662" lon="2.84831">
        <ele>1094.5</ele>
        <time>2021-07-20T11:19:33Z</time>
      </trkpt>
      <trkpt lat="45.66199" lon="2.84845">
        <ele>1094.8</ele>
        <time>2021-07-20T11:19:37Z</time>
      </trkpt>
      <trkpt lat="45.66199" lon="2.84854">
        <ele>1095</ele>
        <time>2021-07-20T11:19:39Z</time>
      </trkpt>
      <trkpt lat="45.66198" lon="2.84863">
        <ele>1095.2</ele>
        <time>2021-07-20T11:19:41Z</time>
      </trkpt>
      <trkpt lat="45.66197" lon="2.84871">
        <ele>1095.5</ele>
        <time>2021-07-20T11:19:43Z</time>
      </trkpt>
      <trkpt lat="45.66195" lon="2.84878">
        <ele>1095.8</ele>
        <time>2021-07-20T11:19:45Z</time>
      </trkpt>
      <trkpt lat="45.66192" lon="2.84885">
        <ele>1096.2</ele>
        <time>2021-07-20T11:19:47Z</time>
      </trkpt>
      <trkpt lat="45.66188" lon="2.8489">
        <ele>1096.8</ele>
        <time>2021-07-20T11:19:49Z</time>
      </trkpt>
      <trkpt lat="45.66183" lon="2.84894">
        <ele>1097.6</ele>
        <time>2021-07-20T11:19:51Z</time>
      </trkpt>
      <trkpt lat="45.66178" lon="2.84896">
        <ele>1098.2</ele>
        <time>2021-07-20T11:19:53Z</time>
      </trkpt>
      <trkpt lat="45.66174" lon="2.84898">
        <ele>1098.8</ele>
        <time>2021-07-20T11:19:55Z</time>
      </trkpt>
      <trkpt lat="45.66166" lon="2.84904">
        <ele>1100</ele>
        <time>2021-07-20T11:19:59Z</time>
      </trkpt>
      <trkpt lat="45.66159" lon="2.84912">
        <ele>1101</ele>
        <time>2021-07-20T11:20:03Z</time>
      </trkpt>
      <trkpt lat="45.66155" lon="2.84916">
        <ele>1101.6</ele>
        <time>2021-07-20T11:20:05Z</time>
      </trkpt>
      <trkpt lat="45.66148" lon="2.8492">
        <ele>1102.3</ele>
        <time>2021-07-20T11:20:09Z</time>
      </trkpt>
      <trkpt lat="45.66141" lon="2.84922">
        <ele>1103.1</ele>
        <time>2021-07-20T11:20:13Z</time>
      </trkpt>
      <trkpt lat="45.66135" lon="2.84928">
        <ele>1103.5</ele>
        <time>2021-07-20T11:20:17Z</time>
      </trkpt>
      <trkpt lat="45.66127" lon="2.84931">
        <ele>1104.2</ele>
        <time>2021-07-20T11:20:21Z</time>
      </trkpt>
      <trkpt lat="45.66119" lon="2.84936">
        <ele>1104.7</ele>
        <time>2021-07-20T11:20:25Z</time>
      </trkpt>
      <trkpt lat="45.66111" lon="2.84939">
        <ele>1105.4</ele>
        <time>2021-07-20T11:20:29Z</time>
      </trkpt>
      <trkpt lat="45.66103" lon="2.8494">
        <ele>1106.3</ele>
        <time>2021-07-20T11:20:33Z</time>
      </trkpt>
      <trkpt lat="45.66094" lon="2.84944">
        <ele>1107.1</ele>
        <time>2021-07-20T11:20:37Z</time>
      </trkpt>
      <trkpt lat="45.66089" lon="2.84948">
        <ele>1107.3</ele>
        <time>2021-07-20T11:20:59Z</time>
      </trkpt>
      <trkpt lat="45.66083" lon="2.8495">
        <ele>1107.6</ele>
        <time>2021-07-20T11:21:03Z</time>
      </trkpt>
      <trkpt lat="45.66077" lon="2.84951">
        <ele>1108.2</ele>
        <time>2021-07-20T11:21:07Z</time>
      </trkpt>
      <trkpt lat="45.6607" lon="2.84957">
        <ele>1108.4</ele>
        <time>2021-07-20T11:21:11Z</time>
      </trkpt>
      <trkpt lat="45.66064" lon="2.84962">
        <ele>1108.8</ele>
        <time>2021-07-20T11:21:15Z</time>
      </trkpt>
      <trkpt lat="45.66058" lon="2.84964">
        <ele>1109.3</ele>
        <time>2021-07-20T11:21:19Z</time>
      </trkpt>
      <trkpt lat="45.66053" lon="2.84964">
        <ele>1110.1</ele>
        <time>2021-07-20T11:21:23Z</time>
      </trkpt>
      <trkpt lat="45.66048" lon="2.84962">
        <ele>1111</ele>
        <time>2021-07-20T11:21:27Z</time>
      </trkpt>
      <trkpt lat="45.66042" lon="2.84963">
        <ele>1111.7</ele>
        <time>2021-07-20T11:21:31Z</time>
      </trkpt>
      <trkpt lat="45.66032" lon="2.84966">
        <ele>1112.9</ele>
        <time>2021-07-20T11:21:35Z</time>
      </trkpt>
      <trkpt lat="45.66025" lon="2.84968">
        <ele>1113.9</ele>
        <time>2021-07-20T11:21:39Z</time>
      </trkpt>
      <trkpt lat="45.66019" lon="2.84969">
        <ele>1114.7</ele>
        <time>2021-07-20T11:21:43Z</time>
      </trkpt>
      <trkpt lat="45.66013" lon="2.84973">
        <ele>1115.4</ele>
        <time>2021-07-20T11:21:49Z</time>
      </trkpt>
      <trkpt lat="45.66008" lon="2.84977">
        <ele>1115.9</ele>
        <time>2021-07-20T11:21:53Z</time>
      </trkpt>
      <trkpt lat="45.66002" lon="2.84979">
        <ele>1116.8</ele>
        <time>2021-07-20T11:21:57Z</time>
      </trkpt>
      <trkpt lat="45.65996" lon="2.84983">
        <ele>1117.4</ele>
        <time>2021-07-20T11:22:03Z</time>
      </trkpt>
      <trkpt lat="45.65989" lon="2.84986">
        <ele>1118</ele>
        <time>2021-07-20T11:22:07Z</time>
      </trkpt>
      <trkpt lat="45.65984" lon="2.84988">
        <ele>1118.7</ele>
        <time>2021-07-20T11:22:11Z</time>
      </trkpt>
      <trkpt lat="45.65977" lon="2.8499">
        <ele>1119.5</ele>
        <time>2021-07-20T11:22:15Z</time>
      </trkpt>
      <trkpt lat="45.65971" lon="2.84992">
        <ele>1120.3</ele>
        <time>2021-07-20T11:22:19Z</time>
      </trkpt>
      <trkpt lat="45.65962" lon="2.84992">
        <ele>1121.5</ele>
        <time>2021-07-20T11:22:23Z</time>
      </trkpt>
      <trkpt lat="45.65957" lon="2.84993">
        <ele>1122.2</ele>
        <time>2021-07-20T11:22:27Z</time>
      </trkpt>
      <trkpt lat="45.65952" lon="2.84993">
        <ele>1122.9</ele>
        <time>2021-07-20T11:22:29Z</time>
      </trkpt>
      <trkpt lat="45.65946" lon="2.84995">
        <ele>1123.7</ele>
        <time>2021-07-20T11:22:33Z</time>
      </trkpt>
      <trkpt lat="45.65938" lon="2.84995">
        <ele>1124.8</ele>
        <time>2021-07-20T11:22:37Z</time>
      </trkpt>
      <trkpt lat="45.65933" lon="2.84996">
        <ele>1125.5</ele>
        <time>2021-07-20T11:22:41Z</time>
      </trkpt>
      <trkpt lat="45.65926" lon="2.84997">
        <ele>1126.6</ele>
        <time>2021-07-20T11:22:45Z</time>
      </trkpt>
      <trkpt lat="45.65919" lon="2.84998">
        <ele>1127.5</ele>
        <time>2021-07-20T11:22:49Z</time>
      </trkpt>
      <trkpt lat="45.65914" lon="2.85">
        <ele>1128.1</ele>
        <time>2021-07-20T11:22:53Z</time>
      </trkpt>
      <trkpt lat="45.65909" lon="2.85003">
        <ele>1128.3</ele>
        <time>2021-07-20T11:22:57Z</time>
      </trkpt>
      <trkpt lat="45.65903" lon="2.85006">
        <ele>1128.6</ele>
        <time>2021-07-20T11:23:01Z</time>
      </trkpt>
      <trkpt lat="45.65898" lon="2.85008">
        <ele>1128.7</ele>
        <time>2021-07-20T11:23:05Z</time>
      </trkpt>
      <trkpt lat="45.65891" lon="2.85012">
        <ele>1128.9</ele>
        <time>2021-07-20T11:23:09Z</time>
      </trkpt>
      <trkpt lat="45.65885" lon="2.85016">
        <ele>1129.1</ele>
        <time>2021-07-20T11:23:13Z</time>
      </trkpt>
      <trkpt lat="45.6588" lon="2.85018">
        <ele>1129.3</ele>
        <time>2021-07-20T11:23:37Z</time>
      </trkpt>
      <trkpt lat="45.65873" lon="2.85021">
        <ele>1129.5</ele>
        <time>2021-07-20T11:25:07Z</time>
      </trkpt>
      <trkpt lat="45.65866" lon="2.85024">
        <ele>1129.7</ele>
        <time>2021-07-20T11:25:13Z</time>
      </trkpt>
      <trkpt lat="45.65858" lon="2.85026">
        <ele>1129.9</ele>
        <time>2021-07-20T11:25:17Z</time>
      </trkpt>
      <trkpt lat="45.6585" lon="2.8503">
        <ele>1130</ele>
        <time>2021-07-20T11:25:25Z</time>
      </trkpt>
      <trkpt lat="45.65846" lon="2.85032">
        <ele>1130.1</ele>
        <time>2021-07-20T11:25:27Z</time>
      </trkpt>
      <trkpt lat="45.65837" lon="2.85035">
        <ele>1130.3</ele>
        <time>2021-07-20T11:25:31Z</time>
      </trkpt>
      <trkpt lat="45.6583" lon="2.8504">
        <ele>1130.6</ele>
        <time>2021-07-20T11:25:35Z</time>
      </trkpt>
      <trkpt lat="45.65824" lon="2.85043">
        <ele>1131.2</ele>
        <time>2021-07-20T11:25:39Z</time>
      </trkpt>
      <trkpt lat="45.65818" lon="2.85049">
        <ele>1131.7</ele>
        <time>2021-07-20T11:25:43Z</time>
      </trkpt>
      <trkpt lat="45.65813" lon="2.85053">
        <ele>1132.1</ele>
        <time>2021-07-20T11:25:47Z</time>
      </trkpt>
      <trkpt lat="45.65808" lon="2.85057">
        <ele>1132.6</ele>
        <time>2021-07-20T11:25:53Z</time>
      </trkpt>
      <trkpt lat="45.65802" lon="2.85061">
        <ele>1133.3</ele>
        <time>2021-07-20T11:25:57Z</time>
      </trkpt>
      <trkpt lat="45.65798" lon="2.85065">
        <ele>1133.7</ele>
        <time>2021-07-20T11:26:01Z</time>
      </trkpt>
      <trkpt lat="45.65793" lon="2.85066">
        <ele>1134.4</ele>
        <time>2021-07-20T11:26:07Z</time>
      </trkpt>
      <trkpt lat="45.6579" lon="2.8507">
        <ele>1134.8</ele>
        <time>2021-07-20T11:26:21Z</time>
      </trkpt>
      <trkpt lat="45.65786" lon="2.85074">
        <ele>1135.2</ele>
        <time>2021-07-20T11:26:31Z</time>
      </trkpt>
      <trkpt lat="45.65781" lon="2.85075">
        <ele>1136</ele>
        <time>2021-07-20T11:26:53Z</time>
      </trkpt>
      <trkpt lat="45.65776" lon="2.85076">
        <ele>1136.8</ele>
        <time>2021-07-20T11:27:01Z</time>
      </trkpt>
      <trkpt lat="45.65773" lon="2.85082">
        <ele>1137.2</ele>
        <time>2021-07-20T11:27:15Z</time>
      </trkpt>
      <trkpt lat="45.65767" lon="2.85085">
        <ele>1138</ele>
        <time>2021-07-20T11:27:25Z</time>
      </trkpt>
      <trkpt lat="45.65763" lon="2.85084">
        <ele>1138.9</ele>
        <time>2021-07-20T11:27:29Z</time>
      </trkpt>
      <trkpt lat="45.65756" lon="2.85085">
        <ele>1139.9</ele>
        <time>2021-07-20T11:27:33Z</time>
      </trkpt>
      <trkpt lat="45.65751" lon="2.85088">
        <ele>1140.5</ele>
        <time>2021-07-20T11:27:37Z</time>
      </trkpt>
      <trkpt lat="45.65745" lon="2.85091">
        <ele>1141.4</ele>
        <time>2021-07-20T11:27:43Z</time>
      </trkpt>
      <trkpt lat="45.65741" lon="2.85096">
        <ele>1141.8</ele>
        <time>2021-07-20T11:27:49Z</time>
      </trkpt>
      <trkpt lat="45.65737" lon="2.85101">
        <ele>1142.2</ele>
        <time>2021-07-20T11:27:55Z</time>
      </trkpt>
      <trkpt lat="45.65733" lon="2.85106">
        <ele>1142.6</ele>
        <time>2021-07-20T11:28:05Z</time>
      </trkpt>
      <trkpt lat="45.65728" lon="2.8511">
        <ele>1143.1</ele>
        <time>2021-07-20T11:28:11Z</time>
      </trkpt>
      <trkpt lat="45.65725" lon="2.85115">
        <ele>1143.3</ele>
        <time>2021-07-20T11:28:17Z</time>
      </trkpt>
      <trkpt lat="45.6572" lon="2.8512">
        <ele>1143.8</ele>
        <time>2021-07-20T11:28:23Z</time>
      </trkpt>
      <trkpt lat="45.65715" lon="2.85125">
        <ele>1144.3</ele>
        <time>2021-07-20T11:28:29Z</time>
      </trkpt>
      <trkpt lat="45.6571" lon="2.85129">
        <ele>1145</ele>
        <time>2021-07-20T11:28:35Z</time>
      </trkpt>
      <trkpt lat="45.65705" lon="2.85134">
        <ele>1145.6</ele>
        <time>2021-07-20T11:28:41Z</time>
      </trkpt>
      <trkpt lat="45.657" lon="2.85139">
        <ele>1146</ele>
        <time>2021-07-20T11:28:47Z</time>
      </trkpt>
      <trkpt lat="45.65696" lon="2.85144">
        <ele>1146.4</ele>
        <time>2021-07-20T11:28:57Z</time>
      </trkpt>
      <trkpt lat="45.65691" lon="2.85151">
        <ele>1146.8</ele>
        <time>2021-07-20T11:29:01Z</time>
      </trkpt>
      <trkpt lat="45.65686" lon="2.85158">
        <ele>1147.2</ele>
        <time>2021-07-20T11:29:05Z</time>
      </trkpt>
      <trkpt lat="45.65681" lon="2.85164">
        <ele>1147.7</ele>
        <time>2021-07-20T11:29:09Z</time>
      </trkpt>
      <trkpt lat="45.65678" lon="2.85173">
        <ele>1147.5</ele>
        <time>2021-07-20T11:29:13Z</time>
      </trkpt>
      <trkpt lat="45.65674" lon="2.85179">
        <ele>1147.6</ele>
        <time>2021-07-20T11:29:17Z</time>
      </trkpt>
      <trkpt lat="45.65669" lon="2.85187">
        <ele>1147.7</ele>
        <time>2021-07-20T11:29:21Z</time>
      </trkpt>
      <trkpt lat="45.65664" lon="2.85195">
        <ele>1147.6</ele>
        <time>2021-07-20T11:29:25Z</time>
      </trkpt>
      <trkpt lat="45.65662" lon="2.85201">
        <ele>1147.4</ele>
        <time>2021-07-20T11:29:27Z</time>
      </trkpt>
      <trkpt lat="45.65658" lon="2.85206">
        <ele>1147.4</ele>
        <time>2021-07-20T11:29:29Z</time>
      </trkpt>
      <trkpt lat="45.65656" lon="2.85213">
        <ele>1147.2</ele>
        <time>2021-07-20T11:29:31Z</time>
      </trkpt>
      <trkpt lat="45.6565" lon="2.85222">
        <ele>1147.4</ele>
        <time>2021-07-20T11:29:35Z</time>
      </trkpt>
      <trkpt lat="45.65643" lon="2.85229">
        <ele>1147.8</ele>
        <time>2021-07-20T11:29:39Z</time>
      </trkpt>
      <trkpt lat="45.65639" lon="2.85233">
        <ele>1148.1</ele>
        <time>2021-07-20T11:29:41Z</time>
      </trkpt>
      <trkpt lat="45.65635" lon="2.85236">
        <ele>1148.5</ele>
        <time>2021-07-20T11:29:43Z</time>
      </trkpt>
      <trkpt lat="45.65631" lon="2.85241">
        <ele>1148.7</ele>
        <time>2021-07-20T11:29:45Z</time>
      </trkpt>
      <trkpt lat="45.65625" lon="2.85247">
        <ele>1149.2</ele>
        <time>2021-07-20T11:29:49Z</time>
      </trkpt>
      <trkpt lat="45.6562" lon="2.85255">
        <ele>1149.4</ele>
        <time>2021-07-20T11:29:53Z</time>
      </trkpt>
      <trkpt lat="45.65616" lon="2.85261">
        <ele>1149.8</ele>
        <time>2021-07-20T11:29:57Z</time>
      </trkpt>
      <trkpt lat="45.6561" lon="2.85267">
        <ele>1150.3</ele>
        <time>2021-07-20T11:30:01Z</time>
      </trkpt>
      <trkpt lat="45.65605" lon="2.85274">
        <ele>1150.7</ele>
        <time>2021-07-20T11:30:05Z</time>
      </trkpt>
      <trkpt lat="45.65599" lon="2.85279">
        <ele>1151.4</ele>
        <time>2021-07-20T11:30:09Z</time>
      </trkpt>
      <trkpt lat="45.65594" lon="2.85287">
        <ele>1151.6</ele>
        <time>2021-07-20T11:30:13Z</time>
      </trkpt>
      <trkpt lat="45.65589" lon="2.85294">
        <ele>1151.9</ele>
        <time>2021-07-20T11:30:17Z</time>
      </trkpt>
      <trkpt lat="45.65585" lon="2.853">
        <ele>1152.1</ele>
        <time>2021-07-20T11:30:21Z</time>
      </trkpt>
      <trkpt lat="45.6558" lon="2.85303">
        <ele>1153.1</ele>
        <time>2021-07-20T11:30:25Z</time>
      </trkpt>
      <trkpt lat="45.65575" lon="2.85308">
        <ele>1153.9</ele>
        <time>2021-07-20T11:30:29Z</time>
      </trkpt>
      <trkpt lat="45.6557" lon="2.85311">
        <ele>1155.1</ele>
        <time>2021-07-20T11:30:33Z</time>
      </trkpt>
      <trkpt lat="45.65566" lon="2.85316">
        <ele>1156</ele>
        <time>2021-07-20T11:30:37Z</time>
      </trkpt>
      <trkpt lat="45.65561" lon="2.85321">
        <ele>1156.9</ele>
        <time>2021-07-20T11:30:41Z</time>
      </trkpt>
      <trkpt lat="45.65556" lon="2.85325">
        <ele>1157.9</ele>
        <time>2021-07-20T11:30:45Z</time>
      </trkpt>
      <trkpt lat="45.65551" lon="2.8533">
        <ele>1159.1</ele>
        <time>2021-07-20T11:30:49Z</time>
      </trkpt>
      <trkpt lat="45.65549" lon="2.85339">
        <ele>1159</ele>
        <time>2021-07-20T11:30:55Z</time>
      </trkpt>
      <trkpt lat="45.65545" lon="2.85344">
        <ele>1159.8</ele>
        <time>2021-07-20T11:30:59Z</time>
      </trkpt>
      <trkpt lat="45.65541" lon="2.85348">
        <ele>1160.3</ele>
        <time>2021-07-20T11:31:03Z</time>
      </trkpt>
      <trkpt lat="45.65538" lon="2.85354">
        <ele>1160.8</ele>
        <time>2021-07-20T11:31:09Z</time>
      </trkpt>
      <trkpt lat="45.65535" lon="2.85359">
        <ele>1161.1</ele>
        <time>2021-07-20T11:31:15Z</time>
      </trkpt>
      <trkpt lat="45.6553" lon="2.85363">
        <ele>1161.9</ele>
        <time>2021-07-20T11:31:19Z</time>
      </trkpt>
      <trkpt lat="45.65527" lon="2.85368">
        <ele>1162.3</ele>
        <time>2021-07-20T11:31:23Z</time>
      </trkpt>
      <trkpt lat="45.65522" lon="2.85373">
        <ele>1162.9</ele>
        <time>2021-07-20T11:31:29Z</time>
      </trkpt>
      <trkpt lat="45.65518" lon="2.85375">
        <ele>1163.7</ele>
        <time>2021-07-20T11:31:41Z</time>
      </trkpt>
      <trkpt lat="45.65514" lon="2.8538">
        <ele>1164.2</ele>
        <time>2021-07-20T11:31:51Z</time>
      </trkpt>
      <trkpt lat="45.65509" lon="2.85386">
        <ele>1164.5</ele>
        <time>2021-07-20T11:31:59Z</time>
      </trkpt>
      <trkpt lat="45.65505" lon="2.85388">
        <ele>1165.3</ele>
        <time>2021-07-20T11:32:03Z</time>
      </trkpt>
      <trkpt lat="45.655" lon="2.85393">
        <ele>1165.8</ele>
        <time>2021-07-20T11:32:09Z</time>
      </trkpt>
      <trkpt lat="45.65496" lon="2.85396">
        <ele>1165.9</ele>
        <time>2021-07-20T11:32:13Z</time>
      </trkpt>
      <trkpt lat="45.6549" lon="2.85399">
        <ele>1166.3</ele>
        <time>2021-07-20T11:32:19Z</time>
      </trkpt>
      <trkpt lat="45.65484" lon="2.85401">
        <ele>1166.6</ele>
        <time>2021-07-20T11:32:25Z</time>
      </trkpt>
      <trkpt lat="45.6548" lon="2.85402">
        <ele>1166.9</ele>
        <time>2021-07-20T11:32:33Z</time>
      </trkpt>
      <trkpt lat="45.65474" lon="2.85404">
        <ele>1167.3</ele>
        <time>2021-07-20T11:32:47Z</time>
      </trkpt>
      <trkpt lat="45.65468" lon="2.85407">
        <ele>1167.6</ele>
        <time>2021-07-20T11:32:51Z</time>
      </trkpt>
      <trkpt lat="45.65463" lon="2.8541">
        <ele>1167.9</ele>
        <time>2021-07-20T11:32:55Z</time>
      </trkpt>
      <trkpt lat="45.65454" lon="2.85412">
        <ele>1168.5</ele>
        <time>2021-07-20T11:32:59Z</time>
      </trkpt>
      <trkpt lat="45.65447" lon="2.85413">
        <ele>1169.2</ele>
        <time>2021-07-20T11:33:03Z</time>
      </trkpt>
      <trkpt lat="45.65442" lon="2.85411">
        <ele>1169.9</ele>
        <time>2021-07-20T11:33:07Z</time>
      </trkpt>
      <trkpt lat="45.65436" lon="2.8541">
        <ele>1170.6</ele>
        <time>2021-07-20T11:33:11Z</time>
      </trkpt>
      <trkpt lat="45.65432" lon="2.85409">
        <ele>1171.2</ele>
        <time>2021-07-20T11:33:15Z</time>
      </trkpt>
      <trkpt lat="45.65428" lon="2.85404">
        <ele>1172.2</ele>
        <time>2021-07-20T11:33:19Z</time>
      </trkpt>
      <trkpt lat="45.65425" lon="2.85398">
        <ele>1173.2</ele>
        <time>2021-07-20T11:33:25Z</time>
      </trkpt>
      <trkpt lat="45.65419" lon="2.85395">
        <ele>1174</ele>
        <time>2021-07-20T11:33:29Z</time>
      </trkpt>
      <trkpt lat="45.65414" lon="2.85394">
        <ele>1174.5</ele>
        <time>2021-07-20T11:33:33Z</time>
      </trkpt>
      <trkpt lat="45.65408" lon="2.85394">
        <ele>1174.7</ele>
        <time>2021-07-20T11:33:37Z</time>
      </trkpt>
      <trkpt lat="45.65402" lon="2.85394">
        <ele>1174.9</ele>
        <time>2021-07-20T11:33:41Z</time>
      </trkpt>
      <trkpt lat="45.65397" lon="2.85393">
        <ele>1175.2</ele>
        <time>2021-07-20T11:33:45Z</time>
      </trkpt>
      <trkpt lat="45.65391" lon="2.85393">
        <ele>1175.4</ele>
        <time>2021-07-20T11:33:49Z</time>
      </trkpt>
      <trkpt lat="45.65385" lon="2.85393">
        <ele>1175.6</ele>
        <time>2021-07-20T11:33:53Z</time>
      </trkpt>
      <trkpt lat="45.65379" lon="2.85393">
        <ele>1175.8</ele>
        <time>2021-07-20T11:33:57Z</time>
      </trkpt>
      <trkpt lat="45.65373" lon="2.85393">
        <ele>1176</ele>
        <time>2021-07-20T11:34:01Z</time>
      </trkpt>
      <trkpt lat="45.65368" lon="2.85394">
        <ele>1176.1</ele>
        <time>2021-07-20T11:34:05Z</time>
      </trkpt>
      <trkpt lat="45.65363" lon="2.85391">
        <ele>1176.4</ele>
        <time>2021-07-20T11:34:17Z</time>
      </trkpt>
      <trkpt lat="45.65356" lon="2.85391">
        <ele>1176.6</ele>
        <time>2021-07-20T11:34:21Z</time>
      </trkpt>
      <trkpt lat="45.65349" lon="2.85391">
        <ele>1176.8</ele>
        <time>2021-07-20T11:34:25Z</time>
      </trkpt>
      <trkpt lat="45.65344" lon="2.8539">
        <ele>1177</ele>
        <time>2021-07-20T11:34:29Z</time>
      </trkpt>
      <trkpt lat="45.65339" lon="2.8539">
        <ele>1177.2</ele>
        <time>2021-07-20T11:34:33Z</time>
      </trkpt>
      <trkpt lat="45.65333" lon="2.85388">
        <ele>1177.4</ele>
        <time>2021-07-20T11:34:37Z</time>
      </trkpt>
      <trkpt lat="45.65327" lon="2.85388">
        <ele>1178.1</ele>
        <time>2021-07-20T11:34:41Z</time>
      </trkpt>
      <trkpt lat="45.65322" lon="2.85387">
        <ele>1178.6</ele>
        <time>2021-07-20T11:34:45Z</time>
      </trkpt>
      <trkpt lat="45.65318" lon="2.85384">
        <ele>1179.2</ele>
        <time>2021-07-20T11:34:49Z</time>
      </trkpt>
      <trkpt lat="45.65312" lon="2.85378">
        <ele>1179.9</ele>
        <time>2021-07-20T11:35:05Z</time>
      </trkpt>
      <trkpt lat="45.65309" lon="2.85369">
        <ele>1180.3</ele>
        <time>2021-07-20T11:35:09Z</time>
      </trkpt>
      <trkpt lat="45.65306" lon="2.85359">
        <ele>1180.6</ele>
        <time>2021-07-20T11:35:13Z</time>
      </trkpt>
      <trkpt lat="45.65302" lon="2.85349">
        <ele>1181.1</ele>
        <time>2021-07-20T11:35:17Z</time>
      </trkpt>
      <trkpt lat="45.65298" lon="2.85339">
        <ele>1181.4</ele>
        <time>2021-07-20T11:35:21Z</time>
      </trkpt>
      <trkpt lat="45.65293" lon="2.8533">
        <ele>1181.8</ele>
        <time>2021-07-20T11:35:25Z</time>
      </trkpt>
      <trkpt lat="45.65289" lon="2.85319">
        <ele>1182</ele>
        <time>2021-07-20T11:35:29Z</time>
      </trkpt>
      <trkpt lat="45.65285" lon="2.85308">
        <ele>1182</ele>
        <time>2021-07-20T11:35:33Z</time>
      </trkpt>
      <trkpt lat="45.65279" lon="2.85298">
        <ele>1182.2</ele>
        <time>2021-07-20T11:35:37Z</time>
      </trkpt>
      <trkpt lat="45.65272" lon="2.85289">
        <ele>1182.2</ele>
        <time>2021-07-20T11:35:41Z</time>
      </trkpt>
      <trkpt lat="45.65269" lon="2.85284">
        <ele>1182.2</ele>
        <time>2021-07-20T11:35:43Z</time>
      </trkpt>
      <trkpt lat="45.65265" lon="2.85279">
        <ele>1182.1</ele>
        <time>2021-07-20T11:35:45Z</time>
      </trkpt>
      <trkpt lat="45.65261" lon="2.85274">
        <ele>1182</ele>
        <time>2021-07-20T11:35:47Z</time>
      </trkpt>
      <trkpt lat="45.65257" lon="2.85271">
        <ele>1182</ele>
        <time>2021-07-20T11:35:49Z</time>
      </trkpt>
      <trkpt lat="45.65249" lon="2.85264">
        <ele>1181.9</ele>
        <time>2021-07-20T11:35:53Z</time>
      </trkpt>
      <trkpt lat="45.65245" lon="2.8526">
        <ele>1181.9</ele>
        <time>2021-07-20T11:35:55Z</time>
      </trkpt>
      <trkpt lat="45.65241" lon="2.85258">
        <ele>1182.1</ele>
        <time>2021-07-20T11:35:57Z</time>
      </trkpt>
      <trkpt lat="45.65237" lon="2.85254">
        <ele>1182.2</ele>
        <time>2021-07-20T11:35:59Z</time>
      </trkpt>
      <trkpt lat="45.65232" lon="2.85252">
        <ele>1182.4</ele>
        <time>2021-07-20T11:36:01Z</time>
      </trkpt>
      <trkpt lat="45.65227" lon="2.8525">
        <ele>1182.6</ele>
        <time>2021-07-20T11:36:03Z</time>
      </trkpt>
      <trkpt lat="45.65222" lon="2.85248">
        <ele>1182.9</ele>
        <time>2021-07-20T11:36:05Z</time>
      </trkpt>
      <trkpt lat="45.65218" lon="2.85246">
        <ele>1183.1</ele>
        <time>2021-07-20T11:36:07Z</time>
      </trkpt>
      <trkpt lat="45.65212" lon="2.85245">
        <ele>1183.4</ele>
        <time>2021-07-20T11:36:09Z</time>
      </trkpt>
      <trkpt lat="45.65208" lon="2.85244">
        <ele>1183.7</ele>
        <time>2021-07-20T11:36:11Z</time>
      </trkpt>
      <trkpt lat="45.65203" lon="2.85243">
        <ele>1184</ele>
        <time>2021-07-20T11:36:13Z</time>
      </trkpt>
      <trkpt lat="45.65198" lon="2.85242">
        <ele>1184.3</ele>
        <time>2021-07-20T11:36:15Z</time>
      </trkpt>
      <trkpt lat="45.65194" lon="2.85241">
        <ele>1184.5</ele>
        <time>2021-07-20T11:36:17Z</time>
      </trkpt>
      <trkpt lat="45.65188" lon="2.8524">
        <ele>1184.9</ele>
        <time>2021-07-20T11:36:19Z</time>
      </trkpt>
      <trkpt lat="45.65183" lon="2.85239">
        <ele>1185.2</ele>
        <time>2021-07-20T11:36:21Z</time>
      </trkpt>
      <trkpt lat="45.65177" lon="2.85237">
        <ele>1185.5</ele>
        <time>2021-07-20T11:36:23Z</time>
      </trkpt>
      <trkpt lat="45.65171" lon="2.85236">
        <ele>1185.9</ele>
        <time>2021-07-20T11:36:25Z</time>
      </trkpt>
      <trkpt lat="45.65164" lon="2.85235">
        <ele>1186.2</ele>
        <time>2021-07-20T11:36:27Z</time>
      </trkpt>
      <trkpt lat="45.65158" lon="2.85235">
        <ele>1186.3</ele>
        <time>2021-07-20T11:36:29Z</time>
      </trkpt>
      <trkpt lat="45.65152" lon="2.85234">
        <ele>1186.4</ele>
        <time>2021-07-20T11:36:31Z</time>
      </trkpt>
      <trkpt lat="45.65145" lon="2.85233">
        <ele>1186.5</ele>
        <time>2021-07-20T11:36:33Z</time>
      </trkpt>
      <trkpt lat="45.65139" lon="2.8523">
        <ele>1186.5</ele>
        <time>2021-07-20T11:36:35Z</time>
      </trkpt>
      <trkpt lat="45.65132" lon="2.85229">
        <ele>1186.7</ele>
        <time>2021-07-20T11:36:37Z</time>
      </trkpt>
      <trkpt lat="45.65126" lon="2.85228">
        <ele>1186.8</ele>
        <time>2021-07-20T11:36:39Z</time>
      </trkpt>
      <trkpt lat="45.6512" lon="2.85227">
        <ele>1186.9</ele>
        <time>2021-07-20T11:36:41Z</time>
      </trkpt>
      <trkpt lat="45.65114" lon="2.85226">
        <ele>1187</ele>
        <time>2021-07-20T11:36:43Z</time>
      </trkpt>
      <trkpt lat="45.65107" lon="2.85224">
        <ele>1187.1</ele>
        <time>2021-07-20T11:36:45Z</time>
      </trkpt>
      <trkpt lat="45.651" lon="2.85223">
        <ele>1187.2</ele>
        <time>2021-07-20T11:36:47Z</time>
      </trkpt>
      <trkpt lat="45.65092" lon="2.85222">
        <ele>1187.4</ele>
        <time>2021-07-20T11:36:49Z</time>
      </trkpt>
      <trkpt lat="45.65084" lon="2.85221">
        <ele>1187.6</ele>
        <time>2021-07-20T11:36:51Z</time>
      </trkpt>
      <trkpt lat="45.65076" lon="2.8522">
        <ele>1187.7</ele>
        <time>2021-07-20T11:36:53Z</time>
      </trkpt>
      <trkpt lat="45.65068" lon="2.85218">
        <ele>1187.8</ele>
        <time>2021-07-20T11:36:55Z</time>
      </trkpt>
      <trkpt lat="45.65059" lon="2.85217">
        <ele>1187.9</ele>
        <time>2021-07-20T11:36:57Z</time>
      </trkpt>
      <trkpt lat="45.65049" lon="2.85216">
        <ele>1188</ele>
        <time>2021-07-20T11:36:59Z</time>
      </trkpt>
      <trkpt lat="45.65039" lon="2.85215">
        <ele>1188.1</ele>
        <time>2021-07-20T11:37:01Z</time>
      </trkpt>
      <trkpt lat="45.65029" lon="2.85214">
        <ele>1188.2</ele>
        <time>2021-07-20T11:37:03Z</time>
      </trkpt>
      <trkpt lat="45.65018" lon="2.85212">
        <ele>1188.2</ele>
        <time>2021-07-20T11:37:05Z</time>
      </trkpt>
      <trkpt lat="45.65008" lon="2.85211">
        <ele>1188.2</ele>
        <time>2021-07-20T11:37:07Z</time>
      </trkpt>
      <trkpt lat="45.65" lon="2.85211">
        <ele>1188.3</ele>
        <time>2021-07-20T11:37:09Z</time>
      </trkpt>
      <trkpt lat="45.64992" lon="2.85212">
        <ele>1188.5</ele>
        <time>2021-07-20T11:37:11Z</time>
      </trkpt>
      <trkpt lat="45.64985" lon="2.85213">
        <ele>1188.6</ele>
        <time>2021-07-20T11:37:13Z</time>
      </trkpt>
      <trkpt lat="45.64978" lon="2.85213">
        <ele>1188.6</ele>
        <time>2021-07-20T11:37:15Z</time>
      </trkpt>
      <trkpt lat="45.64971" lon="2.85214">
        <ele>1188.8</ele>
        <time>2021-07-20T11:37:17Z</time>
      </trkpt>
      <trkpt lat="45.64963" lon="2.85216">
        <ele>1189.1</ele>
        <time>2021-07-20T11:37:21Z</time>
      </trkpt>
      <trkpt lat="45.64958" lon="2.85217">
        <ele>1189.3</ele>
        <time>2021-07-20T11:37:23Z</time>
      </trkpt>
      <trkpt lat="45.64951" lon="2.85223">
        <ele>1190.1</ele>
        <time>2021-07-20T11:37:27Z</time>
      </trkpt>
      <trkpt lat="45.64943" lon="2.85227">
        <ele>1190.9</ele>
        <time>2021-07-20T11:37:31Z</time>
      </trkpt>
      <trkpt lat="45.64935" lon="2.85232">
        <ele>1191.7</ele>
        <time>2021-07-20T11:37:35Z</time>
      </trkpt>
      <trkpt lat="45.64928" lon="2.85235">
        <ele>1192.4</ele>
        <time>2021-07-20T11:37:39Z</time>
      </trkpt>
      <trkpt lat="45.64921" lon="2.85241">
        <ele>1193.4</ele>
        <time>2021-07-20T11:37:43Z</time>
      </trkpt>
      <trkpt lat="45.64914" lon="2.85245">
        <ele>1194.1</ele>
        <time>2021-07-20T11:37:47Z</time>
      </trkpt>
      <trkpt lat="45.64908" lon="2.85249">
        <ele>1194.5</ele>
        <time>2021-07-20T11:37:51Z</time>
      </trkpt>
      <trkpt lat="45.64901" lon="2.85253">
        <ele>1194.9</ele>
        <time>2021-07-20T11:37:55Z</time>
      </trkpt>
      <trkpt lat="45.64893" lon="2.85259">
        <ele>1195.3</ele>
        <time>2021-07-20T11:37:59Z</time>
      </trkpt>
      <trkpt lat="45.64885" lon="2.85265">
        <ele>1195.9</ele>
        <time>2021-07-20T11:38:03Z</time>
      </trkpt>
      <trkpt lat="45.64878" lon="2.85268">
        <ele>1196.1</ele>
        <time>2021-07-20T11:38:07Z</time>
      </trkpt>
      <trkpt lat="45.64872" lon="2.85273">
        <ele>1196.4</ele>
        <time>2021-07-20T11:38:11Z</time>
      </trkpt>
      <trkpt lat="45.64866" lon="2.85277">
        <ele>1196.7</ele>
        <time>2021-07-20T11:38:15Z</time>
      </trkpt>
      <trkpt lat="45.64861" lon="2.85282">
        <ele>1197.1</ele>
        <time>2021-07-20T11:38:19Z</time>
      </trkpt>
      <trkpt lat="45.64856" lon="2.85285">
        <ele>1197.2</ele>
        <time>2021-07-20T11:38:23Z</time>
      </trkpt>
      <trkpt lat="45.6485" lon="2.85288">
        <ele>1197.3</ele>
        <time>2021-07-20T11:38:27Z</time>
      </trkpt>
      <trkpt lat="45.64845" lon="2.85292">
        <ele>1197.6</ele>
        <time>2021-07-20T11:38:31Z</time>
      </trkpt>
      <trkpt lat="45.6484" lon="2.85295">
        <ele>1197.7</ele>
        <time>2021-07-20T11:38:35Z</time>
      </trkpt>
      <trkpt lat="45.64835" lon="2.85298">
        <ele>1197.8</ele>
        <time>2021-07-20T11:38:39Z</time>
      </trkpt>
      <trkpt lat="45.64828" lon="2.85303">
        <ele>1198.5</ele>
        <time>2021-07-20T11:38:43Z</time>
      </trkpt>
      <trkpt lat="45.64822" lon="2.85306">
        <ele>1198.9</ele>
        <time>2021-07-20T11:38:47Z</time>
      </trkpt>
      <trkpt lat="45.64817" lon="2.8531">
        <ele>1199.5</ele>
        <time>2021-07-20T11:38:51Z</time>
      </trkpt>
      <trkpt lat="45.6481" lon="2.85314">
        <ele>1200</ele>
        <time>2021-07-20T11:38:55Z</time>
      </trkpt>
      <trkpt lat="45.64804" lon="2.85318">
        <ele>1200.6</ele>
        <time>2021-07-20T11:38:59Z</time>
      </trkpt>
      <trkpt lat="45.64799" lon="2.85323">
        <ele>1201.3</ele>
        <time>2021-07-20T11:39:03Z</time>
      </trkpt>
      <trkpt lat="45.64796" lon="2.85329">
        <ele>1202</ele>
        <time>2021-07-20T11:39:07Z</time>
      </trkpt>
      <trkpt lat="45.64792" lon="2.85336">
        <ele>1202.8</ele>
        <time>2021-07-20T11:39:11Z</time>
      </trkpt>
      <trkpt lat="45.64788" lon="2.85341">
        <ele>1203.5</ele>
        <time>2021-07-20T11:39:15Z</time>
      </trkpt>
      <trkpt lat="45.64785" lon="2.85346">
        <ele>1204.1</ele>
        <time>2021-07-20T11:39:19Z</time>
      </trkpt>
      <trkpt lat="45.64782" lon="2.85351">
        <ele>1204.7</ele>
        <time>2021-07-20T11:39:23Z</time>
      </trkpt>
      <trkpt lat="45.64777" lon="2.85357">
        <ele>1205.4</ele>
        <time>2021-07-20T11:39:27Z</time>
      </trkpt>
      <trkpt lat="45.64773" lon="2.85363">
        <ele>1205.9</ele>
        <time>2021-07-20T11:39:31Z</time>
      </trkpt>
      <trkpt lat="45.64769" lon="2.85369">
        <ele>1206.6</ele>
        <time>2021-07-20T11:39:35Z</time>
      </trkpt>
      <trkpt lat="45.64766" lon="2.85376">
        <ele>1207.3</ele>
        <time>2021-07-20T11:39:39Z</time>
      </trkpt>
      <trkpt lat="45.6476" lon="2.85379">
        <ele>1207.6</ele>
        <time>2021-07-20T11:40:17Z</time>
      </trkpt>
      <trkpt lat="45.64756" lon="2.85388">
        <ele>1208.3</ele>
        <time>2021-07-20T11:40:21Z</time>
      </trkpt>
      <trkpt lat="45.64754" lon="2.85396">
        <ele>1209.1</ele>
        <time>2021-07-20T11:40:25Z</time>
      </trkpt>
      <trkpt lat="45.64752" lon="2.85407">
        <ele>1210.2</ele>
        <time>2021-07-20T11:40:29Z</time>
      </trkpt>
      <trkpt lat="45.64751" lon="2.85418">
        <ele>1211.1</ele>
        <time>2021-07-20T11:40:33Z</time>
      </trkpt>
      <trkpt lat="45.64748" lon="2.85427">
        <ele>1211.4</ele>
        <time>2021-07-20T11:40:37Z</time>
      </trkpt>
      <trkpt lat="45.64746" lon="2.85435">
        <ele>1211.8</ele>
        <time>2021-07-20T11:40:41Z</time>
      </trkpt>
      <trkpt lat="45.64744" lon="2.85445">
        <ele>1212.2</ele>
        <time>2021-07-20T11:40:45Z</time>
      </trkpt>
      <trkpt lat="45.64744" lon="2.85454">
        <ele>1212.5</ele>
        <time>2021-07-20T11:40:49Z</time>
      </trkpt>
      <trkpt lat="45.64745" lon="2.85462">
        <ele>1212.8</ele>
        <time>2021-07-20T11:40:53Z</time>
      </trkpt>
      <trkpt lat="45.64744" lon="2.85469">
        <ele>1213</ele>
        <time>2021-07-20T11:40:57Z</time>
      </trkpt>
      <trkpt lat="45.64744" lon="2.85477">
        <ele>1213.3</ele>
        <time>2021-07-20T11:41:01Z</time>
      </trkpt>
      <trkpt lat="45.64744" lon="2.85488">
        <ele>1213.7</ele>
        <time>2021-07-20T11:41:05Z</time>
      </trkpt>
      <trkpt lat="45.64744" lon="2.855">
        <ele>1214.1</ele>
        <time>2021-07-20T11:41:09Z</time>
      </trkpt>
      <trkpt lat="45.64743" lon="2.8551">
        <ele>1213.9</ele>
        <time>2021-07-20T11:41:13Z</time>
      </trkpt>
      <trkpt lat="45.64742" lon="2.85518">
        <ele>1213.6</ele>
        <time>2021-07-20T11:41:21Z</time>
      </trkpt>
      <trkpt lat="45.64744" lon="2.85525">
        <ele>1213.4</ele>
        <time>2021-07-20T11:45:31Z</time>
      </trkpt>
      <trkpt lat="45.64743" lon="2.85534">
        <ele>1213.1</ele>
        <time>2021-07-20T11:45:35Z</time>
      </trkpt>
      <trkpt lat="45.64743" lon="2.85546">
        <ele>1212.8</ele>
        <time>2021-07-20T11:45:39Z</time>
      </trkpt>
      <trkpt lat="45.64742" lon="2.85554">
        <ele>1212.5</ele>
        <time>2021-07-20T11:45:41Z</time>
      </trkpt>
      <trkpt lat="45.64744" lon="2.85561">
        <ele>1212.3</ele>
        <time>2021-07-20T11:45:43Z</time>
      </trkpt>
      <trkpt lat="45.64747" lon="2.85573">
        <ele>1212.1</ele>
        <time>2021-07-20T11:45:45Z</time>
      </trkpt>
      <trkpt lat="45.64751" lon="2.85584">
        <ele>1212</ele>
        <time>2021-07-20T11:45:47Z</time>
      </trkpt>
      <trkpt lat="45.64755" lon="2.85593">
        <ele>1212.2</ele>
        <time>2021-07-20T11:45:49Z</time>
      </trkpt>
      <trkpt lat="45.64759" lon="2.85603">
        <ele>1212.2</ele>
        <time>2021-07-20T11:45:51Z</time>
      </trkpt>
      <trkpt lat="45.64761" lon="2.85614">
        <ele>1212.3</ele>
        <time>2021-07-20T11:45:53Z</time>
      </trkpt>
      <trkpt lat="45.64761" lon="2.85624">
        <ele>1212.2</ele>
        <time>2021-07-20T11:45:55Z</time>
      </trkpt>
      <trkpt lat="45.6476" lon="2.85633">
        <ele>1212.1</ele>
        <time>2021-07-20T11:45:57Z</time>
      </trkpt>
      <trkpt lat="45.64762" lon="2.85644">
        <ele>1212.2</ele>
        <time>2021-07-20T11:45:59Z</time>
      </trkpt>
      <trkpt lat="45.64765" lon="2.85656">
        <ele>1212.3</ele>
        <time>2021-07-20T11:46:01Z</time>
      </trkpt>
      <trkpt lat="45.64769" lon="2.85668">
        <ele>1212.5</ele>
        <time>2021-07-20T11:46:03Z</time>
      </trkpt>
      <trkpt lat="45.64773" lon="2.85679">
        <ele>1212.6</ele>
        <time>2021-07-20T11:46:05Z</time>
      </trkpt>
      <trkpt lat="45.64776" lon="2.85689">
        <ele>1212.6</ele>
        <time>2021-07-20T11:46:07Z</time>
      </trkpt>
      <trkpt lat="45.64778" lon="2.85699">
        <ele>1212.6</ele>
        <time>2021-07-20T11:46:09Z</time>
      </trkpt>
      <trkpt lat="45.6478" lon="2.85709">
        <ele>1212.5</ele>
        <time>2021-07-20T11:46:11Z</time>
      </trkpt>
      <trkpt lat="45.64779" lon="2.85719">
        <ele>1212.2</ele>
        <time>2021-07-20T11:46:13Z</time>
      </trkpt>
      <trkpt lat="45.64775" lon="2.85724">
        <ele>1211.7</ele>
        <time>2021-07-20T11:46:15Z</time>
      </trkpt>
      <trkpt lat="45.6477" lon="2.8573">
        <ele>1211</ele>
        <time>2021-07-20T11:46:19Z</time>
      </trkpt>
      <trkpt lat="45.64766" lon="2.85733">
        <ele>1210.4</ele>
        <time>2021-07-20T12:50:21Z</time>
      </trkpt>
      <trkpt lat="45.64771" lon="2.85733">
        <ele>1211</ele>
        <time>2021-07-20T12:55:09Z</time>
      </trkpt>
      <trkpt lat="45.64769" lon="2.85739">
        <ele>1210.6</ele>
        <time>2021-07-20T12:56:43Z</time>
      </trkpt>
      <trkpt lat="45.64771" lon="2.85733">
        <ele>1210.9</ele>
        <time>2021-07-20T12:57:15Z</time>
      </trkpt>
      <trkpt lat="45.64774" lon="2.85726">
        <ele>1211.5</ele>
        <time>2021-07-20T12:57:21Z</time>
      </trkpt>
      <trkpt lat="45.64778" lon="2.85722">
        <ele>1212.1</ele>
        <time>2021-07-20T12:57:29Z</time>
      </trkpt>
      <trkpt lat="45.64781" lon="2.85727">
        <ele>1212.2</ele>
        <time>2021-07-20T12:57:37Z</time>
      </trkpt>
      <trkpt lat="45.64779" lon="2.85733">
        <ele>1211.9</ele>
        <time>2021-07-20T12:58:05Z</time>
      </trkpt>
      <trkpt lat="45.64782" lon="2.85745">
        <ele>1211.9</ele>
        <time>2021-07-20T12:58:09Z</time>
      </trkpt>
      <trkpt lat="45.64784" lon="2.85758">
        <ele>1212.1</ele>
        <time>2021-07-20T12:58:13Z</time>
      </trkpt>
      <trkpt lat="45.64786" lon="2.85769">
        <ele>1212.2</ele>
        <time>2021-07-20T12:58:17Z</time>
      </trkpt>
      <trkpt lat="45.64788" lon="2.85781">
        <ele>1212.4</ele>
        <time>2021-07-20T12:58:21Z</time>
      </trkpt>
      <trkpt lat="45.6479" lon="2.85787">
        <ele>1212.6</ele>
        <time>2021-07-20T12:58:23Z</time>
      </trkpt>
      <trkpt lat="45.64792" lon="2.85793">
        <ele>1212.8</ele>
        <time>2021-07-20T12:58:25Z</time>
      </trkpt>
      <trkpt lat="45.64794" lon="2.85801">
        <ele>1212.9</ele>
        <time>2021-07-20T12:58:27Z</time>
      </trkpt>
      <trkpt lat="45.64795" lon="2.85809">
        <ele>1213</ele>
        <time>2021-07-20T12:58:29Z</time>
      </trkpt>
      <trkpt lat="45.64796" lon="2.85817">
        <ele>1213</ele>
        <time>2021-07-20T12:58:31Z</time>
      </trkpt>
      <trkpt lat="45.64797" lon="2.85823">
        <ele>1213.1</ele>
        <time>2021-07-20T12:58:33Z</time>
      </trkpt>
      <trkpt lat="45.64797" lon="2.8583">
        <ele>1213.1</ele>
        <time>2021-07-20T12:58:35Z</time>
      </trkpt>
      <trkpt lat="45.64798" lon="2.85839">
        <ele>1213.2</ele>
        <time>2021-07-20T12:58:37Z</time>
      </trkpt>
      <trkpt lat="45.64797" lon="2.85847">
        <ele>1213.2</ele>
        <time>2021-07-20T12:58:39Z</time>
      </trkpt>
      <trkpt lat="45.64797" lon="2.85856">
        <ele>1213.3</ele>
        <time>2021-07-20T12:58:41Z</time>
      </trkpt>
      <trkpt lat="45.64795" lon="2.85866">
        <ele>1213.1</ele>
        <time>2021-07-20T12:58:43Z</time>
      </trkpt>
      <trkpt lat="45.64793" lon="2.85877">
        <ele>1212.9</ele>
        <time>2021-07-20T12:58:45Z</time>
      </trkpt>
      <trkpt lat="45.64792" lon="2.85887">
        <ele>1212.9</ele>
        <time>2021-07-20T12:58:47Z</time>
      </trkpt>
      <trkpt lat="45.64792" lon="2.85898">
        <ele>1212.9</ele>
        <time>2021-07-20T12:58:49Z</time>
      </trkpt>
      <trkpt lat="45.64791" lon="2.85907">
        <ele>1212.9</ele>
        <time>2021-07-20T12:58:51Z</time>
      </trkpt>
      <trkpt lat="45.64791" lon="2.85915">
        <ele>1212.9</ele>
        <time>2021-07-20T12:58:53Z</time>
      </trkpt>
      <trkpt lat="45.6479" lon="2.85924">
        <ele>1212.8</ele>
        <time>2021-07-20T12:58:55Z</time>
      </trkpt>
      <trkpt lat="45.6479" lon="2.85932">
        <ele>1212.8</ele>
        <time>2021-07-20T12:58:57Z</time>
      </trkpt>
      <trkpt lat="45.64788" lon="2.8594">
        <ele>1212.6</ele>
        <time>2021-07-20T12:58:59Z</time>
      </trkpt>
      <trkpt lat="45.64787" lon="2.85947">
        <ele>1212.5</ele>
        <time>2021-07-20T12:59:01Z</time>
      </trkpt>
      <trkpt lat="45.64786" lon="2.85956">
        <ele>1212.4</ele>
        <time>2021-07-20T12:59:03Z</time>
      </trkpt>
      <trkpt lat="45.64785" lon="2.85965">
        <ele>1212.3</ele>
        <time>2021-07-20T12:59:05Z</time>
      </trkpt>
      <trkpt lat="45.64783" lon="2.85973">
        <ele>1212.2</ele>
        <time>2021-07-20T12:59:07Z</time>
      </trkpt>
      <trkpt lat="45.64782" lon="2.85982">
        <ele>1212.1</ele>
        <time>2021-07-20T12:59:09Z</time>
      </trkpt>
      <trkpt lat="45.64781" lon="2.85991">
        <ele>1212</ele>
        <time>2021-07-20T12:59:11Z</time>
      </trkpt>
      <trkpt lat="45.64779" lon="2.85999">
        <ele>1211.9</ele>
        <time>2021-07-20T12:59:13Z</time>
      </trkpt>
      <trkpt lat="45.64778" lon="2.86008">
        <ele>1212</ele>
        <time>2021-07-20T12:59:15Z</time>
      </trkpt>
      <trkpt lat="45.64776" lon="2.86016">
        <ele>1212.1</ele>
        <time>2021-07-20T12:59:17Z</time>
      </trkpt>
      <trkpt lat="45.64775" lon="2.86023">
        <ele>1212.2</ele>
        <time>2021-07-20T12:59:19Z</time>
      </trkpt>
      <trkpt lat="45.64771" lon="2.86036">
        <ele>1212.4</ele>
        <time>2021-07-20T12:59:23Z</time>
      </trkpt>
      <trkpt lat="45.64769" lon="2.86042">
        <ele>1212.5</ele>
        <time>2021-07-20T12:59:25Z</time>
      </trkpt>
      <trkpt lat="45.64768" lon="2.86049">
        <ele>1212.7</ele>
        <time>2021-07-20T12:59:27Z</time>
      </trkpt>
      <trkpt lat="45.64766" lon="2.86062">
        <ele>1213.1</ele>
        <time>2021-07-20T12:59:31Z</time>
      </trkpt>
      <trkpt lat="45.64765" lon="2.86068">
        <ele>1213.4</ele>
        <time>2021-07-20T12:59:33Z</time>
      </trkpt>
      <trkpt lat="45.64764" lon="2.86075">
        <ele>1213.6</ele>
        <time>2021-07-20T12:59:35Z</time>
      </trkpt>
      <trkpt lat="45.64764" lon="2.86081">
        <ele>1213.9</ele>
        <time>2021-07-20T12:59:37Z</time>
      </trkpt>
      <trkpt lat="45.64763" lon="2.86088">
        <ele>1214</ele>
        <time>2021-07-20T12:59:39Z</time>
      </trkpt>
      <trkpt lat="45.6476" lon="2.861">
        <ele>1213.8</ele>
        <time>2021-07-20T12:59:43Z</time>
      </trkpt>
      <trkpt lat="45.64759" lon="2.86111">
        <ele>1213.9</ele>
        <time>2021-07-20T12:59:47Z</time>
      </trkpt>
      <trkpt lat="45.64756" lon="2.86123">
        <ele>1213.8</ele>
        <time>2021-07-20T12:59:51Z</time>
      </trkpt>
      <trkpt lat="45.64755" lon="2.86129">
        <ele>1213.8</ele>
        <time>2021-07-20T12:59:53Z</time>
      </trkpt>
      <trkpt lat="45.64754" lon="2.86136">
        <ele>1213.8</ele>
        <time>2021-07-20T12:59:55Z</time>
      </trkpt>
      <trkpt lat="45.64753" lon="2.86143">
        <ele>1213.8</ele>
        <time>2021-07-20T12:59:57Z</time>
      </trkpt>
      <trkpt lat="45.64752" lon="2.8615">
        <ele>1213.9</ele>
        <time>2021-07-20T12:59:59Z</time>
      </trkpt>
      <trkpt lat="45.64751" lon="2.86157">
        <ele>1213.9</ele>
        <time>2021-07-20T13:00:01Z</time>
      </trkpt>
      <trkpt lat="45.6475" lon="2.86164">
        <ele>1214</ele>
        <time>2021-07-20T13:00:03Z</time>
      </trkpt>
      <trkpt lat="45.64749" lon="2.86171">
        <ele>1213.7</ele>
        <time>2021-07-20T13:00:05Z</time>
      </trkpt>
      <trkpt lat="45.64748" lon="2.86177">
        <ele>1213.3</ele>
        <time>2021-07-20T13:00:07Z</time>
      </trkpt>
      <trkpt lat="45.64746" lon="2.86185">
        <ele>1212.9</ele>
        <time>2021-07-20T13:00:09Z</time>
      </trkpt>
      <trkpt lat="45.64743" lon="2.86194">
        <ele>1212.4</ele>
        <time>2021-07-20T13:00:11Z</time>
      </trkpt>
      <trkpt lat="45.64741" lon="2.86204">
        <ele>1211.9</ele>
        <time>2021-07-20T13:00:13Z</time>
      </trkpt>
      <trkpt lat="45.64739" lon="2.86216">
        <ele>1211.5</ele>
        <time>2021-07-20T13:00:15Z</time>
      </trkpt>
      <trkpt lat="45.64738" lon="2.8623">
        <ele>1211.1</ele>
        <time>2021-07-20T13:00:17Z</time>
      </trkpt>
      <trkpt lat="45.64738" lon="2.86243">
        <ele>1210.7</ele>
        <time>2021-07-20T13:00:19Z</time>
      </trkpt>
      <trkpt lat="45.64736" lon="2.86254">
        <ele>1210.3</ele>
        <time>2021-07-20T13:00:21Z</time>
      </trkpt>
      <trkpt lat="45.64734" lon="2.86261">
        <ele>1210</ele>
        <time>2021-07-20T13:00:23Z</time>
      </trkpt>
      <trkpt lat="45.64736" lon="2.86269">
        <ele>1209.5</ele>
        <time>2021-07-20T13:00:25Z</time>
      </trkpt>
      <trkpt lat="45.64738" lon="2.86281">
        <ele>1208.8</ele>
        <time>2021-07-20T13:00:27Z</time>
      </trkpt>
      <trkpt lat="45.6474" lon="2.86292">
        <ele>1208.2</ele>
        <time>2021-07-20T13:00:29Z</time>
      </trkpt>
      <trkpt lat="45.6474" lon="2.86303">
        <ele>1207.6</ele>
        <time>2021-07-20T13:00:31Z</time>
      </trkpt>
      <trkpt lat="45.6474" lon="2.86314">
        <ele>1207.1</ele>
        <time>2021-07-20T13:00:33Z</time>
      </trkpt>
      <trkpt lat="45.64738" lon="2.86326">
        <ele>1206.5</ele>
        <time>2021-07-20T13:00:35Z</time>
      </trkpt>
      <trkpt lat="45.64739" lon="2.86341">
        <ele>1205.5</ele>
        <time>2021-07-20T13:00:37Z</time>
      </trkpt>
      <trkpt lat="45.64739" lon="2.86357">
        <ele>1204.2</ele>
        <time>2021-07-20T13:00:39Z</time>
      </trkpt>
      <trkpt lat="45.64736" lon="2.86372">
        <ele>1203</ele>
        <time>2021-07-20T13:00:41Z</time>
      </trkpt>
      <trkpt lat="45.64734" lon="2.86387">
        <ele>1201.8</ele>
        <time>2021-07-20T13:00:43Z</time>
      </trkpt>
      <trkpt lat="45.64732" lon="2.86403">
        <ele>1200.5</ele>
        <time>2021-07-20T13:00:45Z</time>
      </trkpt>
      <trkpt lat="45.64731" lon="2.86417">
        <ele>1199.4</ele>
        <time>2021-07-20T13:00:47Z</time>
      </trkpt>
      <trkpt lat="45.64732" lon="2.86434">
        <ele>1198.3</ele>
        <time>2021-07-20T13:00:49Z</time>
      </trkpt>
      <trkpt lat="45.6473" lon="2.86449">
        <ele>1197.3</ele>
        <time>2021-07-20T13:00:51Z</time>
      </trkpt>
      <trkpt lat="45.64729" lon="2.86462">
        <ele>1196.5</ele>
        <time>2021-07-20T13:00:53Z</time>
      </trkpt>
      <trkpt lat="45.64727" lon="2.86473">
        <ele>1195.8</ele>
        <time>2021-07-20T13:00:55Z</time>
      </trkpt>
      <trkpt lat="45.64725" lon="2.86486">
        <ele>1194.9</ele>
        <time>2021-07-20T13:00:57Z</time>
      </trkpt>
      <trkpt lat="45.64723" lon="2.86501">
        <ele>1193.9</ele>
        <time>2021-07-20T13:00:59Z</time>
      </trkpt>
      <trkpt lat="45.64723" lon="2.86516">
        <ele>1192.6</ele>
        <time>2021-07-20T13:01:01Z</time>
      </trkpt>
      <trkpt lat="45.64723" lon="2.86532">
        <ele>1191.2</ele>
        <time>2021-07-20T13:01:03Z</time>
      </trkpt>
      <trkpt lat="45.64722" lon="2.86545">
        <ele>1190</ele>
        <time>2021-07-20T13:01:05Z</time>
      </trkpt>
      <trkpt lat="45.64724" lon="2.86559">
        <ele>1188.7</ele>
        <time>2021-07-20T13:01:07Z</time>
      </trkpt>
      <trkpt lat="45.64724" lon="2.86576">
        <ele>1187.3</ele>
        <time>2021-07-20T13:01:09Z</time>
      </trkpt>
      <trkpt lat="45.64725" lon="2.86594">
        <ele>1185.9</ele>
        <time>2021-07-20T13:01:11Z</time>
      </trkpt>
      <trkpt lat="45.64726" lon="2.86608">
        <ele>1184.8</ele>
        <time>2021-07-20T13:01:13Z</time>
      </trkpt>
      <trkpt lat="45.64727" lon="2.86618">
        <ele>1184</ele>
        <time>2021-07-20T13:01:15Z</time>
      </trkpt>
      <trkpt lat="45.64727" lon="2.86625">
        <ele>1183.5</ele>
        <time>2021-07-20T13:01:17Z</time>
      </trkpt>
      <trkpt lat="45.64724" lon="2.86631">
        <ele>1183.3</ele>
        <time>2021-07-20T13:02:47Z</time>
      </trkpt>
      <trkpt lat="45.64721" lon="2.86645">
        <ele>1182.6</ele>
        <time>2021-07-20T13:02:51Z</time>
      </trkpt>
      <trkpt lat="45.64719" lon="2.86655">
        <ele>1182.2</ele>
        <time>2021-07-20T13:02:53Z</time>
      </trkpt>
      <trkpt lat="45.64717" lon="2.86665">
        <ele>1181.7</ele>
        <time>2021-07-20T13:02:55Z</time>
      </trkpt>
      <trkpt lat="45.64714" lon="2.86676">
        <ele>1181.7</ele>
        <time>2021-07-20T13:02:57Z</time>
      </trkpt>
      <trkpt lat="45.64712" lon="2.86688">
        <ele>1181.7</ele>
        <time>2021-07-20T13:02:59Z</time>
      </trkpt>
      <trkpt lat="45.6471" lon="2.867">
        <ele>1181.7</ele>
        <time>2021-07-20T13:03:01Z</time>
      </trkpt>
      <trkpt lat="45.64708" lon="2.86712">
        <ele>1181.7</ele>
        <time>2021-07-20T13:03:03Z</time>
      </trkpt>
      <trkpt lat="45.64706" lon="2.86724">
        <ele>1181.7</ele>
        <time>2021-07-20T13:03:05Z</time>
      </trkpt>
      <trkpt lat="45.64706" lon="2.86737">
        <ele>1181.5</ele>
        <time>2021-07-20T13:03:07Z</time>
      </trkpt>
      <trkpt lat="45.64703" lon="2.86751">
        <ele>1181.6</ele>
        <time>2021-07-20T13:03:09Z</time>
      </trkpt>
      <trkpt lat="45.64698" lon="2.86762">
        <ele>1181.4</ele>
        <time>2021-07-20T13:03:11Z</time>
      </trkpt>
      <trkpt lat="45.64694" lon="2.86775">
        <ele>1181.1</ele>
        <time>2021-07-20T13:03:13Z</time>
      </trkpt>
      <trkpt lat="45.64691" lon="2.86789">
        <ele>1180.7</ele>
        <time>2021-07-20T13:03:15Z</time>
      </trkpt>
      <trkpt lat="45.64688" lon="2.86803">
        <ele>1180.1</ele>
        <time>2021-07-20T13:03:17Z</time>
      </trkpt>
      <trkpt lat="45.64686" lon="2.86816">
        <ele>1179.6</ele>
        <time>2021-07-20T13:03:19Z</time>
      </trkpt>
      <trkpt lat="45.64682" lon="2.86829">
        <ele>1179.2</ele>
        <time>2021-07-20T13:03:21Z</time>
      </trkpt>
      <trkpt lat="45.64679" lon="2.8684">
        <ele>1179.2</ele>
        <time>2021-07-20T13:03:23Z</time>
      </trkpt>
      <trkpt lat="45.64676" lon="2.86852">
        <ele>1179.3</ele>
        <time>2021-07-20T13:03:25Z</time>
      </trkpt>
      <trkpt lat="45.64674" lon="2.86864">
        <ele>1179.3</ele>
        <time>2021-07-20T13:03:27Z</time>
      </trkpt>
      <trkpt lat="45.64668" lon="2.86875">
        <ele>1179.8</ele>
        <time>2021-07-20T13:03:29Z</time>
      </trkpt>
      <trkpt lat="45.64661" lon="2.86886">
        <ele>1180.2</ele>
        <time>2021-07-20T13:03:31Z</time>
      </trkpt>
      <trkpt lat="45.64657" lon="2.86897">
        <ele>1180.5</ele>
        <time>2021-07-20T13:03:33Z</time>
      </trkpt>
      <trkpt lat="45.64653" lon="2.86907">
        <ele>1180.7</ele>
        <time>2021-07-20T13:03:35Z</time>
      </trkpt>
      <trkpt lat="45.64649" lon="2.86916">
        <ele>1180.9</ele>
        <time>2021-07-20T13:03:37Z</time>
      </trkpt>
      <trkpt lat="45.64643" lon="2.86924">
        <ele>1181.3</ele>
        <time>2021-07-20T13:03:39Z</time>
      </trkpt>
      <trkpt lat="45.64638" lon="2.86933">
        <ele>1181.5</ele>
        <time>2021-07-20T13:03:41Z</time>
      </trkpt>
      <trkpt lat="45.64633" lon="2.86941">
        <ele>1181.8</ele>
        <time>2021-07-20T13:03:43Z</time>
      </trkpt>
      <trkpt lat="45.64628" lon="2.86949">
        <ele>1182</ele>
        <time>2021-07-20T13:03:45Z</time>
      </trkpt>
      <trkpt lat="45.64622" lon="2.86953">
        <ele>1182.5</ele>
        <time>2021-07-20T13:03:47Z</time>
      </trkpt>
      <trkpt lat="45.64616" lon="2.86959">
        <ele>1182.8</ele>
        <time>2021-07-20T13:03:49Z</time>
      </trkpt>
      <trkpt lat="45.6461" lon="2.86965">
        <ele>1183.1</ele>
        <time>2021-07-20T13:03:51Z</time>
      </trkpt>
      <trkpt lat="45.64605" lon="2.86972">
        <ele>1183.4</ele>
        <time>2021-07-20T13:03:53Z</time>
      </trkpt>
      <trkpt lat="45.64599" lon="2.86979">
        <ele>1183.6</ele>
        <time>2021-07-20T13:03:55Z</time>
      </trkpt>
      <trkpt lat="45.64594" lon="2.86987">
        <ele>1183.7</ele>
        <time>2021-07-20T13:03:57Z</time>
      </trkpt>
      <trkpt lat="45.64588" lon="2.86994">
        <ele>1183.9</ele>
        <time>2021-07-20T13:03:59Z</time>
      </trkpt>
      <trkpt lat="45.64583" lon="2.87001">
        <ele>1184</ele>
        <time>2021-07-20T13:04:01Z</time>
      </trkpt>
      <trkpt lat="45.64578" lon="2.87008">
        <ele>1183.8</ele>
        <time>2021-07-20T13:04:03Z</time>
      </trkpt>
      <trkpt lat="45.64574" lon="2.87015">
        <ele>1183.6</ele>
        <time>2021-07-20T13:04:05Z</time>
      </trkpt>
      <trkpt lat="45.6457" lon="2.87021">
        <ele>1183.5</ele>
        <time>2021-07-20T13:04:07Z</time>
      </trkpt>
      <trkpt lat="45.64566" lon="2.87028">
        <ele>1183.3</ele>
        <time>2021-07-20T13:04:09Z</time>
      </trkpt>
      <trkpt lat="45.64565" lon="2.87036">
        <ele>1183.1</ele>
        <time>2021-07-20T13:04:11Z</time>
      </trkpt>
      <trkpt lat="45.64566" lon="2.87044">
        <ele>1182.9</ele>
        <time>2021-07-20T13:04:35Z</time>
      </trkpt>
      <trkpt lat="45.64565" lon="2.87054">
        <ele>1182.7</ele>
        <time>2021-07-20T13:04:39Z</time>
      </trkpt>
      <trkpt lat="45.64562" lon="2.87062">
        <ele>1182.5</ele>
        <time>2021-07-20T13:04:41Z</time>
      </trkpt>
      <trkpt lat="45.64559" lon="2.8707">
        <ele>1182.3</ele>
        <time>2021-07-20T13:04:43Z</time>
      </trkpt>
      <trkpt lat="45.64555" lon="2.87079">
        <ele>1182.1</ele>
        <time>2021-07-20T13:04:45Z</time>
      </trkpt>
      <trkpt lat="45.64551" lon="2.87088">
        <ele>1181.8</ele>
        <time>2021-07-20T13:04:47Z</time>
      </trkpt>
      <trkpt lat="45.6455" lon="2.87098">
        <ele>1181.5</ele>
        <time>2021-07-20T13:04:49Z</time>
      </trkpt>
      <trkpt lat="45.64548" lon="2.87108">
        <ele>1181.1</ele>
        <time>2021-07-20T13:04:51Z</time>
      </trkpt>
      <trkpt lat="45.6454" lon="2.87112">
        <ele>1181</ele>
        <time>2021-07-20T13:04:53Z</time>
      </trkpt>
      <trkpt lat="45.64533" lon="2.87113">
        <ele>1180.9</ele>
        <time>2021-07-20T13:04:55Z</time>
      </trkpt>
      <trkpt lat="45.64528" lon="2.87117">
        <ele>1180.8</ele>
        <time>2021-07-20T13:04:57Z</time>
      </trkpt>
      <trkpt lat="45.64523" lon="2.87124">
        <ele>1180.5</ele>
        <time>2021-07-20T13:04:59Z</time>
      </trkpt>
      <trkpt lat="45.64521" lon="2.87132">
        <ele>1180.2</ele>
        <time>2021-07-20T13:05:01Z</time>
      </trkpt>
      <trkpt lat="45.64519" lon="2.87143">
        <ele>1179.8</ele>
        <time>2021-07-20T13:05:03Z</time>
      </trkpt>
      <trkpt lat="45.6452" lon="2.87154">
        <ele>1179.5</ele>
        <time>2021-07-20T13:05:05Z</time>
      </trkpt>
      <trkpt lat="45.64518" lon="2.87167">
        <ele>1179</ele>
        <time>2021-07-20T13:05:07Z</time>
      </trkpt>
      <trkpt lat="45.64519" lon="2.8718">
        <ele>1178.5</ele>
        <time>2021-07-20T13:05:09Z</time>
      </trkpt>
      <trkpt lat="45.64519" lon="2.87187">
        <ele>1178.2</ele>
        <time>2021-07-20T13:05:13Z</time>
      </trkpt>
      <trkpt lat="45.64514" lon="2.87193">
        <ele>1177.9</ele>
        <time>2021-07-20T13:05:17Z</time>
      </trkpt>
      <trkpt lat="45.64509" lon="2.87195">
        <ele>1177.7</ele>
        <time>2021-07-20T13:05:19Z</time>
      </trkpt>
      <trkpt lat="45.64504" lon="2.87198">
        <ele>1177.6</ele>
        <time>2021-07-20T13:05:21Z</time>
      </trkpt>
      <trkpt lat="45.64498" lon="2.87205">
        <ele>1177.1</ele>
        <time>2021-07-20T13:05:23Z</time>
      </trkpt>
      <trkpt lat="45.64495" lon="2.87214">
        <ele>1176.7</ele>
        <time>2021-07-20T13:05:25Z</time>
      </trkpt>
      <trkpt lat="45.64494" lon="2.87226">
        <ele>1176.1</ele>
        <time>2021-07-20T13:05:27Z</time>
      </trkpt>
      <trkpt lat="45.64497" lon="2.87239">
        <ele>1175.5</ele>
        <time>2021-07-20T13:05:29Z</time>
      </trkpt>
      <trkpt lat="45.64502" lon="2.87255">
        <ele>1174.7</ele>
        <time>2021-07-20T13:05:31Z</time>
      </trkpt>
      <trkpt lat="45.64505" lon="2.87272">
        <ele>1173.7</ele>
        <time>2021-07-20T13:05:33Z</time>
      </trkpt>
      <trkpt lat="45.64509" lon="2.87287">
        <ele>1172.8</ele>
        <time>2021-07-20T13:05:35Z</time>
      </trkpt>
      <trkpt lat="45.64513" lon="2.87299">
        <ele>1172.3</ele>
        <time>2021-07-20T13:05:37Z</time>
      </trkpt>
      <trkpt lat="45.64514" lon="2.87307">
        <ele>1171.8</ele>
        <time>2021-07-20T13:05:39Z</time>
      </trkpt>
      <trkpt lat="45.64515" lon="2.87321">
        <ele>1171</ele>
        <time>2021-07-20T13:05:41Z</time>
      </trkpt>
      <trkpt lat="45.64516" lon="2.87332">
        <ele>1170.4</ele>
        <time>2021-07-20T13:05:43Z</time>
      </trkpt>
      <trkpt lat="45.64518" lon="2.87341">
        <ele>1169.8</ele>
        <time>2021-07-20T13:05:45Z</time>
      </trkpt>
      <trkpt lat="45.64518" lon="2.87352">
        <ele>1168.8</ele>
        <time>2021-07-20T13:05:47Z</time>
      </trkpt>
      <trkpt lat="45.64523" lon="2.87361">
        <ele>1168.4</ele>
        <time>2021-07-20T13:05:49Z</time>
      </trkpt>
      <trkpt lat="45.64525" lon="2.87372">
        <ele>1167.7</ele>
        <time>2021-07-20T13:05:51Z</time>
      </trkpt>
      <trkpt lat="45.64526" lon="2.87382">
        <ele>1166.9</ele>
        <time>2021-07-20T13:05:53Z</time>
      </trkpt>
      <trkpt lat="45.64526" lon="2.87395">
        <ele>1165.7</ele>
        <time>2021-07-20T13:05:55Z</time>
      </trkpt>
      <trkpt lat="45.64528" lon="2.87403">
        <ele>1165.3</ele>
        <time>2021-07-20T13:05:57Z</time>
      </trkpt>
      <trkpt lat="45.64528" lon="2.87413">
        <ele>1164.4</ele>
        <time>2021-07-20T13:05:59Z</time>
      </trkpt>
      <trkpt lat="45.64529" lon="2.87422">
        <ele>1163.7</ele>
        <time>2021-07-20T13:06:01Z</time>
      </trkpt>
      <trkpt lat="45.64529" lon="2.87437">
        <ele>1162.3</ele>
        <time>2021-07-20T13:06:03Z</time>
      </trkpt>
      <trkpt lat="45.64527" lon="2.87448">
        <ele>1161.1</ele>
        <time>2021-07-20T13:06:05Z</time>
      </trkpt>
      <trkpt lat="45.64524" lon="2.87458">
        <ele>1159.9</ele>
        <time>2021-07-20T13:06:07Z</time>
      </trkpt>
      <trkpt lat="45.64521" lon="2.87476">
        <ele>1157.9</ele>
        <time>2021-07-20T13:06:09Z</time>
      </trkpt>
      <trkpt lat="45.64517" lon="2.87495">
        <ele>1155.6</ele>
        <time>2021-07-20T13:06:11Z</time>
      </trkpt>
      <trkpt lat="45.64515" lon="2.87512">
        <ele>1154.3</ele>
        <time>2021-07-20T13:06:13Z</time>
      </trkpt>
      <trkpt lat="45.64517" lon="2.87525">
        <ele>1153.8</ele>
        <time>2021-07-20T13:06:15Z</time>
      </trkpt>
      <trkpt lat="45.64514" lon="2.87535">
        <ele>1152.9</ele>
        <time>2021-07-20T13:06:17Z</time>
      </trkpt>
      <trkpt lat="45.64512" lon="2.87549">
        <ele>1151.9</ele>
        <time>2021-07-20T13:06:19Z</time>
      </trkpt>
      <trkpt lat="45.64512" lon="2.87565">
        <ele>1151</ele>
        <time>2021-07-20T13:06:21Z</time>
      </trkpt>
      <trkpt lat="45.64516" lon="2.87582">
        <ele>1150.4</ele>
        <time>2021-07-20T13:06:23Z</time>
      </trkpt>
      <trkpt lat="45.64518" lon="2.87596">
        <ele>1149.6</ele>
        <time>2021-07-20T13:06:25Z</time>
      </trkpt>
      <trkpt lat="45.64523" lon="2.87604">
        <ele>1149.2</ele>
        <time>2021-07-20T13:06:27Z</time>
      </trkpt>
      <trkpt lat="45.64523" lon="2.87613">
        <ele>1148.5</ele>
        <time>2021-07-20T13:06:31Z</time>
      </trkpt>
      <trkpt lat="45.64525" lon="2.8762">
        <ele>1148</ele>
        <time>2021-07-20T13:09:05Z</time>
      </trkpt>
      <trkpt lat="45.64522" lon="2.87624">
        <ele>1147.5</ele>
        <time>2021-07-20T13:11:07Z</time>
      </trkpt>
      <trkpt lat="45.64517" lon="2.87633">
        <ele>1146.6</ele>
        <time>2021-07-20T13:11:11Z</time>
      </trkpt>
      <trkpt lat="45.64514" lon="2.87645">
        <ele>1145.7</ele>
        <time>2021-07-20T13:11:15Z</time>
      </trkpt>
      <trkpt lat="45.64512" lon="2.87652">
        <ele>1145.1</ele>
        <time>2021-07-20T13:11:19Z</time>
      </trkpt>
      <trkpt lat="45.64513" lon="2.8767">
        <ele>1143.7</ele>
        <time>2021-07-20T13:11:23Z</time>
      </trkpt>
      <trkpt lat="45.64514" lon="2.87683">
        <ele>1142.5</ele>
        <time>2021-07-20T13:11:25Z</time>
      </trkpt>
      <trkpt lat="45.64514" lon="2.8769">
        <ele>1141.9</ele>
        <time>2021-07-20T13:11:27Z</time>
      </trkpt>
      <trkpt lat="45.64514" lon="2.877">
        <ele>1141</ele>
        <time>2021-07-20T13:11:29Z</time>
      </trkpt>
      <trkpt lat="45.6452" lon="2.87714">
        <ele>1139.9</ele>
        <time>2021-07-20T13:11:33Z</time>
      </trkpt>
      <trkpt lat="45.6452" lon="2.87724">
        <ele>1139</ele>
        <time>2021-07-20T13:11:35Z</time>
      </trkpt>
      <trkpt lat="45.64521" lon="2.87735">
        <ele>1138.1</ele>
        <time>2021-07-20T13:11:37Z</time>
      </trkpt>
      <trkpt lat="45.64526" lon="2.87745">
        <ele>1137.4</ele>
        <time>2021-07-20T13:11:39Z</time>
      </trkpt>
      <trkpt lat="45.64528" lon="2.87756">
        <ele>1136.5</ele>
        <time>2021-07-20T13:11:41Z</time>
      </trkpt>
      <trkpt lat="45.6453" lon="2.87768">
        <ele>1135.5</ele>
        <time>2021-07-20T13:11:43Z</time>
      </trkpt>
      <trkpt lat="45.64532" lon="2.8778">
        <ele>1134.6</ele>
        <time>2021-07-20T13:11:45Z</time>
      </trkpt>
      <trkpt lat="45.64534" lon="2.87792">
        <ele>1133.7</ele>
        <time>2021-07-20T13:11:47Z</time>
      </trkpt>
      <trkpt lat="45.64537" lon="2.87805">
        <ele>1132.7</ele>
        <time>2021-07-20T13:11:49Z</time>
      </trkpt>
      <trkpt lat="45.64542" lon="2.87814">
        <ele>1132.1</ele>
        <time>2021-07-20T13:11:51Z</time>
      </trkpt>
      <trkpt lat="45.64548" lon="2.87826">
        <ele>1131.3</ele>
        <time>2021-07-20T13:11:53Z</time>
      </trkpt>
      <trkpt lat="45.64557" lon="2.87837">
        <ele>1131.1</ele>
        <time>2021-07-20T13:11:55Z</time>
      </trkpt>
      <trkpt lat="45.64566" lon="2.87845">
        <ele>1131.2</ele>
        <time>2021-07-20T13:11:57Z</time>
      </trkpt>
      <trkpt lat="45.64573" lon="2.87851">
        <ele>1131.2</ele>
        <time>2021-07-20T13:11:59Z</time>
      </trkpt>
      <trkpt lat="45.64581" lon="2.87854">
        <ele>1131.2</ele>
        <time>2021-07-20T13:12:01Z</time>
      </trkpt>
      <trkpt lat="45.64587" lon="2.87858">
        <ele>1131.2</ele>
        <time>2021-07-20T13:12:03Z</time>
      </trkpt>
      <trkpt lat="45.64593" lon="2.8786">
        <ele>1131.2</ele>
        <time>2021-07-20T13:12:05Z</time>
      </trkpt>
      <trkpt lat="45.646" lon="2.87864">
        <ele>1131.1</ele>
        <time>2021-07-20T13:12:07Z</time>
      </trkpt>
      <trkpt lat="45.64607" lon="2.87869">
        <ele>1131</ele>
        <time>2021-07-20T13:12:09Z</time>
      </trkpt>
      <trkpt lat="45.64616" lon="2.87875">
        <ele>1130.9</ele>
        <time>2021-07-20T13:12:11Z</time>
      </trkpt>
      <trkpt lat="45.64625" lon="2.87885">
        <ele>1130.5</ele>
        <time>2021-07-20T13:12:13Z</time>
      </trkpt>
      <trkpt lat="45.64632" lon="2.87893">
        <ele>1130.2</ele>
        <time>2021-07-20T13:12:15Z</time>
      </trkpt>
      <trkpt lat="45.6464" lon="2.87902">
        <ele>1129.8</ele>
        <time>2021-07-20T13:12:17Z</time>
      </trkpt>
      <trkpt lat="45.64646" lon="2.8791">
        <ele>1129.4</ele>
        <time>2021-07-20T13:12:19Z</time>
      </trkpt>
      <trkpt lat="45.64653" lon="2.87916">
        <ele>1129</ele>
        <time>2021-07-20T13:12:21Z</time>
      </trkpt>
      <trkpt lat="45.64662" lon="2.87924">
        <ele>1128.5</ele>
        <time>2021-07-20T13:12:23Z</time>
      </trkpt>
      <trkpt lat="45.64671" lon="2.87929">
        <ele>1128.4</ele>
        <time>2021-07-20T13:12:25Z</time>
      </trkpt>
      <trkpt lat="45.64681" lon="2.87935">
        <ele>1128.5</ele>
        <time>2021-07-20T13:12:27Z</time>
      </trkpt>
      <trkpt lat="45.64689" lon="2.87942">
        <ele>1128.6</ele>
        <time>2021-07-20T13:12:29Z</time>
      </trkpt>
      <trkpt lat="45.64697" lon="2.87952">
        <ele>1128.3</ele>
        <time>2021-07-20T13:12:31Z</time>
      </trkpt>
      <trkpt lat="45.64705" lon="2.87965">
        <ele>1127.8</ele>
        <time>2021-07-20T13:12:33Z</time>
      </trkpt>
      <trkpt lat="45.64711" lon="2.87972">
        <ele>1127.7</ele>
        <time>2021-07-20T13:12:35Z</time>
      </trkpt>
      <trkpt lat="45.64716" lon="2.87978">
        <ele>1127.5</ele>
        <time>2021-07-20T13:12:37Z</time>
      </trkpt>
      <trkpt lat="45.6472" lon="2.87983">
        <ele>1127.5</ele>
        <time>2021-07-20T13:12:39Z</time>
      </trkpt>
      <trkpt lat="45.64726" lon="2.8799">
        <ele>1127.2</ele>
        <time>2021-07-20T13:12:41Z</time>
      </trkpt>
      <trkpt lat="45.64733" lon="2.87997">
        <ele>1127.2</ele>
        <time>2021-07-20T13:12:43Z</time>
      </trkpt>
      <trkpt lat="45.64737" lon="2.88007">
        <ele>1126.5</ele>
        <time>2021-07-20T13:12:45Z</time>
      </trkpt>
      <trkpt lat="45.64745" lon="2.88015">
        <ele>1125.8</ele>
        <time>2021-07-20T13:12:47Z</time>
      </trkpt>
      <trkpt lat="45.6475" lon="2.88024">
        <ele>1124.8</ele>
        <time>2021-07-20T13:12:49Z</time>
      </trkpt>
      <trkpt lat="45.64757" lon="2.88033">
        <ele>1124.3</ele>
        <time>2021-07-20T13:12:51Z</time>
      </trkpt>
      <trkpt lat="45.64763" lon="2.8804">
        <ele>1124</ele>
        <time>2021-07-20T13:12:53Z</time>
      </trkpt>
      <trkpt lat="45.64768" lon="2.88049">
        <ele>1123.3</ele>
        <time>2021-07-20T13:12:55Z</time>
      </trkpt>
      <trkpt lat="45.64775" lon="2.88058">
        <ele>1122.9</ele>
        <time>2021-07-20T13:12:57Z</time>
      </trkpt>
      <trkpt lat="45.6478" lon="2.88065">
        <ele>1122.6</ele>
        <time>2021-07-20T13:12:59Z</time>
      </trkpt>
      <trkpt lat="45.64785" lon="2.8807">
        <ele>1122.4</ele>
        <time>2021-07-20T13:13:01Z</time>
      </trkpt>
      <trkpt lat="45.64779" lon="2.88079">
        <ele>1120.7</ele>
        <time>2021-07-20T13:13:05Z</time>
      </trkpt>
      <trkpt lat="45.64774" lon="2.88081">
        <ele>1120</ele>
        <time>2021-07-20T13:13:07Z</time>
      </trkpt>
      <trkpt lat="45.6477" lon="2.88082">
        <ele>1119.3</ele>
        <time>2021-07-20T13:13:09Z</time>
      </trkpt>
      <trkpt lat="45.64762" lon="2.88083">
        <ele>1118.2</ele>
        <time>2021-07-20T13:13:13Z</time>
      </trkpt>
      <trkpt lat="45.64755" lon="2.88083">
        <ele>1117.5</ele>
        <time>2021-07-20T13:13:17Z</time>
      </trkpt>
      <trkpt lat="45.64745" lon="2.88086">
        <ele>1117.1</ele>
        <time>2021-07-20T13:13:21Z</time>
      </trkpt>
      <trkpt lat="45.64738" lon="2.8809">
        <ele>1117.3</ele>
        <time>2021-07-20T13:13:23Z</time>
      </trkpt>
      <trkpt lat="45.64733" lon="2.88089">
        <ele>1117.5</ele>
        <time>2021-07-20T13:13:25Z</time>
      </trkpt>
      <trkpt lat="45.64728" lon="2.88093">
        <ele>1117.7</ele>
        <time>2021-07-20T13:13:27Z</time>
      </trkpt>
      <trkpt lat="45.64722" lon="2.88093">
        <ele>1118</ele>
        <time>2021-07-20T13:13:29Z</time>
      </trkpt>
      <trkpt lat="45.64715" lon="2.88096">
        <ele>1118.3</ele>
        <time>2021-07-20T13:13:31Z</time>
      </trkpt>
      <trkpt lat="45.64709" lon="2.88097">
        <ele>1118.6</ele>
        <time>2021-07-20T13:13:33Z</time>
      </trkpt>
      <trkpt lat="45.64702" lon="2.88097">
        <ele>1118.9</ele>
        <time>2021-07-20T13:13:35Z</time>
      </trkpt>
      <trkpt lat="45.64696" lon="2.88097">
        <ele>1119.1</ele>
        <time>2021-07-20T13:13:37Z</time>
      </trkpt>
      <trkpt lat="45.6469" lon="2.88098">
        <ele>1119.4</ele>
        <time>2021-07-20T13:13:39Z</time>
      </trkpt>
      <trkpt lat="45.64682" lon="2.88094">
        <ele>1119.7</ele>
        <time>2021-07-20T13:13:43Z</time>
      </trkpt>
      <trkpt lat="45.64676" lon="2.88095">
        <ele>1120</ele>
        <time>2021-07-20T13:13:45Z</time>
      </trkpt>
      <trkpt lat="45.64671" lon="2.88092">
        <ele>1120.2</ele>
        <time>2021-07-20T13:13:49Z</time>
      </trkpt>
      <trkpt lat="45.64665" lon="2.88088">
        <ele>1120.3</ele>
        <time>2021-07-20T13:13:53Z</time>
      </trkpt>
      <trkpt lat="45.64659" lon="2.88086">
        <ele>1120.7</ele>
        <time>2021-07-20T13:13:57Z</time>
      </trkpt>
      <trkpt lat="45.64655" lon="2.88085">
        <ele>1121</ele>
        <time>2021-07-20T13:13:59Z</time>
      </trkpt>
      <trkpt lat="45.6465" lon="2.88081">
        <ele>1121.5</ele>
        <time>2021-07-20T13:14:03Z</time>
      </trkpt>
      <trkpt lat="45.64646" lon="2.88078">
        <ele>1121.9</ele>
        <time>2021-07-20T13:14:07Z</time>
      </trkpt>
      <trkpt lat="45.6464" lon="2.88078">
        <ele>1122.4</ele>
        <time>2021-07-20T13:14:11Z</time>
      </trkpt>
      <trkpt lat="45.64635" lon="2.88075">
        <ele>1122.9</ele>
        <time>2021-07-20T13:14:15Z</time>
      </trkpt>
      <trkpt lat="45.64629" lon="2.88075">
        <ele>1123.4</ele>
        <time>2021-07-20T13:14:19Z</time>
      </trkpt>
      <trkpt lat="45.64624" lon="2.88074">
        <ele>1123.9</ele>
        <time>2021-07-20T13:14:23Z</time>
      </trkpt>
      <trkpt lat="45.64618" lon="2.88074">
        <ele>1124.3</ele>
        <time>2021-07-20T13:14:27Z</time>
      </trkpt>
      <trkpt lat="45.64613" lon="2.88076">
        <ele>1124.7</ele>
        <time>2021-07-20T13:14:31Z</time>
      </trkpt>
      <trkpt lat="45.64607" lon="2.88077">
        <ele>1125.2</ele>
        <time>2021-07-20T13:14:35Z</time>
      </trkpt>
      <trkpt lat="45.646" lon="2.88078">
        <ele>1125.7</ele>
        <time>2021-07-20T13:14:39Z</time>
      </trkpt>
      <trkpt lat="45.64593" lon="2.8808">
        <ele>1126.2</ele>
        <time>2021-07-20T13:14:43Z</time>
      </trkpt>
      <trkpt lat="45.64587" lon="2.88082">
        <ele>1126.7</ele>
        <time>2021-07-20T13:14:47Z</time>
      </trkpt>
      <trkpt lat="45.6458" lon="2.88082">
        <ele>1127.2</ele>
        <time>2021-07-20T13:14:51Z</time>
      </trkpt>
      <trkpt lat="45.64575" lon="2.88083">
        <ele>1127.5</ele>
        <time>2021-07-20T13:14:55Z</time>
      </trkpt>
      <trkpt lat="45.64569" lon="2.88084">
        <ele>1127.9</ele>
        <time>2021-07-20T13:14:59Z</time>
      </trkpt>
      <trkpt lat="45.64562" lon="2.88087">
        <ele>1128.3</ele>
        <time>2021-07-20T13:15:03Z</time>
      </trkpt>
      <trkpt lat="45.64555" lon="2.88091">
        <ele>1128.7</ele>
        <time>2021-07-20T13:15:07Z</time>
      </trkpt>
      <trkpt lat="45.6455" lon="2.88093">
        <ele>1129</ele>
        <time>2021-07-20T13:15:11Z</time>
      </trkpt>
      <trkpt lat="45.64544" lon="2.88097">
        <ele>1129.3</ele>
        <time>2021-07-20T13:15:15Z</time>
      </trkpt>
      <trkpt lat="45.64539" lon="2.881">
        <ele>1129.7</ele>
        <time>2021-07-20T13:15:19Z</time>
      </trkpt>
      <trkpt lat="45.64535" lon="2.88104">
        <ele>1129.9</ele>
        <time>2021-07-20T13:15:23Z</time>
      </trkpt>
      <trkpt lat="45.64528" lon="2.88107">
        <ele>1130.2</ele>
        <time>2021-07-20T13:15:29Z</time>
      </trkpt>
      <trkpt lat="45.64522" lon="2.88111">
        <ele>1130.5</ele>
        <time>2021-07-20T13:15:33Z</time>
      </trkpt>
      <trkpt lat="45.64517" lon="2.88117">
        <ele>1130.7</ele>
        <time>2021-07-20T13:15:37Z</time>
      </trkpt>
      <trkpt lat="45.6451" lon="2.88119">
        <ele>1131.1</ele>
        <time>2021-07-20T13:15:41Z</time>
      </trkpt>
      <trkpt lat="45.64502" lon="2.88122">
        <ele>1131.4</ele>
        <time>2021-07-20T13:15:45Z</time>
      </trkpt>
      <trkpt lat="45.64494" lon="2.88122">
        <ele>1131.8</ele>
        <time>2021-07-20T13:15:49Z</time>
      </trkpt>
      <trkpt lat="45.64487" lon="2.88122">
        <ele>1132.2</ele>
        <time>2021-07-20T13:15:53Z</time>
      </trkpt>
      <trkpt lat="45.64479" lon="2.88123">
        <ele>1132.6</ele>
        <time>2021-07-20T13:15:57Z</time>
      </trkpt>
      <trkpt lat="45.64473" lon="2.88123">
        <ele>1132.8</ele>
        <time>2021-07-20T13:15:59Z</time>
      </trkpt>
      <trkpt lat="45.64465" lon="2.88126">
        <ele>1133.1</ele>
        <time>2021-07-20T13:16:03Z</time>
      </trkpt>
      <trkpt lat="45.64461" lon="2.88129">
        <ele>1133.2</ele>
        <time>2021-07-20T13:16:05Z</time>
      </trkpt>
      <trkpt lat="45.64457" lon="2.88133">
        <ele>1133.3</ele>
        <time>2021-07-20T13:16:07Z</time>
      </trkpt>
      <trkpt lat="45.64449" lon="2.88143">
        <ele>1133.2</ele>
        <time>2021-07-20T13:16:11Z</time>
      </trkpt>
      <trkpt lat="45.64442" lon="2.88147">
        <ele>1133.3</ele>
        <time>2021-07-20T13:16:13Z</time>
      </trkpt>
      <trkpt lat="45.64437" lon="2.88152">
        <ele>1133.2</ele>
        <time>2021-07-20T13:16:15Z</time>
      </trkpt>
      <trkpt lat="45.64431" lon="2.88156">
        <ele>1133.2</ele>
        <time>2021-07-20T13:16:17Z</time>
      </trkpt>
      <trkpt lat="45.64427" lon="2.88162">
        <ele>1133</ele>
        <time>2021-07-20T13:16:19Z</time>
      </trkpt>
      <trkpt lat="45.64422" lon="2.88164">
        <ele>1133</ele>
        <time>2021-07-20T13:16:21Z</time>
      </trkpt>
      <trkpt lat="45.64418" lon="2.88168">
        <ele>1132.9</ele>
        <time>2021-07-20T13:16:23Z</time>
      </trkpt>
      <trkpt lat="45.64411" lon="2.88173">
        <ele>1133</ele>
        <time>2021-07-20T13:16:27Z</time>
      </trkpt>
      <trkpt lat="45.64407" lon="2.88177">
        <ele>1133</ele>
        <time>2021-07-20T13:16:29Z</time>
      </trkpt>
      <trkpt lat="45.64399" lon="2.88182">
        <ele>1133.1</ele>
        <time>2021-07-20T13:16:33Z</time>
      </trkpt>
      <trkpt lat="45.64394" lon="2.88184">
        <ele>1133.2</ele>
        <time>2021-07-20T13:16:35Z</time>
      </trkpt>
      <trkpt lat="45.6439" lon="2.88187">
        <ele>1133.2</ele>
        <time>2021-07-20T13:16:37Z</time>
      </trkpt>
      <trkpt lat="45.64382" lon="2.88191">
        <ele>1133.4</ele>
        <time>2021-07-20T13:16:41Z</time>
      </trkpt>
      <trkpt lat="45.64374" lon="2.88193">
        <ele>1133.6</ele>
        <time>2021-07-20T13:16:45Z</time>
      </trkpt>
      <trkpt lat="45.64365" lon="2.88195">
        <ele>1133.8</ele>
        <time>2021-07-20T13:16:49Z</time>
      </trkpt>
      <trkpt lat="45.6436" lon="2.88196">
        <ele>1134</ele>
        <time>2021-07-20T13:16:53Z</time>
      </trkpt>
      <trkpt lat="45.64354" lon="2.88198">
        <ele>1134.2</ele>
        <time>2021-07-20T13:16:57Z</time>
      </trkpt>
      <trkpt lat="45.64347" lon="2.882">
        <ele>1134.3</ele>
        <time>2021-07-20T13:17:01Z</time>
      </trkpt>
      <trkpt lat="45.64341" lon="2.88202">
        <ele>1134.4</ele>
        <time>2021-07-20T13:17:05Z</time>
      </trkpt>
      <trkpt lat="45.64334" lon="2.882">
        <ele>1134.8</ele>
        <time>2021-07-20T13:17:09Z</time>
      </trkpt>
      <trkpt lat="45.64328" lon="2.88196">
        <ele>1135.2</ele>
        <time>2021-07-20T13:17:13Z</time>
      </trkpt>
      <trkpt lat="45.64324" lon="2.88193">
        <ele>1135.7</ele>
        <time>2021-07-20T13:17:17Z</time>
      </trkpt>
      <trkpt lat="45.64317" lon="2.8819">
        <ele>1136.3</ele>
        <time>2021-07-20T13:17:21Z</time>
      </trkpt>
      <trkpt lat="45.64311" lon="2.8819">
        <ele>1136.8</ele>
        <time>2021-07-20T13:17:25Z</time>
      </trkpt>
      <trkpt lat="45.64305" lon="2.88188">
        <ele>1137.3</ele>
        <time>2021-07-20T13:17:29Z</time>
      </trkpt>
      <trkpt lat="45.643" lon="2.88186">
        <ele>1137.9</ele>
        <time>2021-07-20T13:17:33Z</time>
      </trkpt>
      <trkpt lat="45.64294" lon="2.88183">
        <ele>1138.5</ele>
        <time>2021-07-20T13:17:37Z</time>
      </trkpt>
      <trkpt lat="45.64288" lon="2.88181">
        <ele>1139.1</ele>
        <time>2021-07-20T13:17:41Z</time>
      </trkpt>
      <trkpt lat="45.64283" lon="2.8818">
        <ele>1139.7</ele>
        <time>2021-07-20T13:17:45Z</time>
      </trkpt>
      <trkpt lat="45.64278" lon="2.88179">
        <ele>1140.2</ele>
        <time>2021-07-20T13:17:49Z</time>
      </trkpt>
      <trkpt lat="45.64272" lon="2.88178">
        <ele>1140.7</ele>
        <time>2021-07-20T13:17:53Z</time>
      </trkpt>
      <trkpt lat="45.64267" lon="2.88176">
        <ele>1141.4</ele>
        <time>2021-07-20T13:17:57Z</time>
      </trkpt>
      <trkpt lat="45.64261" lon="2.88175">
        <ele>1142</ele>
        <time>2021-07-20T13:18:01Z</time>
      </trkpt>
      <trkpt lat="45.64255" lon="2.88179">
        <ele>1142.2</ele>
        <time>2021-07-20T13:18:05Z</time>
      </trkpt>
      <trkpt lat="45.64248" lon="2.88179">
        <ele>1142.8</ele>
        <time>2021-07-20T13:18:09Z</time>
      </trkpt>
      <trkpt lat="45.6424" lon="2.88181">
        <ele>1143.4</ele>
        <time>2021-07-20T13:18:13Z</time>
      </trkpt>
      <trkpt lat="45.64233" lon="2.88182">
        <ele>1144</ele>
        <time>2021-07-20T13:18:17Z</time>
      </trkpt>
      <trkpt lat="45.64226" lon="2.88184">
        <ele>1144.5</ele>
        <time>2021-07-20T13:18:21Z</time>
      </trkpt>
      <trkpt lat="45.64219" lon="2.88187">
        <ele>1144.8</ele>
        <time>2021-07-20T13:18:25Z</time>
      </trkpt>
      <trkpt lat="45.64213" lon="2.8819">
        <ele>1145.1</ele>
        <time>2021-07-20T13:18:29Z</time>
      </trkpt>
      <trkpt lat="45.64206" lon="2.88192">
        <ele>1145.5</ele>
        <time>2021-07-20T13:18:33Z</time>
      </trkpt>
      <trkpt lat="45.642" lon="2.88193">
        <ele>1146.1</ele>
        <time>2021-07-20T13:18:41Z</time>
      </trkpt>
      <trkpt lat="45.64194" lon="2.88196">
        <ele>1146.3</ele>
        <time>2021-07-20T13:18:47Z</time>
      </trkpt>
      <trkpt lat="45.64189" lon="2.88198">
        <ele>1146.5</ele>
        <time>2021-07-20T13:18:51Z</time>
      </trkpt>
      <trkpt lat="45.64182" lon="2.88199">
        <ele>1147.3</ele>
        <time>2021-07-20T13:19:01Z</time>
      </trkpt>
      <trkpt lat="45.64177" lon="2.88199">
        <ele>1147.6</ele>
        <time>2021-07-20T13:19:03Z</time>
      </trkpt>
      <trkpt lat="45.64168" lon="2.882">
        <ele>1148.4</ele>
        <time>2021-07-20T13:19:07Z</time>
      </trkpt>
      <trkpt lat="45.64163" lon="2.88201">
        <ele>1148.7</ele>
        <time>2021-07-20T13:19:09Z</time>
      </trkpt>
      <trkpt lat="45.64158" lon="2.88202">
        <ele>1149.1</ele>
        <time>2021-07-20T13:19:11Z</time>
      </trkpt>
      <trkpt lat="45.64154" lon="2.88203">
        <ele>1149.4</ele>
        <time>2021-07-20T13:19:13Z</time>
      </trkpt>
      <trkpt lat="45.64149" lon="2.88203">
        <ele>1149.7</ele>
        <time>2021-07-20T13:19:15Z</time>
      </trkpt>
      <trkpt lat="45.64145" lon="2.88205">
        <ele>1149.9</ele>
        <time>2021-07-20T13:19:17Z</time>
      </trkpt>
      <trkpt lat="45.64137" lon="2.88208">
        <ele>1150.3</ele>
        <time>2021-07-20T13:19:21Z</time>
      </trkpt>
      <trkpt lat="45.64129" lon="2.8821">
        <ele>1150.7</ele>
        <time>2021-07-20T13:19:25Z</time>
      </trkpt>
      <trkpt lat="45.6412" lon="2.88212">
        <ele>1151.1</ele>
        <time>2021-07-20T13:19:29Z</time>
      </trkpt>
      <trkpt lat="45.64112" lon="2.88215">
        <ele>1151.5</ele>
        <time>2021-07-20T13:19:33Z</time>
      </trkpt>
      <trkpt lat="45.64105" lon="2.88219">
        <ele>1151.6</ele>
        <time>2021-07-20T13:19:37Z</time>
      </trkpt>
      <trkpt lat="45.64097" lon="2.88221">
        <ele>1151.9</ele>
        <time>2021-07-20T13:19:41Z</time>
      </trkpt>
      <trkpt lat="45.64089" lon="2.88224">
        <ele>1152.2</ele>
        <time>2021-07-20T13:19:45Z</time>
      </trkpt>
      <trkpt lat="45.64082" lon="2.88227">
        <ele>1152.4</ele>
        <time>2021-07-20T13:19:49Z</time>
      </trkpt>
      <trkpt lat="45.64074" lon="2.88229">
        <ele>1153.6</ele>
        <time>2021-07-20T13:19:53Z</time>
      </trkpt>
      <trkpt lat="45.64067" lon="2.88234">
        <ele>1154.4</ele>
        <time>2021-07-20T13:19:57Z</time>
      </trkpt>
      <trkpt lat="45.6406" lon="2.88238">
        <ele>1155.1</ele>
        <time>2021-07-20T13:20:01Z</time>
      </trkpt>
      <trkpt lat="45.64053" lon="2.88245">
        <ele>1155.6</ele>
        <time>2021-07-20T13:20:05Z</time>
      </trkpt>
      <trkpt lat="45.64048" lon="2.88253">
        <ele>1156.1</ele>
        <time>2021-07-20T13:20:09Z</time>
      </trkpt>
      <trkpt lat="45.64041" lon="2.88259">
        <ele>1157.1</ele>
        <time>2021-07-20T13:20:13Z</time>
      </trkpt>
      <trkpt lat="45.64037" lon="2.88264">
        <ele>1157.3</ele>
        <time>2021-07-20T13:20:15Z</time>
      </trkpt>
      <trkpt lat="45.64032" lon="2.88274">
        <ele>1157.6</ele>
        <time>2021-07-20T13:20:19Z</time>
      </trkpt>
      <trkpt lat="45.64028" lon="2.8828">
        <ele>1157.9</ele>
        <time>2021-07-20T13:20:21Z</time>
      </trkpt>
      <trkpt lat="45.64023" lon="2.88289">
        <ele>1158.3</ele>
        <time>2021-07-20T13:20:25Z</time>
      </trkpt>
      <trkpt lat="45.64021" lon="2.88296">
        <ele>1158.3</ele>
        <time>2021-07-20T13:20:27Z</time>
      </trkpt>
      <trkpt lat="45.64019" lon="2.88302">
        <ele>1158.3</ele>
        <time>2021-07-20T13:20:29Z</time>
      </trkpt>
      <trkpt lat="45.64016" lon="2.88308">
        <ele>1158.3</ele>
        <time>2021-07-20T13:20:31Z</time>
      </trkpt>
      <trkpt lat="45.64013" lon="2.88316">
        <ele>1158.4</ele>
        <time>2021-07-20T13:20:33Z</time>
      </trkpt>
      <trkpt lat="45.64011" lon="2.88322">
        <ele>1158.4</ele>
        <time>2021-07-20T13:20:35Z</time>
      </trkpt>
      <trkpt lat="45.64009" lon="2.88329">
        <ele>1158.3</ele>
        <time>2021-07-20T13:20:37Z</time>
      </trkpt>
      <trkpt lat="45.64007" lon="2.88336">
        <ele>1158.2</ele>
        <time>2021-07-20T13:20:39Z</time>
      </trkpt>
      <trkpt lat="45.64004" lon="2.88344">
        <ele>1158.4</ele>
        <time>2021-07-20T13:20:41Z</time>
      </trkpt>
      <trkpt lat="45.64002" lon="2.88352">
        <ele>1158.2</ele>
        <time>2021-07-20T13:20:43Z</time>
      </trkpt>
      <trkpt lat="45.63999" lon="2.8836">
        <ele>1158.2</ele>
        <time>2021-07-20T13:20:45Z</time>
      </trkpt>
      <trkpt lat="45.63996" lon="2.88366">
        <ele>1158.4</ele>
        <time>2021-07-20T13:20:47Z</time>
      </trkpt>
      <trkpt lat="45.63992" lon="2.88374">
        <ele>1158.7</ele>
        <time>2021-07-20T13:20:49Z</time>
      </trkpt>
      <trkpt lat="45.63989" lon="2.88382">
        <ele>1159</ele>
        <time>2021-07-20T13:20:51Z</time>
      </trkpt>
      <trkpt lat="45.63986" lon="2.88389">
        <ele>1159.1</ele>
        <time>2021-07-20T13:20:53Z</time>
      </trkpt>
      <trkpt lat="45.63984" lon="2.88397">
        <ele>1159.1</ele>
        <time>2021-07-20T13:20:55Z</time>
      </trkpt>
      <trkpt lat="45.63983" lon="2.88405">
        <ele>1159</ele>
        <time>2021-07-20T13:20:57Z</time>
      </trkpt>
      <trkpt lat="45.63981" lon="2.88413">
        <ele>1159.1</ele>
        <time>2021-07-20T13:20:59Z</time>
      </trkpt>
      <trkpt lat="45.63978" lon="2.88421">
        <ele>1159.3</ele>
        <time>2021-07-20T13:21:01Z</time>
      </trkpt>
      <trkpt lat="45.63975" lon="2.88429">
        <ele>1159.7</ele>
        <time>2021-07-20T13:21:03Z</time>
      </trkpt>
      <trkpt lat="45.63971" lon="2.88435">
        <ele>1160.1</ele>
        <time>2021-07-20T13:21:05Z</time>
      </trkpt>
      <trkpt lat="45.63969" lon="2.88442">
        <ele>1160.3</ele>
        <time>2021-07-20T13:21:07Z</time>
      </trkpt>
      <trkpt lat="45.63966" lon="2.88449">
        <ele>1160.7</ele>
        <time>2021-07-20T13:21:09Z</time>
      </trkpt>
      <trkpt lat="45.63962" lon="2.88461">
        <ele>1161</ele>
        <time>2021-07-20T13:21:13Z</time>
      </trkpt>
      <trkpt lat="45.63961" lon="2.8847">
        <ele>1160.7</ele>
        <time>2021-07-20T13:21:15Z</time>
      </trkpt>
      <trkpt lat="45.63959" lon="2.88478">
        <ele>1160.9</ele>
        <time>2021-07-20T13:21:17Z</time>
      </trkpt>
      <trkpt lat="45.63951" lon="2.88489">
        <ele>1162.6</ele>
        <time>2021-07-20T13:21:21Z</time>
      </trkpt>
      <trkpt lat="45.63947" lon="2.88501">
        <ele>1163.1</ele>
        <time>2021-07-20T13:21:25Z</time>
      </trkpt>
      <trkpt lat="45.63944" lon="2.8851">
        <ele>1163.2</ele>
        <time>2021-07-20T13:21:27Z</time>
      </trkpt>
      <trkpt lat="45.63943" lon="2.88518">
        <ele>1163.1</ele>
        <time>2021-07-20T13:21:29Z</time>
      </trkpt>
      <trkpt lat="45.6394" lon="2.88526">
        <ele>1163.2</ele>
        <time>2021-07-20T13:21:31Z</time>
      </trkpt>
      <trkpt lat="45.63936" lon="2.88538">
        <ele>1163.5</ele>
        <time>2021-07-20T13:21:35Z</time>
      </trkpt>
      <trkpt lat="45.63934" lon="2.88547">
        <ele>1163.4</ele>
        <time>2021-07-20T13:21:37Z</time>
      </trkpt>
      <trkpt lat="45.6393" lon="2.88556">
        <ele>1163.6</ele>
        <time>2021-07-20T13:21:39Z</time>
      </trkpt>
      <trkpt lat="45.63928" lon="2.88565">
        <ele>1163.4</ele>
        <time>2021-07-20T13:21:41Z</time>
      </trkpt>
      <trkpt lat="45.63925" lon="2.88572">
        <ele>1163.7</ele>
        <time>2021-07-20T13:21:43Z</time>
      </trkpt>
      <trkpt lat="45.63921" lon="2.88579">
        <ele>1164.1</ele>
        <time>2021-07-20T13:21:45Z</time>
      </trkpt>
      <trkpt lat="45.63918" lon="2.88587">
        <ele>1164.3</ele>
        <time>2021-07-20T13:21:47Z</time>
      </trkpt>
      <trkpt lat="45.63915" lon="2.88594">
        <ele>1164.3</ele>
        <time>2021-07-20T13:21:49Z</time>
      </trkpt>
      <trkpt lat="45.63911" lon="2.88602">
        <ele>1164.4</ele>
        <time>2021-07-20T13:21:51Z</time>
      </trkpt>
      <trkpt lat="45.63908" lon="2.88608">
        <ele>1164.5</ele>
        <time>2021-07-20T13:21:53Z</time>
      </trkpt>
      <trkpt lat="45.63905" lon="2.88617">
        <ele>1164.3</ele>
        <time>2021-07-20T13:21:55Z</time>
      </trkpt>
      <trkpt lat="45.63902" lon="2.88625">
        <ele>1164.2</ele>
        <time>2021-07-20T13:21:57Z</time>
      </trkpt>
      <trkpt lat="45.63898" lon="2.88633">
        <ele>1164.3</ele>
        <time>2021-07-20T13:21:59Z</time>
      </trkpt>
      <trkpt lat="45.63895" lon="2.8864">
        <ele>1164.2</ele>
        <time>2021-07-20T13:22:01Z</time>
      </trkpt>
      <trkpt lat="45.6389" lon="2.88646">
        <ele>1164.8</ele>
        <time>2021-07-20T13:22:03Z</time>
      </trkpt>
      <trkpt lat="45.63886" lon="2.88653">
        <ele>1164.9</ele>
        <time>2021-07-20T13:22:05Z</time>
      </trkpt>
      <trkpt lat="45.63882" lon="2.88661">
        <ele>1165.1</ele>
        <time>2021-07-20T13:22:07Z</time>
      </trkpt>
      <trkpt lat="45.63877" lon="2.88667">
        <ele>1165.5</ele>
        <time>2021-07-20T13:22:09Z</time>
      </trkpt>
      <trkpt lat="45.63874" lon="2.88675">
        <ele>1165.4</ele>
        <time>2021-07-20T13:22:11Z</time>
      </trkpt>
      <trkpt lat="45.63869" lon="2.8868">
        <ele>1165.8</ele>
        <time>2021-07-20T13:22:13Z</time>
      </trkpt>
      <trkpt lat="45.63866" lon="2.88687">
        <ele>1165.6</ele>
        <time>2021-07-20T13:22:15Z</time>
      </trkpt>
      <trkpt lat="45.63862" lon="2.88695">
        <ele>1165.4</ele>
        <time>2021-07-20T13:22:17Z</time>
      </trkpt>
      <trkpt lat="45.63858" lon="2.88704">
        <ele>1165.1</ele>
        <time>2021-07-20T13:22:19Z</time>
      </trkpt>
      <trkpt lat="45.63855" lon="2.88717">
        <ele>1164.3</ele>
        <time>2021-07-20T13:22:23Z</time>
      </trkpt>
      <trkpt lat="45.63849" lon="2.88725">
        <ele>1164.2</ele>
        <time>2021-07-20T13:22:25Z</time>
      </trkpt>
      <trkpt lat="45.63846" lon="2.88732">
        <ele>1164.1</ele>
        <time>2021-07-20T13:22:27Z</time>
      </trkpt>
      <trkpt lat="45.63841" lon="2.88742">
        <ele>1163.6</ele>
        <time>2021-07-20T13:22:29Z</time>
      </trkpt>
      <trkpt lat="45.63837" lon="2.88751">
        <ele>1163.3</ele>
        <time>2021-07-20T13:22:31Z</time>
      </trkpt>
      <trkpt lat="45.63832" lon="2.88759">
        <ele>1163.5</ele>
        <time>2021-07-20T13:22:33Z</time>
      </trkpt>
      <trkpt lat="45.63827" lon="2.88767">
        <ele>1163.6</ele>
        <time>2021-07-20T13:22:35Z</time>
      </trkpt>
      <trkpt lat="45.6382" lon="2.88775">
        <ele>1164</ele>
        <time>2021-07-20T13:22:37Z</time>
      </trkpt>
      <trkpt lat="45.63813" lon="2.88784">
        <ele>1164.2</ele>
        <time>2021-07-20T13:22:39Z</time>
      </trkpt>
      <trkpt lat="45.63805" lon="2.88791">
        <ele>1164.7</ele>
        <time>2021-07-20T13:22:41Z</time>
      </trkpt>
      <trkpt lat="45.63798" lon="2.88797">
        <ele>1165</ele>
        <time>2021-07-20T13:22:43Z</time>
      </trkpt>
      <trkpt lat="45.63792" lon="2.88803">
        <ele>1165.3</ele>
        <time>2021-07-20T13:22:45Z</time>
      </trkpt>
      <trkpt lat="45.63785" lon="2.88808">
        <ele>1165.8</ele>
        <time>2021-07-20T13:22:47Z</time>
      </trkpt>
      <trkpt lat="45.63779" lon="2.88816">
        <ele>1165.9</ele>
        <time>2021-07-20T13:22:49Z</time>
      </trkpt>
      <trkpt lat="45.63772" lon="2.88823">
        <ele>1166.2</ele>
        <time>2021-07-20T13:22:51Z</time>
      </trkpt>
      <trkpt lat="45.63767" lon="2.8883">
        <ele>1166.1</ele>
        <time>2021-07-20T13:22:53Z</time>
      </trkpt>
      <trkpt lat="45.63763" lon="2.88836">
        <ele>1166</ele>
        <time>2021-07-20T13:22:55Z</time>
      </trkpt>
      <trkpt lat="45.6376" lon="2.88844">
        <ele>1165.7</ele>
        <time>2021-07-20T13:23:27Z</time>
      </trkpt>
      <trkpt lat="45.63756" lon="2.88849">
        <ele>1165.5</ele>
        <time>2021-07-20T13:23:35Z</time>
      </trkpt>
      <trkpt lat="45.63749" lon="2.88853">
        <ele>1165.9</ele>
        <time>2021-07-20T13:30:31Z</time>
      </trkpt>
      <trkpt lat="45.63745" lon="2.88857">
        <ele>1165.8</ele>
        <time>2021-07-20T13:30:33Z</time>
      </trkpt>
      <trkpt lat="45.63741" lon="2.88862">
        <ele>1165.7</ele>
        <time>2021-07-20T13:30:35Z</time>
      </trkpt>
      <trkpt lat="45.63737" lon="2.88866">
        <ele>1165.5</ele>
        <time>2021-07-20T13:30:37Z</time>
      </trkpt>
      <trkpt lat="45.63733" lon="2.88871">
        <ele>1165.4</ele>
        <time>2021-07-20T13:30:39Z</time>
      </trkpt>
      <trkpt lat="45.6373" lon="2.88876">
        <ele>1165.2</ele>
        <time>2021-07-20T13:30:41Z</time>
      </trkpt>
      <trkpt lat="45.63726" lon="2.88881">
        <ele>1165.1</ele>
        <time>2021-07-20T13:30:45Z</time>
      </trkpt>
      <trkpt lat="45.6372" lon="2.88889">
        <ele>1164.9</ele>
        <time>2021-07-20T13:30:49Z</time>
      </trkpt>
      <trkpt lat="45.63716" lon="2.88893">
        <ele>1165.1</ele>
        <time>2021-07-20T13:30:51Z</time>
      </trkpt>
      <trkpt lat="45.63713" lon="2.88898">
        <ele>1164.9</ele>
        <time>2021-07-20T13:30:53Z</time>
      </trkpt>
      <trkpt lat="45.6371" lon="2.88904">
        <ele>1164.8</ele>
        <time>2021-07-20T13:30:55Z</time>
      </trkpt>
      <trkpt lat="45.63709" lon="2.88916">
        <ele>1164</ele>
        <time>2021-07-20T13:30:59Z</time>
      </trkpt>
      <trkpt lat="45.63704" lon="2.88925">
        <ele>1164.1</ele>
        <time>2021-07-20T13:31:03Z</time>
      </trkpt>
      <trkpt lat="45.63697" lon="2.88928">
        <ele>1164.8</ele>
        <time>2021-07-20T13:31:07Z</time>
      </trkpt>
      <trkpt lat="45.63689" lon="2.88932">
        <ele>1165.4</ele>
        <time>2021-07-20T13:31:11Z</time>
      </trkpt>
      <trkpt lat="45.63684" lon="2.88933">
        <ele>1165.9</ele>
        <time>2021-07-20T13:31:13Z</time>
      </trkpt>
      <trkpt lat="45.63678" lon="2.88941">
        <ele>1165.9</ele>
        <time>2021-07-20T13:31:17Z</time>
      </trkpt>
      <trkpt lat="45.63673" lon="2.88949">
        <ele>1165.9</ele>
        <time>2021-07-20T13:31:21Z</time>
      </trkpt>
      <trkpt lat="45.63668" lon="2.88956">
        <ele>1166</ele>
        <time>2021-07-20T13:31:25Z</time>
      </trkpt>
      <trkpt lat="45.63668" lon="2.88963">
        <ele>1165.5</ele>
        <time>2021-07-20T13:31:35Z</time>
      </trkpt>
      <trkpt lat="45.63662" lon="2.88967">
        <ele>1165.7</ele>
        <time>2021-07-20T13:31:39Z</time>
      </trkpt>
      <trkpt lat="45.63657" lon="2.88968">
        <ele>1166</ele>
        <time>2021-07-20T13:31:41Z</time>
      </trkpt>
      <trkpt lat="45.63652" lon="2.88968">
        <ele>1166.3</ele>
        <time>2021-07-20T13:31:43Z</time>
      </trkpt>
      <trkpt lat="45.63648" lon="2.88967">
        <ele>1166.7</ele>
        <time>2021-07-20T13:31:45Z</time>
      </trkpt>
      <trkpt lat="45.63643" lon="2.88965">
        <ele>1167.1</ele>
        <time>2021-07-20T13:31:47Z</time>
      </trkpt>
      <trkpt lat="45.63639" lon="2.88964">
        <ele>1167.5</ele>
        <time>2021-07-20T13:31:49Z</time>
      </trkpt>
      <trkpt lat="45.6363" lon="2.88961">
        <ele>1168.3</ele>
        <time>2021-07-20T13:31:53Z</time>
      </trkpt>
      <trkpt lat="45.63623" lon="2.88955">
        <ele>1169</ele>
        <time>2021-07-20T13:31:57Z</time>
      </trkpt>
      <trkpt lat="45.63617" lon="2.88947">
        <ele>1169.9</ele>
        <time>2021-07-20T13:32:01Z</time>
      </trkpt>
      <trkpt lat="45.63611" lon="2.88936">
        <ele>1170.7</ele>
        <time>2021-07-20T13:32:05Z</time>
      </trkpt>
      <trkpt lat="45.63606" lon="2.88927">
        <ele>1171.5</ele>
        <time>2021-07-20T13:32:09Z</time>
      </trkpt>
      <trkpt lat="45.63599" lon="2.88919">
        <ele>1172.1</ele>
        <time>2021-07-20T13:32:13Z</time>
      </trkpt>
      <trkpt lat="45.63595" lon="2.88915">
        <ele>1172.5</ele>
        <time>2021-07-20T13:32:15Z</time>
      </trkpt>
      <trkpt lat="45.63589" lon="2.88908">
        <ele>1173</ele>
        <time>2021-07-20T13:32:19Z</time>
      </trkpt>
      <trkpt lat="45.63582" lon="2.88901">
        <ele>1173.4</ele>
        <time>2021-07-20T13:32:23Z</time>
      </trkpt>
      <trkpt lat="45.63575" lon="2.88894">
        <ele>1173.9</ele>
        <time>2021-07-20T13:32:27Z</time>
      </trkpt>
      <trkpt lat="45.63569" lon="2.88888">
        <ele>1174.3</ele>
        <time>2021-07-20T13:32:31Z</time>
      </trkpt>
      <trkpt lat="45.63561" lon="2.88883">
        <ele>1174.8</ele>
        <time>2021-07-20T13:32:35Z</time>
      </trkpt>
      <trkpt lat="45.63554" lon="2.88876">
        <ele>1175.2</ele>
        <time>2021-07-20T13:32:39Z</time>
      </trkpt>
      <trkpt lat="45.63549" lon="2.88869">
        <ele>1175.6</ele>
        <time>2021-07-20T13:32:43Z</time>
      </trkpt>
      <trkpt lat="45.63544" lon="2.88862">
        <ele>1175.9</ele>
        <time>2021-07-20T13:32:47Z</time>
      </trkpt>
      <trkpt lat="45.63537" lon="2.88858">
        <ele>1176.3</ele>
        <time>2021-07-20T13:32:51Z</time>
      </trkpt>
      <trkpt lat="45.63528" lon="2.88861">
        <ele>1176.6</ele>
        <time>2021-07-20T13:32:55Z</time>
      </trkpt>
      <trkpt lat="45.63524" lon="2.88863">
        <ele>1176.7</ele>
        <time>2021-07-20T13:32:57Z</time>
      </trkpt>
      <trkpt lat="45.63519" lon="2.88867">
        <ele>1176.8</ele>
        <time>2021-07-20T13:32:59Z</time>
      </trkpt>
      <trkpt lat="45.63514" lon="2.88871">
        <ele>1177</ele>
        <time>2021-07-20T13:33:01Z</time>
      </trkpt>
      <trkpt lat="45.6351" lon="2.88874">
        <ele>1177.1</ele>
        <time>2021-07-20T13:33:03Z</time>
      </trkpt>
      <trkpt lat="45.63505" lon="2.88877">
        <ele>1177.3</ele>
        <time>2021-07-20T13:33:05Z</time>
      </trkpt>
      <trkpt lat="45.63497" lon="2.88877">
        <ele>1177.6</ele>
        <time>2021-07-20T13:33:09Z</time>
      </trkpt>
      <trkpt lat="45.63501" lon="2.88873">
        <ele>1177.5</ele>
        <time>2021-07-20T13:33:43Z</time>
      </trkpt>
      <trkpt lat="45.63495" lon="2.88872">
        <ele>1177.7</ele>
        <time>2021-07-20T13:37:39Z</time>
      </trkpt>
      <trkpt lat="45.63493" lon="2.88866">
        <ele>1177.8</ele>
        <time>2021-07-20T13:37:45Z</time>
      </trkpt>
      <trkpt lat="45.63496" lon="2.88859">
        <ele>1177.8</ele>
        <time>2021-07-20T13:37:51Z</time>
      </trkpt>
      <trkpt lat="45.63492" lon="2.88862">
        <ele>1177.9</ele>
        <time>2021-07-20T13:58:59Z</time>
      </trkpt>
      <trkpt lat="45.63493" lon="2.8887">
        <ele>1177.8</ele>
        <time>2021-07-20T13:59:05Z</time>
      </trkpt>
      <trkpt lat="45.63497" lon="2.88874">
        <ele>1177.6</ele>
        <time>2021-07-20T13:59:09Z</time>
      </trkpt>
      <trkpt lat="45.63502" lon="2.88873">
        <ele>1177.5</ele>
        <time>2021-07-20T13:59:15Z</time>
      </trkpt>
      <trkpt lat="45.635" lon="2.88881">
        <ele>1177.4</ele>
        <time>2021-07-20T14:02:03Z</time>
      </trkpt>
      <trkpt lat="45.63495" lon="2.88888">
        <ele>1177.5</ele>
        <time>2021-07-20T14:02:09Z</time>
      </trkpt>
      <trkpt lat="45.63489" lon="2.8889">
        <ele>1177.6</ele>
        <time>2021-07-20T14:02:13Z</time>
      </trkpt>
      <trkpt lat="45.63485" lon="2.88895">
        <ele>1177.6</ele>
        <time>2021-07-20T14:02:17Z</time>
      </trkpt>
      <trkpt lat="45.63479" lon="2.88899">
        <ele>1177.6</ele>
        <time>2021-07-20T14:02:21Z</time>
      </trkpt>
      <trkpt lat="45.63472" lon="2.88904">
        <ele>1177.6</ele>
        <time>2021-07-20T14:02:25Z</time>
      </trkpt>
      <trkpt lat="45.63467" lon="2.88909">
        <ele>1177.6</ele>
        <time>2021-07-20T14:02:49Z</time>
      </trkpt>
      <trkpt lat="45.63462" lon="2.88912">
        <ele>1177.6</ele>
        <time>2021-07-20T14:02:51Z</time>
      </trkpt>
      <trkpt lat="45.63456" lon="2.88916">
        <ele>1177.5</ele>
        <time>2021-07-20T14:02:55Z</time>
      </trkpt>
      <trkpt lat="45.63448" lon="2.88919">
        <ele>1177.5</ele>
        <time>2021-07-20T14:02:59Z</time>
      </trkpt>
      <trkpt lat="45.63442" lon="2.88918">
        <ele>1177.6</ele>
        <time>2021-07-20T14:03:03Z</time>
      </trkpt>
      <trkpt lat="45.63439" lon="2.88913">
        <ele>1177.9</ele>
        <time>2021-07-20T14:03:07Z</time>
      </trkpt>
      <trkpt lat="45.63446" lon="2.88915">
        <ele>1177.7</ele>
        <time>2021-07-20T14:03:25Z</time>
      </trkpt>
      <trkpt lat="45.63452" lon="2.88913">
        <ele>1177.7</ele>
        <time>2021-07-20T14:03:27Z</time>
      </trkpt>
      <trkpt lat="45.63456" lon="2.88916">
        <ele>1177.5</ele>
        <time>2021-07-20T14:03:29Z</time>
      </trkpt>
      <trkpt lat="45.63458" lon="2.88922">
        <ele>1177.1</ele>
        <time>2021-07-20T14:03:31Z</time>
      </trkpt>
      <trkpt lat="45.63456" lon="2.88931">
        <ele>1176.5</ele>
        <time>2021-07-20T14:03:35Z</time>
      </trkpt>
      <trkpt lat="45.63454" lon="2.88947">
        <ele>1175.5</ele>
        <time>2021-07-20T14:03:39Z</time>
      </trkpt>
      <trkpt lat="45.63453" lon="2.88957">
        <ele>1174.7</ele>
        <time>2021-07-20T14:03:41Z</time>
      </trkpt>
      <trkpt lat="45.6345" lon="2.88967">
        <ele>1174</ele>
        <time>2021-07-20T14:03:43Z</time>
      </trkpt>
      <trkpt lat="45.63448" lon="2.88975">
        <ele>1173.3</ele>
        <time>2021-07-20T14:03:45Z</time>
      </trkpt>
      <trkpt lat="45.63446" lon="2.88983">
        <ele>1172.7</ele>
        <time>2021-07-20T14:03:47Z</time>
      </trkpt>
      <trkpt lat="45.63446" lon="2.88993">
        <ele>1171.9</ele>
        <time>2021-07-20T14:03:51Z</time>
      </trkpt>
      <trkpt lat="45.63447" lon="2.89">
        <ele>1171.4</ele>
        <time>2021-07-20T14:03:55Z</time>
      </trkpt>
      <trkpt lat="45.63454" lon="2.89006">
        <ele>1171.2</ele>
        <time>2021-07-20T14:03:59Z</time>
      </trkpt>
      <trkpt lat="45.63459" lon="2.89017">
        <ele>1170.3</ele>
        <time>2021-07-20T14:04:03Z</time>
      </trkpt>
      <trkpt lat="45.63461" lon="2.89025">
        <ele>1169.6</ele>
        <time>2021-07-20T14:04:05Z</time>
      </trkpt>
      <trkpt lat="45.63461" lon="2.89033">
        <ele>1168.7</ele>
        <time>2021-07-20T14:04:07Z</time>
      </trkpt>
      <trkpt lat="45.63459" lon="2.89046">
        <ele>1167.3</ele>
        <time>2021-07-20T14:04:09Z</time>
      </trkpt>
      <trkpt lat="45.63456" lon="2.89063">
        <ele>1165.5</ele>
        <time>2021-07-20T14:04:11Z</time>
      </trkpt>
      <trkpt lat="45.63453" lon="2.89081">
        <ele>1163.6</ele>
        <time>2021-07-20T14:04:13Z</time>
      </trkpt>
      <trkpt lat="45.63449" lon="2.89098">
        <ele>1162</ele>
        <time>2021-07-20T14:04:15Z</time>
      </trkpt>
      <trkpt lat="45.63445" lon="2.89114">
        <ele>1160.6</ele>
        <time>2021-07-20T14:04:17Z</time>
      </trkpt>
      <trkpt lat="45.63442" lon="2.89127">
        <ele>1159.4</ele>
        <time>2021-07-20T14:04:19Z</time>
      </trkpt>
      <trkpt lat="45.63443" lon="2.89142">
        <ele>1158.2</ele>
        <time>2021-07-20T14:04:21Z</time>
      </trkpt>
      <trkpt lat="45.6345" lon="2.89157">
        <ele>1157.4</ele>
        <time>2021-07-20T14:04:23Z</time>
      </trkpt>
      <trkpt lat="45.63459" lon="2.8917">
        <ele>1156.7</ele>
        <time>2021-07-20T14:04:25Z</time>
      </trkpt>
      <trkpt lat="45.6347" lon="2.89183">
        <ele>1156.2</ele>
        <time>2021-07-20T14:04:27Z</time>
      </trkpt>
      <trkpt lat="45.63482" lon="2.89198">
        <ele>1155.7</ele>
        <time>2021-07-20T14:04:29Z</time>
      </trkpt>
      <trkpt lat="45.63494" lon="2.89215">
        <ele>1155.2</ele>
        <time>2021-07-20T14:04:31Z</time>
      </trkpt>
      <trkpt lat="45.63506" lon="2.89231">
        <ele>1154.5</ele>
        <time>2021-07-20T14:04:33Z</time>
      </trkpt>
      <trkpt lat="45.63517" lon="2.89248">
        <ele>1153.5</ele>
        <time>2021-07-20T14:04:35Z</time>
      </trkpt>
      <trkpt lat="45.63529" lon="2.89265">
        <ele>1152.4</ele>
        <time>2021-07-20T14:04:37Z</time>
      </trkpt>
      <trkpt lat="45.6354" lon="2.89282">
        <ele>1151.5</ele>
        <time>2021-07-20T14:04:39Z</time>
      </trkpt>
      <trkpt lat="45.63552" lon="2.89298">
        <ele>1150.8</ele>
        <time>2021-07-20T14:04:41Z</time>
      </trkpt>
      <trkpt lat="45.63563" lon="2.89314">
        <ele>1150.5</ele>
        <time>2021-07-20T14:04:43Z</time>
      </trkpt>
      <trkpt lat="45.63574" lon="2.8933">
        <ele>1150.4</ele>
        <time>2021-07-20T14:04:45Z</time>
      </trkpt>
      <trkpt lat="45.63586" lon="2.89346">
        <ele>1149.8</ele>
        <time>2021-07-20T14:04:47Z</time>
      </trkpt>
      <trkpt lat="45.63598" lon="2.89361">
        <ele>1147.8</ele>
        <time>2021-07-20T14:04:49Z</time>
      </trkpt>
      <trkpt lat="45.63608" lon="2.89374">
        <ele>1146.2</ele>
        <time>2021-07-20T14:04:51Z</time>
      </trkpt>
      <trkpt lat="45.63614" lon="2.89384">
        <ele>1145.2</ele>
        <time>2021-07-20T14:04:53Z</time>
      </trkpt>
      <trkpt lat="45.63613" lon="2.89393">
        <ele>1144.6</ele>
        <time>2021-07-20T14:04:55Z</time>
      </trkpt>
      <trkpt lat="45.63607" lon="2.894">
        <ele>1144.4</ele>
        <time>2021-07-20T14:04:57Z</time>
      </trkpt>
      <trkpt lat="45.63599" lon="2.89407">
        <ele>1144.2</ele>
        <time>2021-07-20T14:04:59Z</time>
      </trkpt>
      <trkpt lat="45.6359" lon="2.89414">
        <ele>1144</ele>
        <time>2021-07-20T14:05:01Z</time>
      </trkpt>
      <trkpt lat="45.63581" lon="2.89422">
        <ele>1143.6</ele>
        <time>2021-07-20T14:05:03Z</time>
      </trkpt>
      <trkpt lat="45.63571" lon="2.89431">
        <ele>1142.4</ele>
        <time>2021-07-20T14:05:05Z</time>
      </trkpt>
      <trkpt lat="45.63559" lon="2.89441">
        <ele>1141</ele>
        <time>2021-07-20T14:05:07Z</time>
      </trkpt>
      <trkpt lat="45.63545" lon="2.89452">
        <ele>1139.3</ele>
        <time>2021-07-20T14:05:09Z</time>
      </trkpt>
      <trkpt lat="45.63531" lon="2.89465">
        <ele>1137.6</ele>
        <time>2021-07-20T14:05:11Z</time>
      </trkpt>
      <trkpt lat="45.63516" lon="2.89476">
        <ele>1135.7</ele>
        <time>2021-07-20T14:05:13Z</time>
      </trkpt>
      <trkpt lat="45.63502" lon="2.89487">
        <ele>1134</ele>
        <time>2021-07-20T14:05:15Z</time>
      </trkpt>
      <trkpt lat="45.63491" lon="2.89497">
        <ele>1132.3</ele>
        <time>2021-07-20T14:05:17Z</time>
      </trkpt>
      <trkpt lat="45.63482" lon="2.89504">
        <ele>1131.1</ele>
        <time>2021-07-20T14:05:19Z</time>
      </trkpt>
      <trkpt lat="45.63472" lon="2.89509">
        <ele>1130</ele>
        <time>2021-07-20T14:05:21Z</time>
      </trkpt>
      <trkpt lat="45.6346" lon="2.89514">
        <ele>1128.6</ele>
        <time>2021-07-20T14:05:23Z</time>
      </trkpt>
      <trkpt lat="45.63445" lon="2.8952">
        <ele>1127</ele>
        <time>2021-07-20T14:05:25Z</time>
      </trkpt>
      <trkpt lat="45.63431" lon="2.89525">
        <ele>1125.5</ele>
        <time>2021-07-20T14:05:27Z</time>
      </trkpt>
      <trkpt lat="45.63419" lon="2.89529">
        <ele>1124.2</ele>
        <time>2021-07-20T14:05:29Z</time>
      </trkpt>
      <trkpt lat="45.63407" lon="2.89533">
        <ele>1122.7</ele>
        <time>2021-07-20T14:05:31Z</time>
      </trkpt>
      <trkpt lat="45.63397" lon="2.89538">
        <ele>1121.3</ele>
        <time>2021-07-20T14:05:33Z</time>
      </trkpt>
      <trkpt lat="45.63386" lon="2.89552">
        <ele>1119.3</ele>
        <time>2021-07-20T14:05:35Z</time>
      </trkpt>
      <trkpt lat="45.63375" lon="2.89572">
        <ele>1117</ele>
        <time>2021-07-20T14:05:37Z</time>
      </trkpt>
      <trkpt lat="45.63363" lon="2.89594">
        <ele>1114.6</ele>
        <time>2021-07-20T14:05:39Z</time>
      </trkpt>
      <trkpt lat="45.6335" lon="2.89619">
        <ele>1112</ele>
        <time>2021-07-20T14:05:41Z</time>
      </trkpt>
      <trkpt lat="45.63336" lon="2.89642">
        <ele>1109.3</ele>
        <time>2021-07-20T14:05:43Z</time>
      </trkpt>
      <trkpt lat="45.63324" lon="2.89663">
        <ele>1106.9</ele>
        <time>2021-07-20T14:05:45Z</time>
      </trkpt>
      <trkpt lat="45.63314" lon="2.89682">
        <ele>1105.7</ele>
        <time>2021-07-20T14:05:47Z</time>
      </trkpt>
      <trkpt lat="45.63304" lon="2.89696">
        <ele>1104.5</ele>
        <time>2021-07-20T14:05:49Z</time>
      </trkpt>
      <trkpt lat="45.63296" lon="2.89705">
        <ele>1103.4</ele>
        <time>2021-07-20T14:05:51Z</time>
      </trkpt>
      <trkpt lat="45.63287" lon="2.89712">
        <ele>1102.1</ele>
        <time>2021-07-20T14:05:53Z</time>
      </trkpt>
      <trkpt lat="45.63276" lon="2.89718">
        <ele>1100.4</ele>
        <time>2021-07-20T14:05:55Z</time>
      </trkpt>
      <trkpt lat="45.63266" lon="2.89727">
        <ele>1098.8</ele>
        <time>2021-07-20T14:05:57Z</time>
      </trkpt>
      <trkpt lat="45.63256" lon="2.89736">
        <ele>1097.2</ele>
        <time>2021-07-20T14:05:59Z</time>
      </trkpt>
      <trkpt lat="45.63247" lon="2.89747">
        <ele>1095.4</ele>
        <time>2021-07-20T14:06:01Z</time>
      </trkpt>
      <trkpt lat="45.63238" lon="2.89759">
        <ele>1093.6</ele>
        <time>2021-07-20T14:06:03Z</time>
      </trkpt>
      <trkpt lat="45.63229" lon="2.89773">
        <ele>1091.9</ele>
        <time>2021-07-20T14:06:05Z</time>
      </trkpt>
      <trkpt lat="45.63223" lon="2.89786">
        <ele>1090.6</ele>
        <time>2021-07-20T14:06:07Z</time>
      </trkpt>
      <trkpt lat="45.63216" lon="2.898">
        <ele>1089.3</ele>
        <time>2021-07-20T14:06:09Z</time>
      </trkpt>
      <trkpt lat="45.63211" lon="2.89813">
        <ele>1088.1</ele>
        <time>2021-07-20T14:06:11Z</time>
      </trkpt>
      <trkpt lat="45.63204" lon="2.89828">
        <ele>1086.7</ele>
        <time>2021-07-20T14:06:13Z</time>
      </trkpt>
      <trkpt lat="45.63198" lon="2.89844">
        <ele>1085.8</ele>
        <time>2021-07-20T14:06:15Z</time>
      </trkpt>
      <trkpt lat="45.63191" lon="2.89861">
        <ele>1084.9</ele>
        <time>2021-07-20T14:06:17Z</time>
      </trkpt>
      <trkpt lat="45.63185" lon="2.89877">
        <ele>1084.1</ele>
        <time>2021-07-20T14:06:19Z</time>
      </trkpt>
      <trkpt lat="45.63179" lon="2.89891">
        <ele>1083.1</ele>
        <time>2021-07-20T14:06:21Z</time>
      </trkpt>
      <trkpt lat="45.6317" lon="2.89906">
        <ele>1081.5</ele>
        <time>2021-07-20T14:06:23Z</time>
      </trkpt>
      <trkpt lat="45.63161" lon="2.89921">
        <ele>1080.4</ele>
        <time>2021-07-20T14:06:25Z</time>
      </trkpt>
      <trkpt lat="45.63153" lon="2.89934">
        <ele>1079.6</ele>
        <time>2021-07-20T14:06:27Z</time>
      </trkpt>
      <trkpt lat="45.63147" lon="2.89947">
        <ele>1079</ele>
        <time>2021-07-20T14:06:29Z</time>
      </trkpt>
      <trkpt lat="45.63142" lon="2.89959">
        <ele>1078.4</ele>
        <time>2021-07-20T14:06:31Z</time>
      </trkpt>
      <trkpt lat="45.63139" lon="2.89974">
        <ele>1078</ele>
        <time>2021-07-20T14:06:33Z</time>
      </trkpt>
      <trkpt lat="45.63137" lon="2.89993">
        <ele>1077.8</ele>
        <time>2021-07-20T14:06:35Z</time>
      </trkpt>
      <trkpt lat="45.63136" lon="2.90013">
        <ele>1076.9</ele>
        <time>2021-07-20T14:06:37Z</time>
      </trkpt>
      <trkpt lat="45.63137" lon="2.90033">
        <ele>1076.3</ele>
        <time>2021-07-20T14:06:39Z</time>
      </trkpt>
      <trkpt lat="45.63139" lon="2.9005">
        <ele>1076.1</ele>
        <time>2021-07-20T14:06:41Z</time>
      </trkpt>
      <trkpt lat="45.63143" lon="2.90061">
        <ele>1076.3</ele>
        <time>2021-07-20T14:06:43Z</time>
      </trkpt>
      <trkpt lat="45.63145" lon="2.90067">
        <ele>1076.5</ele>
        <time>2021-07-20T14:06:45Z</time>
      </trkpt>
      <trkpt lat="45.63148" lon="2.90072">
        <ele>1077</ele>
        <time>2021-07-20T14:06:49Z</time>
      </trkpt>
      <trkpt lat="45.63144" lon="2.90067">
        <ele>1076.4</ele>
        <time>2021-07-20T14:07:07Z</time>
      </trkpt>
      <trkpt lat="45.63139" lon="2.90073">
        <ele>1074.9</ele>
        <time>2021-07-20T14:07:53Z</time>
      </trkpt>
      <trkpt lat="45.63137" lon="2.90079">
        <ele>1074.1</ele>
        <time>2021-07-20T14:07:55Z</time>
      </trkpt>
      <trkpt lat="45.63135" lon="2.90089">
        <ele>1073</ele>
        <time>2021-07-20T14:07:57Z</time>
      </trkpt>
      <trkpt lat="45.63132" lon="2.90099">
        <ele>1071.6</ele>
        <time>2021-07-20T14:07:59Z</time>
      </trkpt>
      <trkpt lat="45.63126" lon="2.90108">
        <ele>1069.7</ele>
        <time>2021-07-20T14:08:01Z</time>
      </trkpt>
      <trkpt lat="45.63119" lon="2.90116">
        <ele>1067.8</ele>
        <time>2021-07-20T14:08:03Z</time>
      </trkpt>
      <trkpt lat="45.63112" lon="2.90124">
        <ele>1065.9</ele>
        <time>2021-07-20T14:08:05Z</time>
      </trkpt>
      <trkpt lat="45.63105" lon="2.90132">
        <ele>1064.1</ele>
        <time>2021-07-20T14:08:07Z</time>
      </trkpt>
      <trkpt lat="45.631" lon="2.90139">
        <ele>1063</ele>
        <time>2021-07-20T14:08:09Z</time>
      </trkpt>
      <trkpt lat="45.63096" lon="2.90143">
        <ele>1062</ele>
        <time>2021-07-20T14:08:11Z</time>
      </trkpt>
      <trkpt lat="45.63092" lon="2.90148">
        <ele>1060.9</ele>
        <time>2021-07-20T14:08:13Z</time>
      </trkpt>
      <trkpt lat="45.63087" lon="2.90153">
        <ele>1059.9</ele>
        <time>2021-07-20T14:08:15Z</time>
      </trkpt>
      <trkpt lat="45.63082" lon="2.90157">
        <ele>1059.3</ele>
        <time>2021-07-20T14:08:17Z</time>
      </trkpt>
      <trkpt lat="45.63077" lon="2.90162">
        <ele>1059.4</ele>
        <time>2021-07-20T14:08:19Z</time>
      </trkpt>
      <trkpt lat="45.63072" lon="2.90168">
        <ele>1059.4</ele>
        <time>2021-07-20T14:08:21Z</time>
      </trkpt>
      <trkpt lat="45.63068" lon="2.90174">
        <ele>1059.3</ele>
        <time>2021-07-20T14:08:23Z</time>
      </trkpt>
      <trkpt lat="45.63063" lon="2.9018">
        <ele>1059.2</ele>
        <time>2021-07-20T14:08:25Z</time>
      </trkpt>
      <trkpt lat="45.63059" lon="2.90184">
        <ele>1059.2</ele>
        <time>2021-07-20T14:08:27Z</time>
      </trkpt>
      <trkpt lat="45.63053" lon="2.90191">
        <ele>1059.1</ele>
        <time>2021-07-20T14:08:29Z</time>
      </trkpt>
      <trkpt lat="45.63048" lon="2.90197">
        <ele>1059.1</ele>
        <time>2021-07-20T14:08:31Z</time>
      </trkpt>
      <trkpt lat="45.63042" lon="2.90202">
        <ele>1059.3</ele>
        <time>2021-07-20T14:08:33Z</time>
      </trkpt>
      <trkpt lat="45.63037" lon="2.90205">
        <ele>1059.5</ele>
        <time>2021-07-20T14:08:37Z</time>
      </trkpt>
      <trkpt lat="45.63033" lon="2.90208">
        <ele>1059.6</ele>
        <time>2021-07-20T14:08:53Z</time>
      </trkpt>
      <trkpt lat="45.63029" lon="2.90214">
        <ele>1059.7</ele>
        <time>2021-07-20T14:09:01Z</time>
      </trkpt>
      <trkpt lat="45.63025" lon="2.90219">
        <ele>1059.8</ele>
        <time>2021-07-20T14:09:09Z</time>
      </trkpt>
      <trkpt lat="45.63022" lon="2.90225">
        <ele>1059.8</ele>
        <time>2021-07-20T14:09:15Z</time>
      </trkpt>
      <trkpt lat="45.63019" lon="2.90231">
        <ele>1059.8</ele>
        <time>2021-07-20T14:09:21Z</time>
      </trkpt>
      <trkpt lat="45.63017" lon="2.90238">
        <ele>1059.7</ele>
        <time>2021-07-20T14:09:27Z</time>
      </trkpt>
      <trkpt lat="45.63016" lon="2.90249">
        <ele>1059.5</ele>
        <time>2021-07-20T14:09:37Z</time>
      </trkpt>
      <trkpt lat="45.63018" lon="2.90261">
        <ele>1059.5</ele>
        <time>2021-07-20T14:09:41Z</time>
      </trkpt>
      <trkpt lat="45.6302" lon="2.90268">
        <ele>1059.4</ele>
        <time>2021-07-20T14:09:43Z</time>
      </trkpt>
      <trkpt lat="45.63022" lon="2.90275">
        <ele>1059.3</ele>
        <time>2021-07-20T14:09:47Z</time>
      </trkpt>
      <trkpt lat="45.63024" lon="2.90281">
        <ele>1059.1</ele>
        <time>2021-07-20T14:09:53Z</time>
      </trkpt>
      <trkpt lat="45.63027" lon="2.9029">
        <ele>1058.7</ele>
        <time>2021-07-20T14:09:57Z</time>
      </trkpt>
      <trkpt lat="45.63031" lon="2.90299">
        <ele>1058.3</ele>
        <time>2021-07-20T14:10:01Z</time>
      </trkpt>
      <trkpt lat="45.63033" lon="2.90311">
        <ele>1058.1</ele>
        <time>2021-07-20T14:10:05Z</time>
      </trkpt>
      <trkpt lat="45.63035" lon="2.9032">
        <ele>1057.7</ele>
        <time>2021-07-20T14:10:09Z</time>
      </trkpt>
      <trkpt lat="45.63036" lon="2.90326">
        <ele>1057.5</ele>
        <time>2021-07-20T14:10:21Z</time>
      </trkpt>
      <trkpt lat="45.63036" lon="2.90334">
        <ele>1057.5</ele>
        <time>2021-07-20T14:10:27Z</time>
      </trkpt>
      <trkpt lat="45.63038" lon="2.90342">
        <ele>1057.3</ele>
        <time>2021-07-20T14:10:33Z</time>
      </trkpt>
      <trkpt lat="45.63039" lon="2.9035">
        <ele>1057.4</ele>
        <time>2021-07-20T14:10:39Z</time>
      </trkpt>
      <trkpt lat="45.63042" lon="2.90361">
        <ele>1057.2</ele>
        <time>2021-07-20T14:10:49Z</time>
      </trkpt>
      <trkpt lat="45.63044" lon="2.90368">
        <ele>1056.9</ele>
        <time>2021-07-20T14:10:51Z</time>
      </trkpt>
      <trkpt lat="45.63046" lon="2.90379">
        <ele>1056.9</ele>
        <time>2021-07-20T14:10:55Z</time>
      </trkpt>
      <trkpt lat="45.63046" lon="2.90391">
        <ele>1057.1</ele>
        <time>2021-07-20T14:10:59Z</time>
      </trkpt>
      <trkpt lat="45.63047" lon="2.90401">
        <ele>1057</ele>
        <time>2021-07-20T14:11:01Z</time>
      </trkpt>
      <trkpt lat="45.63048" lon="2.90408">
        <ele>1057</ele>
        <time>2021-07-20T14:11:03Z</time>
      </trkpt>
      <trkpt lat="45.6305" lon="2.90418">
        <ele>1056.7</ele>
        <time>2021-07-20T14:11:05Z</time>
      </trkpt>
      <trkpt lat="45.63052" lon="2.90429">
        <ele>1056.6</ele>
        <time>2021-07-20T14:11:09Z</time>
      </trkpt>
      <trkpt lat="45.63053" lon="2.9044">
        <ele>1056.6</ele>
        <time>2021-07-20T14:11:13Z</time>
      </trkpt>
      <trkpt lat="45.63057" lon="2.90451">
        <ele>1055.8</ele>
        <time>2021-07-20T14:11:17Z</time>
      </trkpt>
      <trkpt lat="45.63059" lon="2.90459">
        <ele>1055.3</ele>
        <time>2021-07-20T14:11:19Z</time>
      </trkpt>
      <trkpt lat="45.63062" lon="2.90467">
        <ele>1054.9</ele>
        <time>2021-07-20T14:11:21Z</time>
      </trkpt>
      <trkpt lat="45.63064" lon="2.90475">
        <ele>1054.4</ele>
        <time>2021-07-20T14:11:23Z</time>
      </trkpt>
      <trkpt lat="45.63067" lon="2.90483">
        <ele>1053.8</ele>
        <time>2021-07-20T14:11:27Z</time>
      </trkpt>
      <trkpt lat="45.63069" lon="2.90489">
        <ele>1053.4</ele>
        <time>2021-07-20T14:11:33Z</time>
      </trkpt>
      <trkpt lat="45.6307" lon="2.90496">
        <ele>1053.1</ele>
        <time>2021-07-20T14:11:39Z</time>
      </trkpt>
      <trkpt lat="45.63071" lon="2.90503">
        <ele>1053.1</ele>
        <time>2021-07-20T14:11:43Z</time>
      </trkpt>
      <trkpt lat="45.63075" lon="2.90513">
        <ele>1052.7</ele>
        <time>2021-07-20T14:11:47Z</time>
      </trkpt>
      <trkpt lat="45.63076" lon="2.9052">
        <ele>1052.8</ele>
        <time>2021-07-20T14:11:49Z</time>
      </trkpt>
      <trkpt lat="45.63077" lon="2.90526">
        <ele>1053</ele>
        <time>2021-07-20T14:11:51Z</time>
      </trkpt>
      <trkpt lat="45.63078" lon="2.90533">
        <ele>1052.9</ele>
        <time>2021-07-20T14:11:53Z</time>
      </trkpt>
      <trkpt lat="45.63081" lon="2.90541">
        <ele>1052.7</ele>
        <time>2021-07-20T14:11:55Z</time>
      </trkpt>
      <trkpt lat="45.63082" lon="2.90548">
        <ele>1052.7</ele>
        <time>2021-07-20T14:11:57Z</time>
      </trkpt>
      <trkpt lat="45.63082" lon="2.9056">
        <ele>1053.3</ele>
        <time>2021-07-20T14:12:01Z</time>
      </trkpt>
      <trkpt lat="45.63084" lon="2.90572">
        <ele>1053.3</ele>
        <time>2021-07-20T14:12:05Z</time>
      </trkpt>
      <trkpt lat="45.63087" lon="2.90584">
        <ele>1053.5</ele>
        <time>2021-07-20T14:12:09Z</time>
      </trkpt>
      <trkpt lat="45.63093" lon="2.90594">
        <ele>1053.5</ele>
        <time>2021-07-20T14:12:13Z</time>
      </trkpt>
      <trkpt lat="45.63096" lon="2.90607">
        <ele>1053.8</ele>
        <time>2021-07-20T14:12:17Z</time>
      </trkpt>
      <trkpt lat="45.63098" lon="2.90614">
        <ele>1054</ele>
        <time>2021-07-20T14:12:19Z</time>
      </trkpt>
      <trkpt lat="45.63102" lon="2.90622">
        <ele>1053.9</ele>
        <time>2021-07-20T14:12:21Z</time>
      </trkpt>
      <trkpt lat="45.63105" lon="2.90629">
        <ele>1053.9</ele>
        <time>2021-07-20T14:12:23Z</time>
      </trkpt>
      <trkpt lat="45.63109" lon="2.90637">
        <ele>1053.6</ele>
        <time>2021-07-20T14:12:25Z</time>
      </trkpt>
      <trkpt lat="45.63115" lon="2.90645">
        <ele>1053.2</ele>
        <time>2021-07-20T14:12:27Z</time>
      </trkpt>
      <trkpt lat="45.63122" lon="2.90652">
        <ele>1052.3</ele>
        <time>2021-07-20T14:12:29Z</time>
      </trkpt>
      <trkpt lat="45.63128" lon="2.90658">
        <ele>1051.5</ele>
        <time>2021-07-20T14:12:31Z</time>
      </trkpt>
      <trkpt lat="45.63135" lon="2.90665">
        <ele>1050.6</ele>
        <time>2021-07-20T14:12:33Z</time>
      </trkpt>
      <trkpt lat="45.63143" lon="2.90672">
        <ele>1049.5</ele>
        <time>2021-07-20T14:12:35Z</time>
      </trkpt>
      <trkpt lat="45.6315" lon="2.90679">
        <ele>1048.3</ele>
        <time>2021-07-20T14:12:37Z</time>
      </trkpt>
      <trkpt lat="45.63159" lon="2.90686">
        <ele>1046.9</ele>
        <time>2021-07-20T14:12:39Z</time>
      </trkpt>
      <trkpt lat="45.63166" lon="2.90694">
        <ele>1045.8</ele>
        <time>2021-07-20T14:12:41Z</time>
      </trkpt>
      <trkpt lat="45.63173" lon="2.90701">
        <ele>1045.3</ele>
        <time>2021-07-20T14:12:43Z</time>
      </trkpt>
      <trkpt lat="45.6318" lon="2.90707">
        <ele>1044.9</ele>
        <time>2021-07-20T14:12:45Z</time>
      </trkpt>
      <trkpt lat="45.63187" lon="2.90714">
        <ele>1044.4</ele>
        <time>2021-07-20T14:12:47Z</time>
      </trkpt>
      <trkpt lat="45.63197" lon="2.90723">
        <ele>1043.7</ele>
        <time>2021-07-20T14:12:49Z</time>
      </trkpt>
      <trkpt lat="45.63206" lon="2.90732">
        <ele>1043</ele>
        <time>2021-07-20T14:12:51Z</time>
      </trkpt>
      <trkpt lat="45.63215" lon="2.90741">
        <ele>1042.2</ele>
        <time>2021-07-20T14:12:53Z</time>
      </trkpt>
      <trkpt lat="45.63224" lon="2.90753">
        <ele>1041.6</ele>
        <time>2021-07-20T14:12:55Z</time>
      </trkpt>
      <trkpt lat="45.63232" lon="2.90764">
        <ele>1041</ele>
        <time>2021-07-20T14:12:57Z</time>
      </trkpt>
      <trkpt lat="45.63239" lon="2.90775">
        <ele>1040.4</ele>
        <time>2021-07-20T14:12:59Z</time>
      </trkpt>
      <trkpt lat="45.63246" lon="2.90784">
        <ele>1039.8</ele>
        <time>2021-07-20T14:13:01Z</time>
      </trkpt>
      <trkpt lat="45.63252" lon="2.90793">
        <ele>1039.6</ele>
        <time>2021-07-20T14:13:03Z</time>
      </trkpt>
      <trkpt lat="45.63257" lon="2.908">
        <ele>1039.8</ele>
        <time>2021-07-20T14:13:05Z</time>
      </trkpt>
      <trkpt lat="45.63258" lon="2.90807">
        <ele>1039.8</ele>
        <time>2021-07-20T14:13:07Z</time>
      </trkpt>
      <trkpt lat="45.6326" lon="2.90814">
        <ele>1039.9</ele>
        <time>2021-07-20T14:13:09Z</time>
      </trkpt>
      <trkpt lat="45.63262" lon="2.90824">
        <ele>1040</ele>
        <time>2021-07-20T14:13:11Z</time>
      </trkpt>
      <trkpt lat="45.63262" lon="2.90835">
        <ele>1040</ele>
        <time>2021-07-20T14:13:13Z</time>
      </trkpt>
      <trkpt lat="45.63262" lon="2.90841">
        <ele>1039.8</ele>
        <time>2021-07-20T14:13:15Z</time>
      </trkpt>
      <trkpt lat="45.63262" lon="2.9085">
        <ele>1039.6</ele>
        <time>2021-07-20T14:13:17Z</time>
      </trkpt>
      <trkpt lat="45.63262" lon="2.90859">
        <ele>1039.4</ele>
        <time>2021-07-20T14:13:19Z</time>
      </trkpt>
      <trkpt lat="45.63263" lon="2.90867">
        <ele>1039.1</ele>
        <time>2021-07-20T14:13:21Z</time>
      </trkpt>
      <trkpt lat="45.63265" lon="2.90877">
        <ele>1038.8</ele>
        <time>2021-07-20T14:13:23Z</time>
      </trkpt>
      <trkpt lat="45.63268" lon="2.90887">
        <ele>1038.6</ele>
        <time>2021-07-20T14:13:25Z</time>
      </trkpt>
      <trkpt lat="45.63271" lon="2.90894">
        <ele>1038.4</ele>
        <time>2021-07-20T14:13:27Z</time>
      </trkpt>
      <trkpt lat="45.6327" lon="2.909">
        <ele>1038.2</ele>
        <time>2021-07-20T14:13:37Z</time>
      </trkpt>
      <trkpt lat="45.63272" lon="2.90906">
        <ele>1038</ele>
        <time>2021-07-20T14:13:53Z</time>
      </trkpt>
      <trkpt lat="45.63276" lon="2.90912">
        <ele>1037.8</ele>
        <time>2021-07-20T14:14:07Z</time>
      </trkpt>
      <trkpt lat="45.63279" lon="2.90918">
        <ele>1037.6</ele>
        <time>2021-07-20T14:14:13Z</time>
      </trkpt>
      <trkpt lat="45.63283" lon="2.90923">
        <ele>1037.6</ele>
        <time>2021-07-20T14:14:21Z</time>
      </trkpt>
      <trkpt lat="45.63287" lon="2.90928">
        <ele>1037.5</ele>
        <time>2021-07-20T14:14:25Z</time>
      </trkpt>
      <trkpt lat="45.6329" lon="2.90933">
        <ele>1037.4</ele>
        <time>2021-07-20T14:14:33Z</time>
      </trkpt>
      <trkpt lat="45.63295" lon="2.9094">
        <ele>1037.3</ele>
        <time>2021-07-20T14:17:49Z</time>
      </trkpt>
      <trkpt lat="45.63299" lon="2.90945">
        <ele>1037.2</ele>
        <time>2021-07-20T14:17:53Z</time>
      </trkpt>
      <trkpt lat="45.63303" lon="2.90948">
        <ele>1037.1</ele>
        <time>2021-07-20T14:17:57Z</time>
      </trkpt>
      <trkpt lat="45.63307" lon="2.90952">
        <ele>1037</ele>
        <time>2021-07-20T14:18:01Z</time>
      </trkpt>
      <trkpt lat="45.63312" lon="2.90954">
        <ele>1036.9</ele>
        <time>2021-07-20T14:21:35Z</time>
      </trkpt>
      <trkpt lat="45.63317" lon="2.90963">
        <ele>1036.7</ele>
        <time>2021-07-20T14:21:39Z</time>
      </trkpt>
      <trkpt lat="45.63322" lon="2.90968">
        <ele>1036.6</ele>
        <time>2021-07-20T14:21:41Z</time>
      </trkpt>
      <trkpt lat="45.63326" lon="2.90975">
        <ele>1036.5</ele>
        <time>2021-07-20T14:21:43Z</time>
      </trkpt>
      <trkpt lat="45.63328" lon="2.90985">
        <ele>1036.3</ele>
        <time>2021-07-20T14:21:45Z</time>
      </trkpt>
      <trkpt lat="45.63329" lon="2.90996">
        <ele>1036.2</ele>
        <time>2021-07-20T14:21:47Z</time>
      </trkpt>
      <trkpt lat="45.63331" lon="2.91007">
        <ele>1036</ele>
        <time>2021-07-20T14:21:49Z</time>
      </trkpt>
      <trkpt lat="45.63332" lon="2.91018">
        <ele>1035.8</ele>
        <time>2021-07-20T14:21:51Z</time>
      </trkpt>
      <trkpt lat="45.63333" lon="2.9103">
        <ele>1035.7</ele>
        <time>2021-07-20T14:21:53Z</time>
      </trkpt>
      <trkpt lat="45.63333" lon="2.9104">
        <ele>1035.5</ele>
        <time>2021-07-20T14:21:55Z</time>
      </trkpt>
      <trkpt lat="45.63334" lon="2.91051">
        <ele>1035.5</ele>
        <time>2021-07-20T14:21:57Z</time>
      </trkpt>
      <trkpt lat="45.63335" lon="2.91061">
        <ele>1035.4</ele>
        <time>2021-07-20T14:21:59Z</time>
      </trkpt>
      <trkpt lat="45.63336" lon="2.9107">
        <ele>1035.3</ele>
        <time>2021-07-20T14:22:01Z</time>
      </trkpt>
      <trkpt lat="45.63336" lon="2.91079">
        <ele>1035.2</ele>
        <time>2021-07-20T14:22:03Z</time>
      </trkpt>
      <trkpt lat="45.63336" lon="2.91088">
        <ele>1035</ele>
        <time>2021-07-20T14:22:05Z</time>
      </trkpt>
      <trkpt lat="45.63335" lon="2.91095">
        <ele>1034.7</ele>
        <time>2021-07-20T14:22:07Z</time>
      </trkpt>
      <trkpt lat="45.63336" lon="2.91105">
        <ele>1034.4</ele>
        <time>2021-07-20T14:22:09Z</time>
      </trkpt>
      <trkpt lat="45.63337" lon="2.91113">
        <ele>1034.1</ele>
        <time>2021-07-20T14:22:11Z</time>
      </trkpt>
      <trkpt lat="45.63337" lon="2.91121">
        <ele>1033.8</ele>
        <time>2021-07-20T14:22:13Z</time>
      </trkpt>
      <trkpt lat="45.63337" lon="2.91131">
        <ele>1033.5</ele>
        <time>2021-07-20T14:22:15Z</time>
      </trkpt>
      <trkpt lat="45.63339" lon="2.91144">
        <ele>1033.1</ele>
        <time>2021-07-20T14:22:17Z</time>
      </trkpt>
      <trkpt lat="45.63341" lon="2.91156">
        <ele>1032.8</ele>
        <time>2021-07-20T14:22:19Z</time>
      </trkpt>
      <trkpt lat="45.63344" lon="2.91168">
        <ele>1032.5</ele>
        <time>2021-07-20T14:22:21Z</time>
      </trkpt>
      <trkpt lat="45.63347" lon="2.91181">
        <ele>1032.4</ele>
        <time>2021-07-20T14:22:23Z</time>
      </trkpt>
      <trkpt lat="45.63351" lon="2.91195">
        <ele>1032.3</ele>
        <time>2021-07-20T14:22:25Z</time>
      </trkpt>
      <trkpt lat="45.63354" lon="2.91208">
        <ele>1032.1</ele>
        <time>2021-07-20T14:22:27Z</time>
      </trkpt>
      <trkpt lat="45.63357" lon="2.91223">
        <ele>1031.9</ele>
        <time>2021-07-20T14:22:29Z</time>
      </trkpt>
      <trkpt lat="45.63359" lon="2.91237">
        <ele>1031.6</ele>
        <time>2021-07-20T14:22:31Z</time>
      </trkpt>
      <trkpt lat="45.6336" lon="2.9125">
        <ele>1031.3</ele>
        <time>2021-07-20T14:22:33Z</time>
      </trkpt>
      <trkpt lat="45.6336" lon="2.9126">
        <ele>1031.3</ele>
        <time>2021-07-20T14:22:35Z</time>
      </trkpt>
      <trkpt lat="45.63362" lon="2.91271">
        <ele>1031.2</ele>
        <time>2021-07-20T14:22:37Z</time>
      </trkpt>
      <trkpt lat="45.63366" lon="2.91283">
        <ele>1031.2</ele>
        <time>2021-07-20T14:22:39Z</time>
      </trkpt>
      <trkpt lat="45.63368" lon="2.91295">
        <ele>1031.1</ele>
        <time>2021-07-20T14:22:41Z</time>
      </trkpt>
      <trkpt lat="45.63372" lon="2.91307">
        <ele>1030.9</ele>
        <time>2021-07-20T14:22:43Z</time>
      </trkpt>
      <trkpt lat="45.63375" lon="2.91321">
        <ele>1030.6</ele>
        <time>2021-07-20T14:22:45Z</time>
      </trkpt>
      <trkpt lat="45.63378" lon="2.91335">
        <ele>1030.4</ele>
        <time>2021-07-20T14:22:47Z</time>
      </trkpt>
      <trkpt lat="45.63382" lon="2.91349">
        <ele>1030.2</ele>
        <time>2021-07-20T14:22:49Z</time>
      </trkpt>
      <trkpt lat="45.63385" lon="2.91362">
        <ele>1030.1</ele>
        <time>2021-07-20T14:22:51Z</time>
      </trkpt>
      <trkpt lat="45.63387" lon="2.91376">
        <ele>1029.9</ele>
        <time>2021-07-20T14:22:53Z</time>
      </trkpt>
      <trkpt lat="45.63388" lon="2.9139">
        <ele>1029.8</ele>
        <time>2021-07-20T14:22:55Z</time>
      </trkpt>
      <trkpt lat="45.63389" lon="2.91406">
        <ele>1029.7</ele>
        <time>2021-07-20T14:22:57Z</time>
      </trkpt>
      <trkpt lat="45.63391" lon="2.91422">
        <ele>1029.4</ele>
        <time>2021-07-20T14:22:59Z</time>
      </trkpt>
      <trkpt lat="45.63393" lon="2.91437">
        <ele>1029</ele>
        <time>2021-07-20T14:23:01Z</time>
      </trkpt>
      <trkpt lat="45.63395" lon="2.91451">
        <ele>1028.5</ele>
        <time>2021-07-20T14:23:03Z</time>
      </trkpt>
      <trkpt lat="45.63399" lon="2.91466">
        <ele>1027.9</ele>
        <time>2021-07-20T14:23:05Z</time>
      </trkpt>
      <trkpt lat="45.63404" lon="2.9148">
        <ele>1027.2</ele>
        <time>2021-07-20T14:23:07Z</time>
      </trkpt>
      <trkpt lat="45.63409" lon="2.91494">
        <ele>1026.6</ele>
        <time>2021-07-20T14:23:09Z</time>
      </trkpt>
      <trkpt lat="45.63414" lon="2.91509">
        <ele>1026.1</ele>
        <time>2021-07-20T14:23:11Z</time>
      </trkpt>
      <trkpt lat="45.63418" lon="2.91523">
        <ele>1025.8</ele>
        <time>2021-07-20T14:23:13Z</time>
      </trkpt>
      <trkpt lat="45.63423" lon="2.91538">
        <ele>1025.7</ele>
        <time>2021-07-20T14:23:15Z</time>
      </trkpt>
      <trkpt lat="45.63427" lon="2.91553">
        <ele>1025.6</ele>
        <time>2021-07-20T14:23:17Z</time>
      </trkpt>
      <trkpt lat="45.63432" lon="2.91567">
        <ele>1025.5</ele>
        <time>2021-07-20T14:23:19Z</time>
      </trkpt>
      <trkpt lat="45.63437" lon="2.9158">
        <ele>1025.3</ele>
        <time>2021-07-20T14:23:21Z</time>
      </trkpt>
      <trkpt lat="45.6344" lon="2.91592">
        <ele>1025.2</ele>
        <time>2021-07-20T14:23:23Z</time>
      </trkpt>
      <trkpt lat="45.63445" lon="2.91605">
        <ele>1025.2</ele>
        <time>2021-07-20T14:23:25Z</time>
      </trkpt>
      <trkpt lat="45.63448" lon="2.91617">
        <ele>1025.1</ele>
        <time>2021-07-20T14:23:27Z</time>
      </trkpt>
      <trkpt lat="45.63452" lon="2.91629">
        <ele>1025</ele>
        <time>2021-07-20T14:23:29Z</time>
      </trkpt>
      <trkpt lat="45.63457" lon="2.9164">
        <ele>1024.8</ele>
        <time>2021-07-20T14:23:31Z</time>
      </trkpt>
      <trkpt lat="45.63464" lon="2.91648">
        <ele>1024.7</ele>
        <time>2021-07-20T14:23:33Z</time>
      </trkpt>
      <trkpt lat="45.63473" lon="2.91652">
        <ele>1024.6</ele>
        <time>2021-07-20T14:23:35Z</time>
      </trkpt>
      <trkpt lat="45.63481" lon="2.91656">
        <ele>1024.4</ele>
        <time>2021-07-20T14:23:37Z</time>
      </trkpt>
      <trkpt lat="45.63489" lon="2.91661">
        <ele>1024.2</ele>
        <time>2021-07-20T14:23:39Z</time>
      </trkpt>
      <trkpt lat="45.63493" lon="2.91671">
        <ele>1024</ele>
        <time>2021-07-20T14:23:41Z</time>
      </trkpt>
      <trkpt lat="45.63496" lon="2.91682">
        <ele>1023.7</ele>
        <time>2021-07-20T14:23:43Z</time>
      </trkpt>
      <trkpt lat="45.63497" lon="2.91693">
        <ele>1023.4</ele>
        <time>2021-07-20T14:23:45Z</time>
      </trkpt>
      <trkpt lat="45.63498" lon="2.91703">
        <ele>1023.2</ele>
        <time>2021-07-20T14:23:47Z</time>
      </trkpt>
      <trkpt lat="45.635" lon="2.91714">
        <ele>1022.9</ele>
        <time>2021-07-20T14:23:49Z</time>
      </trkpt>
      <trkpt lat="45.63501" lon="2.91724">
        <ele>1022.8</ele>
        <time>2021-07-20T14:23:51Z</time>
      </trkpt>
      <trkpt lat="45.63503" lon="2.91735">
        <ele>1022.7</ele>
        <time>2021-07-20T14:23:53Z</time>
      </trkpt>
      <trkpt lat="45.63504" lon="2.91746">
        <ele>1022.5</ele>
        <time>2021-07-20T14:23:55Z</time>
      </trkpt>
      <trkpt lat="45.63507" lon="2.91758">
        <ele>1022.6</ele>
        <time>2021-07-20T14:23:57Z</time>
      </trkpt>
      <trkpt lat="45.63509" lon="2.9177">
        <ele>1022.8</ele>
        <time>2021-07-20T14:23:59Z</time>
      </trkpt>
      <trkpt lat="45.63511" lon="2.91781">
        <ele>1022.9</ele>
        <time>2021-07-20T14:24:01Z</time>
      </trkpt>
      <trkpt lat="45.63513" lon="2.91791">
        <ele>1022.9</ele>
        <time>2021-07-20T14:24:03Z</time>
      </trkpt>
      <trkpt lat="45.63514" lon="2.91802">
        <ele>1022.9</ele>
        <time>2021-07-20T14:24:05Z</time>
      </trkpt>
      <trkpt lat="45.63516" lon="2.91812">
        <ele>1022.9</ele>
        <time>2021-07-20T14:24:07Z</time>
      </trkpt>
      <trkpt lat="45.6352" lon="2.91822">
        <ele>1023.1</ele>
        <time>2021-07-20T14:24:09Z</time>
      </trkpt>
      <trkpt lat="45.63526" lon="2.91829">
        <ele>1023.3</ele>
        <time>2021-07-20T14:24:11Z</time>
      </trkpt>
      <trkpt lat="45.63532" lon="2.91834">
        <ele>1023.5</ele>
        <time>2021-07-20T14:24:13Z</time>
      </trkpt>
      <trkpt lat="45.63539" lon="2.91839">
        <ele>1023.7</ele>
        <time>2021-07-20T14:24:15Z</time>
      </trkpt>
      <trkpt lat="45.63544" lon="2.91843">
        <ele>1023.8</ele>
        <time>2021-07-20T14:24:17Z</time>
      </trkpt>
      <trkpt lat="45.6355" lon="2.9185">
        <ele>1023.8</ele>
        <time>2021-07-20T14:24:21Z</time>
      </trkpt>
      <trkpt lat="45.63543" lon="2.91856">
        <ele>1023.4</ele>
        <time>2021-07-20T14:24:33Z</time>
      </trkpt>
      <trkpt lat="45.63538" lon="2.91862">
        <ele>1023</ele>
        <time>2021-07-20T14:24:35Z</time>
      </trkpt>
      <trkpt lat="45.63534" lon="2.9187">
        <ele>1022.7</ele>
        <time>2021-07-20T14:24:37Z</time>
      </trkpt>
      <trkpt lat="45.63529" lon="2.91879">
        <ele>1022.4</ele>
        <time>2021-07-20T14:24:39Z</time>
      </trkpt>
      <trkpt lat="45.63525" lon="2.91889">
        <ele>1022.2</ele>
        <time>2021-07-20T14:24:41Z</time>
      </trkpt>
      <trkpt lat="45.63523" lon="2.919">
        <ele>1022</ele>
        <time>2021-07-20T14:24:43Z</time>
      </trkpt>
      <trkpt lat="45.63522" lon="2.91909">
        <ele>1021.8</ele>
        <time>2021-07-20T14:24:45Z</time>
      </trkpt>
      <trkpt lat="45.6352" lon="2.91918">
        <ele>1021.8</ele>
        <time>2021-07-20T14:24:47Z</time>
      </trkpt>
      <trkpt lat="45.63519" lon="2.91927">
        <ele>1021.9</ele>
        <time>2021-07-20T14:24:49Z</time>
      </trkpt>
      <trkpt lat="45.63517" lon="2.91936">
        <ele>1022.1</ele>
        <time>2021-07-20T14:24:51Z</time>
      </trkpt>
      <trkpt lat="45.63516" lon="2.91943">
        <ele>1022.2</ele>
        <time>2021-07-20T14:24:53Z</time>
      </trkpt>
      <trkpt lat="45.63516" lon="2.9195">
        <ele>1022.3</ele>
        <time>2021-07-20T14:24:55Z</time>
      </trkpt>
      <trkpt lat="45.63513" lon="2.91963">
        <ele>1022.6</ele>
        <time>2021-07-20T14:24:59Z</time>
      </trkpt>
      <trkpt lat="45.6351" lon="2.91973">
        <ele>1022.9</ele>
        <time>2021-07-20T14:25:03Z</time>
      </trkpt>
      <trkpt lat="45.63506" lon="2.91983">
        <ele>1023.3</ele>
        <time>2021-07-20T14:25:07Z</time>
      </trkpt>
      <trkpt lat="45.63503" lon="2.91994">
        <ele>1023.7</ele>
        <time>2021-07-20T14:25:11Z</time>
      </trkpt>
      <trkpt lat="45.63499" lon="2.92004">
        <ele>1024.2</ele>
        <time>2021-07-20T14:25:15Z</time>
      </trkpt>
      <trkpt lat="45.63495" lon="2.92014">
        <ele>1025.1</ele>
        <time>2021-07-20T14:25:19Z</time>
      </trkpt>
      <trkpt lat="45.63492" lon="2.92023">
        <ele>1025.8</ele>
        <time>2021-07-20T14:25:23Z</time>
      </trkpt>
      <trkpt lat="45.63488" lon="2.92033">
        <ele>1026.6</ele>
        <time>2021-07-20T14:25:27Z</time>
      </trkpt>
      <trkpt lat="45.63485" lon="2.92042">
        <ele>1027.3</ele>
        <time>2021-07-20T14:25:31Z</time>
      </trkpt>
      <trkpt lat="45.63482" lon="2.9205">
        <ele>1028.1</ele>
        <time>2021-07-20T14:25:35Z</time>
      </trkpt>
      <trkpt lat="45.63479" lon="2.9206">
        <ele>1028.8</ele>
        <time>2021-07-20T14:25:39Z</time>
      </trkpt>
      <trkpt lat="45.63476" lon="2.92069">
        <ele>1029.5</ele>
        <time>2021-07-20T14:25:43Z</time>
      </trkpt>
      <trkpt lat="45.63472" lon="2.92077">
        <ele>1030.5</ele>
        <time>2021-07-20T14:25:47Z</time>
      </trkpt>
      <trkpt lat="45.63469" lon="2.92087">
        <ele>1031.3</ele>
        <time>2021-07-20T14:25:51Z</time>
      </trkpt>
      <trkpt lat="45.63467" lon="2.92095">
        <ele>1032</ele>
        <time>2021-07-20T14:25:55Z</time>
      </trkpt>
      <trkpt lat="45.63464" lon="2.92103">
        <ele>1032.8</ele>
        <time>2021-07-20T14:25:59Z</time>
      </trkpt>
      <trkpt lat="45.63461" lon="2.92112">
        <ele>1033.7</ele>
        <time>2021-07-20T14:26:03Z</time>
      </trkpt>
      <trkpt lat="45.63458" lon="2.9212">
        <ele>1034.4</ele>
        <time>2021-07-20T14:26:07Z</time>
      </trkpt>
      <trkpt lat="45.63456" lon="2.92128">
        <ele>1035</ele>
        <time>2021-07-20T14:26:11Z</time>
      </trkpt>
      <trkpt lat="45.63452" lon="2.92137">
        <ele>1036</ele>
        <time>2021-07-20T14:26:15Z</time>
      </trkpt>
      <trkpt lat="45.63447" lon="2.92146">
        <ele>1036.9</ele>
        <time>2021-07-20T14:26:19Z</time>
      </trkpt>
      <trkpt lat="45.63445" lon="2.92154">
        <ele>1037.6</ele>
        <time>2021-07-20T14:26:23Z</time>
      </trkpt>
      <trkpt lat="45.63442" lon="2.92162">
        <ele>1038.2</ele>
        <time>2021-07-20T14:26:27Z</time>
      </trkpt>
      <trkpt lat="45.63439" lon="2.92169">
        <ele>1038.9</ele>
        <time>2021-07-20T14:26:31Z</time>
      </trkpt>
      <trkpt lat="45.63435" lon="2.92177">
        <ele>1039.7</ele>
        <time>2021-07-20T14:26:35Z</time>
      </trkpt>
      <trkpt lat="45.63432" lon="2.92185">
        <ele>1040.4</ele>
        <time>2021-07-20T14:26:39Z</time>
      </trkpt>
      <trkpt lat="45.6343" lon="2.92193">
        <ele>1041</ele>
        <time>2021-07-20T14:26:43Z</time>
      </trkpt>
      <trkpt lat="45.63428" lon="2.922">
        <ele>1041.6</ele>
        <time>2021-07-20T14:26:47Z</time>
      </trkpt>
      <trkpt lat="45.63425" lon="2.92208">
        <ele>1042.2</ele>
        <time>2021-07-20T14:26:51Z</time>
      </trkpt>
      <trkpt lat="45.63421" lon="2.92215">
        <ele>1043</ele>
        <time>2021-07-20T14:26:55Z</time>
      </trkpt>
      <trkpt lat="45.63419" lon="2.92222">
        <ele>1043.7</ele>
        <time>2021-07-20T14:26:59Z</time>
      </trkpt>
      <trkpt lat="45.63416" lon="2.92231">
        <ele>1044.4</ele>
        <time>2021-07-20T14:27:03Z</time>
      </trkpt>
      <trkpt lat="45.63413" lon="2.92239">
        <ele>1045.1</ele>
        <time>2021-07-20T14:27:07Z</time>
      </trkpt>
      <trkpt lat="45.6341" lon="2.92247">
        <ele>1046</ele>
        <time>2021-07-20T14:27:11Z</time>
      </trkpt>
      <trkpt lat="45.63407" lon="2.92256">
        <ele>1046.8</ele>
        <time>2021-07-20T14:27:15Z</time>
      </trkpt>
      <trkpt lat="45.63404" lon="2.92263">
        <ele>1047.5</ele>
        <time>2021-07-20T14:27:19Z</time>
      </trkpt>
      <trkpt lat="45.63401" lon="2.92271">
        <ele>1048.3</ele>
        <time>2021-07-20T14:27:23Z</time>
      </trkpt>
      <trkpt lat="45.63399" lon="2.92279">
        <ele>1048.9</ele>
        <time>2021-07-20T14:27:27Z</time>
      </trkpt>
      <trkpt lat="45.63396" lon="2.92286">
        <ele>1049.6</ele>
        <time>2021-07-20T14:27:31Z</time>
      </trkpt>
      <trkpt lat="45.63395" lon="2.92295">
        <ele>1050.1</ele>
        <time>2021-07-20T14:27:35Z</time>
      </trkpt>
      <trkpt lat="45.63394" lon="2.92302">
        <ele>1050.6</ele>
        <time>2021-07-20T14:27:39Z</time>
      </trkpt>
      <trkpt lat="45.63391" lon="2.92309">
        <ele>1051.3</ele>
        <time>2021-07-20T14:27:43Z</time>
      </trkpt>
      <trkpt lat="45.63389" lon="2.92317">
        <ele>1052.1</ele>
        <time>2021-07-20T14:27:47Z</time>
      </trkpt>
      <trkpt lat="45.63385" lon="2.92325">
        <ele>1053.2</ele>
        <time>2021-07-20T14:27:53Z</time>
      </trkpt>
      <trkpt lat="45.63382" lon="2.92332">
        <ele>1053.9</ele>
        <time>2021-07-20T14:27:57Z</time>
      </trkpt>
      <trkpt lat="45.63379" lon="2.92336">
        <ele>1054.8</ele>
        <time>2021-07-20T14:28:01Z</time>
      </trkpt>
      <trkpt lat="45.63373" lon="2.92339">
        <ele>1056.1</ele>
        <time>2021-07-20T14:28:05Z</time>
      </trkpt>
      <trkpt lat="45.63368" lon="2.92344">
        <ele>1057.3</ele>
        <time>2021-07-20T14:28:09Z</time>
      </trkpt>
      <trkpt lat="45.63363" lon="2.92348">
        <ele>1058.5</ele>
        <time>2021-07-20T14:28:13Z</time>
      </trkpt>
      <trkpt lat="45.63359" lon="2.92354">
        <ele>1059.4</ele>
        <time>2021-07-20T14:28:17Z</time>
      </trkpt>
      <trkpt lat="45.63354" lon="2.92358">
        <ele>1060.5</ele>
        <time>2021-07-20T14:28:21Z</time>
      </trkpt>
      <trkpt lat="45.63349" lon="2.92364">
        <ele>1061.5</ele>
        <time>2021-07-20T14:28:25Z</time>
      </trkpt>
      <trkpt lat="45.63344" lon="2.92369">
        <ele>1062.6</ele>
        <time>2021-07-20T14:28:29Z</time>
      </trkpt>
      <trkpt lat="45.63339" lon="2.92375">
        <ele>1063.6</ele>
        <time>2021-07-20T14:28:33Z</time>
      </trkpt>
      <trkpt lat="45.63334" lon="2.9238">
        <ele>1064.5</ele>
        <time>2021-07-20T14:28:37Z</time>
      </trkpt>
      <trkpt lat="45.63328" lon="2.92385">
        <ele>1065.1</ele>
        <time>2021-07-20T14:28:41Z</time>
      </trkpt>
      <trkpt lat="45.63324" lon="2.92391">
        <ele>1065.7</ele>
        <time>2021-07-20T14:28:45Z</time>
      </trkpt>
      <trkpt lat="45.63318" lon="2.92398">
        <ele>1066.2</ele>
        <time>2021-07-20T14:28:49Z</time>
      </trkpt>
      <trkpt lat="45.63313" lon="2.92403">
        <ele>1066.8</ele>
        <time>2021-07-20T14:28:53Z</time>
      </trkpt>
      <trkpt lat="45.63307" lon="2.92409">
        <ele>1067.5</ele>
        <time>2021-07-20T14:28:57Z</time>
      </trkpt>
      <trkpt lat="45.63301" lon="2.92415">
        <ele>1068.1</ele>
        <time>2021-07-20T14:29:01Z</time>
      </trkpt>
      <trkpt lat="45.63294" lon="2.92421">
        <ele>1068.8</ele>
        <time>2021-07-20T14:29:05Z</time>
      </trkpt>
      <trkpt lat="45.63287" lon="2.92425">
        <ele>1069.5</ele>
        <time>2021-07-20T14:29:09Z</time>
      </trkpt>
      <trkpt lat="45.63281" lon="2.92432">
        <ele>1070.1</ele>
        <time>2021-07-20T14:29:13Z</time>
      </trkpt>
      <trkpt lat="45.63275" lon="2.92438">
        <ele>1070.7</ele>
        <time>2021-07-20T14:29:17Z</time>
      </trkpt>
      <trkpt lat="45.63269" lon="2.92445">
        <ele>1071.3</ele>
        <time>2021-07-20T14:29:21Z</time>
      </trkpt>
      <trkpt lat="45.63262" lon="2.92451">
        <ele>1071.9</ele>
        <time>2021-07-20T14:29:25Z</time>
      </trkpt>
      <trkpt lat="45.63256" lon="2.92456">
        <ele>1072.5</ele>
        <time>2021-07-20T14:29:29Z</time>
      </trkpt>
      <trkpt lat="45.63251" lon="2.92462">
        <ele>1072.9</ele>
        <time>2021-07-20T14:29:33Z</time>
      </trkpt>
      <trkpt lat="45.63245" lon="2.92467">
        <ele>1073.3</ele>
        <time>2021-07-20T14:29:37Z</time>
      </trkpt>
      <trkpt lat="45.63239" lon="2.92472">
        <ele>1073.7</ele>
        <time>2021-07-20T14:29:41Z</time>
      </trkpt>
      <trkpt lat="45.63232" lon="2.92474">
        <ele>1074.1</ele>
        <time>2021-07-20T14:29:45Z</time>
      </trkpt>
      <trkpt lat="45.63228" lon="2.92476">
        <ele>1074.3</ele>
        <time>2021-07-20T14:29:47Z</time>
      </trkpt>
      <trkpt lat="45.63223" lon="2.92477">
        <ele>1074.6</ele>
        <time>2021-07-20T14:29:49Z</time>
      </trkpt>
      <trkpt lat="45.63214" lon="2.92479">
        <ele>1075</ele>
        <time>2021-07-20T14:29:53Z</time>
      </trkpt>
      <trkpt lat="45.63208" lon="2.92481">
        <ele>1075.4</ele>
        <time>2021-07-20T14:29:57Z</time>
      </trkpt>
      <trkpt lat="45.632" lon="2.92483">
        <ele>1075.8</ele>
        <time>2021-07-20T14:30:01Z</time>
      </trkpt>
      <trkpt lat="45.63192" lon="2.92485">
        <ele>1076.2</ele>
        <time>2021-07-20T14:30:05Z</time>
      </trkpt>
      <trkpt lat="45.63186" lon="2.92486">
        <ele>1076.4</ele>
        <time>2021-07-20T14:30:07Z</time>
      </trkpt>
      <trkpt lat="45.63181" lon="2.92487">
        <ele>1076.7</ele>
        <time>2021-07-20T14:30:09Z</time>
      </trkpt>
      <trkpt lat="45.63176" lon="2.92488">
        <ele>1076.9</ele>
        <time>2021-07-20T14:30:11Z</time>
      </trkpt>
      <trkpt lat="45.6317" lon="2.92489">
        <ele>1077.2</ele>
        <time>2021-07-20T14:30:13Z</time>
      </trkpt>
      <trkpt lat="45.63165" lon="2.9249">
        <ele>1077.4</ele>
        <time>2021-07-20T14:30:15Z</time>
      </trkpt>
      <trkpt lat="45.63159" lon="2.92492">
        <ele>1077.5</ele>
        <time>2021-07-20T14:30:17Z</time>
      </trkpt>
      <trkpt lat="45.63154" lon="2.92493">
        <ele>1077.6</ele>
        <time>2021-07-20T14:30:19Z</time>
      </trkpt>
      <trkpt lat="45.63148" lon="2.92494">
        <ele>1077.7</ele>
        <time>2021-07-20T14:30:21Z</time>
      </trkpt>
      <trkpt lat="45.63142" lon="2.92496">
        <ele>1077.8</ele>
        <time>2021-07-20T14:30:23Z</time>
      </trkpt>
      <trkpt lat="45.63136" lon="2.92498">
        <ele>1077.8</ele>
        <time>2021-07-20T14:30:25Z</time>
      </trkpt>
      <trkpt lat="45.6313" lon="2.925">
        <ele>1077.9</ele>
        <time>2021-07-20T14:30:27Z</time>
      </trkpt>
      <trkpt lat="45.63123" lon="2.92501">
        <ele>1078</ele>
        <time>2021-07-20T14:30:29Z</time>
      </trkpt>
      <trkpt lat="45.63116" lon="2.92503">
        <ele>1078.1</ele>
        <time>2021-07-20T14:30:31Z</time>
      </trkpt>
      <trkpt lat="45.63109" lon="2.92504">
        <ele>1078.2</ele>
        <time>2021-07-20T14:30:33Z</time>
      </trkpt>
      <trkpt lat="45.63103" lon="2.92506">
        <ele>1078.2</ele>
        <time>2021-07-20T14:30:35Z</time>
      </trkpt>
      <trkpt lat="45.63096" lon="2.92508">
        <ele>1078.2</ele>
        <time>2021-07-20T14:30:37Z</time>
      </trkpt>
      <trkpt lat="45.63091" lon="2.92509">
        <ele>1078.3</ele>
        <time>2021-07-20T14:30:39Z</time>
      </trkpt>
      <trkpt lat="45.63084" lon="2.9251">
        <ele>1078.4</ele>
        <time>2021-07-20T14:30:41Z</time>
      </trkpt>
      <trkpt lat="45.63076" lon="2.92514">
        <ele>1078</ele>
        <time>2021-07-20T14:30:43Z</time>
      </trkpt>
      <trkpt lat="45.63068" lon="2.92515">
        <ele>1077.6</ele>
        <time>2021-07-20T14:30:45Z</time>
      </trkpt>
      <trkpt lat="45.63059" lon="2.92518">
        <ele>1077.2</ele>
        <time>2021-07-20T14:30:47Z</time>
      </trkpt>
      <trkpt lat="45.6305" lon="2.92521">
        <ele>1076.7</ele>
        <time>2021-07-20T14:30:49Z</time>
      </trkpt>
      <trkpt lat="45.6304" lon="2.92523">
        <ele>1076.3</ele>
        <time>2021-07-20T14:30:51Z</time>
      </trkpt>
      <trkpt lat="45.63031" lon="2.92526">
        <ele>1076</ele>
        <time>2021-07-20T14:30:53Z</time>
      </trkpt>
      <trkpt lat="45.63022" lon="2.92528">
        <ele>1075.6</ele>
        <time>2021-07-20T14:30:55Z</time>
      </trkpt>
      <trkpt lat="45.63014" lon="2.9253">
        <ele>1075.3</ele>
        <time>2021-07-20T14:30:57Z</time>
      </trkpt>
      <trkpt lat="45.63006" lon="2.92532">
        <ele>1075</ele>
        <time>2021-07-20T14:30:59Z</time>
      </trkpt>
      <trkpt lat="45.62997" lon="2.92534">
        <ele>1074.8</ele>
        <time>2021-07-20T14:31:01Z</time>
      </trkpt>
      <trkpt lat="45.62989" lon="2.92536">
        <ele>1074.9</ele>
        <time>2021-07-20T14:31:03Z</time>
      </trkpt>
      <trkpt lat="45.6298" lon="2.92538">
        <ele>1075</ele>
        <time>2021-07-20T14:31:05Z</time>
      </trkpt>
      <trkpt lat="45.62973" lon="2.92539">
        <ele>1075.1</ele>
        <time>2021-07-20T14:31:07Z</time>
      </trkpt>
      <trkpt lat="45.62965" lon="2.92542">
        <ele>1075.1</ele>
        <time>2021-07-20T14:31:09Z</time>
      </trkpt>
      <trkpt lat="45.62958" lon="2.92544">
        <ele>1075.2</ele>
        <time>2021-07-20T14:31:11Z</time>
      </trkpt>
      <trkpt lat="45.62949" lon="2.92546">
        <ele>1075.3</ele>
        <time>2021-07-20T14:31:13Z</time>
      </trkpt>
      <trkpt lat="45.62939" lon="2.92549">
        <ele>1075.4</ele>
        <time>2021-07-20T14:31:15Z</time>
      </trkpt>
      <trkpt lat="45.6293" lon="2.92552">
        <ele>1075.5</ele>
        <time>2021-07-20T14:31:17Z</time>
      </trkpt>
      <trkpt lat="45.62921" lon="2.92554">
        <ele>1075.6</ele>
        <time>2021-07-20T14:31:19Z</time>
      </trkpt>
      <trkpt lat="45.62911" lon="2.92557">
        <ele>1075.7</ele>
        <time>2021-07-20T14:31:21Z</time>
      </trkpt>
      <trkpt lat="45.62902" lon="2.92559">
        <ele>1075.9</ele>
        <time>2021-07-20T14:31:23Z</time>
      </trkpt>
      <trkpt lat="45.62893" lon="2.92562">
        <ele>1076</ele>
        <time>2021-07-20T14:31:25Z</time>
      </trkpt>
      <trkpt lat="45.62883" lon="2.92565">
        <ele>1076</ele>
        <time>2021-07-20T14:31:27Z</time>
      </trkpt>
      <trkpt lat="45.62874" lon="2.92568">
        <ele>1076.1</ele>
        <time>2021-07-20T14:31:29Z</time>
      </trkpt>
      <trkpt lat="45.62864" lon="2.92569">
        <ele>1076.2</ele>
        <time>2021-07-20T14:31:31Z</time>
      </trkpt>
      <trkpt lat="45.62856" lon="2.92572">
        <ele>1076.2</ele>
        <time>2021-07-20T14:31:33Z</time>
      </trkpt>
      <trkpt lat="45.62847" lon="2.92575">
        <ele>1076.2</ele>
        <time>2021-07-20T14:31:35Z</time>
      </trkpt>
      <trkpt lat="45.62838" lon="2.92577">
        <ele>1076.2</ele>
        <time>2021-07-20T14:31:37Z</time>
      </trkpt>
      <trkpt lat="45.62829" lon="2.92579">
        <ele>1076.1</ele>
        <time>2021-07-20T14:31:39Z</time>
      </trkpt>
      <trkpt lat="45.62821" lon="2.92581">
        <ele>1075.8</ele>
        <time>2021-07-20T14:31:41Z</time>
      </trkpt>
      <trkpt lat="45.62812" lon="2.92583">
        <ele>1075.5</ele>
        <time>2021-07-20T14:31:43Z</time>
      </trkpt>
      <trkpt lat="45.62805" lon="2.92585">
        <ele>1075.2</ele>
        <time>2021-07-20T14:31:45Z</time>
      </trkpt>
      <trkpt lat="45.62797" lon="2.92587">
        <ele>1074.8</ele>
        <time>2021-07-20T14:31:47Z</time>
      </trkpt>
      <trkpt lat="45.62788" lon="2.92589">
        <ele>1074.4</ele>
        <time>2021-07-20T14:31:49Z</time>
      </trkpt>
      <trkpt lat="45.62778" lon="2.9259">
        <ele>1074</ele>
        <time>2021-07-20T14:31:51Z</time>
      </trkpt>
      <trkpt lat="45.62768" lon="2.92592">
        <ele>1073.5</ele>
        <time>2021-07-20T14:31:53Z</time>
      </trkpt>
      <trkpt lat="45.62757" lon="2.92595">
        <ele>1072.8</ele>
        <time>2021-07-20T14:31:55Z</time>
      </trkpt>
      <trkpt lat="45.62746" lon="2.92599">
        <ele>1071.8</ele>
        <time>2021-07-20T14:31:57Z</time>
      </trkpt>
      <trkpt lat="45.62735" lon="2.92603">
        <ele>1070.4</ele>
        <time>2021-07-20T14:31:59Z</time>
      </trkpt>
      <trkpt lat="45.62724" lon="2.92607">
        <ele>1068.9</ele>
        <time>2021-07-20T14:32:01Z</time>
      </trkpt>
      <trkpt lat="45.62713" lon="2.92612">
        <ele>1067.4</ele>
        <time>2021-07-20T14:32:03Z</time>
      </trkpt>
      <trkpt lat="45.62701" lon="2.92617">
        <ele>1065.8</ele>
        <time>2021-07-20T14:32:05Z</time>
      </trkpt>
      <trkpt lat="45.62688" lon="2.92624">
        <ele>1063.9</ele>
        <time>2021-07-20T14:32:07Z</time>
      </trkpt>
      <trkpt lat="45.62674" lon="2.92631">
        <ele>1061.8</ele>
        <time>2021-07-20T14:32:09Z</time>
      </trkpt>
      <trkpt lat="45.62659" lon="2.92638">
        <ele>1059.8</ele>
        <time>2021-07-20T14:32:11Z</time>
      </trkpt>
      <trkpt lat="45.62642" lon="2.92645">
        <ele>1058</ele>
        <time>2021-07-20T14:32:13Z</time>
      </trkpt>
      <trkpt lat="45.62625" lon="2.92654">
        <ele>1056.1</ele>
        <time>2021-07-20T14:32:15Z</time>
      </trkpt>
      <trkpt lat="45.62608" lon="2.92663">
        <ele>1054.4</ele>
        <time>2021-07-20T14:32:17Z</time>
      </trkpt>
      <trkpt lat="45.62593" lon="2.92678">
        <ele>1053.3</ele>
        <time>2021-07-20T14:32:19Z</time>
      </trkpt>
      <trkpt lat="45.62581" lon="2.92695">
        <ele>1052.6</ele>
        <time>2021-07-20T14:32:21Z</time>
      </trkpt>
      <trkpt lat="45.62569" lon="2.9271">
        <ele>1052.2</ele>
        <time>2021-07-20T14:32:23Z</time>
      </trkpt>
      <trkpt lat="45.62556" lon="2.92722">
        <ele>1052</ele>
        <time>2021-07-20T14:32:25Z</time>
      </trkpt>
      <trkpt lat="45.62543" lon="2.92729">
        <ele>1052</ele>
        <time>2021-07-20T14:32:27Z</time>
      </trkpt>
      <trkpt lat="45.6253" lon="2.92736">
        <ele>1052.2</ele>
        <time>2021-07-20T14:32:29Z</time>
      </trkpt>
      <trkpt lat="45.62518" lon="2.92742">
        <ele>1052.4</ele>
        <time>2021-07-20T14:32:31Z</time>
      </trkpt>
      <trkpt lat="45.62507" lon="2.92747">
        <ele>1052.7</ele>
        <time>2021-07-20T14:32:33Z</time>
      </trkpt>
      <trkpt lat="45.62497" lon="2.92753">
        <ele>1052.9</ele>
        <time>2021-07-20T14:32:35Z</time>
      </trkpt>
      <trkpt lat="45.62487" lon="2.92759">
        <ele>1052.7</ele>
        <time>2021-07-20T14:32:37Z</time>
      </trkpt>
      <trkpt lat="45.62479" lon="2.92768">
        <ele>1052.7</ele>
        <time>2021-07-20T14:32:39Z</time>
      </trkpt>
      <trkpt lat="45.62472" lon="2.92778">
        <ele>1052.8</ele>
        <time>2021-07-20T14:32:41Z</time>
      </trkpt>
      <trkpt lat="45.62464" lon="2.92786">
        <ele>1052.8</ele>
        <time>2021-07-20T14:32:43Z</time>
      </trkpt>
      <trkpt lat="45.62455" lon="2.92794">
        <ele>1052.7</ele>
        <time>2021-07-20T14:32:45Z</time>
      </trkpt>
      <trkpt lat="45.62446" lon="2.92802">
        <ele>1052.7</ele>
        <time>2021-07-20T14:32:47Z</time>
      </trkpt>
      <trkpt lat="45.62437" lon="2.92808">
        <ele>1052.5</ele>
        <time>2021-07-20T14:32:49Z</time>
      </trkpt>
      <trkpt lat="45.62427" lon="2.92815">
        <ele>1052.4</ele>
        <time>2021-07-20T14:32:51Z</time>
      </trkpt>
      <trkpt lat="45.62418" lon="2.92822">
        <ele>1052.4</ele>
        <time>2021-07-20T14:32:53Z</time>
      </trkpt>
      <trkpt lat="45.62409" lon="2.9283">
        <ele>1052</ele>
        <time>2021-07-20T14:32:55Z</time>
      </trkpt>
      <trkpt lat="45.62401" lon="2.92839">
        <ele>1051.3</ele>
        <time>2021-07-20T14:32:57Z</time>
      </trkpt>
      <trkpt lat="45.62392" lon="2.9285">
        <ele>1050.6</ele>
        <time>2021-07-20T14:32:59Z</time>
      </trkpt>
      <trkpt lat="45.62384" lon="2.92862">
        <ele>1050.1</ele>
        <time>2021-07-20T14:33:01Z</time>
      </trkpt>
      <trkpt lat="45.62375" lon="2.92873">
        <ele>1049.6</ele>
        <time>2021-07-20T14:33:03Z</time>
      </trkpt>
      <trkpt lat="45.62365" lon="2.92884">
        <ele>1049.3</ele>
        <time>2021-07-20T14:33:05Z</time>
      </trkpt>
      <trkpt lat="45.62361" lon="2.92898">
        <ele>1049.6</ele>
        <time>2021-07-20T14:33:07Z</time>
      </trkpt>
      <trkpt lat="45.62361" lon="2.9291">
        <ele>1050</ele>
        <time>2021-07-20T14:33:09Z</time>
      </trkpt>
      <trkpt lat="45.62362" lon="2.92919">
        <ele>1050.3</ele>
        <time>2021-07-20T14:33:13Z</time>
      </trkpt>
      <trkpt lat="45.6236" lon="2.92931">
        <ele>1049.8</ele>
        <time>2021-07-20T14:33:17Z</time>
      </trkpt>
      <trkpt lat="45.62357" lon="2.9294">
        <ele>1049.4</ele>
        <time>2021-07-20T14:33:19Z</time>
      </trkpt>
      <trkpt lat="45.62353" lon="2.92948">
        <ele>1049</ele>
        <time>2021-07-20T14:33:21Z</time>
      </trkpt>
      <trkpt lat="45.62351" lon="2.92955">
        <ele>1048.7</ele>
        <time>2021-07-20T14:33:23Z</time>
      </trkpt>
      <trkpt lat="45.62348" lon="2.92961">
        <ele>1048.5</ele>
        <time>2021-07-20T14:33:25Z</time>
      </trkpt>
      <trkpt lat="45.62344" lon="2.92964">
        <ele>1048.2</ele>
        <time>2021-07-20T14:33:29Z</time>
      </trkpt>
      <trkpt lat="45.62348" lon="2.9297">
        <ele>1048.2</ele>
        <time>2021-07-20T14:34:43Z</time>
      </trkpt>
      <trkpt lat="45.62345" lon="2.92977">
        <ele>1047.9</ele>
        <time>2021-07-20T14:34:49Z</time>
      </trkpt>
      <trkpt lat="45.62342" lon="2.92985">
        <ele>1047.6</ele>
        <time>2021-07-20T14:34:55Z</time>
      </trkpt>
      <trkpt lat="45.6234" lon="2.92993">
        <ele>1047.3</ele>
        <time>2021-07-20T14:35:01Z</time>
      </trkpt>
      <trkpt lat="45.62334" lon="2.92996">
        <ele>1047.1</ele>
        <time>2021-07-20T14:35:09Z</time>
      </trkpt>
      <trkpt lat="45.62328" lon="2.92996">
        <ele>1046.5</ele>
        <time>2021-07-20T14:35:15Z</time>
      </trkpt>
      <trkpt lat="45.62329" lon="2.93003">
        <ele>1046.5</ele>
        <time>2021-07-20T14:35:21Z</time>
      </trkpt>
      <trkpt lat="45.62334" lon="2.93005">
        <ele>1046.9</ele>
        <time>2021-07-20T14:41:09Z</time>
      </trkpt>
      <trkpt lat="45.62333" lon="2.93012">
        <ele>1046.6</ele>
        <time>2021-07-20T14:41:13Z</time>
      </trkpt>
      <trkpt lat="45.62331" lon="2.93018">
        <ele>1046.3</ele>
        <time>2021-07-20T14:41:15Z</time>
      </trkpt>
      <trkpt lat="45.62328" lon="2.93027">
        <ele>1045.9</ele>
        <time>2021-07-20T14:41:19Z</time>
      </trkpt>
      <trkpt lat="45.62325" lon="2.93031">
        <ele>1045.5</ele>
        <time>2021-07-20T14:41:21Z</time>
      </trkpt>
      <trkpt lat="45.6232" lon="2.93032">
        <ele>1045</ele>
        <time>2021-07-20T14:41:23Z</time>
      </trkpt>
      <trkpt lat="45.62315" lon="2.93032">
        <ele>1044.6</ele>
        <time>2021-07-20T14:41:25Z</time>
      </trkpt>
      <trkpt lat="45.62308" lon="2.9303">
        <ele>1043.9</ele>
        <time>2021-07-20T14:41:27Z</time>
      </trkpt>
      <trkpt lat="45.62299" lon="2.93026">
        <ele>1043</ele>
        <time>2021-07-20T14:41:29Z</time>
      </trkpt>
      <trkpt lat="45.6229" lon="2.93021">
        <ele>1042</ele>
        <time>2021-07-20T14:41:31Z</time>
      </trkpt>
      <trkpt lat="45.6228" lon="2.93017">
        <ele>1041</ele>
        <time>2021-07-20T14:41:33Z</time>
      </trkpt>
      <trkpt lat="45.62273" lon="2.93015">
        <ele>1040.2</ele>
        <time>2021-07-20T14:41:35Z</time>
      </trkpt>
      <trkpt lat="45.62268" lon="2.93014">
        <ele>1039.6</ele>
        <time>2021-07-20T14:41:37Z</time>
      </trkpt>
      <trkpt lat="45.62263" lon="2.9301">
        <ele>1038.9</ele>
        <time>2021-07-20T14:41:39Z</time>
      </trkpt>
      <trkpt lat="45.62257" lon="2.93006">
        <ele>1038.1</ele>
        <time>2021-07-20T14:41:41Z</time>
      </trkpt>
      <trkpt lat="45.62251" lon="2.93001">
        <ele>1037.2</ele>
        <time>2021-07-20T14:41:43Z</time>
      </trkpt>
      <trkpt lat="45.62244" lon="2.92994">
        <ele>1036</ele>
        <time>2021-07-20T14:41:45Z</time>
      </trkpt>
      <trkpt lat="45.62236" lon="2.92987">
        <ele>1034.4</ele>
        <time>2021-07-20T14:41:47Z</time>
      </trkpt>
      <trkpt lat="45.62228" lon="2.9298">
        <ele>1033.1</ele>
        <time>2021-07-20T14:41:49Z</time>
      </trkpt>
      <trkpt lat="45.62221" lon="2.92972">
        <ele>1031.8</ele>
        <time>2021-07-20T14:41:51Z</time>
      </trkpt>
      <trkpt lat="45.62216" lon="2.92965">
        <ele>1030.9</ele>
        <time>2021-07-20T14:41:53Z</time>
      </trkpt>
      <trkpt lat="45.62212" lon="2.92961">
        <ele>1030.2</ele>
        <time>2021-07-20T14:41:57Z</time>
      </trkpt>
      <trkpt lat="45.62204" lon="2.92953">
        <ele>1028.6</ele>
        <time>2021-07-20T14:42:07Z</time>
      </trkpt>
      <trkpt lat="45.62196" lon="2.92943">
        <ele>1027.2</ele>
        <time>2021-07-20T14:42:09Z</time>
      </trkpt>
      <trkpt lat="45.62187" lon="2.92931">
        <ele>1025.7</ele>
        <time>2021-07-20T14:42:11Z</time>
      </trkpt>
      <trkpt lat="45.62181" lon="2.92912">
        <ele>1024.5</ele>
        <time>2021-07-20T14:42:13Z</time>
      </trkpt>
      <trkpt lat="45.62179" lon="2.92891">
        <ele>1023.8</ele>
        <time>2021-07-20T14:42:15Z</time>
      </trkpt>
      <trkpt lat="45.62176" lon="2.92877">
        <ele>1023.1</ele>
        <time>2021-07-20T14:42:17Z</time>
      </trkpt>
      <trkpt lat="45.62175" lon="2.92869">
        <ele>1022.8</ele>
        <time>2021-07-20T14:42:19Z</time>
      </trkpt>
      <trkpt lat="45.62172" lon="2.92863">
        <ele>1022.3</ele>
        <time>2021-07-20T14:42:21Z</time>
      </trkpt>
      <trkpt lat="45.62166" lon="2.92861">
        <ele>1021.3</ele>
        <time>2021-07-20T14:42:23Z</time>
      </trkpt>
      <trkpt lat="45.62158" lon="2.92861">
        <ele>1021.3</ele>
        <time>2021-07-20T14:42:25Z</time>
      </trkpt>
      <trkpt lat="45.62149" lon="2.92863">
        <ele>1021.2</ele>
        <time>2021-07-20T14:42:27Z</time>
      </trkpt>
      <trkpt lat="45.62141" lon="2.92865">
        <ele>1021.1</ele>
        <time>2021-07-20T14:42:29Z</time>
      </trkpt>
      <trkpt lat="45.62132" lon="2.92867">
        <ele>1021.1</ele>
        <time>2021-07-20T14:42:31Z</time>
      </trkpt>
      <trkpt lat="45.62123" lon="2.92869">
        <ele>1021</ele>
        <time>2021-07-20T14:42:33Z</time>
      </trkpt>
      <trkpt lat="45.62114" lon="2.9287">
        <ele>1020.9</ele>
        <time>2021-07-20T14:42:35Z</time>
      </trkpt>
      <trkpt lat="45.62106" lon="2.92872">
        <ele>1020.8</ele>
        <time>2021-07-20T14:42:37Z</time>
      </trkpt>
      <trkpt lat="45.62098" lon="2.92874">
        <ele>1020.7</ele>
        <time>2021-07-20T14:42:39Z</time>
      </trkpt>
      <trkpt lat="45.62091" lon="2.92875">
        <ele>1020.6</ele>
        <time>2021-07-20T14:42:41Z</time>
      </trkpt>
      <trkpt lat="45.62087" lon="2.92874">
        <ele>1020.5</ele>
        <time>2021-07-20T14:42:43Z</time>
      </trkpt>
      <trkpt lat="45.62079" lon="2.92875">
        <ele>1020.8</ele>
        <time>2021-07-20T14:42:47Z</time>
      </trkpt>
      <trkpt lat="45.62071" lon="2.92877">
        <ele>1021.4</ele>
        <time>2021-07-20T14:42:51Z</time>
      </trkpt>
      <trkpt lat="45.62067" lon="2.92878">
        <ele>1021.8</ele>
        <time>2021-07-20T14:42:55Z</time>
      </trkpt>
      <trkpt lat="45.62062" lon="2.92878">
        <ele>1022.2</ele>
        <time>2021-07-20T14:43:21Z</time>
      </trkpt>
      <trkpt lat="45.62061" lon="2.92887">
        <ele>1022.1</ele>
        <time>2021-07-20T14:44:33Z</time>
      </trkpt>
      <trkpt lat="45.62062" lon="2.92897">
        <ele>1022</ele>
        <time>2021-07-20T14:44:37Z</time>
      </trkpt>
      <trkpt lat="45.62062" lon="2.92906">
        <ele>1021.9</ele>
        <time>2021-07-20T14:44:39Z</time>
      </trkpt>
      <trkpt lat="45.62063" lon="2.92916">
        <ele>1021.8</ele>
        <time>2021-07-20T14:44:41Z</time>
      </trkpt>
      <trkpt lat="45.62063" lon="2.92928">
        <ele>1021.3</ele>
        <time>2021-07-20T14:44:43Z</time>
      </trkpt>
      <trkpt lat="45.62063" lon="2.92941">
        <ele>1020.9</ele>
        <time>2021-07-20T14:44:45Z</time>
      </trkpt>
      <trkpt lat="45.62064" lon="2.92956">
        <ele>1020.3</ele>
        <time>2021-07-20T14:44:47Z</time>
      </trkpt>
      <trkpt lat="45.62065" lon="2.92971">
        <ele>1019.8</ele>
        <time>2021-07-20T14:44:49Z</time>
      </trkpt>
      <trkpt lat="45.62064" lon="2.92987">
        <ele>1019.2</ele>
        <time>2021-07-20T14:44:51Z</time>
      </trkpt>
      <trkpt lat="45.62064" lon="2.93006">
        <ele>1018.6</ele>
        <time>2021-07-20T14:44:53Z</time>
      </trkpt>
      <trkpt lat="45.62065" lon="2.93026">
        <ele>1017.8</ele>
        <time>2021-07-20T14:44:55Z</time>
      </trkpt>
      <trkpt lat="45.62066" lon="2.93046">
        <ele>1016.9</ele>
        <time>2021-07-20T14:44:57Z</time>
      </trkpt>
      <trkpt lat="45.62065" lon="2.93065">
        <ele>1016.2</ele>
        <time>2021-07-20T14:44:59Z</time>
      </trkpt>
      <trkpt lat="45.62062" lon="2.93083">
        <ele>1015.8</ele>
        <time>2021-07-20T14:45:01Z</time>
      </trkpt>
      <trkpt lat="45.62058" lon="2.93101">
        <ele>1015.8</ele>
        <time>2021-07-20T14:45:03Z</time>
      </trkpt>
      <trkpt lat="45.62055" lon="2.93117">
        <ele>1015.7</ele>
        <time>2021-07-20T14:45:05Z</time>
      </trkpt>
      <trkpt lat="45.6205" lon="2.93134">
        <ele>1015.7</ele>
        <time>2021-07-20T14:45:07Z</time>
      </trkpt>
      <trkpt lat="45.62048" lon="2.93152">
        <ele>1015.5</ele>
        <time>2021-07-20T14:45:09Z</time>
      </trkpt>
      <trkpt lat="45.62045" lon="2.9317">
        <ele>1015.2</ele>
        <time>2021-07-20T14:45:11Z</time>
      </trkpt>
      <trkpt lat="45.62042" lon="2.93189">
        <ele>1015.2</ele>
        <time>2021-07-20T14:45:13Z</time>
      </trkpt>
      <trkpt lat="45.62039" lon="2.93207">
        <ele>1015.2</ele>
        <time>2021-07-20T14:45:15Z</time>
      </trkpt>
      <trkpt lat="45.62036" lon="2.93223">
        <ele>1015.2</ele>
        <time>2021-07-20T14:45:17Z</time>
      </trkpt>
      <trkpt lat="45.62033" lon="2.9324">
        <ele>1015.1</ele>
        <time>2021-07-20T14:45:19Z</time>
      </trkpt>
      <trkpt lat="45.62032" lon="2.93258">
        <ele>1015.1</ele>
        <time>2021-07-20T14:45:21Z</time>
      </trkpt>
      <trkpt lat="45.62031" lon="2.93275">
        <ele>1015.1</ele>
        <time>2021-07-20T14:45:23Z</time>
      </trkpt>
      <trkpt lat="45.62032" lon="2.93292">
        <ele>1015</ele>
        <time>2021-07-20T14:45:25Z</time>
      </trkpt>
      <trkpt lat="45.62033" lon="2.93308">
        <ele>1014.9</ele>
        <time>2021-07-20T14:45:27Z</time>
      </trkpt>
      <trkpt lat="45.62032" lon="2.93323">
        <ele>1014.9</ele>
        <time>2021-07-20T14:45:29Z</time>
      </trkpt>
      <trkpt lat="45.62029" lon="2.93336">
        <ele>1015.3</ele>
        <time>2021-07-20T14:45:31Z</time>
      </trkpt>
      <trkpt lat="45.62027" lon="2.93346">
        <ele>1015.7</ele>
        <time>2021-07-20T14:45:33Z</time>
      </trkpt>
      <trkpt lat="45.62024" lon="2.93354">
        <ele>1016.2</ele>
        <time>2021-07-20T14:45:35Z</time>
      </trkpt>
      <trkpt lat="45.62019" lon="2.93363">
        <ele>1017</ele>
        <time>2021-07-20T14:45:39Z</time>
      </trkpt>
      <trkpt lat="45.62015" lon="2.93372">
        <ele>1017.7</ele>
        <time>2021-07-20T14:45:43Z</time>
      </trkpt>
      <trkpt lat="45.62011" lon="2.9338">
        <ele>1018.4</ele>
        <time>2021-07-20T14:45:47Z</time>
      </trkpt>
      <trkpt lat="45.62007" lon="2.93388">
        <ele>1019.2</ele>
        <time>2021-07-20T14:45:51Z</time>
      </trkpt>
      <trkpt lat="45.62003" lon="2.93395">
        <ele>1019.9</ele>
        <time>2021-07-20T14:45:55Z</time>
      </trkpt>
      <trkpt lat="45.61998" lon="2.93402">
        <ele>1020.7</ele>
        <time>2021-07-20T14:45:59Z</time>
      </trkpt>
      <trkpt lat="45.61993" lon="2.93408">
        <ele>1021.5</ele>
        <time>2021-07-20T14:46:03Z</time>
      </trkpt>
      <trkpt lat="45.61989" lon="2.93417">
        <ele>1022.3</ele>
        <time>2021-07-20T14:46:07Z</time>
      </trkpt>
      <trkpt lat="45.61984" lon="2.93423">
        <ele>1022.7</ele>
        <time>2021-07-20T14:46:11Z</time>
      </trkpt>
      <trkpt lat="45.6198" lon="2.93432">
        <ele>1023.2</ele>
        <time>2021-07-20T14:46:15Z</time>
      </trkpt>
      <trkpt lat="45.61975" lon="2.93439">
        <ele>1023.6</ele>
        <time>2021-07-20T14:46:19Z</time>
      </trkpt>
      <trkpt lat="45.61971" lon="2.93447">
        <ele>1024</ele>
        <time>2021-07-20T14:46:23Z</time>
      </trkpt>
      <trkpt lat="45.61967" lon="2.93455">
        <ele>1024.4</ele>
        <time>2021-07-20T14:46:27Z</time>
      </trkpt>
      <trkpt lat="45.61962" lon="2.93464">
        <ele>1025</ele>
        <time>2021-07-20T14:46:31Z</time>
      </trkpt>
      <trkpt lat="45.61959" lon="2.93472">
        <ele>1025.3</ele>
        <time>2021-07-20T14:46:35Z</time>
      </trkpt>
      <trkpt lat="45.61954" lon="2.9348">
        <ele>1025.8</ele>
        <time>2021-07-20T14:46:39Z</time>
      </trkpt>
      <trkpt lat="45.6195" lon="2.93487">
        <ele>1026.3</ele>
        <time>2021-07-20T14:46:43Z</time>
      </trkpt>
      <trkpt lat="45.61946" lon="2.93494">
        <ele>1026.8</ele>
        <time>2021-07-20T14:46:47Z</time>
      </trkpt>
      <trkpt lat="45.61942" lon="2.93502">
        <ele>1027.5</ele>
        <time>2021-07-20T14:46:51Z</time>
      </trkpt>
      <trkpt lat="45.61936" lon="2.9351">
        <ele>1028.8</ele>
        <time>2021-07-20T14:46:55Z</time>
      </trkpt>
      <trkpt lat="45.61932" lon="2.93517">
        <ele>1029.9</ele>
        <time>2021-07-20T14:46:59Z</time>
      </trkpt>
      <trkpt lat="45.61928" lon="2.93524">
        <ele>1030.9</ele>
        <time>2021-07-20T14:47:03Z</time>
      </trkpt>
      <trkpt lat="45.61925" lon="2.93531">
        <ele>1031.9</ele>
        <time>2021-07-20T14:47:07Z</time>
      </trkpt>
      <trkpt lat="45.61921" lon="2.93538">
        <ele>1032.9</ele>
        <time>2021-07-20T14:47:11Z</time>
      </trkpt>
      <trkpt lat="45.61919" lon="2.93544">
        <ele>1033.8</ele>
        <time>2021-07-20T14:47:15Z</time>
      </trkpt>
      <trkpt lat="45.61916" lon="2.93551">
        <ele>1034.7</ele>
        <time>2021-07-20T14:47:19Z</time>
      </trkpt>
      <trkpt lat="45.61915" lon="2.93558">
        <ele>1035.5</ele>
        <time>2021-07-20T14:47:23Z</time>
      </trkpt>
      <trkpt lat="45.61913" lon="2.93567">
        <ele>1036.4</ele>
        <time>2021-07-20T14:47:27Z</time>
      </trkpt>
      <trkpt lat="45.6191" lon="2.93577">
        <ele>1037.5</ele>
        <time>2021-07-20T14:47:31Z</time>
      </trkpt>
      <trkpt lat="45.61908" lon="2.93585">
        <ele>1038.3</ele>
        <time>2021-07-20T14:47:35Z</time>
      </trkpt>
      <trkpt lat="45.61906" lon="2.93593">
        <ele>1038.5</ele>
        <time>2021-07-20T14:47:39Z</time>
      </trkpt>
      <trkpt lat="45.61903" lon="2.93601">
        <ele>1038.9</ele>
        <time>2021-07-20T14:47:43Z</time>
      </trkpt>
      <trkpt lat="45.619" lon="2.93609">
        <ele>1039.3</ele>
        <time>2021-07-20T14:47:47Z</time>
      </trkpt>
      <trkpt lat="45.61899" lon="2.93618">
        <ele>1039.5</ele>
        <time>2021-07-20T14:47:51Z</time>
      </trkpt>
      <trkpt lat="45.61897" lon="2.93626">
        <ele>1039.8</ele>
        <time>2021-07-20T14:47:55Z</time>
      </trkpt>
      <trkpt lat="45.61895" lon="2.93635">
        <ele>1040.1</ele>
        <time>2021-07-20T14:47:59Z</time>
      </trkpt>
      <trkpt lat="45.61894" lon="2.93643">
        <ele>1040.4</ele>
        <time>2021-07-20T14:48:03Z</time>
      </trkpt>
      <trkpt lat="45.61892" lon="2.93652">
        <ele>1040.7</ele>
        <time>2021-07-20T14:48:07Z</time>
      </trkpt>
      <trkpt lat="45.6189" lon="2.93659">
        <ele>1041.1</ele>
        <time>2021-07-20T14:48:11Z</time>
      </trkpt>
      <trkpt lat="45.61888" lon="2.93667">
        <ele>1041.4</ele>
        <time>2021-07-20T14:48:15Z</time>
      </trkpt>
      <trkpt lat="45.61887" lon="2.93676">
        <ele>1042.1</ele>
        <time>2021-07-20T14:48:19Z</time>
      </trkpt>
      <trkpt lat="45.61885" lon="2.93683">
        <ele>1042.7</ele>
        <time>2021-07-20T14:48:23Z</time>
      </trkpt>
      <trkpt lat="45.61883" lon="2.93691">
        <ele>1043.3</ele>
        <time>2021-07-20T14:48:27Z</time>
      </trkpt>
      <trkpt lat="45.61881" lon="2.93699">
        <ele>1043.9</ele>
        <time>2021-07-20T14:48:31Z</time>
      </trkpt>
      <trkpt lat="45.61881" lon="2.93707">
        <ele>1044.3</ele>
        <time>2021-07-20T14:48:35Z</time>
      </trkpt>
      <trkpt lat="45.6188" lon="2.93716">
        <ele>1044.8</ele>
        <time>2021-07-20T14:48:39Z</time>
      </trkpt>
      <trkpt lat="45.61878" lon="2.93723">
        <ele>1045.5</ele>
        <time>2021-07-20T14:48:43Z</time>
      </trkpt>
      <trkpt lat="45.61877" lon="2.93731">
        <ele>1045.9</ele>
        <time>2021-07-20T14:48:47Z</time>
      </trkpt>
      <trkpt lat="45.61877" lon="2.93739">
        <ele>1046.3</ele>
        <time>2021-07-20T14:48:51Z</time>
      </trkpt>
      <trkpt lat="45.61876" lon="2.93747">
        <ele>1046.8</ele>
        <time>2021-07-20T14:48:55Z</time>
      </trkpt>
      <trkpt lat="45.61875" lon="2.93755">
        <ele>1047.3</ele>
        <time>2021-07-20T14:48:59Z</time>
      </trkpt>
      <trkpt lat="45.61873" lon="2.93763">
        <ele>1047.8</ele>
        <time>2021-07-20T14:49:03Z</time>
      </trkpt>
      <trkpt lat="45.61871" lon="2.93771">
        <ele>1048.4</ele>
        <time>2021-07-20T14:49:07Z</time>
      </trkpt>
      <trkpt lat="45.6187" lon="2.9378">
        <ele>1048.9</ele>
        <time>2021-07-20T14:49:11Z</time>
      </trkpt>
      <trkpt lat="45.61869" lon="2.9379">
        <ele>1049.4</ele>
        <time>2021-07-20T14:49:15Z</time>
      </trkpt>
      <trkpt lat="45.61868" lon="2.93798">
        <ele>1049.9</ele>
        <time>2021-07-20T14:49:19Z</time>
      </trkpt>
      <trkpt lat="45.61867" lon="2.93806">
        <ele>1050.3</ele>
        <time>2021-07-20T14:49:23Z</time>
      </trkpt>
      <trkpt lat="45.61866" lon="2.93815">
        <ele>1050.7</ele>
        <time>2021-07-20T14:49:27Z</time>
      </trkpt>
      <trkpt lat="45.61865" lon="2.93823">
        <ele>1051.1</ele>
        <time>2021-07-20T14:49:31Z</time>
      </trkpt>
      <trkpt lat="45.61864" lon="2.93833">
        <ele>1051.5</ele>
        <time>2021-07-20T14:49:35Z</time>
      </trkpt>
      <trkpt lat="45.61864" lon="2.93843">
        <ele>1051.6</ele>
        <time>2021-07-20T14:49:39Z</time>
      </trkpt>
      <trkpt lat="45.61864" lon="2.93854">
        <ele>1051.8</ele>
        <time>2021-07-20T14:49:43Z</time>
      </trkpt>
      <trkpt lat="45.61863" lon="2.93867">
        <ele>1052</ele>
        <time>2021-07-20T14:49:47Z</time>
      </trkpt>
      <trkpt lat="45.61863" lon="2.93873">
        <ele>1052.1</ele>
        <time>2021-07-20T14:49:49Z</time>
      </trkpt>
      <trkpt lat="45.61863" lon="2.9388">
        <ele>1052.2</ele>
        <time>2021-07-20T14:49:51Z</time>
      </trkpt>
      <trkpt lat="45.61862" lon="2.93887">
        <ele>1052.3</ele>
        <time>2021-07-20T14:49:53Z</time>
      </trkpt>
      <trkpt lat="45.61862" lon="2.93894">
        <ele>1052.4</ele>
        <time>2021-07-20T14:49:55Z</time>
      </trkpt>
      <trkpt lat="45.61862" lon="2.93906">
        <ele>1052.5</ele>
        <time>2021-07-20T14:49:59Z</time>
      </trkpt>
      <trkpt lat="45.61861" lon="2.93913">
        <ele>1052.6</ele>
        <time>2021-07-20T14:50:01Z</time>
      </trkpt>
      <trkpt lat="45.61862" lon="2.9392">
        <ele>1052.7</ele>
        <time>2021-07-20T14:50:03Z</time>
      </trkpt>
      <trkpt lat="45.61862" lon="2.93926">
        <ele>1052.8</ele>
        <time>2021-07-20T14:50:05Z</time>
      </trkpt>
      <trkpt lat="45.61861" lon="2.93939">
        <ele>1053.2</ele>
        <time>2021-07-20T14:50:09Z</time>
      </trkpt>
      <trkpt lat="45.6186" lon="2.93951">
        <ele>1053.6</ele>
        <time>2021-07-20T14:50:13Z</time>
      </trkpt>
      <trkpt lat="45.61858" lon="2.93962">
        <ele>1053.9</ele>
        <time>2021-07-20T14:50:17Z</time>
      </trkpt>
      <trkpt lat="45.61856" lon="2.93973">
        <ele>1054.3</ele>
        <time>2021-07-20T14:50:21Z</time>
      </trkpt>
      <trkpt lat="45.61852" lon="2.93975">
        <ele>1054.6</ele>
        <time>2021-07-20T14:51:39Z</time>
      </trkpt>
      <trkpt lat="45.61847" lon="2.93972">
        <ele>1054.8</ele>
        <time>2021-07-20T14:53:21Z</time>
      </trkpt>
      <trkpt lat="45.6184" lon="2.93972">
        <ele>1055.2</ele>
        <time>2021-07-20T14:53:25Z</time>
      </trkpt>
      <trkpt lat="45.61832" lon="2.93974">
        <ele>1055.8</ele>
        <time>2021-07-20T14:53:29Z</time>
      </trkpt>
      <trkpt lat="45.61824" lon="2.93974">
        <ele>1056.3</ele>
        <time>2021-07-20T14:53:33Z</time>
      </trkpt>
      <trkpt lat="45.61818" lon="2.93975">
        <ele>1056.6</ele>
        <time>2021-07-20T14:53:35Z</time>
      </trkpt>
      <trkpt lat="45.61813" lon="2.93976">
        <ele>1057</ele>
        <time>2021-07-20T14:53:37Z</time>
      </trkpt>
      <trkpt lat="45.61807" lon="2.93978">
        <ele>1057.4</ele>
        <time>2021-07-20T14:53:39Z</time>
      </trkpt>
      <trkpt lat="45.61801" lon="2.93979">
        <ele>1057.8</ele>
        <time>2021-07-20T14:53:41Z</time>
      </trkpt>
      <trkpt lat="45.61796" lon="2.9398">
        <ele>1058.1</ele>
        <time>2021-07-20T14:53:43Z</time>
      </trkpt>
      <trkpt lat="45.61791" lon="2.93981">
        <ele>1058.4</ele>
        <time>2021-07-20T14:53:45Z</time>
      </trkpt>
      <trkpt lat="45.61786" lon="2.93981">
        <ele>1058.7</ele>
        <time>2021-07-20T14:53:47Z</time>
      </trkpt>
      <trkpt lat="45.61781" lon="2.93982">
        <ele>1059</ele>
        <time>2021-07-20T14:53:49Z</time>
      </trkpt>
      <trkpt lat="45.61772" lon="2.93984">
        <ele>1059.6</ele>
        <time>2021-07-20T14:53:53Z</time>
      </trkpt>
      <trkpt lat="45.61767" lon="2.93984">
        <ele>1059.9</ele>
        <time>2021-07-20T14:53:55Z</time>
      </trkpt>
      <trkpt lat="45.61763" lon="2.93985">
        <ele>1060.2</ele>
        <time>2021-07-20T14:53:57Z</time>
      </trkpt>
      <trkpt lat="45.61758" lon="2.93985">
        <ele>1060.5</ele>
        <time>2021-07-20T14:53:59Z</time>
      </trkpt>
      <trkpt lat="45.61754" lon="2.93986">
        <ele>1060.8</ele>
        <time>2021-07-20T14:54:01Z</time>
      </trkpt>
      <trkpt lat="45.61749" lon="2.93987">
        <ele>1061</ele>
        <time>2021-07-20T14:54:03Z</time>
      </trkpt>
      <trkpt lat="45.61741" lon="2.93988">
        <ele>1061.1</ele>
        <time>2021-07-20T14:54:07Z</time>
      </trkpt>
      <trkpt lat="45.61736" lon="2.93989">
        <ele>1061.1</ele>
        <time>2021-07-20T14:54:09Z</time>
      </trkpt>
      <trkpt lat="45.61727" lon="2.9399">
        <ele>1061.2</ele>
        <time>2021-07-20T14:54:13Z</time>
      </trkpt>
      <trkpt lat="45.61718" lon="2.93991">
        <ele>1061.2</ele>
        <time>2021-07-20T14:54:17Z</time>
      </trkpt>
      <trkpt lat="45.61713" lon="2.93992">
        <ele>1061.2</ele>
        <time>2021-07-20T14:54:19Z</time>
      </trkpt>
      <trkpt lat="45.61708" lon="2.93993">
        <ele>1061.2</ele>
        <time>2021-07-20T14:54:21Z</time>
      </trkpt>
      <trkpt lat="45.61704" lon="2.93994">
        <ele>1061.2</ele>
        <time>2021-07-20T14:54:23Z</time>
      </trkpt>
      <trkpt lat="45.61699" lon="2.93995">
        <ele>1061.2</ele>
        <time>2021-07-20T14:54:25Z</time>
      </trkpt>
      <trkpt lat="45.61694" lon="2.93996">
        <ele>1061.2</ele>
        <time>2021-07-20T14:54:27Z</time>
      </trkpt>
      <trkpt lat="45.61689" lon="2.93997">
        <ele>1061.1</ele>
        <time>2021-07-20T14:54:29Z</time>
      </trkpt>
      <trkpt lat="45.61684" lon="2.93998">
        <ele>1061.1</ele>
        <time>2021-07-20T14:54:31Z</time>
      </trkpt>
      <trkpt lat="45.6168" lon="2.93998">
        <ele>1061.1</ele>
        <time>2021-07-20T14:54:33Z</time>
      </trkpt>
      <trkpt lat="45.61675" lon="2.93999">
        <ele>1061.1</ele>
        <time>2021-07-20T14:54:35Z</time>
      </trkpt>
      <trkpt lat="45.6167" lon="2.94">
        <ele>1061</ele>
        <time>2021-07-20T14:54:37Z</time>
      </trkpt>
      <trkpt lat="45.61665" lon="2.94">
        <ele>1061.2</ele>
        <time>2021-07-20T14:54:39Z</time>
      </trkpt>
      <trkpt lat="45.6166" lon="2.94001">
        <ele>1061.7</ele>
        <time>2021-07-20T14:54:41Z</time>
      </trkpt>
      <trkpt lat="45.61655" lon="2.94002">
        <ele>1062.1</ele>
        <time>2021-07-20T14:54:43Z</time>
      </trkpt>
      <trkpt lat="45.6165" lon="2.94003">
        <ele>1062.6</ele>
        <time>2021-07-20T14:54:45Z</time>
      </trkpt>
      <trkpt lat="45.61645" lon="2.94004">
        <ele>1063</ele>
        <time>2021-07-20T14:54:47Z</time>
      </trkpt>
      <trkpt lat="45.61637" lon="2.94004">
        <ele>1063.8</ele>
        <time>2021-07-20T14:54:51Z</time>
      </trkpt>
      <trkpt lat="45.61628" lon="2.94005">
        <ele>1064.6</ele>
        <time>2021-07-20T14:54:55Z</time>
      </trkpt>
      <trkpt lat="45.61619" lon="2.94006">
        <ele>1065.4</ele>
        <time>2021-07-20T14:54:59Z</time>
      </trkpt>
      <trkpt lat="45.61611" lon="2.94006">
        <ele>1066.1</ele>
        <time>2021-07-20T14:55:03Z</time>
      </trkpt>
      <trkpt lat="45.61608" lon="2.93998">
        <ele>1066.8</ele>
        <time>2021-07-20T14:55:07Z</time>
      </trkpt>
      <trkpt lat="45.61607" lon="2.93987">
        <ele>1067.6</ele>
        <time>2021-07-20T14:55:11Z</time>
      </trkpt>
      <trkpt lat="45.61606" lon="2.93976">
        <ele>1068.4</ele>
        <time>2021-07-20T14:55:15Z</time>
      </trkpt>
      <trkpt lat="45.61605" lon="2.93965">
        <ele>1069.1</ele>
        <time>2021-07-20T14:55:19Z</time>
      </trkpt>
      <trkpt lat="45.61604" lon="2.93954">
        <ele>1069.9</ele>
        <time>2021-07-20T14:55:23Z</time>
      </trkpt>
      <trkpt lat="45.61604" lon="2.93943">
        <ele>1070.6</ele>
        <time>2021-07-20T14:55:27Z</time>
      </trkpt>
      <trkpt lat="45.61604" lon="2.93932">
        <ele>1071.3</ele>
        <time>2021-07-20T14:55:31Z</time>
      </trkpt>
      <trkpt lat="45.61603" lon="2.93921">
        <ele>1072.1</ele>
        <time>2021-07-20T14:55:35Z</time>
      </trkpt>
      <trkpt lat="45.61602" lon="2.93911">
        <ele>1072.6</ele>
        <time>2021-07-20T14:55:39Z</time>
      </trkpt>
      <trkpt lat="45.61602" lon="2.93903">
        <ele>1073</ele>
        <time>2021-07-20T14:55:43Z</time>
      </trkpt>
      <trkpt lat="45.61601" lon="2.93894">
        <ele>1073.4</ele>
        <time>2021-07-20T14:55:47Z</time>
      </trkpt>
      <trkpt lat="45.616" lon="2.93885">
        <ele>1073.8</ele>
        <time>2021-07-20T14:55:51Z</time>
      </trkpt>
      <trkpt lat="45.616" lon="2.93874">
        <ele>1074.2</ele>
        <time>2021-07-20T14:55:55Z</time>
      </trkpt>
      <trkpt lat="45.61599" lon="2.93865">
        <ele>1074.5</ele>
        <time>2021-07-20T14:55:59Z</time>
      </trkpt>
      <trkpt lat="45.61599" lon="2.93856">
        <ele>1074.9</ele>
        <time>2021-07-20T14:56:03Z</time>
      </trkpt>
      <trkpt lat="45.61598" lon="2.93846">
        <ele>1075.3</ele>
        <time>2021-07-20T14:56:07Z</time>
      </trkpt>
      <trkpt lat="45.61598" lon="2.93836">
        <ele>1075.7</ele>
        <time>2021-07-20T14:56:11Z</time>
      </trkpt>
      <trkpt lat="45.61597" lon="2.93826">
        <ele>1076.4</ele>
        <time>2021-07-20T14:56:15Z</time>
      </trkpt>
      <trkpt lat="45.61597" lon="2.93817">
        <ele>1077.2</ele>
        <time>2021-07-20T14:56:19Z</time>
      </trkpt>
      <trkpt lat="45.61597" lon="2.93808">
        <ele>1077.9</ele>
        <time>2021-07-20T14:56:23Z</time>
      </trkpt>
      <trkpt lat="45.61596" lon="2.93799">
        <ele>1078.7</ele>
        <time>2021-07-20T14:56:27Z</time>
      </trkpt>
      <trkpt lat="45.61596" lon="2.93791">
        <ele>1079.4</ele>
        <time>2021-07-20T14:56:31Z</time>
      </trkpt>
      <trkpt lat="45.61595" lon="2.93781">
        <ele>1080.2</ele>
        <time>2021-07-20T14:56:35Z</time>
      </trkpt>
      <trkpt lat="45.61594" lon="2.93771">
        <ele>1081.1</ele>
        <time>2021-07-20T14:56:39Z</time>
      </trkpt>
      <trkpt lat="45.61594" lon="2.93761">
        <ele>1082</ele>
        <time>2021-07-20T14:56:43Z</time>
      </trkpt>
      <trkpt lat="45.61594" lon="2.93754">
        <ele>1082.5</ele>
        <time>2021-07-20T14:56:47Z</time>
      </trkpt>
      <trkpt lat="45.61595" lon="2.93744">
        <ele>1083</ele>
        <time>2021-07-20T14:56:51Z</time>
      </trkpt>
      <trkpt lat="45.61595" lon="2.93732">
        <ele>1083.5</ele>
        <time>2021-07-20T14:56:55Z</time>
      </trkpt>
      <trkpt lat="45.61595" lon="2.93722">
        <ele>1083.9</ele>
        <time>2021-07-20T14:56:59Z</time>
      </trkpt>
      <trkpt lat="45.61594" lon="2.93712">
        <ele>1084.5</ele>
        <time>2021-07-20T14:57:03Z</time>
      </trkpt>
      <trkpt lat="45.61593" lon="2.93702">
        <ele>1085.1</ele>
        <time>2021-07-20T14:57:07Z</time>
      </trkpt>
      <trkpt lat="45.61592" lon="2.93691">
        <ele>1085.7</ele>
        <time>2021-07-20T14:57:11Z</time>
      </trkpt>
      <trkpt lat="45.61592" lon="2.9368">
        <ele>1086.1</ele>
        <time>2021-07-20T14:57:15Z</time>
      </trkpt>
      <trkpt lat="45.61592" lon="2.93673">
        <ele>1086.4</ele>
        <time>2021-07-20T14:57:17Z</time>
      </trkpt>
      <trkpt lat="45.61591" lon="2.93666">
        <ele>1086.9</ele>
        <time>2021-07-20T14:57:19Z</time>
      </trkpt>
      <trkpt lat="45.61591" lon="2.93654">
        <ele>1087.2</ele>
        <time>2021-07-20T14:57:23Z</time>
      </trkpt>
      <trkpt lat="45.6159" lon="2.93641">
        <ele>1087.5</ele>
        <time>2021-07-20T14:57:27Z</time>
      </trkpt>
      <trkpt lat="45.6159" lon="2.9363">
        <ele>1087.8</ele>
        <time>2021-07-20T14:57:31Z</time>
      </trkpt>
      <trkpt lat="45.6159" lon="2.93619">
        <ele>1088.1</ele>
        <time>2021-07-20T14:57:35Z</time>
      </trkpt>
      <trkpt lat="45.61589" lon="2.93606">
        <ele>1088.5</ele>
        <time>2021-07-20T14:57:39Z</time>
      </trkpt>
      <trkpt lat="45.61588" lon="2.93594">
        <ele>1088.9</ele>
        <time>2021-07-20T14:57:43Z</time>
      </trkpt>
      <trkpt lat="45.61588" lon="2.93587">
        <ele>1089.2</ele>
        <time>2021-07-20T14:57:45Z</time>
      </trkpt>
      <trkpt lat="45.61587" lon="2.93575">
        <ele>1089.7</ele>
        <time>2021-07-20T14:57:49Z</time>
      </trkpt>
      <trkpt lat="45.61587" lon="2.93563">
        <ele>1090.2</ele>
        <time>2021-07-20T14:57:53Z</time>
      </trkpt>
      <trkpt lat="45.61586" lon="2.93551">
        <ele>1090.7</ele>
        <time>2021-07-20T14:57:57Z</time>
      </trkpt>
      <trkpt lat="45.61585" lon="2.93538">
        <ele>1091.3</ele>
        <time>2021-07-20T14:58:01Z</time>
      </trkpt>
      <trkpt lat="45.61584" lon="2.93527">
        <ele>1091.9</ele>
        <time>2021-07-20T14:58:05Z</time>
      </trkpt>
      <trkpt lat="45.61583" lon="2.93514">
        <ele>1092.5</ele>
        <time>2021-07-20T14:58:09Z</time>
      </trkpt>
      <trkpt lat="45.61583" lon="2.93502">
        <ele>1093</ele>
        <time>2021-07-20T14:58:13Z</time>
      </trkpt>
      <trkpt lat="45.61582" lon="2.93489">
        <ele>1093.8</ele>
        <time>2021-07-20T14:58:17Z</time>
      </trkpt>
      <trkpt lat="45.61581" lon="2.93482">
        <ele>1094.2</ele>
        <time>2021-07-20T14:58:19Z</time>
      </trkpt>
      <trkpt lat="45.61581" lon="2.93469">
        <ele>1095</ele>
        <time>2021-07-20T14:58:23Z</time>
      </trkpt>
      <trkpt lat="45.6158" lon="2.93456">
        <ele>1095.8</ele>
        <time>2021-07-20T14:58:27Z</time>
      </trkpt>
      <trkpt lat="45.6158" lon="2.93449">
        <ele>1096.3</ele>
        <time>2021-07-20T14:58:29Z</time>
      </trkpt>
      <trkpt lat="45.61579" lon="2.93443">
        <ele>1096.7</ele>
        <time>2021-07-20T14:58:31Z</time>
      </trkpt>
      <trkpt lat="45.61579" lon="2.93429">
        <ele>1097.4</ele>
        <time>2021-07-20T14:58:35Z</time>
      </trkpt>
      <trkpt lat="45.61579" lon="2.93416">
        <ele>1098.2</ele>
        <time>2021-07-20T14:58:39Z</time>
      </trkpt>
      <trkpt lat="45.61579" lon="2.9341">
        <ele>1098.2</ele>
        <time>2021-07-20T14:58:41Z</time>
      </trkpt>
      <trkpt lat="45.61579" lon="2.93403">
        <ele>1098.2</ele>
        <time>2021-07-20T14:58:43Z</time>
      </trkpt>
      <trkpt lat="45.61579" lon="2.93394">
        <ele>1098.2</ele>
        <time>2021-07-20T14:58:47Z</time>
      </trkpt>
      <trkpt lat="45.61578" lon="2.93383">
        <ele>1098.3</ele>
        <time>2021-07-20T14:58:51Z</time>
      </trkpt>
      <trkpt lat="45.61578" lon="2.93376">
        <ele>1098.3</ele>
        <time>2021-07-20T14:58:53Z</time>
      </trkpt>
      <trkpt lat="45.61578" lon="2.93369">
        <ele>1098.3</ele>
        <time>2021-07-20T14:58:55Z</time>
      </trkpt>
      <trkpt lat="45.61577" lon="2.93362">
        <ele>1098.3</ele>
        <time>2021-07-20T14:58:57Z</time>
      </trkpt>
      <trkpt lat="45.61577" lon="2.93355">
        <ele>1098.3</ele>
        <time>2021-07-20T14:58:59Z</time>
      </trkpt>
      <trkpt lat="45.61577" lon="2.93347">
        <ele>1098.4</ele>
        <time>2021-07-20T14:59:01Z</time>
      </trkpt>
      <trkpt lat="45.61577" lon="2.9334">
        <ele>1098.4</ele>
        <time>2021-07-20T14:59:03Z</time>
      </trkpt>
      <trkpt lat="45.61577" lon="2.93333">
        <ele>1098.4</ele>
        <time>2021-07-20T14:59:05Z</time>
      </trkpt>
      <trkpt lat="45.61577" lon="2.93325">
        <ele>1098.6</ele>
        <time>2021-07-20T14:59:07Z</time>
      </trkpt>
      <trkpt lat="45.61576" lon="2.93317">
        <ele>1098.8</ele>
        <time>2021-07-20T14:59:09Z</time>
      </trkpt>
      <trkpt lat="45.61576" lon="2.93309">
        <ele>1099.1</ele>
        <time>2021-07-20T14:59:11Z</time>
      </trkpt>
      <trkpt lat="45.61576" lon="2.93301">
        <ele>1099.3</ele>
        <time>2021-07-20T14:59:13Z</time>
      </trkpt>
      <trkpt lat="45.61575" lon="2.93293">
        <ele>1099.5</ele>
        <time>2021-07-20T14:59:15Z</time>
      </trkpt>
      <trkpt lat="45.61575" lon="2.93285">
        <ele>1099.7</ele>
        <time>2021-07-20T14:59:17Z</time>
      </trkpt>
      <trkpt lat="45.61574" lon="2.93277">
        <ele>1100</ele>
        <time>2021-07-20T14:59:19Z</time>
      </trkpt>
      <trkpt lat="45.61574" lon="2.9327">
        <ele>1100.2</ele>
        <time>2021-07-20T14:59:21Z</time>
      </trkpt>
      <trkpt lat="45.61574" lon="2.93261">
        <ele>1100.4</ele>
        <time>2021-07-20T14:59:23Z</time>
      </trkpt>
      <trkpt lat="45.61574" lon="2.93254">
        <ele>1100.6</ele>
        <time>2021-07-20T14:59:25Z</time>
      </trkpt>
      <trkpt lat="45.61574" lon="2.93247">
        <ele>1100.8</ele>
        <time>2021-07-20T14:59:27Z</time>
      </trkpt>
      <trkpt lat="45.61574" lon="2.9324">
        <ele>1100.9</ele>
        <time>2021-07-20T14:59:29Z</time>
      </trkpt>
      <trkpt lat="45.61574" lon="2.93232">
        <ele>1101.1</ele>
        <time>2021-07-20T14:59:31Z</time>
      </trkpt>
      <trkpt lat="45.61574" lon="2.93224">
        <ele>1101.3</ele>
        <time>2021-07-20T14:59:33Z</time>
      </trkpt>
      <trkpt lat="45.61574" lon="2.93216">
        <ele>1101.5</ele>
        <time>2021-07-20T14:59:35Z</time>
      </trkpt>
      <trkpt lat="45.61575" lon="2.93209">
        <ele>1101.6</ele>
        <time>2021-07-20T14:59:37Z</time>
      </trkpt>
      <trkpt lat="45.61575" lon="2.93201">
        <ele>1101.7</ele>
        <time>2021-07-20T14:59:39Z</time>
      </trkpt>
      <trkpt lat="45.61576" lon="2.93194">
        <ele>1101.9</ele>
        <time>2021-07-20T14:59:41Z</time>
      </trkpt>
      <trkpt lat="45.61576" lon="2.93187">
        <ele>1102</ele>
        <time>2021-07-20T14:59:43Z</time>
      </trkpt>
      <trkpt lat="45.61577" lon="2.9318">
        <ele>1102.1</ele>
        <time>2021-07-20T14:59:45Z</time>
      </trkpt>
      <trkpt lat="45.61578" lon="2.93173">
        <ele>1102.2</ele>
        <time>2021-07-20T14:59:47Z</time>
      </trkpt>
      <trkpt lat="45.61578" lon="2.93166">
        <ele>1102.4</ele>
        <time>2021-07-20T14:59:49Z</time>
      </trkpt>
      <trkpt lat="45.61579" lon="2.93158">
        <ele>1102.7</ele>
        <time>2021-07-20T14:59:51Z</time>
      </trkpt>
      <trkpt lat="45.61579" lon="2.93151">
        <ele>1103</ele>
        <time>2021-07-20T14:59:53Z</time>
      </trkpt>
      <trkpt lat="45.6158" lon="2.93144">
        <ele>1103.3</ele>
        <time>2021-07-20T14:59:55Z</time>
      </trkpt>
      <trkpt lat="45.6158" lon="2.93137">
        <ele>1103.7</ele>
        <time>2021-07-20T14:59:57Z</time>
      </trkpt>
      <trkpt lat="45.6158" lon="2.9313">
        <ele>1104</ele>
        <time>2021-07-20T14:59:59Z</time>
      </trkpt>
      <trkpt lat="45.6158" lon="2.93123">
        <ele>1104.3</ele>
        <time>2021-07-20T15:00:01Z</time>
      </trkpt>
      <trkpt lat="45.61581" lon="2.93116">
        <ele>1104.6</ele>
        <time>2021-07-20T15:00:03Z</time>
      </trkpt>
      <trkpt lat="45.61581" lon="2.9311">
        <ele>1104.9</ele>
        <time>2021-07-20T15:00:05Z</time>
      </trkpt>
      <trkpt lat="45.61581" lon="2.93104">
        <ele>1105.1</ele>
        <time>2021-07-20T15:00:07Z</time>
      </trkpt>
      <trkpt lat="45.61582" lon="2.93097">
        <ele>1105.4</ele>
        <time>2021-07-20T15:00:09Z</time>
      </trkpt>
      <trkpt lat="45.61582" lon="2.93091">
        <ele>1105.7</ele>
        <time>2021-07-20T15:00:11Z</time>
      </trkpt>
      <trkpt lat="45.61582" lon="2.93084">
        <ele>1106</ele>
        <time>2021-07-20T15:00:13Z</time>
      </trkpt>
      <trkpt lat="45.61584" lon="2.93072">
        <ele>1107</ele>
        <time>2021-07-20T15:00:17Z</time>
      </trkpt>
      <trkpt lat="45.61583" lon="2.93065">
        <ele>1107.7</ele>
        <time>2021-07-20T15:00:19Z</time>
      </trkpt>
      <trkpt lat="45.61583" lon="2.93053">
        <ele>1108.9</ele>
        <time>2021-07-20T15:00:23Z</time>
      </trkpt>
      <trkpt lat="45.61582" lon="2.93042">
        <ele>1110.1</ele>
        <time>2021-07-20T15:00:27Z</time>
      </trkpt>
      <trkpt lat="45.61583" lon="2.93031">
        <ele>1111.1</ele>
        <time>2021-07-20T15:00:31Z</time>
      </trkpt>
      <trkpt lat="45.6158" lon="2.93019">
        <ele>1112.3</ele>
        <time>2021-07-20T15:00:35Z</time>
      </trkpt>
      <trkpt lat="45.61579" lon="2.93009">
        <ele>1113.3</ele>
        <time>2021-07-20T15:00:39Z</time>
      </trkpt>
      <trkpt lat="45.61578" lon="2.92997">
        <ele>1114.4</ele>
        <time>2021-07-20T15:00:43Z</time>
      </trkpt>
      <trkpt lat="45.61578" lon="2.92987">
        <ele>1115.1</ele>
        <time>2021-07-20T15:00:47Z</time>
      </trkpt>
      <trkpt lat="45.61577" lon="2.92981">
        <ele>1115.6</ele>
        <time>2021-07-20T15:00:49Z</time>
      </trkpt>
      <trkpt lat="45.61576" lon="2.92969">
        <ele>1116.4</ele>
        <time>2021-07-20T15:00:53Z</time>
      </trkpt>
      <trkpt lat="45.61574" lon="2.92963">
        <ele>1116.9</ele>
        <time>2021-07-20T15:00:55Z</time>
      </trkpt>
      <trkpt lat="45.61573" lon="2.92952">
        <ele>1117.8</ele>
        <time>2021-07-20T15:00:59Z</time>
      </trkpt>
      <trkpt lat="45.61572" lon="2.92944">
        <ele>1118.3</ele>
        <time>2021-07-20T15:01:01Z</time>
      </trkpt>
      <trkpt lat="45.61571" lon="2.92932">
        <ele>1119.2</ele>
        <time>2021-07-20T15:01:05Z</time>
      </trkpt>
      <trkpt lat="45.6157" lon="2.92919">
        <ele>1120.1</ele>
        <time>2021-07-20T15:01:09Z</time>
      </trkpt>
      <trkpt lat="45.61569" lon="2.92909">
        <ele>1120.4</ele>
        <time>2021-07-20T15:01:13Z</time>
      </trkpt>
      <trkpt lat="45.61568" lon="2.92898">
        <ele>1120.5</ele>
        <time>2021-07-20T15:01:17Z</time>
      </trkpt>
      <trkpt lat="45.61567" lon="2.92891">
        <ele>1120.5</ele>
        <time>2021-07-20T15:01:19Z</time>
      </trkpt>
      <trkpt lat="45.61566" lon="2.92885">
        <ele>1120.6</ele>
        <time>2021-07-20T15:01:21Z</time>
      </trkpt>
      <trkpt lat="45.61565" lon="2.92872">
        <ele>1120.7</ele>
        <time>2021-07-20T15:01:25Z</time>
      </trkpt>
      <trkpt lat="45.61564" lon="2.92865">
        <ele>1120.7</ele>
        <time>2021-07-20T15:01:27Z</time>
      </trkpt>
      <trkpt lat="45.61564" lon="2.92858">
        <ele>1120.8</ele>
        <time>2021-07-20T15:01:29Z</time>
      </trkpt>
      <trkpt lat="45.61564" lon="2.92851">
        <ele>1120.8</ele>
        <time>2021-07-20T15:01:31Z</time>
      </trkpt>
      <trkpt lat="45.61564" lon="2.92844">
        <ele>1120.9</ele>
        <time>2021-07-20T15:01:33Z</time>
      </trkpt>
      <trkpt lat="45.61564" lon="2.92837">
        <ele>1120.9</ele>
        <time>2021-07-20T15:01:35Z</time>
      </trkpt>
      <trkpt lat="45.61563" lon="2.92831">
        <ele>1120.9</ele>
        <time>2021-07-20T15:01:37Z</time>
      </trkpt>
      <trkpt lat="45.61565" lon="2.92823">
        <ele>1120.4</ele>
        <time>2021-07-20T15:01:39Z</time>
      </trkpt>
      <trkpt lat="45.61565" lon="2.92814">
        <ele>1120.1</ele>
        <time>2021-07-20T15:01:41Z</time>
      </trkpt>
      <trkpt lat="45.61565" lon="2.92806">
        <ele>1119.7</ele>
        <time>2021-07-20T15:01:43Z</time>
      </trkpt>
      <trkpt lat="45.61565" lon="2.92798">
        <ele>1119.4</ele>
        <time>2021-07-20T15:01:45Z</time>
      </trkpt>
      <trkpt lat="45.61565" lon="2.92789">
        <ele>1119</ele>
        <time>2021-07-20T15:01:47Z</time>
      </trkpt>
      <trkpt lat="45.61565" lon="2.92781">
        <ele>1118.6</ele>
        <time>2021-07-20T15:01:49Z</time>
      </trkpt>
      <trkpt lat="45.61565" lon="2.92772">
        <ele>1118.2</ele>
        <time>2021-07-20T15:01:51Z</time>
      </trkpt>
      <trkpt lat="45.61566" lon="2.92763">
        <ele>1117.8</ele>
        <time>2021-07-20T15:01:53Z</time>
      </trkpt>
      <trkpt lat="45.61566" lon="2.92753">
        <ele>1117.4</ele>
        <time>2021-07-20T15:01:55Z</time>
      </trkpt>
      <trkpt lat="45.61565" lon="2.92743">
        <ele>1117.7</ele>
        <time>2021-07-20T15:01:57Z</time>
      </trkpt>
      <trkpt lat="45.61564" lon="2.92733">
        <ele>1118.3</ele>
        <time>2021-07-20T15:01:59Z</time>
      </trkpt>
      <trkpt lat="45.61564" lon="2.92722">
        <ele>1118.8</ele>
        <time>2021-07-20T15:02:01Z</time>
      </trkpt>
      <trkpt lat="45.61563" lon="2.92712">
        <ele>1119.4</ele>
        <time>2021-07-20T15:02:03Z</time>
      </trkpt>
      <trkpt lat="45.61563" lon="2.92702">
        <ele>1119.9</ele>
        <time>2021-07-20T15:02:05Z</time>
      </trkpt>
      <trkpt lat="45.61562" lon="2.92694">
        <ele>1120.4</ele>
        <time>2021-07-20T15:02:07Z</time>
      </trkpt>
      <trkpt lat="45.61562" lon="2.92684">
        <ele>1120.9</ele>
        <time>2021-07-20T15:02:09Z</time>
      </trkpt>
      <trkpt lat="45.61561" lon="2.92674">
        <ele>1121.4</ele>
        <time>2021-07-20T15:02:11Z</time>
      </trkpt>
      <trkpt lat="45.6156" lon="2.92666">
        <ele>1121.9</ele>
        <time>2021-07-20T15:02:13Z</time>
      </trkpt>
      <trkpt lat="45.6156" lon="2.92659">
        <ele>1122.2</ele>
        <time>2021-07-20T15:02:15Z</time>
      </trkpt>
      <trkpt lat="45.61559" lon="2.92649">
        <ele>1122.6</ele>
        <time>2021-07-20T15:02:19Z</time>
      </trkpt>
      <trkpt lat="45.61561" lon="2.92643">
        <ele>1122.9</ele>
        <time>2021-07-20T15:02:29Z</time>
      </trkpt>
      <trkpt lat="45.61558" lon="2.92639">
        <ele>1123.2</ele>
        <time>2021-07-20T15:02:49Z</time>
      </trkpt>
      <trkpt lat="45.61558" lon="2.9263">
        <ele>1123.5</ele>
        <time>2021-07-20T15:09:07Z</time>
      </trkpt>
      <trkpt lat="45.61557" lon="2.92619">
        <ele>1124.1</ele>
        <time>2021-07-20T15:09:11Z</time>
      </trkpt>
      <trkpt lat="45.61556" lon="2.92612">
        <ele>1124.4</ele>
        <time>2021-07-20T15:09:13Z</time>
      </trkpt>
      <trkpt lat="45.61555" lon="2.926">
        <ele>1124.9</ele>
        <time>2021-07-20T15:09:17Z</time>
      </trkpt>
      <trkpt lat="45.61553" lon="2.92589">
        <ele>1125.5</ele>
        <time>2021-07-20T15:09:21Z</time>
      </trkpt>
      <trkpt lat="45.61553" lon="2.92578">
        <ele>1126.1</ele>
        <time>2021-07-20T15:09:25Z</time>
      </trkpt>
      <trkpt lat="45.61553" lon="2.92568">
        <ele>1126.8</ele>
        <time>2021-07-20T15:09:29Z</time>
      </trkpt>
      <trkpt lat="45.61552" lon="2.92559">
        <ele>1127.4</ele>
        <time>2021-07-20T15:09:33Z</time>
      </trkpt>
      <trkpt lat="45.61552" lon="2.92549">
        <ele>1128.1</ele>
        <time>2021-07-20T15:09:37Z</time>
      </trkpt>
      <trkpt lat="45.61552" lon="2.92541">
        <ele>1128.7</ele>
        <time>2021-07-20T15:09:41Z</time>
      </trkpt>
      <trkpt lat="45.6155" lon="2.92531">
        <ele>1129.4</ele>
        <time>2021-07-20T15:09:45Z</time>
      </trkpt>
      <trkpt lat="45.61551" lon="2.92521">
        <ele>1130.1</ele>
        <time>2021-07-20T15:09:49Z</time>
      </trkpt>
      <trkpt lat="45.6155" lon="2.92511">
        <ele>1130.8</ele>
        <time>2021-07-20T15:09:53Z</time>
      </trkpt>
      <trkpt lat="45.61549" lon="2.92501">
        <ele>1131.6</ele>
        <time>2021-07-20T15:09:57Z</time>
      </trkpt>
      <trkpt lat="45.61549" lon="2.92491">
        <ele>1132</ele>
        <time>2021-07-20T15:10:01Z</time>
      </trkpt>
      <trkpt lat="45.61548" lon="2.92482">
        <ele>1132.3</ele>
        <time>2021-07-20T15:10:05Z</time>
      </trkpt>
      <trkpt lat="45.61547" lon="2.92475">
        <ele>1132.6</ele>
        <time>2021-07-20T15:10:09Z</time>
      </trkpt>
      <trkpt lat="45.61547" lon="2.92467">
        <ele>1132.9</ele>
        <time>2021-07-20T15:10:13Z</time>
      </trkpt>
      <trkpt lat="45.61546" lon="2.92459">
        <ele>1133.2</ele>
        <time>2021-07-20T15:10:17Z</time>
      </trkpt>
      <trkpt lat="45.61546" lon="2.9245">
        <ele>1133.6</ele>
        <time>2021-07-20T15:10:21Z</time>
      </trkpt>
      <trkpt lat="45.61544" lon="2.92441">
        <ele>1134</ele>
        <time>2021-07-20T15:10:25Z</time>
      </trkpt>
      <trkpt lat="45.61543" lon="2.92432">
        <ele>1134.3</ele>
        <time>2021-07-20T15:10:29Z</time>
      </trkpt>
      <trkpt lat="45.61541" lon="2.92424">
        <ele>1134.8</ele>
        <time>2021-07-20T15:10:33Z</time>
      </trkpt>
      <trkpt lat="45.61539" lon="2.92415">
        <ele>1135.2</ele>
        <time>2021-07-20T15:10:37Z</time>
      </trkpt>
      <trkpt lat="45.61536" lon="2.92406">
        <ele>1135.5</ele>
        <time>2021-07-20T15:10:41Z</time>
      </trkpt>
      <trkpt lat="45.61535" lon="2.92398">
        <ele>1135.6</ele>
        <time>2021-07-20T15:10:45Z</time>
      </trkpt>
      <trkpt lat="45.61534" lon="2.92391">
        <ele>1135.7</ele>
        <time>2021-07-20T15:10:49Z</time>
      </trkpt>
      <trkpt lat="45.61532" lon="2.92383">
        <ele>1135.9</ele>
        <time>2021-07-20T15:10:53Z</time>
      </trkpt>
      <trkpt lat="45.6153" lon="2.92373">
        <ele>1136.1</ele>
        <time>2021-07-20T15:10:57Z</time>
      </trkpt>
      <trkpt lat="45.61528" lon="2.92365">
        <ele>1136.4</ele>
        <time>2021-07-20T15:11:01Z</time>
      </trkpt>
      <trkpt lat="45.61525" lon="2.92356">
        <ele>1136.7</ele>
        <time>2021-07-20T15:11:05Z</time>
      </trkpt>
      <trkpt lat="45.61523" lon="2.92344">
        <ele>1137</ele>
        <time>2021-07-20T15:11:09Z</time>
      </trkpt>
      <trkpt lat="45.6152" lon="2.92332">
        <ele>1137.3</ele>
        <time>2021-07-20T15:11:13Z</time>
      </trkpt>
      <trkpt lat="45.61518" lon="2.92326">
        <ele>1137.7</ele>
        <time>2021-07-20T15:11:15Z</time>
      </trkpt>
      <trkpt lat="45.61515" lon="2.92319">
        <ele>1138.1</ele>
        <time>2021-07-20T15:11:17Z</time>
      </trkpt>
      <trkpt lat="45.61513" lon="2.92307">
        <ele>1138.7</ele>
        <time>2021-07-20T15:11:21Z</time>
      </trkpt>
      <trkpt lat="45.61511" lon="2.92301">
        <ele>1139</ele>
        <time>2021-07-20T15:11:23Z</time>
      </trkpt>
      <trkpt lat="45.6151" lon="2.92294">
        <ele>1139.2</ele>
        <time>2021-07-20T15:11:25Z</time>
      </trkpt>
      <trkpt lat="45.61508" lon="2.92288">
        <ele>1139.5</ele>
        <time>2021-07-20T15:11:27Z</time>
      </trkpt>
      <trkpt lat="45.61504" lon="2.92276">
        <ele>1140.1</ele>
        <time>2021-07-20T15:11:31Z</time>
      </trkpt>
      <trkpt lat="45.61502" lon="2.9227">
        <ele>1140.4</ele>
        <time>2021-07-20T15:11:33Z</time>
      </trkpt>
      <trkpt lat="45.61497" lon="2.92261">
        <ele>1140.7</ele>
        <time>2021-07-20T15:11:37Z</time>
      </trkpt>
      <trkpt lat="45.61491" lon="2.92258">
        <ele>1140.7</ele>
        <time>2021-07-20T15:11:41Z</time>
      </trkpt>
      <trkpt lat="45.61485" lon="2.92261">
        <ele>1140.5</ele>
        <time>2021-07-20T15:11:45Z</time>
      </trkpt>
      <trkpt lat="45.61483" lon="2.92266">
        <ele>1140.4</ele>
        <time>2021-07-20T15:11:47Z</time>
      </trkpt>
      <trkpt lat="45.61479" lon="2.92277">
        <ele>1140</ele>
        <time>2021-07-20T15:11:51Z</time>
      </trkpt>
      <trkpt lat="45.61477" lon="2.92283">
        <ele>1139.8</ele>
        <time>2021-07-20T15:11:53Z</time>
      </trkpt>
      <trkpt lat="45.61475" lon="2.92289">
        <ele>1139.6</ele>
        <time>2021-07-20T15:11:55Z</time>
      </trkpt>
      <trkpt lat="45.61471" lon="2.92301">
        <ele>1139.2</ele>
        <time>2021-07-20T15:11:59Z</time>
      </trkpt>
      <trkpt lat="45.61468" lon="2.92307">
        <ele>1139</ele>
        <time>2021-07-20T15:12:01Z</time>
      </trkpt>
      <trkpt lat="45.61466" lon="2.92313">
        <ele>1138.8</ele>
        <time>2021-07-20T15:12:03Z</time>
      </trkpt>
      <trkpt lat="45.61464" lon="2.92319">
        <ele>1138.6</ele>
        <time>2021-07-20T15:12:05Z</time>
      </trkpt>
      <trkpt lat="45.61462" lon="2.92326">
        <ele>1138.3</ele>
        <time>2021-07-20T15:12:07Z</time>
      </trkpt>
      <trkpt lat="45.61459" lon="2.92333">
        <ele>1138</ele>
        <time>2021-07-20T15:12:09Z</time>
      </trkpt>
      <trkpt lat="45.61458" lon="2.92339">
        <ele>1137.8</ele>
        <time>2021-07-20T15:12:11Z</time>
      </trkpt>
      <trkpt lat="45.61454" lon="2.92346">
        <ele>1137.4</ele>
        <time>2021-07-20T15:12:13Z</time>
      </trkpt>
      <trkpt lat="45.61451" lon="2.92353">
        <ele>1137</ele>
        <time>2021-07-20T15:12:15Z</time>
      </trkpt>
      <trkpt lat="45.61449" lon="2.92361">
        <ele>1136.6</ele>
        <time>2021-07-20T15:12:17Z</time>
      </trkpt>
      <trkpt lat="45.61446" lon="2.92369">
        <ele>1136.2</ele>
        <time>2021-07-20T15:12:19Z</time>
      </trkpt>
      <trkpt lat="45.61443" lon="2.92379">
        <ele>1135.6</ele>
        <time>2021-07-20T15:12:21Z</time>
      </trkpt>
      <trkpt lat="45.6144" lon="2.92389">
        <ele>1135</ele>
        <time>2021-07-20T15:12:23Z</time>
      </trkpt>
      <trkpt lat="45.61436" lon="2.92401">
        <ele>1134.2</ele>
        <time>2021-07-20T15:12:25Z</time>
      </trkpt>
      <trkpt lat="45.61431" lon="2.92415">
        <ele>1133.1</ele>
        <time>2021-07-20T15:12:27Z</time>
      </trkpt>
      <trkpt lat="45.61425" lon="2.9243">
        <ele>1131.8</ele>
        <time>2021-07-20T15:12:29Z</time>
      </trkpt>
      <trkpt lat="45.61417" lon="2.92446">
        <ele>1130.3</ele>
        <time>2021-07-20T15:12:31Z</time>
      </trkpt>
      <trkpt lat="45.61407" lon="2.92463">
        <ele>1128.4</ele>
        <time>2021-07-20T15:12:33Z</time>
      </trkpt>
      <trkpt lat="45.61396" lon="2.92478">
        <ele>1126.4</ele>
        <time>2021-07-20T15:12:35Z</time>
      </trkpt>
      <trkpt lat="45.61383" lon="2.92489">
        <ele>1124.6</ele>
        <time>2021-07-20T15:12:37Z</time>
      </trkpt>
      <trkpt lat="45.61369" lon="2.92497">
        <ele>1122.6</ele>
        <time>2021-07-20T15:12:39Z</time>
      </trkpt>
      <trkpt lat="45.61354" lon="2.92504">
        <ele>1120.9</ele>
        <time>2021-07-20T15:12:41Z</time>
      </trkpt>
      <trkpt lat="45.61342" lon="2.92519">
        <ele>1119.4</ele>
        <time>2021-07-20T15:12:43Z</time>
      </trkpt>
      <trkpt lat="45.61333" lon="2.92539">
        <ele>1118.1</ele>
        <time>2021-07-20T15:12:45Z</time>
      </trkpt>
      <trkpt lat="45.61327" lon="2.92559">
        <ele>1116.5</ele>
        <time>2021-07-20T15:12:47Z</time>
      </trkpt>
      <trkpt lat="45.61318" lon="2.92578">
        <ele>1114.6</ele>
        <time>2021-07-20T15:12:49Z</time>
      </trkpt>
      <trkpt lat="45.61306" lon="2.92596">
        <ele>1112.2</ele>
        <time>2021-07-20T15:12:51Z</time>
      </trkpt>
      <trkpt lat="45.6129" lon="2.92615">
        <ele>1109.4</ele>
        <time>2021-07-20T15:12:53Z</time>
      </trkpt>
      <trkpt lat="45.61273" lon="2.92629">
        <ele>1106.5</ele>
        <time>2021-07-20T15:12:55Z</time>
      </trkpt>
      <trkpt lat="45.61255" lon="2.9264">
        <ele>1103.8</ele>
        <time>2021-07-20T15:12:57Z</time>
      </trkpt>
      <trkpt lat="45.61237" lon="2.92649">
        <ele>1101.3</ele>
        <time>2021-07-20T15:12:59Z</time>
      </trkpt>
      <trkpt lat="45.6122" lon="2.92661">
        <ele>1099.1</ele>
        <time>2021-07-20T15:13:01Z</time>
      </trkpt>
      <trkpt lat="45.61204" lon="2.92672">
        <ele>1097</ele>
        <time>2021-07-20T15:13:03Z</time>
      </trkpt>
      <trkpt lat="45.61188" lon="2.92682">
        <ele>1094.9</ele>
        <time>2021-07-20T15:13:05Z</time>
      </trkpt>
      <trkpt lat="45.61173" lon="2.92696">
        <ele>1092.6</ele>
        <time>2021-07-20T15:13:07Z</time>
      </trkpt>
      <trkpt lat="45.61157" lon="2.92714">
        <ele>1090.6</ele>
        <time>2021-07-20T15:13:09Z</time>
      </trkpt>
      <trkpt lat="45.61142" lon="2.92733">
        <ele>1088.9</ele>
        <time>2021-07-20T15:13:11Z</time>
      </trkpt>
      <trkpt lat="45.61129" lon="2.92751">
        <ele>1087.4</ele>
        <time>2021-07-20T15:13:13Z</time>
      </trkpt>
      <trkpt lat="45.61117" lon="2.92769">
        <ele>1086.1</ele>
        <time>2021-07-20T15:13:15Z</time>
      </trkpt>
      <trkpt lat="45.61103" lon="2.92785">
        <ele>1084.5</ele>
        <time>2021-07-20T15:13:17Z</time>
      </trkpt>
      <trkpt lat="45.61089" lon="2.92801">
        <ele>1083</ele>
        <time>2021-07-20T15:13:19Z</time>
      </trkpt>
      <trkpt lat="45.61077" lon="2.92815">
        <ele>1081.8</ele>
        <time>2021-07-20T15:13:21Z</time>
      </trkpt>
      <trkpt lat="45.61066" lon="2.92829">
        <ele>1080.8</ele>
        <time>2021-07-20T15:13:23Z</time>
      </trkpt>
      <trkpt lat="45.61056" lon="2.92842">
        <ele>1079.9</ele>
        <time>2021-07-20T15:13:25Z</time>
      </trkpt>
      <trkpt lat="45.61046" lon="2.92855">
        <ele>1079</ele>
        <time>2021-07-20T15:13:27Z</time>
      </trkpt>
      <trkpt lat="45.61037" lon="2.92866">
        <ele>1078</ele>
        <time>2021-07-20T15:13:29Z</time>
      </trkpt>
      <trkpt lat="45.61029" lon="2.92875">
        <ele>1077.2</ele>
        <time>2021-07-20T15:13:31Z</time>
      </trkpt>
      <trkpt lat="45.61021" lon="2.92886">
        <ele>1076.4</ele>
        <time>2021-07-20T15:13:33Z</time>
      </trkpt>
      <trkpt lat="45.61017" lon="2.929">
        <ele>1075.8</ele>
        <time>2021-07-20T15:13:35Z</time>
      </trkpt>
      <trkpt lat="45.61014" lon="2.92911">
        <ele>1075.3</ele>
        <time>2021-07-20T15:13:37Z</time>
      </trkpt>
      <trkpt lat="45.61011" lon="2.9292">
        <ele>1074.9</ele>
        <time>2021-07-20T15:13:39Z</time>
      </trkpt>
      <trkpt lat="45.61009" lon="2.92928">
        <ele>1074.7</ele>
        <time>2021-07-20T15:13:41Z</time>
      </trkpt>
      <trkpt lat="45.61006" lon="2.92932">
        <ele>1074.5</ele>
        <time>2021-07-20T15:13:43Z</time>
      </trkpt>
      <trkpt lat="45.61" lon="2.92935">
        <ele>1074</ele>
        <time>2021-07-20T15:13:47Z</time>
      </trkpt>
      <trkpt lat="45.60992" lon="2.92939">
        <ele>1073.3</ele>
        <time>2021-07-20T15:13:51Z</time>
      </trkpt>
      <trkpt lat="45.60987" lon="2.92942">
        <ele>1072.9</ele>
        <time>2021-07-20T15:13:53Z</time>
      </trkpt>
      <trkpt lat="45.60981" lon="2.92945">
        <ele>1072.4</ele>
        <time>2021-07-20T15:13:55Z</time>
      </trkpt>
      <trkpt lat="45.60976" lon="2.92947">
        <ele>1072</ele>
        <time>2021-07-20T15:13:57Z</time>
      </trkpt>
      <trkpt lat="45.6097" lon="2.92952">
        <ele>1071.4</ele>
        <time>2021-07-20T15:13:59Z</time>
      </trkpt>
      <trkpt lat="45.60964" lon="2.92958">
        <ele>1070.8</ele>
        <time>2021-07-20T15:14:01Z</time>
      </trkpt>
      <trkpt lat="45.6096" lon="2.92967">
        <ele>1070.2</ele>
        <time>2021-07-20T15:14:03Z</time>
      </trkpt>
      <trkpt lat="45.60956" lon="2.92978">
        <ele>1069.6</ele>
        <time>2021-07-20T15:14:05Z</time>
      </trkpt>
      <trkpt lat="45.6095" lon="2.92987">
        <ele>1068.9</ele>
        <time>2021-07-20T15:14:07Z</time>
      </trkpt>
      <trkpt lat="45.60945" lon="2.92996">
        <ele>1068.1</ele>
        <time>2021-07-20T15:14:09Z</time>
      </trkpt>
      <trkpt lat="45.60939" lon="2.93005">
        <ele>1067.2</ele>
        <time>2021-07-20T15:14:11Z</time>
      </trkpt>
      <trkpt lat="45.60933" lon="2.93009">
        <ele>1066.5</ele>
        <time>2021-07-20T15:14:13Z</time>
      </trkpt>
      <trkpt lat="45.60927" lon="2.93013">
        <ele>1065.8</ele>
        <time>2021-07-20T15:14:15Z</time>
      </trkpt>
      <trkpt lat="45.60921" lon="2.93017">
        <ele>1065</ele>
        <time>2021-07-20T15:14:17Z</time>
      </trkpt>
      <trkpt lat="45.60913" lon="2.9302">
        <ele>1064.3</ele>
        <time>2021-07-20T15:14:19Z</time>
      </trkpt>
      <trkpt lat="45.60904" lon="2.93024">
        <ele>1063.8</ele>
        <time>2021-07-20T15:14:21Z</time>
      </trkpt>
      <trkpt lat="45.60895" lon="2.9303">
        <ele>1063.2</ele>
        <time>2021-07-20T15:14:23Z</time>
      </trkpt>
      <trkpt lat="45.60885" lon="2.93034">
        <ele>1062.7</ele>
        <time>2021-07-20T15:14:25Z</time>
      </trkpt>
      <trkpt lat="45.60876" lon="2.93039">
        <ele>1062.1</ele>
        <time>2021-07-20T15:14:27Z</time>
      </trkpt>
      <trkpt lat="45.60867" lon="2.93043">
        <ele>1061.6</ele>
        <time>2021-07-20T15:14:29Z</time>
      </trkpt>
      <trkpt lat="45.60858" lon="2.93047">
        <ele>1061</ele>
        <time>2021-07-20T15:14:31Z</time>
      </trkpt>
      <trkpt lat="45.60848" lon="2.93051">
        <ele>1060.5</ele>
        <time>2021-07-20T15:14:33Z</time>
      </trkpt>
      <trkpt lat="45.60839" lon="2.93055">
        <ele>1059.9</ele>
        <time>2021-07-20T15:14:35Z</time>
      </trkpt>
      <trkpt lat="45.60829" lon="2.9306">
        <ele>1059.5</ele>
        <time>2021-07-20T15:14:37Z</time>
      </trkpt>
      <trkpt lat="45.6082" lon="2.93064">
        <ele>1059.1</ele>
        <time>2021-07-20T15:14:39Z</time>
      </trkpt>
      <trkpt lat="45.60811" lon="2.93068">
        <ele>1058.8</ele>
        <time>2021-07-20T15:14:41Z</time>
      </trkpt>
      <trkpt lat="45.60801" lon="2.93072">
        <ele>1058.5</ele>
        <time>2021-07-20T15:14:43Z</time>
      </trkpt>
      <trkpt lat="45.60792" lon="2.93076">
        <ele>1058.2</ele>
        <time>2021-07-20T15:14:45Z</time>
      </trkpt>
      <trkpt lat="45.60784" lon="2.9308">
        <ele>1057.9</ele>
        <time>2021-07-20T15:14:47Z</time>
      </trkpt>
      <trkpt lat="45.60775" lon="2.93084">
        <ele>1057.6</ele>
        <time>2021-07-20T15:14:49Z</time>
      </trkpt>
      <trkpt lat="45.60768" lon="2.93087">
        <ele>1057.3</ele>
        <time>2021-07-20T15:14:51Z</time>
      </trkpt>
      <trkpt lat="45.60763" lon="2.93088">
        <ele>1057.1</ele>
        <time>2021-07-20T15:14:53Z</time>
      </trkpt>
      <trkpt lat="45.60754" lon="2.93089">
        <ele>1056.8</ele>
        <time>2021-07-20T15:14:57Z</time>
      </trkpt>
      <trkpt lat="45.60749" lon="2.93086">
        <ele>1056.9</ele>
        <time>2021-07-20T15:14:59Z</time>
      </trkpt>
      <trkpt lat="45.60744" lon="2.93085">
        <ele>1057.1</ele>
        <time>2021-07-20T15:15:01Z</time>
      </trkpt>
      <trkpt lat="45.60739" lon="2.93086">
        <ele>1057.1</ele>
        <time>2021-07-20T15:15:03Z</time>
      </trkpt>
      <trkpt lat="45.60733" lon="2.93088">
        <ele>1057.2</ele>
        <time>2021-07-20T15:15:05Z</time>
      </trkpt>
      <trkpt lat="45.60729" lon="2.93091">
        <ele>1057.2</ele>
        <time>2021-07-20T15:15:07Z</time>
      </trkpt>
      <trkpt lat="45.60723" lon="2.93094">
        <ele>1057.2</ele>
        <time>2021-07-20T15:15:09Z</time>
      </trkpt>
      <trkpt lat="45.60717" lon="2.93099">
        <ele>1057.2</ele>
        <time>2021-07-20T15:15:11Z</time>
      </trkpt>
      <trkpt lat="45.60712" lon="2.93103">
        <ele>1057.2</ele>
        <time>2021-07-20T15:15:13Z</time>
      </trkpt>
      <trkpt lat="45.60706" lon="2.93109">
        <ele>1057.1</ele>
        <time>2021-07-20T15:15:15Z</time>
      </trkpt>
      <trkpt lat="45.60702" lon="2.93117">
        <ele>1057</ele>
        <time>2021-07-20T15:15:17Z</time>
      </trkpt>
      <trkpt lat="45.607" lon="2.93126">
        <ele>1056.8</ele>
        <time>2021-07-20T15:15:19Z</time>
      </trkpt>
      <trkpt lat="45.60698" lon="2.93133">
        <ele>1056.6</ele>
        <time>2021-07-20T15:15:21Z</time>
      </trkpt>
      <trkpt lat="45.60696" lon="2.93141">
        <ele>1056.4</ele>
        <time>2021-07-20T15:15:23Z</time>
      </trkpt>
      <trkpt lat="45.60694" lon="2.93148">
        <ele>1056.3</ele>
        <time>2021-07-20T15:15:25Z</time>
      </trkpt>
      <trkpt lat="45.60691" lon="2.93155">
        <ele>1056.2</ele>
        <time>2021-07-20T15:15:27Z</time>
      </trkpt>
      <trkpt lat="45.60688" lon="2.93162">
        <ele>1056.1</ele>
        <time>2021-07-20T15:15:29Z</time>
      </trkpt>
      <trkpt lat="45.60685" lon="2.93167">
        <ele>1056.1</ele>
        <time>2021-07-20T15:15:31Z</time>
      </trkpt>
      <trkpt lat="45.60682" lon="2.93172">
        <ele>1056</ele>
        <time>2021-07-20T15:15:33Z</time>
      </trkpt>
      <trkpt lat="45.60679" lon="2.93178">
        <ele>1055.9</ele>
        <time>2021-07-20T15:15:35Z</time>
      </trkpt>
      <trkpt lat="45.60675" lon="2.93184">
        <ele>1055.8</ele>
        <time>2021-07-20T15:15:37Z</time>
      </trkpt>
      <trkpt lat="45.60672" lon="2.9319">
        <ele>1055.7</ele>
        <time>2021-07-20T15:15:39Z</time>
      </trkpt>
      <trkpt lat="45.60668" lon="2.93196">
        <ele>1055.6</ele>
        <time>2021-07-20T15:15:41Z</time>
      </trkpt>
      <trkpt lat="45.60664" lon="2.93202">
        <ele>1055.4</ele>
        <time>2021-07-20T15:15:43Z</time>
      </trkpt>
      <trkpt lat="45.6066" lon="2.93208">
        <ele>1055.3</ele>
        <time>2021-07-20T15:15:45Z</time>
      </trkpt>
      <trkpt lat="45.60656" lon="2.93213">
        <ele>1055.3</ele>
        <time>2021-07-20T15:15:47Z</time>
      </trkpt>
      <trkpt lat="45.60652" lon="2.93218">
        <ele>1055.3</ele>
        <time>2021-07-20T15:15:49Z</time>
      </trkpt>
      <trkpt lat="45.60647" lon="2.93222">
        <ele>1055.3</ele>
        <time>2021-07-20T15:15:51Z</time>
      </trkpt>
      <trkpt lat="45.60643" lon="2.93226">
        <ele>1055.4</ele>
        <time>2021-07-20T15:15:53Z</time>
      </trkpt>
      <trkpt lat="45.60638" lon="2.93232">
        <ele>1055.4</ele>
        <time>2021-07-20T15:15:55Z</time>
      </trkpt>
      <trkpt lat="45.60634" lon="2.93237">
        <ele>1055.5</ele>
        <time>2021-07-20T15:15:57Z</time>
      </trkpt>
      <trkpt lat="45.60628" lon="2.93242">
        <ele>1055.6</ele>
        <time>2021-07-20T15:15:59Z</time>
      </trkpt>
      <trkpt lat="45.60623" lon="2.93246">
        <ele>1055.7</ele>
        <time>2021-07-20T15:16:01Z</time>
      </trkpt>
      <trkpt lat="45.60618" lon="2.93251">
        <ele>1055.9</ele>
        <time>2021-07-20T15:16:03Z</time>
      </trkpt>
      <trkpt lat="45.60613" lon="2.93255">
        <ele>1056.2</ele>
        <time>2021-07-20T15:16:05Z</time>
      </trkpt>
      <trkpt lat="45.60608" lon="2.93259">
        <ele>1056.5</ele>
        <time>2021-07-20T15:16:07Z</time>
      </trkpt>
      <trkpt lat="45.60603" lon="2.93262">
        <ele>1056.7</ele>
        <time>2021-07-20T15:16:09Z</time>
      </trkpt>
      <trkpt lat="45.60598" lon="2.93265">
        <ele>1057</ele>
        <time>2021-07-20T15:16:11Z</time>
      </trkpt>
      <trkpt lat="45.60594" lon="2.93269">
        <ele>1057.2</ele>
        <time>2021-07-20T15:16:13Z</time>
      </trkpt>
      <trkpt lat="45.60589" lon="2.93271">
        <ele>1057.4</ele>
        <time>2021-07-20T15:16:15Z</time>
      </trkpt>
      <trkpt lat="45.60581" lon="2.93276">
        <ele>1057.7</ele>
        <time>2021-07-20T15:16:19Z</time>
      </trkpt>
      <trkpt lat="45.60577" lon="2.93279">
        <ele>1057.5</ele>
        <time>2021-07-20T15:16:21Z</time>
      </trkpt>
      <trkpt lat="45.60572" lon="2.93282">
        <ele>1057.4</ele>
        <time>2021-07-20T15:16:23Z</time>
      </trkpt>
      <trkpt lat="45.60568" lon="2.93285">
        <ele>1057.3</ele>
        <time>2021-07-20T15:16:25Z</time>
      </trkpt>
      <trkpt lat="45.60563" lon="2.93287">
        <ele>1057.2</ele>
        <time>2021-07-20T15:16:27Z</time>
      </trkpt>
      <trkpt lat="45.60559" lon="2.93291">
        <ele>1057.1</ele>
        <time>2021-07-20T15:16:29Z</time>
      </trkpt>
      <trkpt lat="45.60555" lon="2.93294">
        <ele>1057</ele>
        <time>2021-07-20T15:16:31Z</time>
      </trkpt>
      <trkpt lat="45.60551" lon="2.93296">
        <ele>1056.8</ele>
        <time>2021-07-20T15:16:33Z</time>
      </trkpt>
      <trkpt lat="45.60542" lon="2.93296">
        <ele>1056.7</ele>
        <time>2021-07-20T15:16:37Z</time>
      </trkpt>
      <trkpt lat="45.60537" lon="2.93296">
        <ele>1056.6</ele>
        <time>2021-07-20T15:16:45Z</time>
      </trkpt>
      <trkpt lat="45.60531" lon="2.93296">
        <ele>1056.5</ele>
        <time>2021-07-20T15:16:49Z</time>
      </trkpt>
      <trkpt lat="45.60522" lon="2.93296">
        <ele>1056.3</ele>
        <time>2021-07-20T15:16:53Z</time>
      </trkpt>
      <trkpt lat="45.60517" lon="2.93296">
        <ele>1056.2</ele>
        <time>2021-07-20T15:16:55Z</time>
      </trkpt>
      <trkpt lat="45.60512" lon="2.93295">
        <ele>1056.1</ele>
        <time>2021-07-20T15:16:57Z</time>
      </trkpt>
      <trkpt lat="45.60506" lon="2.93294">
        <ele>1056.1</ele>
        <time>2021-07-20T15:16:59Z</time>
      </trkpt>
      <trkpt lat="45.60501" lon="2.93293">
        <ele>1056</ele>
        <time>2021-07-20T15:17:01Z</time>
      </trkpt>
      <trkpt lat="45.60495" lon="2.9329">
        <ele>1055.6</ele>
        <time>2021-07-20T15:17:03Z</time>
      </trkpt>
      <trkpt lat="45.60486" lon="2.93286">
        <ele>1055</ele>
        <time>2021-07-20T15:17:07Z</time>
      </trkpt>
      <trkpt lat="45.60481" lon="2.93283">
        <ele>1054.6</ele>
        <time>2021-07-20T15:17:09Z</time>
      </trkpt>
      <trkpt lat="45.60476" lon="2.93279">
        <ele>1054.3</ele>
        <time>2021-07-20T15:17:11Z</time>
      </trkpt>
      <trkpt lat="45.6047" lon="2.93276">
        <ele>1053.8</ele>
        <time>2021-07-20T15:17:13Z</time>
      </trkpt>
      <trkpt lat="45.60463" lon="2.93272">
        <ele>1053.3</ele>
        <time>2021-07-20T15:17:15Z</time>
      </trkpt>
      <trkpt lat="45.60455" lon="2.93269">
        <ele>1052.7</ele>
        <time>2021-07-20T15:17:17Z</time>
      </trkpt>
      <trkpt lat="45.60446" lon="2.93265">
        <ele>1052.1</ele>
        <time>2021-07-20T15:17:19Z</time>
      </trkpt>
      <trkpt lat="45.60436" lon="2.93259">
        <ele>1051.4</ele>
        <time>2021-07-20T15:17:21Z</time>
      </trkpt>
      <trkpt lat="45.60426" lon="2.93253">
        <ele>1050.7</ele>
        <time>2021-07-20T15:17:23Z</time>
      </trkpt>
      <trkpt lat="45.60416" lon="2.93246">
        <ele>1049.8</ele>
        <time>2021-07-20T15:17:25Z</time>
      </trkpt>
      <trkpt lat="45.60404" lon="2.93238">
        <ele>1048.5</ele>
        <time>2021-07-20T15:17:27Z</time>
      </trkpt>
      <trkpt lat="45.60392" lon="2.93228">
        <ele>1047.2</ele>
        <time>2021-07-20T15:17:29Z</time>
      </trkpt>
      <trkpt lat="45.60378" lon="2.93218">
        <ele>1045.8</ele>
        <time>2021-07-20T15:17:31Z</time>
      </trkpt>
      <trkpt lat="45.60362" lon="2.93209">
        <ele>1044.3</ele>
        <time>2021-07-20T15:17:33Z</time>
      </trkpt>
      <trkpt lat="45.60347" lon="2.932">
        <ele>1042.9</ele>
        <time>2021-07-20T15:17:35Z</time>
      </trkpt>
      <trkpt lat="45.60334" lon="2.93192">
        <ele>1041.8</ele>
        <time>2021-07-20T15:17:37Z</time>
      </trkpt>
      <trkpt lat="45.60321" lon="2.93184">
        <ele>1040.8</ele>
        <time>2021-07-20T15:17:39Z</time>
      </trkpt>
      <trkpt lat="45.60308" lon="2.93176">
        <ele>1039.8</ele>
        <time>2021-07-20T15:17:41Z</time>
      </trkpt>
      <trkpt lat="45.60295" lon="2.93167">
        <ele>1038.8</ele>
        <time>2021-07-20T15:17:43Z</time>
      </trkpt>
      <trkpt lat="45.6028" lon="2.93156">
        <ele>1037.5</ele>
        <time>2021-07-20T15:17:45Z</time>
      </trkpt>
      <trkpt lat="45.60266" lon="2.93144">
        <ele>1036.3</ele>
        <time>2021-07-20T15:17:47Z</time>
      </trkpt>
      <trkpt lat="45.60251" lon="2.9313">
        <ele>1035.1</ele>
        <time>2021-07-20T15:17:49Z</time>
      </trkpt>
      <trkpt lat="45.60237" lon="2.93117">
        <ele>1034.4</ele>
        <time>2021-07-20T15:17:51Z</time>
      </trkpt>
      <trkpt lat="45.60222" lon="2.93104">
        <ele>1033.8</ele>
        <time>2021-07-20T15:17:53Z</time>
      </trkpt>
      <trkpt lat="45.60208" lon="2.93092">
        <ele>1033.4</ele>
        <time>2021-07-20T15:17:55Z</time>
      </trkpt>
      <trkpt lat="45.60195" lon="2.93076">
        <ele>1033.1</ele>
        <time>2021-07-20T15:17:57Z</time>
      </trkpt>
      <trkpt lat="45.60182" lon="2.93063">
        <ele>1032.6</ele>
        <time>2021-07-20T15:17:59Z</time>
      </trkpt>
      <trkpt lat="45.6017" lon="2.93049">
        <ele>1032.2</ele>
        <time>2021-07-20T15:18:01Z</time>
      </trkpt>
      <trkpt lat="45.60158" lon="2.93036">
        <ele>1031.7</ele>
        <time>2021-07-20T15:18:03Z</time>
      </trkpt>
      <trkpt lat="45.60145" lon="2.93025">
        <ele>1031.2</ele>
        <time>2021-07-20T15:18:05Z</time>
      </trkpt>
      <trkpt lat="45.60133" lon="2.93011">
        <ele>1030.8</ele>
        <time>2021-07-20T15:18:07Z</time>
      </trkpt>
      <trkpt lat="45.60121" lon="2.92998">
        <ele>1030.4</ele>
        <time>2021-07-20T15:18:09Z</time>
      </trkpt>
      <trkpt lat="45.60109" lon="2.92986">
        <ele>1030.2</ele>
        <time>2021-07-20T15:18:11Z</time>
      </trkpt>
      <trkpt lat="45.60097" lon="2.92974">
        <ele>1030.1</ele>
        <time>2021-07-20T15:18:13Z</time>
      </trkpt>
      <trkpt lat="45.60086" lon="2.92965">
        <ele>1029.9</ele>
        <time>2021-07-20T15:18:15Z</time>
      </trkpt>
      <trkpt lat="45.60073" lon="2.92957">
        <ele>1030</ele>
        <time>2021-07-20T15:18:17Z</time>
      </trkpt>
      <trkpt lat="45.60062" lon="2.9295">
        <ele>1030</ele>
        <time>2021-07-20T15:18:19Z</time>
      </trkpt>
      <trkpt lat="45.60051" lon="2.92945">
        <ele>1030.1</ele>
        <time>2021-07-20T15:18:21Z</time>
      </trkpt>
      <trkpt lat="45.6004" lon="2.92939">
        <ele>1030.1</ele>
        <time>2021-07-20T15:18:23Z</time>
      </trkpt>
      <trkpt lat="45.6003" lon="2.92933">
        <ele>1030.1</ele>
        <time>2021-07-20T15:18:25Z</time>
      </trkpt>
      <trkpt lat="45.60021" lon="2.92928">
        <ele>1030.1</ele>
        <time>2021-07-20T15:18:27Z</time>
      </trkpt>
      <trkpt lat="45.60012" lon="2.92925">
        <ele>1030</ele>
        <time>2021-07-20T15:18:29Z</time>
      </trkpt>
      <trkpt lat="45.60003" lon="2.92925">
        <ele>1029.9</ele>
        <time>2021-07-20T15:18:31Z</time>
      </trkpt>
      <trkpt lat="45.59995" lon="2.92925">
        <ele>1030</ele>
        <time>2021-07-20T15:18:33Z</time>
      </trkpt>
      <trkpt lat="45.59989" lon="2.92926">
        <ele>1030.2</ele>
        <time>2021-07-20T15:18:35Z</time>
      </trkpt>
      <trkpt lat="45.59982" lon="2.92927">
        <ele>1030.3</ele>
        <time>2021-07-20T15:18:37Z</time>
      </trkpt>
      <trkpt lat="45.59974" lon="2.92929">
        <ele>1030.5</ele>
        <time>2021-07-20T15:18:39Z</time>
      </trkpt>
      <trkpt lat="45.59966" lon="2.92929">
        <ele>1030.7</ele>
        <time>2021-07-20T15:18:41Z</time>
      </trkpt>
      <trkpt lat="45.59957" lon="2.92929">
        <ele>1031</ele>
        <time>2021-07-20T15:18:43Z</time>
      </trkpt>
      <trkpt lat="45.59949" lon="2.92928">
        <ele>1031.2</ele>
        <time>2021-07-20T15:18:45Z</time>
      </trkpt>
      <trkpt lat="45.5994" lon="2.92928">
        <ele>1031.4</ele>
        <time>2021-07-20T15:18:47Z</time>
      </trkpt>
      <trkpt lat="45.59931" lon="2.92927">
        <ele>1031.6</ele>
        <time>2021-07-20T15:18:49Z</time>
      </trkpt>
      <trkpt lat="45.59925" lon="2.92925">
        <ele>1031.8</ele>
        <time>2021-07-20T15:18:51Z</time>
      </trkpt>
      <trkpt lat="45.59918" lon="2.92923">
        <ele>1032</ele>
        <time>2021-07-20T15:18:53Z</time>
      </trkpt>
      <trkpt lat="45.59912" lon="2.92921">
        <ele>1032.2</ele>
        <time>2021-07-20T15:18:55Z</time>
      </trkpt>
      <trkpt lat="45.59906" lon="2.92919">
        <ele>1032.5</ele>
        <time>2021-07-20T15:18:57Z</time>
      </trkpt>
      <trkpt lat="45.599" lon="2.92917">
        <ele>1032.8</ele>
        <time>2021-07-20T15:18:59Z</time>
      </trkpt>
      <trkpt lat="45.59894" lon="2.92915">
        <ele>1033.1</ele>
        <time>2021-07-20T15:19:01Z</time>
      </trkpt>
      <trkpt lat="45.59888" lon="2.92914">
        <ele>1033.5</ele>
        <time>2021-07-20T15:19:03Z</time>
      </trkpt>
      <trkpt lat="45.59882" lon="2.92913">
        <ele>1033.8</ele>
        <time>2021-07-20T15:19:05Z</time>
      </trkpt>
      <trkpt lat="45.59876" lon="2.92912">
        <ele>1034.1</ele>
        <time>2021-07-20T15:19:07Z</time>
      </trkpt>
      <trkpt lat="45.59869" lon="2.92911">
        <ele>1034.4</ele>
        <time>2021-07-20T15:19:09Z</time>
      </trkpt>
      <trkpt lat="45.59863" lon="2.92909">
        <ele>1034.8</ele>
        <time>2021-07-20T15:19:11Z</time>
      </trkpt>
      <trkpt lat="45.59857" lon="2.92908">
        <ele>1035.1</ele>
        <time>2021-07-20T15:19:13Z</time>
      </trkpt>
      <trkpt lat="45.59851" lon="2.92906">
        <ele>1035.4</ele>
        <time>2021-07-20T15:19:15Z</time>
      </trkpt>
      <trkpt lat="45.59845" lon="2.92906">
        <ele>1035.7</ele>
        <time>2021-07-20T15:19:17Z</time>
      </trkpt>
      <trkpt lat="45.5984" lon="2.92906">
        <ele>1036</ele>
        <time>2021-07-20T15:19:19Z</time>
      </trkpt>
      <trkpt lat="45.59834" lon="2.92905">
        <ele>1036.3</ele>
        <time>2021-07-20T15:19:21Z</time>
      </trkpt>
      <trkpt lat="45.59828" lon="2.92904">
        <ele>1036.2</ele>
        <time>2021-07-20T15:19:23Z</time>
      </trkpt>
      <trkpt lat="45.59822" lon="2.92903">
        <ele>1036.1</ele>
        <time>2021-07-20T15:19:25Z</time>
      </trkpt>
      <trkpt lat="45.59817" lon="2.92902">
        <ele>1036</ele>
        <time>2021-07-20T15:19:27Z</time>
      </trkpt>
      <trkpt lat="45.59808" lon="2.92901">
        <ele>1035.9</ele>
        <time>2021-07-20T15:19:31Z</time>
      </trkpt>
      <trkpt lat="45.59802" lon="2.929">
        <ele>1035.8</ele>
        <time>2021-07-20T15:19:33Z</time>
      </trkpt>
      <trkpt lat="45.59795" lon="2.92899">
        <ele>1035.7</ele>
        <time>2021-07-20T15:19:35Z</time>
      </trkpt>
      <trkpt lat="45.59787" lon="2.92899">
        <ele>1035.5</ele>
        <time>2021-07-20T15:19:37Z</time>
      </trkpt>
      <trkpt lat="45.59778" lon="2.929">
        <ele>1035.3</ele>
        <time>2021-07-20T15:19:39Z</time>
      </trkpt>
      <trkpt lat="45.59769" lon="2.92899">
        <ele>1035.2</ele>
        <time>2021-07-20T15:19:41Z</time>
      </trkpt>
      <trkpt lat="45.5976" lon="2.92893">
        <ele>1035.3</ele>
        <time>2021-07-20T15:19:43Z</time>
      </trkpt>
      <trkpt lat="45.59751" lon="2.92887">
        <ele>1035.4</ele>
        <time>2021-07-20T15:19:45Z</time>
      </trkpt>
      <trkpt lat="45.59741" lon="2.92881">
        <ele>1035.3</ele>
        <time>2021-07-20T15:19:47Z</time>
      </trkpt>
      <trkpt lat="45.59732" lon="2.92873">
        <ele>1035.1</ele>
        <time>2021-07-20T15:19:49Z</time>
      </trkpt>
      <trkpt lat="45.59724" lon="2.92867">
        <ele>1034.9</ele>
        <time>2021-07-20T15:19:51Z</time>
      </trkpt>
      <trkpt lat="45.59716" lon="2.92862">
        <ele>1034.7</ele>
        <time>2021-07-20T15:19:53Z</time>
      </trkpt>
      <trkpt lat="45.59711" lon="2.92857">
        <ele>1034.7</ele>
        <time>2021-07-20T15:19:55Z</time>
      </trkpt>
      <trkpt lat="45.59705" lon="2.92852">
        <ele>1034.5</ele>
        <time>2021-07-20T15:19:57Z</time>
      </trkpt>
      <trkpt lat="45.59699" lon="2.92848">
        <ele>1034.3</ele>
        <time>2021-07-20T15:19:59Z</time>
      </trkpt>
      <trkpt lat="45.59693" lon="2.92846">
        <ele>1034</ele>
        <time>2021-07-20T15:20:01Z</time>
      </trkpt>
      <trkpt lat="45.59687" lon="2.92845">
        <ele>1033.8</ele>
        <time>2021-07-20T15:20:03Z</time>
      </trkpt>
      <trkpt lat="45.59682" lon="2.92842">
        <ele>1033.6</ele>
        <time>2021-07-20T15:20:05Z</time>
      </trkpt>
      <trkpt lat="45.59678" lon="2.92838">
        <ele>1033.5</ele>
        <time>2021-07-20T15:20:07Z</time>
      </trkpt>
      <trkpt lat="45.5967" lon="2.92833">
        <ele>1033.2</ele>
        <time>2021-07-20T15:20:11Z</time>
      </trkpt>
      <trkpt lat="45.59663" lon="2.92832">
        <ele>1033.2</ele>
        <time>2021-07-20T15:20:13Z</time>
      </trkpt>
      <trkpt lat="45.59656" lon="2.92836">
        <ele>1033.4</ele>
        <time>2021-07-20T15:20:15Z</time>
      </trkpt>
      <trkpt lat="45.59651" lon="2.92843">
        <ele>1033.5</ele>
        <time>2021-07-20T15:20:17Z</time>
      </trkpt>
      <trkpt lat="45.59646" lon="2.9285">
        <ele>1033.6</ele>
        <time>2021-07-20T15:20:19Z</time>
      </trkpt>
      <trkpt lat="45.59641" lon="2.92856">
        <ele>1033.8</ele>
        <time>2021-07-20T15:20:21Z</time>
      </trkpt>
      <trkpt lat="45.59635" lon="2.9286">
        <ele>1034.2</ele>
        <time>2021-07-20T15:20:23Z</time>
      </trkpt>
      <trkpt lat="45.5963" lon="2.92861">
        <ele>1034.5</ele>
        <time>2021-07-20T15:20:25Z</time>
      </trkpt>
      <trkpt lat="45.59625" lon="2.92861">
        <ele>1034.8</ele>
        <time>2021-07-20T15:20:27Z</time>
      </trkpt>
      <trkpt lat="45.59619" lon="2.9286">
        <ele>1035.2</ele>
        <time>2021-07-20T15:20:31Z</time>
      </trkpt>
      <trkpt lat="45.59616" lon="2.92853">
        <ele>1035.5</ele>
        <time>2021-07-20T15:23:53Z</time>
      </trkpt>
      <trkpt lat="45.59614" lon="2.92846">
        <ele>1035.6</ele>
        <time>2021-07-20T15:23:57Z</time>
      </trkpt>
      <trkpt lat="45.59612" lon="2.92838">
        <ele>1035.7</ele>
        <time>2021-07-20T15:24:01Z</time>
      </trkpt>
      <trkpt lat="45.59608" lon="2.92831">
        <ele>1035.9</ele>
        <time>2021-07-20T15:24:05Z</time>
      </trkpt>
      <trkpt lat="45.59604" lon="2.92825">
        <ele>1036.1</ele>
        <time>2021-07-20T15:24:09Z</time>
      </trkpt>
      <trkpt lat="45.596" lon="2.9282">
        <ele>1036.3</ele>
        <time>2021-07-20T15:24:13Z</time>
      </trkpt>
      <trkpt lat="45.59597" lon="2.92812">
        <ele>1036.5</ele>
        <time>2021-07-20T15:24:19Z</time>
      </trkpt>
      <trkpt lat="45.59594" lon="2.92805">
        <ele>1036.6</ele>
        <time>2021-07-20T15:24:23Z</time>
      </trkpt>
      <trkpt lat="45.59591" lon="2.92799">
        <ele>1036.7</ele>
        <time>2021-07-20T15:24:27Z</time>
      </trkpt>
      <trkpt lat="45.59587" lon="2.92792">
        <ele>1036.9</ele>
        <time>2021-07-20T15:24:31Z</time>
      </trkpt>
      <trkpt lat="45.59584" lon="2.92785">
        <ele>1037</ele>
        <time>2021-07-20T15:24:35Z</time>
      </trkpt>
      <trkpt lat="45.5958" lon="2.92778">
        <ele>1037.2</ele>
        <time>2021-07-20T15:24:39Z</time>
      </trkpt>
      <trkpt lat="45.59577" lon="2.9277">
        <ele>1037.3</ele>
        <time>2021-07-20T15:24:43Z</time>
      </trkpt>
      <trkpt lat="45.59573" lon="2.92762">
        <ele>1037.5</ele>
        <time>2021-07-20T15:24:47Z</time>
      </trkpt>
      <trkpt lat="45.59567" lon="2.92754">
        <ele>1037.8</ele>
        <time>2021-07-20T15:24:51Z</time>
      </trkpt>
      <trkpt lat="45.59562" lon="2.92746">
        <ele>1038</ele>
        <time>2021-07-20T15:24:55Z</time>
      </trkpt>
      <trkpt lat="45.59557" lon="2.92738">
        <ele>1038.2</ele>
        <time>2021-07-20T15:24:59Z</time>
      </trkpt>
      <trkpt lat="45.59551" lon="2.92729">
        <ele>1038.4</ele>
        <time>2021-07-20T15:25:03Z</time>
      </trkpt>
      <trkpt lat="45.59545" lon="2.92722">
        <ele>1038.5</ele>
        <time>2021-07-20T15:25:07Z</time>
      </trkpt>
      <trkpt lat="45.5954" lon="2.92712">
        <ele>1038.6</ele>
        <time>2021-07-20T15:25:11Z</time>
      </trkpt>
      <trkpt lat="45.59536" lon="2.92703">
        <ele>1038.6</ele>
        <time>2021-07-20T15:25:15Z</time>
      </trkpt>
      <trkpt lat="45.5953" lon="2.92694">
        <ele>1038.5</ele>
        <time>2021-07-20T15:25:19Z</time>
      </trkpt>
      <trkpt lat="45.59525" lon="2.92684">
        <ele>1038.4</ele>
        <time>2021-07-20T15:25:23Z</time>
      </trkpt>
      <trkpt lat="45.59521" lon="2.92674">
        <ele>1038.2</ele>
        <time>2021-07-20T15:25:27Z</time>
      </trkpt>
      <trkpt lat="45.59517" lon="2.92664">
        <ele>1038</ele>
        <time>2021-07-20T15:25:31Z</time>
      </trkpt>
      <trkpt lat="45.59514" lon="2.92656">
        <ele>1038.2</ele>
        <time>2021-07-20T15:25:35Z</time>
      </trkpt>
      <trkpt lat="45.5951" lon="2.92645">
        <ele>1038.5</ele>
        <time>2021-07-20T15:25:39Z</time>
      </trkpt>
      <trkpt lat="45.59505" lon="2.92638">
        <ele>1038.7</ele>
        <time>2021-07-20T15:25:43Z</time>
      </trkpt>
      <trkpt lat="45.59501" lon="2.92628">
        <ele>1038.9</ele>
        <time>2021-07-20T15:25:47Z</time>
      </trkpt>
      <trkpt lat="45.59495" lon="2.92619">
        <ele>1039.3</ele>
        <time>2021-07-20T15:25:51Z</time>
      </trkpt>
      <trkpt lat="45.59489" lon="2.92612">
        <ele>1039.7</ele>
        <time>2021-07-20T15:25:55Z</time>
      </trkpt>
      <trkpt lat="45.59483" lon="2.92605">
        <ele>1040</ele>
        <time>2021-07-20T15:25:59Z</time>
      </trkpt>
      <trkpt lat="45.59477" lon="2.92599">
        <ele>1040.3</ele>
        <time>2021-07-20T15:26:03Z</time>
      </trkpt>
      <trkpt lat="45.59471" lon="2.92593">
        <ele>1040.5</ele>
        <time>2021-07-20T15:26:07Z</time>
      </trkpt>
      <trkpt lat="45.59465" lon="2.92586">
        <ele>1040.8</ele>
        <time>2021-07-20T15:26:11Z</time>
      </trkpt>
      <trkpt lat="45.59459" lon="2.92579">
        <ele>1041.1</ele>
        <time>2021-07-20T15:26:15Z</time>
      </trkpt>
      <trkpt lat="45.59454" lon="2.92569">
        <ele>1041.4</ele>
        <time>2021-07-20T15:26:19Z</time>
      </trkpt>
      <trkpt lat="45.5945" lon="2.92559">
        <ele>1041.7</ele>
        <time>2021-07-20T15:26:23Z</time>
      </trkpt>
      <trkpt lat="45.59447" lon="2.92549">
        <ele>1041.9</ele>
        <time>2021-07-20T15:26:27Z</time>
      </trkpt>
      <trkpt lat="45.59444" lon="2.92537">
        <ele>1042.3</ele>
        <time>2021-07-20T15:26:31Z</time>
      </trkpt>
      <trkpt lat="45.5944" lon="2.92526">
        <ele>1042.6</ele>
        <time>2021-07-20T15:26:35Z</time>
      </trkpt>
      <trkpt lat="45.59437" lon="2.92515">
        <ele>1042.9</ele>
        <time>2021-07-20T15:26:39Z</time>
      </trkpt>
      <trkpt lat="45.59435" lon="2.92509">
        <ele>1043.1</ele>
        <time>2021-07-20T15:26:41Z</time>
      </trkpt>
      <trkpt lat="45.59432" lon="2.92497">
        <ele>1043.5</ele>
        <time>2021-07-20T15:26:45Z</time>
      </trkpt>
      <trkpt lat="45.59428" lon="2.92486">
        <ele>1043.6</ele>
        <time>2021-07-20T15:26:49Z</time>
      </trkpt>
      <trkpt lat="45.59425" lon="2.92481">
        <ele>1043.7</ele>
        <time>2021-07-20T15:26:51Z</time>
      </trkpt>
      <trkpt lat="45.59423" lon="2.92475">
        <ele>1043.8</ele>
        <time>2021-07-20T15:26:53Z</time>
      </trkpt>
      <trkpt lat="45.59417" lon="2.92465">
        <ele>1044</ele>
        <time>2021-07-20T15:26:57Z</time>
      </trkpt>
      <trkpt lat="45.59414" lon="2.92459">
        <ele>1044.1</ele>
        <time>2021-07-20T15:26:59Z</time>
      </trkpt>
      <trkpt lat="45.59408" lon="2.92451">
        <ele>1044.3</ele>
        <time>2021-07-20T15:27:03Z</time>
      </trkpt>
      <trkpt lat="45.59404" lon="2.92446">
        <ele>1044.4</ele>
        <time>2021-07-20T15:27:05Z</time>
      </trkpt>
      <trkpt lat="45.594" lon="2.92442">
        <ele>1044.4</ele>
        <time>2021-07-20T15:27:07Z</time>
      </trkpt>
      <trkpt lat="45.59397" lon="2.92437">
        <ele>1044.5</ele>
        <time>2021-07-20T15:27:09Z</time>
      </trkpt>
      <trkpt lat="45.59393" lon="2.92432">
        <ele>1044.6</ele>
        <time>2021-07-20T15:27:11Z</time>
      </trkpt>
      <trkpt lat="45.59389" lon="2.92428">
        <ele>1044.7</ele>
        <time>2021-07-20T15:27:13Z</time>
      </trkpt>
      <trkpt lat="45.59386" lon="2.92423">
        <ele>1044.8</ele>
        <time>2021-07-20T15:27:15Z</time>
      </trkpt>
      <trkpt lat="45.5938" lon="2.92416">
        <ele>1044.9</ele>
        <time>2021-07-20T15:27:19Z</time>
      </trkpt>
      <trkpt lat="45.59375" lon="2.92406">
        <ele>1045.2</ele>
        <time>2021-07-20T15:27:23Z</time>
      </trkpt>
      <trkpt lat="45.59372" lon="2.924">
        <ele>1045.4</ele>
        <time>2021-07-20T15:27:25Z</time>
      </trkpt>
      <trkpt lat="45.59369" lon="2.92395">
        <ele>1045.5</ele>
        <time>2021-07-20T15:27:27Z</time>
      </trkpt>
      <trkpt lat="45.59367" lon="2.92389">
        <ele>1045.7</ele>
        <time>2021-07-20T15:27:29Z</time>
      </trkpt>
      <trkpt lat="45.59363" lon="2.92378">
        <ele>1046.1</ele>
        <time>2021-07-20T15:27:33Z</time>
      </trkpt>
      <trkpt lat="45.59359" lon="2.92366">
        <ele>1046.4</ele>
        <time>2021-07-20T15:27:37Z</time>
      </trkpt>
      <trkpt lat="45.59356" lon="2.92355">
        <ele>1046.7</ele>
        <time>2021-07-20T15:27:41Z</time>
      </trkpt>
      <trkpt lat="45.59353" lon="2.92349">
        <ele>1046.9</ele>
        <time>2021-07-20T15:27:43Z</time>
      </trkpt>
      <trkpt lat="45.5935" lon="2.92338">
        <ele>1047.3</ele>
        <time>2021-07-20T15:27:47Z</time>
      </trkpt>
      <trkpt lat="45.59348" lon="2.92332">
        <ele>1047.5</ele>
        <time>2021-07-20T15:27:49Z</time>
      </trkpt>
      <trkpt lat="45.59345" lon="2.92321">
        <ele>1048.4</ele>
        <time>2021-07-20T15:27:53Z</time>
      </trkpt>
      <trkpt lat="45.59341" lon="2.92311">
        <ele>1049.2</ele>
        <time>2021-07-20T15:27:57Z</time>
      </trkpt>
      <trkpt lat="45.59339" lon="2.923">
        <ele>1050.1</ele>
        <time>2021-07-20T15:28:01Z</time>
      </trkpt>
      <trkpt lat="45.59335" lon="2.92289">
        <ele>1051.1</ele>
        <time>2021-07-20T15:28:05Z</time>
      </trkpt>
      <trkpt lat="45.59332" lon="2.92279">
        <ele>1052</ele>
        <time>2021-07-20T15:28:09Z</time>
      </trkpt>
      <trkpt lat="45.59328" lon="2.92269">
        <ele>1052.8</ele>
        <time>2021-07-20T15:28:13Z</time>
      </trkpt>
      <trkpt lat="45.59324" lon="2.92258">
        <ele>1053.6</ele>
        <time>2021-07-20T15:28:17Z</time>
      </trkpt>
      <trkpt lat="45.5932" lon="2.92248">
        <ele>1054.2</ele>
        <time>2021-07-20T15:28:21Z</time>
      </trkpt>
      <trkpt lat="45.59317" lon="2.92237">
        <ele>1054.4</ele>
        <time>2021-07-20T15:28:25Z</time>
      </trkpt>
      <trkpt lat="45.59312" lon="2.92226">
        <ele>1054.5</ele>
        <time>2021-07-20T15:28:29Z</time>
      </trkpt>
      <trkpt lat="45.5931" lon="2.9222">
        <ele>1054.6</ele>
        <time>2021-07-20T15:28:31Z</time>
      </trkpt>
      <trkpt lat="45.59305" lon="2.92209">
        <ele>1054.8</ele>
        <time>2021-07-20T15:28:35Z</time>
      </trkpt>
      <trkpt lat="45.59301" lon="2.92203">
        <ele>1055</ele>
        <time>2021-07-20T15:28:37Z</time>
      </trkpt>
      <trkpt lat="45.59297" lon="2.92197">
        <ele>1055.1</ele>
        <time>2021-07-20T15:28:39Z</time>
      </trkpt>
      <trkpt lat="45.59292" lon="2.92193">
        <ele>1055.2</ele>
        <time>2021-07-20T15:28:41Z</time>
      </trkpt>
      <trkpt lat="45.59285" lon="2.92189">
        <ele>1055.3</ele>
        <time>2021-07-20T15:28:43Z</time>
      </trkpt>
      <trkpt lat="45.5928" lon="2.92185">
        <ele>1055.4</ele>
        <time>2021-07-20T15:28:45Z</time>
      </trkpt>
      <trkpt lat="45.59274" lon="2.92185">
        <ele>1055.5</ele>
        <time>2021-07-20T15:28:47Z</time>
      </trkpt>
      <trkpt lat="45.59269" lon="2.92185">
        <ele>1055.6</ele>
        <time>2021-07-20T15:28:49Z</time>
      </trkpt>
      <trkpt lat="45.59263" lon="2.92185">
        <ele>1055.6</ele>
        <time>2021-07-20T15:28:51Z</time>
      </trkpt>
      <trkpt lat="45.59257" lon="2.92184">
        <ele>1055.7</ele>
        <time>2021-07-20T15:28:53Z</time>
      </trkpt>
      <trkpt lat="45.5925" lon="2.92181">
        <ele>1055.8</ele>
        <time>2021-07-20T15:28:55Z</time>
      </trkpt>
      <trkpt lat="45.59242" lon="2.9218">
        <ele>1055.1</ele>
        <time>2021-07-20T15:28:57Z</time>
      </trkpt>
      <trkpt lat="45.59233" lon="2.9218">
        <ele>1054.3</ele>
        <time>2021-07-20T15:28:59Z</time>
      </trkpt>
      <trkpt lat="45.59224" lon="2.92177">
        <ele>1053.4</ele>
        <time>2021-07-20T15:29:01Z</time>
      </trkpt>
      <trkpt lat="45.59214" lon="2.92172">
        <ele>1052.5</ele>
        <time>2021-07-20T15:29:03Z</time>
      </trkpt>
      <trkpt lat="45.59203" lon="2.92164">
        <ele>1051.5</ele>
        <time>2021-07-20T15:29:05Z</time>
      </trkpt>
      <trkpt lat="45.59191" lon="2.92153">
        <ele>1050.5</ele>
        <time>2021-07-20T15:29:07Z</time>
      </trkpt>
      <trkpt lat="45.5918" lon="2.92134">
        <ele>1049.7</ele>
        <time>2021-07-20T15:29:09Z</time>
      </trkpt>
      <trkpt lat="45.59172" lon="2.92111">
        <ele>1049.2</ele>
        <time>2021-07-20T15:29:11Z</time>
      </trkpt>
      <trkpt lat="45.59164" lon="2.92086">
        <ele>1048.5</ele>
        <time>2021-07-20T15:29:13Z</time>
      </trkpt>
      <trkpt lat="45.59156" lon="2.9206">
        <ele>1048</ele>
        <time>2021-07-20T15:29:15Z</time>
      </trkpt>
      <trkpt lat="45.59148" lon="2.92034">
        <ele>1047.5</ele>
        <time>2021-07-20T15:29:17Z</time>
      </trkpt>
      <trkpt lat="45.59139" lon="2.92009">
        <ele>1046.7</ele>
        <time>2021-07-20T15:29:19Z</time>
      </trkpt>
      <trkpt lat="45.5913" lon="2.91986">
        <ele>1046.4</ele>
        <time>2021-07-20T15:29:21Z</time>
      </trkpt>
      <trkpt lat="45.59122" lon="2.91965">
        <ele>1046.4</ele>
        <time>2021-07-20T15:29:23Z</time>
      </trkpt>
      <trkpt lat="45.59115" lon="2.91949">
        <ele>1046.3</ele>
        <time>2021-07-20T15:29:25Z</time>
      </trkpt>
      <trkpt lat="45.59109" lon="2.91934">
        <ele>1046.1</ele>
        <time>2021-07-20T15:29:27Z</time>
      </trkpt>
      <trkpt lat="45.59099" lon="2.91921">
        <ele>1045.3</ele>
        <time>2021-07-20T15:29:29Z</time>
      </trkpt>
      <trkpt lat="45.59089" lon="2.91907">
        <ele>1043.9</ele>
        <time>2021-07-20T15:29:31Z</time>
      </trkpt>
      <trkpt lat="45.59076" lon="2.91893">
        <ele>1042.4</ele>
        <time>2021-07-20T15:29:33Z</time>
      </trkpt>
      <trkpt lat="45.59064" lon="2.91879">
        <ele>1041.5</ele>
        <time>2021-07-20T15:29:35Z</time>
      </trkpt>
      <trkpt lat="45.59054" lon="2.91862">
        <ele>1040.9</ele>
        <time>2021-07-20T15:29:37Z</time>
      </trkpt>
      <trkpt lat="45.59048" lon="2.91841">
        <ele>1040.8</ele>
        <time>2021-07-20T15:29:39Z</time>
      </trkpt>
      <trkpt lat="45.59047" lon="2.91821">
        <ele>1041.1</ele>
        <time>2021-07-20T15:29:41Z</time>
      </trkpt>
      <trkpt lat="45.59047" lon="2.91803">
        <ele>1041.4</ele>
        <time>2021-07-20T15:29:43Z</time>
      </trkpt>
      <trkpt lat="45.59047" lon="2.91791">
        <ele>1041.6</ele>
        <time>2021-07-20T15:29:45Z</time>
      </trkpt>
      <trkpt lat="45.59045" lon="2.91782">
        <ele>1041.7</ele>
        <time>2021-07-20T15:29:47Z</time>
      </trkpt>
      <trkpt lat="45.59041" lon="2.91778">
        <ele>1041.4</ele>
        <time>2021-07-20T15:29:49Z</time>
      </trkpt>
      <trkpt lat="45.59034" lon="2.91777">
        <ele>1041</ele>
        <time>2021-07-20T15:29:51Z</time>
      </trkpt>
      <trkpt lat="45.59028" lon="2.91778">
        <ele>1040.6</ele>
        <time>2021-07-20T15:29:53Z</time>
      </trkpt>
      <trkpt lat="45.59022" lon="2.9178">
        <ele>1040.2</ele>
        <time>2021-07-20T15:32:35Z</time>
      </trkpt>
      <trkpt lat="45.59012" lon="2.91782">
        <ele>1039.4</ele>
        <time>2021-07-20T15:32:39Z</time>
      </trkpt>
      <trkpt lat="45.59004" lon="2.91782">
        <ele>1038.9</ele>
        <time>2021-07-20T15:32:41Z</time>
      </trkpt>
      <trkpt lat="45.58996" lon="2.91782">
        <ele>1038.7</ele>
        <time>2021-07-20T15:32:43Z</time>
      </trkpt>
      <trkpt lat="45.58987" lon="2.91783">
        <ele>1038.8</ele>
        <time>2021-07-20T15:32:45Z</time>
      </trkpt>
      <trkpt lat="45.58978" lon="2.91784">
        <ele>1038.9</ele>
        <time>2021-07-20T15:32:47Z</time>
      </trkpt>
      <trkpt lat="45.58968" lon="2.91783">
        <ele>1039.1</ele>
        <time>2021-07-20T15:32:49Z</time>
      </trkpt>
      <trkpt lat="45.58958" lon="2.91781">
        <ele>1039.3</ele>
        <time>2021-07-20T15:32:51Z</time>
      </trkpt>
      <trkpt lat="45.5895" lon="2.9178">
        <ele>1039.4</ele>
        <time>2021-07-20T15:32:53Z</time>
      </trkpt>
      <trkpt lat="45.58943" lon="2.91778">
        <ele>1039.6</ele>
        <time>2021-07-20T15:32:55Z</time>
      </trkpt>
      <trkpt lat="45.58937" lon="2.91775">
        <ele>1039.8</ele>
        <time>2021-07-20T15:32:57Z</time>
      </trkpt>
      <trkpt lat="45.58932" lon="2.91773">
        <ele>1039.9</ele>
        <time>2021-07-20T15:32:59Z</time>
      </trkpt>
      <trkpt lat="45.58928" lon="2.91775">
        <ele>1039.9</ele>
        <time>2021-07-20T15:33:01Z</time>
      </trkpt>
      <trkpt lat="45.58923" lon="2.91779">
        <ele>1039.9</ele>
        <time>2021-07-20T15:33:03Z</time>
      </trkpt>
      <trkpt lat="45.58919" lon="2.91783">
        <ele>1039.8</ele>
        <time>2021-07-20T15:33:05Z</time>
      </trkpt>
      <trkpt lat="45.58916" lon="2.91788">
        <ele>1039.7</ele>
        <time>2021-07-20T15:33:07Z</time>
      </trkpt>
      <trkpt lat="45.58911" lon="2.91798">
        <ele>1039.8</ele>
        <time>2021-07-20T15:33:11Z</time>
      </trkpt>
      <trkpt lat="45.58909" lon="2.91804">
        <ele>1039.8</ele>
        <time>2021-07-20T15:33:13Z</time>
      </trkpt>
      <trkpt lat="45.58902" lon="2.91808">
        <ele>1040.3</ele>
        <time>2021-07-20T15:33:17Z</time>
      </trkpt>
      <trkpt lat="45.58895" lon="2.91808">
        <ele>1041</ele>
        <time>2021-07-20T15:33:21Z</time>
      </trkpt>
      <trkpt lat="45.58888" lon="2.91804">
        <ele>1041.8</ele>
        <time>2021-07-20T15:33:25Z</time>
      </trkpt>
      <trkpt lat="45.58882" lon="2.918">
        <ele>1042.4</ele>
        <time>2021-07-20T15:33:29Z</time>
      </trkpt>
      <trkpt lat="45.58877" lon="2.91796">
        <ele>1043</ele>
        <time>2021-07-20T15:33:33Z</time>
      </trkpt>
      <trkpt lat="45.5887" lon="2.91793">
        <ele>1043.7</ele>
        <time>2021-07-20T15:33:37Z</time>
      </trkpt>
      <trkpt lat="45.58864" lon="2.9179">
        <ele>1044.3</ele>
        <time>2021-07-20T15:33:41Z</time>
      </trkpt>
      <trkpt lat="45.58858" lon="2.91787">
        <ele>1044.9</ele>
        <time>2021-07-20T15:33:45Z</time>
      </trkpt>
      <trkpt lat="45.58851" lon="2.91785">
        <ele>1045.4</ele>
        <time>2021-07-20T15:33:49Z</time>
      </trkpt>
      <trkpt lat="45.58845" lon="2.91783">
        <ele>1046</ele>
        <time>2021-07-20T15:33:53Z</time>
      </trkpt>
      <trkpt lat="45.58838" lon="2.91781">
        <ele>1046.6</ele>
        <time>2021-07-20T15:33:57Z</time>
      </trkpt>
      <trkpt lat="45.58831" lon="2.91779">
        <ele>1047</ele>
        <time>2021-07-20T15:34:01Z</time>
      </trkpt>
      <trkpt lat="45.58824" lon="2.91777">
        <ele>1047.2</ele>
        <time>2021-07-20T15:34:05Z</time>
      </trkpt>
      <trkpt lat="45.58817" lon="2.91775">
        <ele>1047.4</ele>
        <time>2021-07-20T15:34:09Z</time>
      </trkpt>
      <trkpt lat="45.58808" lon="2.91772">
        <ele>1047.7</ele>
        <time>2021-07-20T15:34:13Z</time>
      </trkpt>
      <trkpt lat="45.588" lon="2.91771">
        <ele>1047.9</ele>
        <time>2021-07-20T15:34:17Z</time>
      </trkpt>
      <trkpt lat="45.58791" lon="2.91772">
        <ele>1048.1</ele>
        <time>2021-07-20T15:34:21Z</time>
      </trkpt>
      <trkpt lat="45.58786" lon="2.91772">
        <ele>1048.2</ele>
        <time>2021-07-20T15:34:23Z</time>
      </trkpt>
      <trkpt lat="45.58781" lon="2.91772">
        <ele>1048.4</ele>
        <time>2021-07-20T15:34:25Z</time>
      </trkpt>
      <trkpt lat="45.58775" lon="2.91772">
        <ele>1048.5</ele>
        <time>2021-07-20T15:34:27Z</time>
      </trkpt>
      <trkpt lat="45.58769" lon="2.91772">
        <ele>1048.7</ele>
        <time>2021-07-20T15:34:29Z</time>
      </trkpt>
      <trkpt lat="45.58763" lon="2.91776">
        <ele>1048.8</ele>
        <time>2021-07-20T15:34:31Z</time>
      </trkpt>
      <trkpt lat="45.58757" lon="2.91781">
        <ele>1048.7</ele>
        <time>2021-07-20T15:34:33Z</time>
      </trkpt>
      <trkpt lat="45.58751" lon="2.91785">
        <ele>1048.7</ele>
        <time>2021-07-20T15:34:35Z</time>
      </trkpt>
      <trkpt lat="45.58744" lon="2.9179">
        <ele>1048.8</ele>
        <time>2021-07-20T15:34:37Z</time>
      </trkpt>
      <trkpt lat="45.58737" lon="2.91795">
        <ele>1048.8</ele>
        <time>2021-07-20T15:34:39Z</time>
      </trkpt>
      <trkpt lat="45.58729" lon="2.91799">
        <ele>1048.8</ele>
        <time>2021-07-20T15:34:41Z</time>
      </trkpt>
      <trkpt lat="45.58721" lon="2.91804">
        <ele>1048.9</ele>
        <time>2021-07-20T15:34:43Z</time>
      </trkpt>
      <trkpt lat="45.58713" lon="2.91807">
        <ele>1049</ele>
        <time>2021-07-20T15:34:45Z</time>
      </trkpt>
      <trkpt lat="45.58705" lon="2.91812">
        <ele>1049</ele>
        <time>2021-07-20T15:34:47Z</time>
      </trkpt>
      <trkpt lat="45.58696" lon="2.91816">
        <ele>1049</ele>
        <time>2021-07-20T15:34:49Z</time>
      </trkpt>
      <trkpt lat="45.58688" lon="2.9182">
        <ele>1049.1</ele>
        <time>2021-07-20T15:34:51Z</time>
      </trkpt>
      <trkpt lat="45.5868" lon="2.91825">
        <ele>1049.1</ele>
        <time>2021-07-20T15:34:53Z</time>
      </trkpt>
      <trkpt lat="45.58673" lon="2.91828">
        <ele>1049.1</ele>
        <time>2021-07-20T15:34:55Z</time>
      </trkpt>
      <trkpt lat="45.58667" lon="2.91831">
        <ele>1049.1</ele>
        <time>2021-07-20T15:34:57Z</time>
      </trkpt>
      <trkpt lat="45.58661" lon="2.91834">
        <ele>1049.2</ele>
        <time>2021-07-20T15:34:59Z</time>
      </trkpt>
      <trkpt lat="45.58654" lon="2.91838">
        <ele>1049.4</ele>
        <time>2021-07-20T15:35:01Z</time>
      </trkpt>
      <trkpt lat="45.58647" lon="2.91842">
        <ele>1049.5</ele>
        <time>2021-07-20T15:35:03Z</time>
      </trkpt>
      <trkpt lat="45.5864" lon="2.91845">
        <ele>1049.7</ele>
        <time>2021-07-20T15:35:05Z</time>
      </trkpt>
      <trkpt lat="45.58633" lon="2.91849">
        <ele>1049.9</ele>
        <time>2021-07-20T15:35:07Z</time>
      </trkpt>
      <trkpt lat="45.58625" lon="2.91852">
        <ele>1050.1</ele>
        <time>2021-07-20T15:35:09Z</time>
      </trkpt>
      <trkpt lat="45.58618" lon="2.91856">
        <ele>1050.4</ele>
        <time>2021-07-20T15:35:11Z</time>
      </trkpt>
      <trkpt lat="45.5861" lon="2.9186">
        <ele>1050.6</ele>
        <time>2021-07-20T15:35:13Z</time>
      </trkpt>
      <trkpt lat="45.58603" lon="2.91864">
        <ele>1050.8</ele>
        <time>2021-07-20T15:35:15Z</time>
      </trkpt>
      <trkpt lat="45.58596" lon="2.91868">
        <ele>1051.1</ele>
        <time>2021-07-20T15:35:17Z</time>
      </trkpt>
      <trkpt lat="45.58589" lon="2.91871">
        <ele>1051.3</ele>
        <time>2021-07-20T15:35:19Z</time>
      </trkpt>
      <trkpt lat="45.58582" lon="2.91873">
        <ele>1051.6</ele>
        <time>2021-07-20T15:35:21Z</time>
      </trkpt>
      <trkpt lat="45.58575" lon="2.91876">
        <ele>1052</ele>
        <time>2021-07-20T15:35:23Z</time>
      </trkpt>
      <trkpt lat="45.58567" lon="2.91879">
        <ele>1052.3</ele>
        <time>2021-07-20T15:35:25Z</time>
      </trkpt>
      <trkpt lat="45.5856" lon="2.91881">
        <ele>1052.6</ele>
        <time>2021-07-20T15:35:27Z</time>
      </trkpt>
      <trkpt lat="45.58553" lon="2.91883">
        <ele>1052.9</ele>
        <time>2021-07-20T15:35:29Z</time>
      </trkpt>
      <trkpt lat="45.58546" lon="2.91884">
        <ele>1053.2</ele>
        <time>2021-07-20T15:35:31Z</time>
      </trkpt>
      <trkpt lat="45.58539" lon="2.91885">
        <ele>1053.6</ele>
        <time>2021-07-20T15:35:33Z</time>
      </trkpt>
      <trkpt lat="45.58533" lon="2.91884">
        <ele>1053.9</ele>
        <time>2021-07-20T15:35:35Z</time>
      </trkpt>
      <trkpt lat="45.58527" lon="2.91882">
        <ele>1054.3</ele>
        <time>2021-07-20T15:35:37Z</time>
      </trkpt>
      <trkpt lat="45.58521" lon="2.9188">
        <ele>1054.7</ele>
        <time>2021-07-20T15:35:39Z</time>
      </trkpt>
      <trkpt lat="45.58516" lon="2.91878">
        <ele>1055</ele>
        <time>2021-07-20T15:35:41Z</time>
      </trkpt>
      <trkpt lat="45.58511" lon="2.91876">
        <ele>1055.4</ele>
        <time>2021-07-20T15:35:43Z</time>
      </trkpt>
      <trkpt lat="45.58506" lon="2.91875">
        <ele>1055.7</ele>
        <time>2021-07-20T15:35:45Z</time>
      </trkpt>
      <trkpt lat="45.58501" lon="2.91873">
        <ele>1056</ele>
        <time>2021-07-20T15:35:47Z</time>
      </trkpt>
      <trkpt lat="45.58495" lon="2.9187">
        <ele>1055.9</ele>
        <time>2021-07-20T15:35:49Z</time>
      </trkpt>
      <trkpt lat="45.58489" lon="2.91867">
        <ele>1055.7</ele>
        <time>2021-07-20T15:35:51Z</time>
      </trkpt>
      <trkpt lat="45.58481" lon="2.91864">
        <ele>1055.3</ele>
        <time>2021-07-20T15:35:53Z</time>
      </trkpt>
      <trkpt lat="45.58473" lon="2.9186">
        <ele>1055</ele>
        <time>2021-07-20T15:35:55Z</time>
      </trkpt>
      <trkpt lat="45.58463" lon="2.91856">
        <ele>1054.6</ele>
        <time>2021-07-20T15:35:57Z</time>
      </trkpt>
      <trkpt lat="45.58454" lon="2.91852">
        <ele>1054.2</ele>
        <time>2021-07-20T15:35:59Z</time>
      </trkpt>
      <trkpt lat="45.58446" lon="2.91848">
        <ele>1054</ele>
        <time>2021-07-20T15:36:01Z</time>
      </trkpt>
      <trkpt lat="45.58439" lon="2.91844">
        <ele>1053.7</ele>
        <time>2021-07-20T15:36:03Z</time>
      </trkpt>
      <trkpt lat="45.58432" lon="2.91842">
        <ele>1053.4</ele>
        <time>2021-07-20T15:36:05Z</time>
      </trkpt>
      <trkpt lat="45.58425" lon="2.9184">
        <ele>1053.1</ele>
        <time>2021-07-20T15:36:07Z</time>
      </trkpt>
      <trkpt lat="45.58419" lon="2.91837">
        <ele>1052.9</ele>
        <time>2021-07-20T15:36:09Z</time>
      </trkpt>
      <trkpt lat="45.58412" lon="2.91834">
        <ele>1053</ele>
        <time>2021-07-20T15:36:11Z</time>
      </trkpt>
      <trkpt lat="45.58405" lon="2.91831">
        <ele>1053.1</ele>
        <time>2021-07-20T15:36:13Z</time>
      </trkpt>
      <trkpt lat="45.58398" lon="2.91828">
        <ele>1053.2</ele>
        <time>2021-07-20T15:36:15Z</time>
      </trkpt>
      <trkpt lat="45.58391" lon="2.91824">
        <ele>1053.3</ele>
        <time>2021-07-20T15:36:17Z</time>
      </trkpt>
      <trkpt lat="45.58384" lon="2.91821">
        <ele>1053.4</ele>
        <time>2021-07-20T15:36:19Z</time>
      </trkpt>
      <trkpt lat="45.58378" lon="2.91818">
        <ele>1053.5</ele>
        <time>2021-07-20T15:36:21Z</time>
      </trkpt>
      <trkpt lat="45.58371" lon="2.91815">
        <ele>1053.5</ele>
        <time>2021-07-20T15:36:23Z</time>
      </trkpt>
      <trkpt lat="45.58365" lon="2.91813">
        <ele>1053.5</ele>
        <time>2021-07-20T15:36:25Z</time>
      </trkpt>
      <trkpt lat="45.58358" lon="2.9181">
        <ele>1053.5</ele>
        <time>2021-07-20T15:36:27Z</time>
      </trkpt>
      <trkpt lat="45.58351" lon="2.91806">
        <ele>1053.5</ele>
        <time>2021-07-20T15:36:29Z</time>
      </trkpt>
      <trkpt lat="45.58344" lon="2.91803">
        <ele>1053.5</ele>
        <time>2021-07-20T15:36:31Z</time>
      </trkpt>
      <trkpt lat="45.58337" lon="2.91797">
        <ele>1053.5</ele>
        <time>2021-07-20T15:36:33Z</time>
      </trkpt>
      <trkpt lat="45.58331" lon="2.91791">
        <ele>1053.2</ele>
        <time>2021-07-20T15:36:35Z</time>
      </trkpt>
      <trkpt lat="45.58325" lon="2.91786">
        <ele>1052.6</ele>
        <time>2021-07-20T15:36:37Z</time>
      </trkpt>
      <trkpt lat="45.58319" lon="2.91781">
        <ele>1052</ele>
        <time>2021-07-20T15:36:39Z</time>
      </trkpt>
      <trkpt lat="45.58314" lon="2.91775">
        <ele>1051.4</ele>
        <time>2021-07-20T15:36:41Z</time>
      </trkpt>
      <trkpt lat="45.58308" lon="2.9177">
        <ele>1050.6</ele>
        <time>2021-07-20T15:36:43Z</time>
      </trkpt>
      <trkpt lat="45.58302" lon="2.91765">
        <ele>1049.7</ele>
        <time>2021-07-20T15:36:45Z</time>
      </trkpt>
      <trkpt lat="45.58295" lon="2.91763">
        <ele>1048.8</ele>
        <time>2021-07-20T15:36:47Z</time>
      </trkpt>
      <trkpt lat="45.58287" lon="2.91762">
        <ele>1047.7</ele>
        <time>2021-07-20T15:36:49Z</time>
      </trkpt>
      <trkpt lat="45.58279" lon="2.91764">
        <ele>1046.6</ele>
        <time>2021-07-20T15:36:51Z</time>
      </trkpt>
      <trkpt lat="45.58269" lon="2.9177">
        <ele>1045.5</ele>
        <time>2021-07-20T15:36:53Z</time>
      </trkpt>
      <trkpt lat="45.58258" lon="2.91776">
        <ele>1044.5</ele>
        <time>2021-07-20T15:36:55Z</time>
      </trkpt>
      <trkpt lat="45.58247" lon="2.91783">
        <ele>1043.5</ele>
        <time>2021-07-20T15:36:57Z</time>
      </trkpt>
      <trkpt lat="45.58236" lon="2.91791">
        <ele>1041.9</ele>
        <time>2021-07-20T15:36:59Z</time>
      </trkpt>
      <trkpt lat="45.58225" lon="2.91798">
        <ele>1040.6</ele>
        <time>2021-07-20T15:37:01Z</time>
      </trkpt>
      <trkpt lat="45.58215" lon="2.91804">
        <ele>1039.3</ele>
        <time>2021-07-20T15:37:03Z</time>
      </trkpt>
      <trkpt lat="45.58204" lon="2.9181">
        <ele>1038.1</ele>
        <time>2021-07-20T15:37:05Z</time>
      </trkpt>
      <trkpt lat="45.58194" lon="2.91815">
        <ele>1037</ele>
        <time>2021-07-20T15:37:07Z</time>
      </trkpt>
      <trkpt lat="45.58186" lon="2.91819">
        <ele>1036</ele>
        <time>2021-07-20T15:37:09Z</time>
      </trkpt>
      <trkpt lat="45.58179" lon="2.91821">
        <ele>1035.3</ele>
        <time>2021-07-20T15:37:11Z</time>
      </trkpt>
      <trkpt lat="45.58174" lon="2.91825">
        <ele>1035</ele>
        <time>2021-07-20T15:37:13Z</time>
      </trkpt>
      <trkpt lat="45.58168" lon="2.91829">
        <ele>1034.7</ele>
        <time>2021-07-20T15:37:15Z</time>
      </trkpt>
      <trkpt lat="45.58164" lon="2.91831">
        <ele>1034.2</ele>
        <time>2021-07-20T15:37:17Z</time>
      </trkpt>
      <trkpt lat="45.58158" lon="2.91833">
        <ele>1033.5</ele>
        <time>2021-07-20T15:37:19Z</time>
      </trkpt>
      <trkpt lat="45.58154" lon="2.91837">
        <ele>1033.3</ele>
        <time>2021-07-20T15:37:21Z</time>
      </trkpt>
      <trkpt lat="45.58149" lon="2.91839">
        <ele>1032.7</ele>
        <time>2021-07-20T15:37:23Z</time>
      </trkpt>
      <trkpt lat="45.58143" lon="2.9184">
        <ele>1031.8</ele>
        <time>2021-07-20T15:37:25Z</time>
      </trkpt>
      <trkpt lat="45.58137" lon="2.9184">
        <ele>1030.6</ele>
        <time>2021-07-20T15:37:27Z</time>
      </trkpt>
      <trkpt lat="45.58129" lon="2.91841">
        <ele>1029.4</ele>
        <time>2021-07-20T15:37:29Z</time>
      </trkpt>
      <trkpt lat="45.58118" lon="2.91839">
        <ele>1027</ele>
        <time>2021-07-20T15:37:31Z</time>
      </trkpt>
      <trkpt lat="45.58112" lon="2.91836">
        <ele>1025.5</ele>
        <time>2021-07-20T15:37:33Z</time>
      </trkpt>
      <trkpt lat="45.58103" lon="2.91836">
        <ele>1023.9</ele>
        <time>2021-07-20T15:37:35Z</time>
      </trkpt>
      <trkpt lat="45.58094" lon="2.9184">
        <ele>1022.8</ele>
        <time>2021-07-20T15:37:37Z</time>
      </trkpt>
      <trkpt lat="45.58087" lon="2.91845">
        <ele>1022</ele>
        <time>2021-07-20T15:37:39Z</time>
      </trkpt>
      <trkpt lat="45.58083" lon="2.91848">
        <ele>1021.4</ele>
        <time>2021-07-20T15:37:41Z</time>
      </trkpt>
      <trkpt lat="45.58076" lon="2.91851">
        <ele>1019.8</ele>
        <time>2021-07-20T15:37:45Z</time>
      </trkpt>
      <trkpt lat="45.58071" lon="2.91851">
        <ele>1018.5</ele>
        <time>2021-07-20T15:37:49Z</time>
      </trkpt>
      <trkpt lat="45.58063" lon="2.91847">
        <ele>1015.8</ele>
        <time>2021-07-20T15:37:53Z</time>
      </trkpt>
      <trkpt lat="45.5806" lon="2.91842">
        <ele>1014.4</ele>
        <time>2021-07-20T15:37:55Z</time>
      </trkpt>
      <trkpt lat="45.58056" lon="2.91836">
        <ele>1012.6</ele>
        <time>2021-07-20T15:37:57Z</time>
      </trkpt>
      <trkpt lat="45.58053" lon="2.91827">
        <ele>1010.7</ele>
        <time>2021-07-20T15:38:01Z</time>
      </trkpt>
      <trkpt lat="45.58047" lon="2.91816">
        <ele>1008.1</ele>
        <time>2021-07-20T15:38:05Z</time>
      </trkpt>
      <trkpt lat="45.5804" lon="2.91808">
        <ele>1005.5</ele>
        <time>2021-07-20T15:38:09Z</time>
      </trkpt>
      <trkpt lat="45.58034" lon="2.91803">
        <ele>1003.4</ele>
        <time>2021-07-20T15:38:11Z</time>
      </trkpt>
      <trkpt lat="45.5803" lon="2.91797">
        <ele>1001.7</ele>
        <time>2021-07-20T15:38:13Z</time>
      </trkpt>
      <trkpt lat="45.58025" lon="2.9179">
        <ele>999.8</ele>
        <time>2021-07-20T15:38:15Z</time>
      </trkpt>
      <trkpt lat="45.58023" lon="2.91783">
        <ele>998.7</ele>
        <time>2021-07-20T15:38:17Z</time>
      </trkpt>
      <trkpt lat="45.58019" lon="2.91774">
        <ele>997</ele>
        <time>2021-07-20T15:38:19Z</time>
      </trkpt>
      <trkpt lat="45.58012" lon="2.91768">
        <ele>994.9</ele>
        <time>2021-07-20T15:38:21Z</time>
      </trkpt>
      <trkpt lat="45.58006" lon="2.91767">
        <ele>993.5</ele>
        <time>2021-07-20T15:38:23Z</time>
      </trkpt>
      <trkpt lat="45.58" lon="2.91768">
        <ele>992.4</ele>
        <time>2021-07-20T15:38:25Z</time>
      </trkpt>
      <trkpt lat="45.57995" lon="2.9177">
        <ele>991.2</ele>
        <time>2021-07-20T15:38:27Z</time>
      </trkpt>
      <trkpt lat="45.57989" lon="2.91772">
        <ele>990</ele>
        <time>2021-07-20T15:38:29Z</time>
      </trkpt>
      <trkpt lat="45.57984" lon="2.91773">
        <ele>989</ele>
        <time>2021-07-20T15:38:31Z</time>
      </trkpt>
      <trkpt lat="45.57979" lon="2.91774">
        <ele>987.7</ele>
        <time>2021-07-20T15:38:33Z</time>
      </trkpt>
      <trkpt lat="45.57973" lon="2.91772">
        <ele>986.3</ele>
        <time>2021-07-20T15:38:35Z</time>
      </trkpt>
      <trkpt lat="45.57968" lon="2.91769">
        <ele>985</ele>
        <time>2021-07-20T15:38:37Z</time>
      </trkpt>
      <trkpt lat="45.5796" lon="2.91762">
        <ele>982.7</ele>
        <time>2021-07-20T15:38:41Z</time>
      </trkpt>
      <trkpt lat="45.57956" lon="2.91757">
        <ele>981.5</ele>
        <time>2021-07-20T15:38:43Z</time>
      </trkpt>
      <trkpt lat="45.57952" lon="2.91752">
        <ele>980.1</ele>
        <time>2021-07-20T15:38:45Z</time>
      </trkpt>
      <trkpt lat="45.57947" lon="2.91747">
        <ele>978.6</ele>
        <time>2021-07-20T15:38:47Z</time>
      </trkpt>
      <trkpt lat="45.57941" lon="2.91742">
        <ele>976.8</ele>
        <time>2021-07-20T15:38:49Z</time>
      </trkpt>
      <trkpt lat="45.57933" lon="2.91736">
        <ele>974.7</ele>
        <time>2021-07-20T15:38:51Z</time>
      </trkpt>
      <trkpt lat="45.57929" lon="2.91732">
        <ele>973.5</ele>
        <time>2021-07-20T15:38:53Z</time>
      </trkpt>
      <trkpt lat="45.57924" lon="2.91726">
        <ele>971.8</ele>
        <time>2021-07-20T15:38:55Z</time>
      </trkpt>
      <trkpt lat="45.57917" lon="2.91719">
        <ele>969.8</ele>
        <time>2021-07-20T15:38:57Z</time>
      </trkpt>
      <trkpt lat="45.57914" lon="2.91711">
        <ele>968.8</ele>
        <time>2021-07-20T15:38:59Z</time>
      </trkpt>
      <trkpt lat="45.57914" lon="2.91703">
        <ele>968.2</ele>
        <time>2021-07-20T15:39:01Z</time>
      </trkpt>
      <trkpt lat="45.57914" lon="2.91695">
        <ele>967.7</ele>
        <time>2021-07-20T15:39:03Z</time>
      </trkpt>
      <trkpt lat="45.57915" lon="2.91687">
        <ele>967.2</ele>
        <time>2021-07-20T15:39:05Z</time>
      </trkpt>
      <trkpt lat="45.57915" lon="2.91677">
        <ele>966.6</ele>
        <time>2021-07-20T15:39:07Z</time>
      </trkpt>
      <trkpt lat="45.57915" lon="2.91667">
        <ele>965.8</ele>
        <time>2021-07-20T15:39:09Z</time>
      </trkpt>
      <trkpt lat="45.57912" lon="2.91658">
        <ele>964.7</ele>
        <time>2021-07-20T15:39:11Z</time>
      </trkpt>
      <trkpt lat="45.57908" lon="2.91648">
        <ele>963.4</ele>
        <time>2021-07-20T15:39:13Z</time>
      </trkpt>
      <trkpt lat="45.57902" lon="2.91641">
        <ele>962.2</ele>
        <time>2021-07-20T15:39:15Z</time>
      </trkpt>
      <trkpt lat="45.57894" lon="2.91639">
        <ele>961.5</ele>
        <time>2021-07-20T15:39:17Z</time>
      </trkpt>
      <trkpt lat="45.57887" lon="2.91641">
        <ele>961</ele>
        <time>2021-07-20T15:39:19Z</time>
      </trkpt>
      <trkpt lat="45.57879" lon="2.91643">
        <ele>960.4</ele>
        <time>2021-07-20T15:39:21Z</time>
      </trkpt>
      <trkpt lat="45.57869" lon="2.91644">
        <ele>959.6</ele>
        <time>2021-07-20T15:39:23Z</time>
      </trkpt>
      <trkpt lat="45.57864" lon="2.9165">
        <ele>959.5</ele>
        <time>2021-07-20T15:39:25Z</time>
      </trkpt>
      <trkpt lat="45.57861" lon="2.9166">
        <ele>959.7</ele>
        <time>2021-07-20T15:39:29Z</time>
      </trkpt>
      <trkpt lat="45.57859" lon="2.91667">
        <ele>959.8</ele>
        <time>2021-07-20T15:41:33Z</time>
      </trkpt>
      <trkpt lat="45.57855" lon="2.91671">
        <ele>959.4</ele>
        <time>2021-07-20T15:41:39Z</time>
      </trkpt>
      <trkpt lat="45.57856" lon="2.91679">
        <ele>959.7</ele>
        <time>2021-07-20T15:43:03Z</time>
      </trkpt>
      <trkpt lat="45.57859" lon="2.91692">
        <ele>960.4</ele>
        <time>2021-07-20T15:43:07Z</time>
      </trkpt>
      <trkpt lat="45.57858" lon="2.91702">
        <ele>960.5</ele>
        <time>2021-07-20T15:43:09Z</time>
      </trkpt>
      <trkpt lat="45.57855" lon="2.91712">
        <ele>960.3</ele>
        <time>2021-07-20T15:43:11Z</time>
      </trkpt>
      <trkpt lat="45.57851" lon="2.91721">
        <ele>959.7</ele>
        <time>2021-07-20T15:43:13Z</time>
      </trkpt>
      <trkpt lat="45.57845" lon="2.9173">
        <ele>958.9</ele>
        <time>2021-07-20T15:43:15Z</time>
      </trkpt>
      <trkpt lat="45.57838" lon="2.91742">
        <ele>957.7</ele>
        <time>2021-07-20T15:43:17Z</time>
      </trkpt>
      <trkpt lat="45.57829" lon="2.91753">
        <ele>956.8</ele>
        <time>2021-07-20T15:43:19Z</time>
      </trkpt>
      <trkpt lat="45.57819" lon="2.91764">
        <ele>956.2</ele>
        <time>2021-07-20T15:43:21Z</time>
      </trkpt>
      <trkpt lat="45.5781" lon="2.91775">
        <ele>955.7</ele>
        <time>2021-07-20T15:43:23Z</time>
      </trkpt>
      <trkpt lat="45.57803" lon="2.91787">
        <ele>955.2</ele>
        <time>2021-07-20T15:43:25Z</time>
      </trkpt>
      <trkpt lat="45.57798" lon="2.918">
        <ele>954.7</ele>
        <time>2021-07-20T15:43:27Z</time>
      </trkpt>
      <trkpt lat="45.57795" lon="2.91813">
        <ele>954.4</ele>
        <time>2021-07-20T15:43:29Z</time>
      </trkpt>
      <trkpt lat="45.57793" lon="2.91826">
        <ele>954.2</ele>
        <time>2021-07-20T15:43:31Z</time>
      </trkpt>
      <trkpt lat="45.57792" lon="2.91839">
        <ele>954</ele>
        <time>2021-07-20T15:43:33Z</time>
      </trkpt>
      <trkpt lat="45.57791" lon="2.91851">
        <ele>954</ele>
        <time>2021-07-20T15:43:35Z</time>
      </trkpt>
      <trkpt lat="45.57788" lon="2.91865">
        <ele>953.8</ele>
        <time>2021-07-20T15:43:37Z</time>
      </trkpt>
      <trkpt lat="45.57784" lon="2.91878">
        <ele>953.3</ele>
        <time>2021-07-20T15:43:39Z</time>
      </trkpt>
      <trkpt lat="45.57779" lon="2.91892">
        <ele>952.6</ele>
        <time>2021-07-20T15:43:41Z</time>
      </trkpt>
      <trkpt lat="45.57774" lon="2.91906">
        <ele>951.9</ele>
        <time>2021-07-20T15:43:43Z</time>
      </trkpt>
      <trkpt lat="45.5777" lon="2.91918">
        <ele>951</ele>
        <time>2021-07-20T15:43:45Z</time>
      </trkpt>
      <trkpt lat="45.57764" lon="2.91931">
        <ele>949.6</ele>
        <time>2021-07-20T15:43:47Z</time>
      </trkpt>
      <trkpt lat="45.57761" lon="2.91943">
        <ele>948.4</ele>
        <time>2021-07-20T15:43:49Z</time>
      </trkpt>
      <trkpt lat="45.57755" lon="2.91956">
        <ele>946.7</ele>
        <time>2021-07-20T15:43:51Z</time>
      </trkpt>
      <trkpt lat="45.5775" lon="2.91969">
        <ele>944.9</ele>
        <time>2021-07-20T15:43:53Z</time>
      </trkpt>
      <trkpt lat="45.57745" lon="2.91982">
        <ele>944.2</ele>
        <time>2021-07-20T15:43:55Z</time>
      </trkpt>
      <trkpt lat="45.5774" lon="2.91994">
        <ele>943.5</ele>
        <time>2021-07-20T15:43:57Z</time>
      </trkpt>
      <trkpt lat="45.57735" lon="2.92006">
        <ele>943.1</ele>
        <time>2021-07-20T15:43:59Z</time>
      </trkpt>
      <trkpt lat="45.57729" lon="2.92019">
        <ele>942.7</ele>
        <time>2021-07-20T15:44:01Z</time>
      </trkpt>
      <trkpt lat="45.57722" lon="2.92034">
        <ele>942.1</ele>
        <time>2021-07-20T15:44:03Z</time>
      </trkpt>
      <trkpt lat="45.57714" lon="2.92047">
        <ele>941.3</ele>
        <time>2021-07-20T15:44:05Z</time>
      </trkpt>
      <trkpt lat="45.57706" lon="2.9206">
        <ele>940.1</ele>
        <time>2021-07-20T15:44:07Z</time>
      </trkpt>
      <trkpt lat="45.57697" lon="2.92073">
        <ele>938.6</ele>
        <time>2021-07-20T15:44:09Z</time>
      </trkpt>
      <trkpt lat="45.57689" lon="2.92087">
        <ele>937</ele>
        <time>2021-07-20T15:44:11Z</time>
      </trkpt>
      <trkpt lat="45.57681" lon="2.92101">
        <ele>935.2</ele>
        <time>2021-07-20T15:44:13Z</time>
      </trkpt>
      <trkpt lat="45.57672" lon="2.92117">
        <ele>932.6</ele>
        <time>2021-07-20T15:44:15Z</time>
      </trkpt>
      <trkpt lat="45.57663" lon="2.92134">
        <ele>930.3</ele>
        <time>2021-07-20T15:44:17Z</time>
      </trkpt>
      <trkpt lat="45.57653" lon="2.92151">
        <ele>929.1</ele>
        <time>2021-07-20T15:44:19Z</time>
      </trkpt>
      <trkpt lat="45.57642" lon="2.92171">
        <ele>928</ele>
        <time>2021-07-20T15:44:21Z</time>
      </trkpt>
      <trkpt lat="45.57629" lon="2.92192">
        <ele>927.1</ele>
        <time>2021-07-20T15:44:23Z</time>
      </trkpt>
      <trkpt lat="45.57616" lon="2.92212">
        <ele>925.6</ele>
        <time>2021-07-20T15:44:25Z</time>
      </trkpt>
      <trkpt lat="45.57604" lon="2.9223">
        <ele>923.5</ele>
        <time>2021-07-20T15:44:27Z</time>
      </trkpt>
      <trkpt lat="45.57593" lon="2.92249">
        <ele>920.8</ele>
        <time>2021-07-20T15:44:29Z</time>
      </trkpt>
      <trkpt lat="45.57584" lon="2.92266">
        <ele>918.7</ele>
        <time>2021-07-20T15:44:31Z</time>
      </trkpt>
      <trkpt lat="45.57576" lon="2.92283">
        <ele>917.3</ele>
        <time>2021-07-20T15:44:33Z</time>
      </trkpt>
      <trkpt lat="45.57566" lon="2.92298">
        <ele>916</ele>
        <time>2021-07-20T15:44:35Z</time>
      </trkpt>
      <trkpt lat="45.57553" lon="2.92312">
        <ele>914.4</ele>
        <time>2021-07-20T15:44:37Z</time>
      </trkpt>
      <trkpt lat="45.5754" lon="2.92324">
        <ele>912.6</ele>
        <time>2021-07-20T15:44:39Z</time>
      </trkpt>
      <trkpt lat="45.57528" lon="2.92335">
        <ele>910.9</ele>
        <time>2021-07-20T15:44:41Z</time>
      </trkpt>
      <trkpt lat="45.5752" lon="2.92343">
        <ele>910.4</ele>
        <time>2021-07-20T15:44:43Z</time>
      </trkpt>
      <trkpt lat="45.57513" lon="2.92349">
        <ele>910</ele>
        <time>2021-07-20T15:44:45Z</time>
      </trkpt>
      <trkpt lat="45.5751" lon="2.92353">
        <ele>909.8</ele>
        <time>2021-07-20T15:44:47Z</time>
      </trkpt>
      <trkpt lat="45.57505" lon="2.92359">
        <ele>909.5</ele>
        <time>2021-07-20T15:44:51Z</time>
      </trkpt>
      <trkpt lat="45.57511" lon="2.92363">
        <ele>909.5</ele>
        <time>2021-07-20T15:44:59Z</time>
      </trkpt>
      <trkpt lat="45.57516" lon="2.92368">
        <ele>909.5</ele>
        <time>2021-07-20T15:45:03Z</time>
      </trkpt>
      <trkpt lat="45.57522" lon="2.92375">
        <ele>909.4</ele>
        <time>2021-07-20T15:45:33Z</time>
      </trkpt>
      <trkpt lat="45.5753" lon="2.92381">
        <ele>909.3</ele>
        <time>2021-07-20T15:45:37Z</time>
      </trkpt>
      <trkpt lat="45.57534" lon="2.92384">
        <ele>909.2</ele>
        <time>2021-07-20T15:45:39Z</time>
      </trkpt>
      <trkpt lat="45.57538" lon="2.9239">
        <ele>909.1</ele>
        <time>2021-07-20T15:45:41Z</time>
      </trkpt>
      <trkpt lat="45.57541" lon="2.92397">
        <ele>908.8</ele>
        <time>2021-07-20T15:45:43Z</time>
      </trkpt>
      <trkpt lat="45.57543" lon="2.92406">
        <ele>908.4</ele>
        <time>2021-07-20T15:45:45Z</time>
      </trkpt>
      <trkpt lat="45.57544" lon="2.92415">
        <ele>908.1</ele>
        <time>2021-07-20T15:45:47Z</time>
      </trkpt>
      <trkpt lat="45.57544" lon="2.92422">
        <ele>908</ele>
        <time>2021-07-20T15:45:49Z</time>
      </trkpt>
      <trkpt lat="45.57542" lon="2.92416">
        <ele>908</ele>
        <time>2021-07-20T15:46:19Z</time>
      </trkpt>
      <trkpt lat="45.5754" lon="2.92409">
        <ele>908.3</ele>
        <time>2021-07-20T15:46:25Z</time>
      </trkpt>
      <trkpt lat="45.57538" lon="2.92402">
        <ele>908.6</ele>
        <time>2021-07-20T15:46:29Z</time>
      </trkpt>
      <trkpt lat="45.57536" lon="2.92395">
        <ele>908.8</ele>
        <time>2021-07-20T15:46:33Z</time>
      </trkpt>
      <trkpt lat="45.57533" lon="2.92388">
        <ele>909.1</ele>
        <time>2021-07-20T15:46:39Z</time>
      </trkpt>
      <trkpt lat="45.57527" lon="2.92379">
        <ele>909.3</ele>
        <time>2021-07-20T15:46:43Z</time>
      </trkpt>
      <trkpt lat="45.57521" lon="2.92373">
        <ele>909.4</ele>
        <time>2021-07-20T15:46:45Z</time>
      </trkpt>
      <trkpt lat="45.57516" lon="2.92366">
        <ele>909.6</ele>
        <time>2021-07-20T15:46:47Z</time>
      </trkpt>
      <trkpt lat="45.5751" lon="2.92362">
        <ele>909.5</ele>
        <time>2021-07-20T15:46:49Z</time>
      </trkpt>
      <trkpt lat="45.57505" lon="2.9236">
        <ele>909.5</ele>
        <time>2021-07-20T15:46:51Z</time>
      </trkpt>
      <trkpt lat="45.57503" lon="2.92367">
        <ele>909.3</ele>
        <time>2021-07-20T15:46:57Z</time>
      </trkpt>
      <trkpt lat="45.575" lon="2.9238">
        <ele>908.9</ele>
        <time>2021-07-20T15:47:01Z</time>
      </trkpt>
      <trkpt lat="45.57497" lon="2.92386">
        <ele>908</ele>
        <time>2021-07-20T15:47:03Z</time>
      </trkpt>
      <trkpt lat="45.57491" lon="2.92387">
        <ele>906.6</ele>
        <time>2021-07-20T15:47:05Z</time>
      </trkpt>
      <trkpt lat="45.57485" lon="2.92385">
        <ele>905.2</ele>
        <time>2021-07-20T15:47:07Z</time>
      </trkpt>
      <trkpt lat="45.5748" lon="2.92383">
        <ele>904.2</ele>
        <time>2021-07-20T15:47:09Z</time>
      </trkpt>
      <trkpt lat="45.57472" lon="2.92378">
        <ele>902.3</ele>
        <time>2021-07-20T15:47:13Z</time>
      </trkpt>
      <trkpt lat="45.57463" lon="2.92378">
        <ele>900</ele>
        <time>2021-07-20T15:47:17Z</time>
      </trkpt>
      <trkpt lat="45.57451" lon="2.92374">
        <ele>897.4</ele>
        <time>2021-07-20T15:47:21Z</time>
      </trkpt>
      <trkpt lat="45.57441" lon="2.92376">
        <ele>894.9</ele>
        <time>2021-07-20T15:47:23Z</time>
      </trkpt>
      <trkpt lat="45.57436" lon="2.92375">
        <ele>893.6</ele>
        <time>2021-07-20T15:47:25Z</time>
      </trkpt>
      <trkpt lat="45.57429" lon="2.92378">
        <ele>891.9</ele>
        <time>2021-07-20T15:47:29Z</time>
      </trkpt>
      <trkpt lat="45.57423" lon="2.92378">
        <ele>890.6</ele>
        <time>2021-07-20T15:47:33Z</time>
      </trkpt>
      <trkpt lat="45.57419" lon="2.92377">
        <ele>889.5</ele>
        <time>2021-07-20T15:47:45Z</time>
      </trkpt>
      <trkpt lat="45.57414" lon="2.92377">
        <ele>888.6</ele>
        <time>2021-07-20T15:47:55Z</time>
      </trkpt>
      <trkpt lat="45.5741" lon="2.92376">
        <ele>887.9</ele>
        <time>2021-07-20T15:48:01Z</time>
      </trkpt>
      <trkpt lat="45.57405" lon="2.92374">
        <ele>887.1</ele>
        <time>2021-07-20T15:48:17Z</time>
      </trkpt>
      <trkpt lat="45.57401" lon="2.92373">
        <ele>886.4</ele>
        <time>2021-07-20T15:48:37Z</time>
      </trkpt>
      <trkpt lat="45.57396" lon="2.92372">
        <ele>885.6</ele>
        <time>2021-07-20T15:48:45Z</time>
      </trkpt>
      <trkpt lat="45.57391" lon="2.9237">
        <ele>884.8</ele>
        <time>2021-07-20T15:48:55Z</time>
      </trkpt>
      <trkpt lat="45.57386" lon="2.92371">
        <ele>884</ele>
        <time>2021-07-20T15:49:07Z</time>
      </trkpt>
      <trkpt lat="45.57381" lon="2.92373">
        <ele>883.3</ele>
        <time>2021-07-20T15:49:19Z</time>
      </trkpt>
      <trkpt lat="45.57377" lon="2.92367">
        <ele>882.6</ele>
        <time>2021-07-20T15:49:49Z</time>
      </trkpt>
      <trkpt lat="45.57372" lon="2.92365">
        <ele>881.6</ele>
        <time>2021-07-20T15:49:55Z</time>
      </trkpt>
      <trkpt lat="45.57366" lon="2.92367">
        <ele>880.7</ele>
        <time>2021-07-20T15:50:01Z</time>
      </trkpt>
      <trkpt lat="45.57364" lon="2.92373">
        <ele>880.5</ele>
        <time>2021-07-20T15:50:07Z</time>
      </trkpt>
      <trkpt lat="45.57363" lon="2.92381">
        <ele>880.3</ele>
        <time>2021-07-20T15:50:19Z</time>
      </trkpt>
      <trkpt lat="45.57364" lon="2.92392">
        <ele>880.6</ele>
        <time>2021-07-20T15:50:23Z</time>
      </trkpt>
      <trkpt lat="45.57364" lon="2.92404">
        <ele>880.7</ele>
        <time>2021-07-20T15:50:27Z</time>
      </trkpt>
      <trkpt lat="45.57364" lon="2.92415">
        <ele>880.8</ele>
        <time>2021-07-20T15:50:31Z</time>
      </trkpt>
      <trkpt lat="45.57364" lon="2.92427">
        <ele>881</ele>
        <time>2021-07-20T15:50:35Z</time>
      </trkpt>
      <trkpt lat="45.57363" lon="2.92436">
        <ele>881.1</ele>
        <time>2021-07-20T15:50:39Z</time>
      </trkpt>
      <trkpt lat="45.57363" lon="2.92444">
        <ele>881.3</ele>
        <time>2021-07-20T15:50:59Z</time>
      </trkpt>
      <trkpt lat="45.57363" lon="2.92458">
        <ele>881.5</ele>
        <time>2021-07-20T15:51:03Z</time>
      </trkpt>
      <trkpt lat="45.57362" lon="2.92467">
        <ele>881.6</ele>
        <time>2021-07-20T15:51:05Z</time>
      </trkpt>
      <trkpt lat="45.57361" lon="2.92475">
        <ele>881.8</ele>
        <time>2021-07-20T15:51:07Z</time>
      </trkpt>
      <trkpt lat="45.57362" lon="2.92482">
        <ele>882</ele>
        <time>2021-07-20T15:51:09Z</time>
      </trkpt>
      <trkpt lat="45.57363" lon="2.92491">
        <ele>882.3</ele>
        <time>2021-07-20T15:51:13Z</time>
      </trkpt>
      <trkpt lat="45.57362" lon="2.92499">
        <ele>882.4</ele>
        <time>2021-07-20T15:51:19Z</time>
      </trkpt>
      <trkpt lat="45.57367" lon="2.92501">
        <ele>883</ele>
        <time>2021-07-20T15:51:39Z</time>
      </trkpt>
      <trkpt lat="45.57367" lon="2.92509">
        <ele>883.2</ele>
        <time>2021-07-20T15:54:07Z</time>
      </trkpt>
      <trkpt lat="45.57369" lon="2.92516">
        <ele>883.5</ele>
        <time>2021-07-20T15:54:11Z</time>
      </trkpt>
      <trkpt lat="45.57371" lon="2.92523">
        <ele>883.8</ele>
        <time>2021-07-20T15:54:15Z</time>
      </trkpt>
      <trkpt lat="45.57372" lon="2.92532">
        <ele>884.1</ele>
        <time>2021-07-20T15:54:21Z</time>
      </trkpt>
      <trkpt lat="45.57378" lon="2.92533">
        <ele>884.8</ele>
        <time>2021-07-20T15:54:27Z</time>
      </trkpt>
      <trkpt lat="45.57383" lon="2.92533">
        <ele>885.3</ele>
        <time>2021-07-20T15:54:31Z</time>
      </trkpt>
      <trkpt lat="45.57388" lon="2.92531">
        <ele>885.9</ele>
        <time>2021-07-20T15:54:39Z</time>
      </trkpt>
      <trkpt lat="45.57391" lon="2.92524">
        <ele>886.1</ele>
        <time>2021-07-20T15:54:45Z</time>
      </trkpt>
      <trkpt lat="45.57392" lon="2.92518">
        <ele>886.1</ele>
        <time>2021-07-20T15:54:51Z</time>
      </trkpt>
      <trkpt lat="45.57393" lon="2.92511">
        <ele>886.2</ele>
        <time>2021-07-20T15:54:57Z</time>
      </trkpt>
      <trkpt lat="45.57397" lon="2.92507">
        <ele>886.7</ele>
        <time>2021-07-20T15:55:05Z</time>
      </trkpt>
      <trkpt lat="45.574" lon="2.92512">
        <ele>887.1</ele>
        <time>2021-07-20T15:55:13Z</time>
      </trkpt>
      <trkpt lat="45.57402" lon="2.9252">
        <ele>887.4</ele>
        <time>2021-07-20T15:55:21Z</time>
      </trkpt>
      <trkpt lat="45.57405" lon="2.92526">
        <ele>887.6</ele>
        <time>2021-07-20T15:55:27Z</time>
      </trkpt>
      <trkpt lat="45.57408" lon="2.9253">
        <ele>888</ele>
        <time>2021-07-20T15:55:33Z</time>
      </trkpt>
      <trkpt lat="45.57411" lon="2.92524">
        <ele>888.4</ele>
        <time>2021-07-20T15:55:43Z</time>
      </trkpt>
      <trkpt lat="45.57411" lon="2.92517">
        <ele>888.3</ele>
        <time>2021-07-20T15:55:49Z</time>
      </trkpt>
      <trkpt lat="45.5741" lon="2.92509">
        <ele>888.2</ele>
        <time>2021-07-20T15:55:57Z</time>
      </trkpt>
      <trkpt lat="45.5741" lon="2.92502">
        <ele>888.2</ele>
        <time>2021-07-20T15:56:05Z</time>
      </trkpt>
    </trkseg>
  </trk>
</gpx>